﻿<?xml version="1.0" encoding="utf-8"?><gpx creator="Garmin Desktop App" version="1.1" xsi:schemaLocation="http://www.topografix.com/GPX/1/1 http://www.topografix.com/GPX/1/1/gpx.xsd http://www.garmin.com/xmlschemas/WaypointExtension/v1 http://www8.garmin.com/xmlschemas/WaypointExtensionv1.xsd http://www.garmin.com/xmlschemas/TrackPointExtension/v1 http://www.garmin.com/xmlschemas/TrackPointExtensionv1.xsd http://www.garmin.com/xmlschemas/GpxExtensions/v3 http://www8.garmin.com/xmlschemas/GpxExtensionsv3.xsd http://www.garmin.com/xmlschemas/ActivityExtension/v1 http://www8.garmin.com/xmlschemas/ActivityExtensionv1.xsd http://www.garmin.com/xmlschemas/AdventuresExtensions/v1 http://www8.garmin.com/xmlschemas/AdventuresExtensionv1.xsd http://www.garmin.com/xmlschemas/PressureExtension/v1 http://www.garmin.com/xmlschemas/PressureExtensionv1.xsd http://www.garmin.com/xmlschemas/TripExtensions/v1 http://www.garmin.com/xmlschemas/TripExtensionsv1.xsd http://www.garmin.com/xmlschemas/TripMetaDataExtensions/v1 http://www.garmin.com/xmlschemas/TripMetaDataExtensionsv1.xsd http://www.garmin.com/xmlschemas/ViaPointTransportationModeExtensions/v1 http://www.garmin.com/xmlschemas/ViaPointTransportationModeExtensionsv1.xsd http://www.garmin.com/xmlschemas/CreationTimeExtension/v1 http://www.garmin.com/xmlschemas/CreationTimeExtensionsv1.xsd http://www.garmin.com/xmlschemas/AccelerationExtension/v1 http://www.garmin.com/xmlschemas/AccelerationExtensionv1.xsd http://www.garmin.com/xmlschemas/PowerExtension/v1 http://www.garmin.com/xmlschemas/PowerExtensionv1.xsd http://www.garmin.com/xmlschemas/VideoExtension/v1 http://www.garmin.com/xmlschemas/VideoExtensionv1.xsd" xmlns="http://www.topografix.com/GPX/1/1" xmlns:xsi="http://www.w3.org/2001/XMLSchema-instance" xmlns:wptx1="http://www.garmin.com/xmlschemas/WaypointExtension/v1" xmlns:gpxtrx="http://www.garmin.com/xmlschemas/GpxExtensions/v3" xmlns:gpxtpx="http://www.garmin.com/xmlschemas/TrackPointExtension/v1" xmlns:gpxx="http://www.garmin.com/xmlschemas/GpxExtensions/v3" xmlns:trp="http://www.garmin.com/xmlschemas/TripExtensions/v1" xmlns:adv="http://www.garmin.com/xmlschemas/AdventuresExtensions/v1" xmlns:prs="http://www.garmin.com/xmlschemas/PressureExtension/v1" xmlns:tmd="http://www.garmin.com/xmlschemas/TripMetaDataExtensions/v1" xmlns:vptm="http://www.garmin.com/xmlschemas/ViaPointTransportationModeExtensions/v1" xmlns:ctx="http://www.garmin.com/xmlschemas/CreationTimeExtension/v1" xmlns:gpxacc="http://www.garmin.com/xmlschemas/AccelerationExtension/v1" xmlns:gpxpx="http://www.garmin.com/xmlschemas/PowerExtension/v1" xmlns:vidx1="http://www.garmin.com/xmlschemas/VideoExtension/v1">

  <metadata>
    <link href="http://www.garmin.com">
      <text>Garmin International</text>
    </link>
    <time>2024-09-13T14:10:23Z</time>
    <bounds maxlat="53.626974010840058" maxlon="12.084806961938739" minlat="52.519915960729122" minlon="11.202063979580998" />
  </metadata>

  <trk>
    <name>Track 240913</name>
    <extensions>
      <gpxx:TrackExtension>
        <gpxx:DisplayColor>DarkGray</gpxx:DisplayColor>
      </gpxx:TrackExtension>
    </extensions>
    <trkseg>
      <trkpt lat="52.605857960879803" lon="11.861881026998162">
        <ele>39.07</ele>
        <time>2024-09-13T07:05:34Z</time>
      </trkpt>
      <trkpt lat="52.605859972536564" lon="11.861875997856259">
        <ele>38.590000000000003</ele>
        <time>2024-09-13T07:06:29Z</time>
      </trkpt>
      <trkpt lat="52.605865001678467" lon="11.861869962885976">
        <ele>38.590000000000003</ele>
        <time>2024-09-13T07:07:19Z</time>
      </trkpt>
      <trkpt lat="52.605883022770286" lon="11.861857976764441">
        <ele>38.590000000000003</ele>
        <time>2024-09-13T07:08:03Z</time>
      </trkpt>
      <trkpt lat="52.605924010276794" lon="11.861699977889657">
        <ele>36.189999999999998</ele>
        <time>2024-09-13T07:08:07Z</time>
      </trkpt>
      <trkpt lat="52.605890985578299" lon="11.861541979014874">
        <ele>31.859999999999999</ele>
        <time>2024-09-13T07:08:16Z</time>
      </trkpt>
      <trkpt lat="52.605954017490149" lon="11.861418010666966">
        <ele>28.02</ele>
        <time>2024-09-13T07:08:25Z</time>
      </trkpt>
      <trkpt lat="52.605932978913188" lon="11.861580032855272">
        <ele>26.57</ele>
        <time>2024-09-13T07:08:29Z</time>
      </trkpt>
      <trkpt lat="52.605952005833387" lon="11.861625965684652">
        <ele>26.09</ele>
        <time>2024-09-13T07:08:30Z</time>
      </trkpt>
      <trkpt lat="52.605972960591316" lon="11.861676005646586">
        <ele>25.609999999999999</ele>
        <time>2024-09-13T07:08:31Z</time>
      </trkpt>
      <trkpt lat="52.606147974729538" lon="11.862405985593796">
        <ele>22.25</ele>
        <time>2024-09-13T07:08:43Z</time>
      </trkpt>
      <trkpt lat="52.606167001649737" lon="11.862499024719">
        <ele>22.25</ele>
        <time>2024-09-13T07:08:44Z</time>
      </trkpt>
      <trkpt lat="52.606185022741556" lon="11.862584017217159">
        <ele>22.25</ele>
        <time>2024-09-13T07:08:45Z</time>
      </trkpt>
      <trkpt lat="52.606207989156246" lon="11.862661968916655">
        <ele>22.25</ele>
        <time>2024-09-13T07:08:46Z</time>
      </trkpt>
      <trkpt lat="52.606232967227697" lon="11.862742016091943">
        <ele>22.25</ele>
        <time>2024-09-13T07:08:47Z</time>
      </trkpt>
      <trkpt lat="52.606259034946561" lon="11.86282298527658">
        <ele>22.25</ele>
        <time>2024-09-13T07:08:48Z</time>
      </trkpt>
      <trkpt lat="52.606284013018012" lon="11.862904960289598">
        <ele>22.25</ele>
        <time>2024-09-13T07:08:49Z</time>
      </trkpt>
      <trkpt lat="52.606309996917844" lon="11.862986013293266">
        <ele>22.25</ele>
        <time>2024-09-13T07:08:50Z</time>
      </trkpt>
      <trkpt lat="52.606335980817676" lon="11.863069999963045">
        <ele>22.25</ele>
        <time>2024-09-13T07:08:51Z</time>
      </trkpt>
      <trkpt lat="52.606361964717507" lon="11.863153986632824">
        <ele>22.25</ele>
        <time>2024-09-13T07:08:52Z</time>
      </trkpt>
      <trkpt lat="52.606388032436371" lon="11.863235961645842">
        <ele>22.25</ele>
        <time>2024-09-13T07:08:53Z</time>
      </trkpt>
      <trkpt lat="52.606402030214667" lon="11.863281978294253">
        <ele>22.25</ele>
        <time>2024-09-13T07:08:54Z</time>
      </trkpt>
      <trkpt lat="52.606461038812995" lon="11.863354984670877">
        <ele>22.25</ele>
        <time>2024-09-13T07:08:55Z</time>
      </trkpt>
      <trkpt lat="52.606505965813994" lon="11.863411981612444">
        <ele>22.73</ele>
        <time>2024-09-13T07:08:56Z</time>
      </trkpt>
      <trkpt lat="52.606550976634026" lon="11.863466966897249">
        <ele>23.210000000000001</ele>
        <time>2024-09-13T07:08:57Z</time>
      </trkpt>
      <trkpt lat="52.606595987454057" lon="11.863524969667196">
        <ele>23.210000000000001</ele>
        <time>2024-09-13T07:08:58Z</time>
      </trkpt>
      <trkpt lat="52.606639992445707" lon="11.863580038771033">
        <ele>23.690000000000001</ele>
        <time>2024-09-13T07:08:59Z</time>
      </trkpt>
      <trkpt lat="52.606686009094119" lon="11.8636370357126">
        <ele>23.690000000000001</ele>
        <time>2024-09-13T07:09:00Z</time>
      </trkpt>
      <trkpt lat="52.606732025742531" lon="11.863694032654166">
        <ele>24.170000000000002</ele>
        <time>2024-09-13T07:09:01Z</time>
      </trkpt>
      <trkpt lat="52.60677401907742" lon="11.863820012658834">
        <ele>24.649999999999999</ele>
        <time>2024-09-13T07:09:02Z</time>
      </trkpt>
      <trkpt lat="52.606843002140522" lon="11.864084964618087">
        <ele>25.609999999999999</ele>
        <time>2024-09-13T07:09:09Z</time>
      </trkpt>
      <trkpt lat="52.606843002140522" lon="11.864084964618087">
        <ele>25.609999999999999</ele>
        <time>2024-09-13T07:09:25Z</time>
      </trkpt>
      <trkpt lat="52.606850964948535" lon="11.864223014563322">
        <ele>26.09</ele>
        <time>2024-09-13T07:09:26Z</time>
      </trkpt>
      <trkpt lat="52.606822969391942" lon="11.864244975149632">
        <ele>26.57</ele>
        <time>2024-09-13T07:09:27Z</time>
      </trkpt>
      <trkpt lat="52.606775024905801" lon="11.864284034818411">
        <ele>26.57</ele>
        <time>2024-09-13T07:09:28Z</time>
      </trkpt>
      <trkpt lat="52.60670998133719" lon="11.864336002618074">
        <ele>26.57</ele>
        <time>2024-09-13T07:09:29Z</time>
      </trkpt>
      <trkpt lat="52.606184016913176" lon="11.864759037271142">
        <ele>25.609999999999999</ele>
        <time>2024-09-13T07:09:36Z</time>
      </trkpt>
      <trkpt lat="52.606028029695153" lon="11.86488501727581">
        <ele>24.649999999999999</ele>
        <time>2024-09-13T07:09:39Z</time>
      </trkpt>
      <trkpt lat="52.605948988348246" lon="11.864947965368629">
        <ele>24.170000000000002</ele>
        <time>2024-09-13T07:09:41Z</time>
      </trkpt>
      <trkpt lat="52.605917975306511" lon="11.864974033087492">
        <ele>23.690000000000001</ele>
        <time>2024-09-13T07:09:42Z</time>
      </trkpt>
      <trkpt lat="52.605897020548582" lon="11.864989958703518">
        <ele>23.210000000000001</ele>
        <time>2024-09-13T07:09:43Z</time>
      </trkpt>
      <trkpt lat="52.605897020548582" lon="11.864989958703518">
        <ele>22.73</ele>
        <time>2024-09-13T07:09:54Z</time>
      </trkpt>
      <trkpt lat="52.605897020548582" lon="11.864989958703518">
        <ele>22.73</ele>
        <time>2024-09-13T07:10:18Z</time>
      </trkpt>
      <trkpt lat="52.605883022770286" lon="11.864990964531898">
        <ele>23.690000000000001</ele>
        <time>2024-09-13T07:10:20Z</time>
      </trkpt>
      <trkpt lat="52.605942031368613" lon="11.864954000338912">
        <ele>23.210000000000001</ele>
        <time>2024-09-13T07:10:21Z</time>
      </trkpt>
      <trkpt lat="52.605996010825038" lon="11.864911001175642">
        <ele>23.210000000000001</ele>
        <time>2024-09-13T07:10:22Z</time>
      </trkpt>
      <trkpt lat="52.606058958917856" lon="11.864860961213708">
        <ele>23.210000000000001</ele>
        <time>2024-09-13T07:10:23Z</time>
      </trkpt>
      <trkpt lat="52.606122996658087" lon="11.864808993414044">
        <ele>23.210000000000001</ele>
        <time>2024-09-13T07:10:24Z</time>
      </trkpt>
      <trkpt lat="52.606325000524521" lon="11.864646971225739">
        <ele>23.210000000000001</ele>
        <time>2024-09-13T07:10:27Z</time>
      </trkpt>
      <trkpt lat="52.606400018557906" lon="11.864586034789681">
        <ele>23.210000000000001</ele>
        <time>2024-09-13T07:10:28Z</time>
      </trkpt>
      <trkpt lat="52.607098985463381" lon="11.864071972668171">
        <ele>25.129999999999999</ele>
        <time>2024-09-13T07:10:39Z</time>
      </trkpt>
      <trkpt lat="52.607242986559868" lon="11.864013969898224">
        <ele>27.050000000000001</ele>
        <time>2024-09-13T07:10:49Z</time>
      </trkpt>
      <trkpt lat="52.607449013739824" lon="11.863931994885206">
        <ele>28.5</ele>
        <time>2024-09-13T07:11:10Z</time>
      </trkpt>
      <trkpt lat="52.608233978971839" lon="11.863765027374029">
        <ele>30.420000000000002</ele>
        <time>2024-09-13T07:11:19Z</time>
      </trkpt>
      <trkpt lat="52.609251039102674" lon="11.863267980515957">
        <ele>32.340000000000003</ele>
        <time>2024-09-13T07:11:29Z</time>
      </trkpt>
      <trkpt lat="52.609767029061913" lon="11.862834971398115">
        <ele>32.82</ele>
        <time>2024-09-13T07:11:35Z</time>
      </trkpt>
      <trkpt lat="52.609847998246551" lon="11.862755008041859">
        <ele>32.82</ele>
        <time>2024-09-13T07:11:36Z</time>
      </trkpt>
      <trkpt lat="52.610272038727999" lon="11.862346976995468">
        <ele>34.259999999999998</ele>
        <time>2024-09-13T07:11:42Z</time>
      </trkpt>
      <trkpt lat="52.610315037891269" lon="11.86230800114572">
        <ele>34.259999999999998</ele>
        <time>2024-09-13T07:11:43Z</time>
      </trkpt>
      <trkpt lat="52.610352002084255" lon="11.862280005589128">
        <ele>34.259999999999998</ele>
        <time>2024-09-13T07:11:44Z</time>
      </trkpt>
      <trkpt lat="52.610449986532331" lon="11.862218985334039">
        <ele>35.710000000000001</ele>
        <time>2024-09-13T07:11:53Z</time>
      </trkpt>
      <trkpt lat="52.610560040920973" lon="11.862150002270937">
        <ele>36.189999999999998</ele>
        <time>2024-09-13T07:12:22Z</time>
      </trkpt>
      <trkpt lat="52.610648972913623" lon="11.862094011157751">
        <ele>36.670000000000002</ele>
        <time>2024-09-13T07:12:24Z</time>
      </trkpt>
      <trkpt lat="52.610672023147345" lon="11.862080013379455">
        <ele>36.670000000000002</ele>
        <time>2024-09-13T07:12:25Z</time>
      </trkpt>
      <trkpt lat="52.610660037025809" lon="11.862043971195817">
        <ele>36.670000000000002</ele>
        <time>2024-09-13T07:12:26Z</time>
      </trkpt>
      <trkpt lat="52.610637992620468" lon="11.861978005617857">
        <ele>37.149999999999999</ele>
        <time>2024-09-13T07:12:27Z</time>
      </trkpt>
      <trkpt lat="52.610608991235495" lon="11.861889995634556">
        <ele>37.630000000000003</ele>
        <time>2024-09-13T07:12:28Z</time>
      </trkpt>
      <trkpt lat="52.610576972365379" lon="11.861794022843242">
        <ele>37.630000000000003</ele>
        <time>2024-09-13T07:12:29Z</time>
      </trkpt>
      <trkpt lat="52.610544031485915" lon="11.861708024516702">
        <ele>38.109999999999999</ele>
        <time>2024-09-13T07:12:30Z</time>
      </trkpt>
      <trkpt lat="52.610502960160375" lon="11.861609034240246">
        <ele>38.109999999999999</ele>
        <time>2024-09-13T07:12:31Z</time>
      </trkpt>
      <trkpt lat="52.610459960997105" lon="11.861508032307029">
        <ele>38.590000000000003</ele>
        <time>2024-09-13T07:12:32Z</time>
      </trkpt>
      <trkpt lat="52.609898960217834" lon="11.860000966116786">
        <ele>40.030000000000001</ele>
        <time>2024-09-13T07:12:45Z</time>
      </trkpt>
      <trkpt lat="52.60958899743855" lon="11.85908398590982">
        <ele>40.509999999999998</ele>
        <time>2024-09-13T07:12:55Z</time>
      </trkpt>
      <trkpt lat="52.609068984165788" lon="11.857482036575675">
        <ele>38.590000000000003</ele>
        <time>2024-09-13T07:13:10Z</time>
      </trkpt>
      <trkpt lat="52.608777964487672" lon="11.856576958671212">
        <ele>36.670000000000002</ele>
        <time>2024-09-13T07:13:17Z</time>
      </trkpt>
      <trkpt lat="52.608666988089681" lon="11.856175968423486">
        <ele>36.189999999999998</ele>
        <time>2024-09-13T07:13:20Z</time>
      </trkpt>
      <trkpt lat="52.608638992533088" lon="11.85603397898376">
        <ele>36.670000000000002</ele>
        <time>2024-09-13T07:13:21Z</time>
      </trkpt>
      <trkpt lat="52.608287958428264" lon="11.854292973875999">
        <ele>33.780000000000001</ele>
        <time>2024-09-13T07:13:33Z</time>
      </trkpt>
      <trkpt lat="52.608022000640631" lon="11.853050021454692">
        <ele>31.379999999999999</ele>
        <time>2024-09-13T07:13:42Z</time>
      </trkpt>
      <trkpt lat="52.607999034225941" lon="11.852181991562247">
        <ele>29.940000000000001</ele>
        <time>2024-09-13T07:13:48Z</time>
      </trkpt>
      <trkpt lat="52.608004985377192" lon="11.85205802321434">
        <ele>29.940000000000001</ele>
        <time>2024-09-13T07:13:49Z</time>
      </trkpt>
      <trkpt lat="52.608014959841967" lon="11.851919973269105">
        <ele>30.420000000000002</ele>
        <time>2024-09-13T07:13:50Z</time>
      </trkpt>
      <trkpt lat="52.608055025339127" lon="11.851812014356256">
        <ele>30.420000000000002</ele>
        <time>2024-09-13T07:13:51Z</time>
      </trkpt>
      <trkpt lat="52.608089977875352" lon="11.85171402990818">
        <ele>30.899999999999999</ele>
        <time>2024-09-13T07:13:52Z</time>
      </trkpt>
      <trkpt lat="52.608121996745467" lon="11.851625014096498">
        <ele>30.899999999999999</ele>
        <time>2024-09-13T07:13:53Z</time>
      </trkpt>
      <trkpt lat="52.608302040025592" lon="11.85117700137198">
        <ele>31.859999999999999</ele>
        <time>2024-09-13T07:14:01Z</time>
      </trkpt>
      <trkpt lat="52.608337998390198" lon="11.85109100304544">
        <ele>31.859999999999999</ele>
        <time>2024-09-13T07:14:03Z</time>
      </trkpt>
      <trkpt lat="52.6084069814533" lon="11.851041968911886">
        <ele>31.859999999999999</ele>
        <time>2024-09-13T07:14:04Z</time>
      </trkpt>
      <trkpt lat="52.608495997264981" lon="11.850996036082506">
        <ele>32.340000000000003</ele>
        <time>2024-09-13T07:14:06Z</time>
      </trkpt>
      <trkpt lat="52.608518963679671" lon="11.850933004170656">
        <ele>32.340000000000003</ele>
        <time>2024-09-13T07:14:07Z</time>
      </trkpt>
      <trkpt lat="52.60853698477149" lon="11.850825967267156">
        <ele>32.340000000000003</ele>
        <time>2024-09-13T07:14:08Z</time>
      </trkpt>
      <trkpt lat="52.608513012528419" lon="11.850752960890532">
        <ele>32.340000000000003</ele>
        <time>2024-09-13T07:14:09Z</time>
      </trkpt>
      <trkpt lat="52.608504965901375" lon="11.850728988647461">
        <ele>32.340000000000003</ele>
        <time>2024-09-13T07:14:10Z</time>
      </trkpt>
      <trkpt lat="52.608462972566485" lon="11.850550035014749">
        <ele>32.82</ele>
        <time>2024-09-13T07:14:11Z</time>
      </trkpt>
      <trkpt lat="52.608483005315065" lon="11.850451966747642">
        <ele>32.82</ele>
        <time>2024-09-13T07:14:12Z</time>
      </trkpt>
      <trkpt lat="52.608512006700039" lon="11.850343002006412">
        <ele>32.82</ele>
        <time>2024-09-13T07:14:13Z</time>
      </trkpt>
      <trkpt lat="52.608540002256632" lon="11.850235965102911">
        <ele>33.299999999999997</ele>
        <time>2024-09-13T07:14:14Z</time>
      </trkpt>
      <trkpt lat="52.608569003641605" lon="11.850130017846823">
        <ele>33.299999999999997</ele>
        <time>2024-09-13T07:14:15Z</time>
      </trkpt>
      <trkpt lat="52.608592975884676" lon="11.850020969286561">
        <ele>33.299999999999997</ele>
        <time>2024-09-13T07:14:16Z</time>
      </trkpt>
      <trkpt lat="52.608616026118398" lon="11.849912004545331">
        <ele>33.780000000000001</ele>
        <time>2024-09-13T07:14:17Z</time>
      </trkpt>
      <trkpt lat="52.608642010018229" lon="11.849792981520295">
        <ele>33.780000000000001</ele>
        <time>2024-09-13T07:14:18Z</time>
      </trkpt>
      <trkpt lat="52.608671011403203" lon="11.849661972373724">
        <ele>34.259999999999998</ele>
        <time>2024-09-13T07:14:19Z</time>
      </trkpt>
      <trkpt lat="52.608747035264969" lon="11.849389979615808">
        <ele>34.259999999999998</ele>
        <time>2024-09-13T07:14:21Z</time>
      </trkpt>
      <trkpt lat="52.608785005286336" lon="11.849251007661223">
        <ele>34.259999999999998</ele>
        <time>2024-09-13T07:14:22Z</time>
      </trkpt>
      <trkpt lat="52.608857005834579" lon="11.848987983539701">
        <ele>34.740000000000002</ele>
        <time>2024-09-13T07:14:24Z</time>
      </trkpt>
      <trkpt lat="52.609157999977469" lon="11.847671018913388">
        <ele>35.229999999999997</ele>
        <time>2024-09-13T07:14:35Z</time>
      </trkpt>
      <trkpt lat="52.609184989705682" lon="11.847561970353127">
        <ele>35.229999999999997</ele>
        <time>2024-09-13T07:14:36Z</time>
      </trkpt>
      <trkpt lat="52.609209967777133" lon="11.84746197424829">
        <ele>35.229999999999997</ele>
        <time>2024-09-13T07:14:37Z</time>
      </trkpt>
      <trkpt lat="52.609235029667616" lon="11.847360972315073">
        <ele>35.229999999999997</ele>
        <time>2024-09-13T07:14:38Z</time>
      </trkpt>
      <trkpt lat="52.609260007739067" lon="11.847254019230604">
        <ele>35.229999999999997</ele>
        <time>2024-09-13T07:14:39Z</time>
      </trkpt>
      <trkpt lat="52.609284985810518" lon="11.84713801369071">
        <ele>35.229999999999997</ele>
        <time>2024-09-13T07:14:40Z</time>
      </trkpt>
      <trkpt lat="52.609309963881969" lon="11.847019996494055">
        <ele>35.229999999999997</ele>
        <time>2024-09-13T07:14:41Z</time>
      </trkpt>
      <trkpt lat="52.609510039910674" lon="11.846173005178571">
        <ele>35.710000000000001</ele>
        <time>2024-09-13T07:14:48Z</time>
      </trkpt>
      <trkpt lat="52.609543986618519" lon="11.846050964668393">
        <ele>36.189999999999998</ele>
        <time>2024-09-13T07:14:49Z</time>
      </trkpt>
      <trkpt lat="52.609681030735373" lon="11.845559030771255">
        <ele>37.630000000000003</ele>
        <time>2024-09-13T07:14:53Z</time>
      </trkpt>
      <trkpt lat="52.609715983271599" lon="11.845433972775936">
        <ele>37.630000000000003</ele>
        <time>2024-09-13T07:14:54Z</time>
      </trkpt>
      <trkpt lat="52.610216969624162" lon="11.843822970986366">
        <ele>38.590000000000003</ele>
        <time>2024-09-13T07:15:07Z</time>
      </trkpt>
      <trkpt lat="52.610355019569397" lon="11.843434972688556">
        <ele>39.07</ele>
        <time>2024-09-13T07:15:14Z</time>
      </trkpt>
      <trkpt lat="52.610367005690932" lon="11.843403037637472">
        <ele>39.07</ele>
        <time>2024-09-13T07:15:15Z</time>
      </trkpt>
      <trkpt lat="52.610229039564729" lon="11.843564976006746">
        <ele>39.07</ele>
        <time>2024-09-13T07:15:16Z</time>
      </trkpt>
      <trkpt lat="52.610195009037852" lon="11.84352901764214">
        <ele>39.07</ele>
        <time>2024-09-13T07:15:17Z</time>
      </trkpt>
      <trkpt lat="52.610114039853215" lon="11.84344201348722">
        <ele>39.07</ele>
        <time>2024-09-13T07:15:19Z</time>
      </trkpt>
      <trkpt lat="52.610063999891281" lon="11.843388034030795">
        <ele>39.07</ele>
        <time>2024-09-13T07:15:20Z</time>
      </trkpt>
      <trkpt lat="52.60995302349329" lon="11.843268005177379">
        <ele>39.07</ele>
        <time>2024-09-13T07:15:22Z</time>
      </trkpt>
      <trkpt lat="52.609863001853228" lon="11.843171026557684">
        <ele>39.07</ele>
        <time>2024-09-13T07:15:24Z</time>
      </trkpt>
      <trkpt lat="52.60982402600348" lon="11.843129033222795">
        <ele>39.549999999999997</ele>
        <time>2024-09-13T07:15:25Z</time>
      </trkpt>
      <trkpt lat="52.609727969393134" lon="11.843026019632816">
        <ele>39.07</ele>
        <time>2024-09-13T07:15:28Z</time>
      </trkpt>
      <trkpt lat="52.609727969393134" lon="11.843026019632816">
        <ele>39.07</ele>
        <time>2024-09-13T07:15:29Z</time>
      </trkpt>
      <trkpt lat="52.609697040170431" lon="11.843023002147675">
        <ele>39.07</ele>
        <time>2024-09-13T07:15:30Z</time>
      </trkpt>
      <trkpt lat="52.609643982723355" lon="11.843016967177391">
        <ele>38.109999999999999</ele>
        <time>2024-09-13T07:15:38Z</time>
      </trkpt>
      <trkpt lat="52.609643982723355" lon="11.843016967177391">
        <ele>38.590000000000003</ele>
        <time>2024-09-13T07:17:20Z</time>
      </trkpt>
      <trkpt lat="52.609643982723355" lon="11.843016967177391">
        <ele>38.590000000000003</ele>
        <time>2024-09-13T07:17:51Z</time>
      </trkpt>
      <trkpt lat="52.609728975221515" lon="11.843011016026139">
        <ele>38.590000000000003</ele>
        <time>2024-09-13T07:17:56Z</time>
      </trkpt>
      <trkpt lat="52.609727969393134" lon="11.843026019632816">
        <ele>38.109999999999999</ele>
        <time>2024-09-13T07:17:57Z</time>
      </trkpt>
      <trkpt lat="52.609727969393134" lon="11.843026019632816">
        <ele>38.109999999999999</ele>
        <time>2024-09-13T07:17:58Z</time>
      </trkpt>
      <trkpt lat="52.609742972999811" lon="11.843042029067874">
        <ele>38.109999999999999</ele>
        <time>2024-09-13T07:17:59Z</time>
      </trkpt>
      <trkpt lat="52.609797036275268" lon="11.843100031837821">
        <ele>37.630000000000003</ele>
        <time>2024-09-13T07:18:00Z</time>
      </trkpt>
      <trkpt lat="52.610161984339356" lon="11.843492975458503">
        <ele>37.630000000000003</ele>
        <time>2024-09-13T07:18:06Z</time>
      </trkpt>
      <trkpt lat="52.610213030129671" lon="11.843547960743308">
        <ele>37.630000000000003</ele>
        <time>2024-09-13T07:18:07Z</time>
      </trkpt>
      <trkpt lat="52.610255023464561" lon="11.843714006245136">
        <ele>37.630000000000003</ele>
        <time>2024-09-13T07:18:08Z</time>
      </trkpt>
      <trkpt lat="52.610228033736348" lon="11.843791035935283">
        <ele>37.630000000000003</ele>
        <time>2024-09-13T07:18:09Z</time>
      </trkpt>
      <trkpt lat="52.610195009037852" lon="11.843884997069836">
        <ele>37.630000000000003</ele>
        <time>2024-09-13T07:18:10Z</time>
      </trkpt>
      <trkpt lat="52.610157961025834" lon="11.843993039801717">
        <ele>37.630000000000003</ele>
        <time>2024-09-13T07:18:11Z</time>
      </trkpt>
      <trkpt lat="52.610117979347706" lon="11.84410803951323">
        <ele>37.630000000000003</ele>
        <time>2024-09-13T07:18:12Z</time>
      </trkpt>
      <trkpt lat="52.609686981886625" lon="11.845540003851056">
        <ele>35.710000000000001</ele>
        <time>2024-09-13T07:18:22Z</time>
      </trkpt>
      <trkpt lat="52.609226983040571" lon="11.847389973700047">
        <ele>35.229999999999997</ele>
        <time>2024-09-13T07:18:34Z</time>
      </trkpt>
      <trkpt lat="52.609110977500677" lon="11.847864976152778">
        <ele>34.740000000000002</ele>
        <time>2024-09-13T07:18:37Z</time>
      </trkpt>
      <trkpt lat="52.60907300747931" lon="11.848017023876309">
        <ele>34.740000000000002</ele>
        <time>2024-09-13T07:18:38Z</time>
      </trkpt>
      <trkpt lat="52.608660031110048" lon="11.849710000678897">
        <ele>33.780000000000001</ele>
        <time>2024-09-13T07:18:49Z</time>
      </trkpt>
      <trkpt lat="52.608518041670322" lon="11.850321041420102">
        <ele>31.859999999999999</ele>
        <time>2024-09-13T07:18:56Z</time>
      </trkpt>
      <trkpt lat="52.608448974788189" lon="11.850623041391373">
        <ele>30.899999999999999</ele>
        <time>2024-09-13T07:19:08Z</time>
      </trkpt>
      <trkpt lat="52.608289970085025" lon="11.850891010835767">
        <ele>30.420000000000002</ele>
        <time>2024-09-13T07:19:13Z</time>
      </trkpt>
      <trkpt lat="52.608347972854972" lon="11.851066024973989">
        <ele>30.420000000000002</ele>
        <time>2024-09-13T07:19:15Z</time>
      </trkpt>
      <trkpt lat="52.60832098312676" lon="11.851131990551949">
        <ele>30.420000000000002</ele>
        <time>2024-09-13T07:19:16Z</time>
      </trkpt>
      <trkpt lat="52.608286030590534" lon="11.851213965564966">
        <ele>30.420000000000002</ele>
        <time>2024-09-13T07:19:17Z</time>
      </trkpt>
      <trkpt lat="52.608203971758485" lon="11.851408006623387">
        <ele>29.940000000000001</ele>
        <time>2024-09-13T07:19:19Z</time>
      </trkpt>
      <trkpt lat="52.608162984251976" lon="11.851513031870127">
        <ele>29.460000000000001</ele>
        <time>2024-09-13T07:19:20Z</time>
      </trkpt>
      <trkpt lat="52.608124008402228" lon="11.851621996611357">
        <ele>29.460000000000001</ele>
        <time>2024-09-13T07:19:21Z</time>
      </trkpt>
      <trkpt lat="52.6080840267241" lon="11.851730039343238">
        <ele>29.460000000000001</ele>
        <time>2024-09-13T07:19:22Z</time>
      </trkpt>
      <trkpt lat="52.608045972883701" lon="11.851835986599326">
        <ele>29.460000000000001</ele>
        <time>2024-09-13T07:19:23Z</time>
      </trkpt>
      <trkpt lat="52.608011020347476" lon="11.851931037381291">
        <ele>29.460000000000001</ele>
        <time>2024-09-13T07:19:24Z</time>
      </trkpt>
      <trkpt lat="52.608004985377192" lon="11.852061040699482">
        <ele>29.460000000000001</ele>
        <time>2024-09-13T07:19:25Z</time>
      </trkpt>
      <trkpt lat="52.607999034225941" lon="11.852180985733867">
        <ele>29.460000000000001</ele>
        <time>2024-09-13T07:19:26Z</time>
      </trkpt>
      <trkpt lat="52.607992999255657" lon="11.852306965738535">
        <ele>29.460000000000001</ele>
        <time>2024-09-13T07:19:27Z</time>
      </trkpt>
      <trkpt lat="52.607992999255657" lon="11.852443004027009">
        <ele>29.460000000000001</ele>
        <time>2024-09-13T07:19:28Z</time>
      </trkpt>
      <trkpt lat="52.60799702256918" lon="11.852579964324832">
        <ele>29.460000000000001</ele>
        <time>2024-09-13T07:19:29Z</time>
      </trkpt>
      <trkpt lat="52.608001967892051" lon="11.852718014270067">
        <ele>29.460000000000001</ele>
        <time>2024-09-13T07:19:30Z</time>
      </trkpt>
      <trkpt lat="52.608044967055321" lon="11.853150017559528">
        <ele>29.460000000000001</ele>
        <time>2024-09-13T07:19:33Z</time>
      </trkpt>
      <trkpt lat="52.608076985925436" lon="11.853288989514112">
        <ele>29.460000000000001</ele>
        <time>2024-09-13T07:19:34Z</time>
      </trkpt>
      <trkpt lat="52.608110010623932" lon="11.853431984782219">
        <ele>29.460000000000001</ele>
        <time>2024-09-13T07:19:35Z</time>
      </trkpt>
      <trkpt lat="52.608498008921742" lon="11.855335012078285">
        <ele>30.899999999999999</ele>
        <time>2024-09-13T07:19:48Z</time>
      </trkpt>
      <trkpt lat="52.608840996399522" lon="11.856778962537646">
        <ele>30.420000000000002</ele>
        <time>2024-09-13T07:19:58Z</time>
      </trkpt>
      <trkpt lat="52.609193958342075" lon="11.857897024601698">
        <ele>28.98</ele>
        <time>2024-09-13T07:20:06Z</time>
      </trkpt>
      <trkpt lat="52.609334019944072" lon="11.858305977657437">
        <ele>29.460000000000001</ele>
        <time>2024-09-13T07:20:09Z</time>
      </trkpt>
      <trkpt lat="52.609380958601832" lon="11.858437992632389">
        <ele>29.940000000000001</ele>
        <time>2024-09-13T07:20:10Z</time>
      </trkpt>
      <trkpt lat="52.609554966911674" lon="11.858980972319841">
        <ele>31.379999999999999</ele>
        <time>2024-09-13T07:20:14Z</time>
      </trkpt>
      <trkpt lat="52.609598971903324" lon="11.859111981466413">
        <ele>31.859999999999999</ele>
        <time>2024-09-13T07:20:15Z</time>
      </trkpt>
      <trkpt lat="52.609642976894975" lon="11.859241984784603">
        <ele>32.340000000000003</ele>
        <time>2024-09-13T07:20:16Z</time>
      </trkpt>
      <trkpt lat="52.610159972682595" lon="11.86080202460289">
        <ele>33.299999999999997</ele>
        <time>2024-09-13T07:20:28Z</time>
      </trkpt>
      <trkpt lat="52.610329035669565" lon="11.861242996528745">
        <ele>34.259999999999998</ele>
        <time>2024-09-13T07:20:32Z</time>
      </trkpt>
      <trkpt lat="52.610484017059207" lon="11.861563017591834">
        <ele>36.670000000000002</ele>
        <time>2024-09-13T07:20:40Z</time>
      </trkpt>
      <trkpt lat="52.610484017059207" lon="11.861563017591834">
        <ele>37.149999999999999</ele>
        <time>2024-09-13T07:20:53Z</time>
      </trkpt>
      <trkpt lat="52.610549982637167" lon="11.861722022294998">
        <ele>38.590000000000003</ele>
        <time>2024-09-13T07:21:22Z</time>
      </trkpt>
      <trkpt lat="52.610588036477566" lon="11.861828975379467">
        <ele>40.030000000000001</ele>
        <time>2024-09-13T07:21:34Z</time>
      </trkpt>
      <trkpt lat="52.610672023147345" lon="11.862080013379455">
        <ele>41.950000000000003</ele>
        <time>2024-09-13T07:21:38Z</time>
      </trkpt>
      <trkpt lat="52.610735977068543" lon="11.862107003107667">
        <ele>42.439999999999998</ele>
        <time>2024-09-13T07:21:39Z</time>
      </trkpt>
      <trkpt lat="52.610785011202097" lon="11.862127035856247">
        <ele>42.439999999999998</ele>
        <time>2024-09-13T07:21:40Z</time>
      </trkpt>
      <trkpt lat="52.610846031457186" lon="11.862152013927698">
        <ele>42.920000000000002</ele>
        <time>2024-09-13T07:21:41Z</time>
      </trkpt>
      <trkpt lat="52.610916020348668" lon="11.862181015312672">
        <ele>42.920000000000002</ele>
        <time>2024-09-13T07:21:42Z</time>
      </trkpt>
      <trkpt lat="52.610994977876544" lon="11.862213034182787">
        <ele>43.399999999999999</ele>
        <time>2024-09-13T07:21:43Z</time>
      </trkpt>
      <trkpt lat="52.611333020031452" lon="11.862461976706982">
        <ele>43.399999999999999</ele>
        <time>2024-09-13T07:21:47Z</time>
      </trkpt>
      <trkpt lat="52.611409965902567" lon="11.862539006397128">
        <ele>43.399999999999999</ele>
        <time>2024-09-13T07:21:48Z</time>
      </trkpt>
      <trkpt lat="52.612319989129901" lon="11.863405024632812">
        <ele>44.359999999999999</ele>
        <time>2024-09-13T07:21:59Z</time>
      </trkpt>
      <trkpt lat="52.61240498162806" lon="11.863479036837816">
        <ele>44.840000000000003</ele>
        <time>2024-09-13T07:22:00Z</time>
      </trkpt>
      <trkpt lat="52.61248997412622" lon="11.863552965223789">
        <ele>45.32</ele>
        <time>2024-09-13T07:22:01Z</time>
      </trkpt>
      <trkpt lat="52.612935975193977" lon="11.86394196934998">
        <ele>47.240000000000002</ele>
        <time>2024-09-13T07:22:07Z</time>
      </trkpt>
      <trkpt lat="52.61313303373754" lon="11.864112038165331">
        <ele>46.280000000000001</ele>
        <time>2024-09-13T07:22:11Z</time>
      </trkpt>
      <trkpt lat="52.61360602453351" lon="11.864550998434424">
        <ele>43.399999999999999</ele>
        <time>2024-09-13T07:22:19Z</time>
      </trkpt>
      <trkpt lat="52.613751031458378" lon="11.864686030894518">
        <ele>42.439999999999998</ele>
        <time>2024-09-13T07:22:22Z</time>
      </trkpt>
      <trkpt lat="52.613783972337842" lon="11.864716960117221">
        <ele>41.950000000000003</ele>
        <time>2024-09-13T07:22:23Z</time>
      </trkpt>
      <trkpt lat="52.613802999258041" lon="11.864733975380659">
        <ele>41.469999999999999</ele>
        <time>2024-09-13T07:22:24Z</time>
      </trkpt>
      <trkpt lat="52.613810040056705" lon="11.864741016179323">
        <ele>40.509999999999998</ele>
        <time>2024-09-13T07:22:25Z</time>
      </trkpt>
      <trkpt lat="52.613751031458378" lon="11.864687036722898">
        <ele>38.590000000000003</ele>
        <time>2024-09-13T07:22:29Z</time>
      </trkpt>
      <trkpt lat="52.613724963739514" lon="11.864661974832416">
        <ele>38.109999999999999</ele>
        <time>2024-09-13T07:22:30Z</time>
      </trkpt>
      <trkpt lat="52.613693028688431" lon="11.864632973447442">
        <ele>38.109999999999999</ele>
        <time>2024-09-13T07:22:31Z</time>
      </trkpt>
      <trkpt lat="52.613664027303457" lon="11.86460598371923">
        <ele>37.630000000000003</ele>
        <time>2024-09-13T07:22:32Z</time>
      </trkpt>
      <trkpt lat="52.613512985408306" lon="11.864889962598681">
        <ele>36.670000000000002</ele>
        <time>2024-09-13T07:22:39Z</time>
      </trkpt>
      <trkpt lat="52.613502005115151" lon="11.864890968427062">
        <ele>37.149999999999999</ele>
        <time>2024-09-13T07:23:19Z</time>
      </trkpt>
      <trkpt lat="52.613496975973248" lon="11.864899015054107">
        <ele>36.189999999999998</ele>
        <time>2024-09-13T07:24:18Z</time>
      </trkpt>
      <trkpt lat="52.613494964316487" lon="11.864901026710868">
        <ele>36.189999999999998</ele>
        <time>2024-09-13T07:25:05Z</time>
      </trkpt>
      <trkpt lat="52.613505022600293" lon="11.864902032539248">
        <ele>35.710000000000001</ele>
        <time>2024-09-13T07:25:56Z</time>
      </trkpt>
      <trkpt lat="52.613506028428674" lon="11.864898009225726">
        <ele>35.229999999999997</ele>
        <time>2024-09-13T07:26:43Z</time>
      </trkpt>
      <trkpt lat="52.613495970144868" lon="11.864900020882487">
        <ele>35.229999999999997</ele>
        <time>2024-09-13T07:27:25Z</time>
      </trkpt>
      <trkpt lat="52.613487001508474" lon="11.864918963983655">
        <ele>35.229999999999997</ele>
        <time>2024-09-13T07:28:10Z</time>
      </trkpt>
      <trkpt lat="52.613635025918484" lon="11.864577988162637">
        <ele>35.229999999999997</ele>
        <time>2024-09-13T07:28:12Z</time>
      </trkpt>
      <trkpt lat="52.613653969019651" lon="11.864596009254456">
        <ele>35.229999999999997</ele>
        <time>2024-09-13T07:28:13Z</time>
      </trkpt>
      <trkpt lat="52.613676013424993" lon="11.864616964012384">
        <ele>35.229999999999997</ele>
        <time>2024-09-13T07:28:14Z</time>
      </trkpt>
      <trkpt lat="52.613706020638347" lon="11.864644037559628">
        <ele>34.740000000000002</ele>
        <time>2024-09-13T07:28:15Z</time>
      </trkpt>
      <trkpt lat="52.613737033680081" lon="11.864673038944602">
        <ele>34.740000000000002</ele>
        <time>2024-09-13T07:28:16Z</time>
      </trkpt>
      <trkpt lat="52.613763017579913" lon="11.864698017016053">
        <ele>34.740000000000002</ele>
        <time>2024-09-13T07:28:17Z</time>
      </trkpt>
      <trkpt lat="52.613783972337842" lon="11.864716960117221">
        <ele>34.259999999999998</ele>
        <time>2024-09-13T07:28:18Z</time>
      </trkpt>
      <trkpt lat="52.613795958459377" lon="11.864728024229407">
        <ele>34.259999999999998</ele>
        <time>2024-09-13T07:28:19Z</time>
      </trkpt>
      <trkpt lat="52.613795958459377" lon="11.864728024229407">
        <ele>34.259999999999998</ele>
        <time>2024-09-13T07:28:32Z</time>
      </trkpt>
      <trkpt lat="52.613795958459377" lon="11.864728024229407">
        <ele>34.740000000000002</ele>
        <time>2024-09-13T07:29:24Z</time>
      </trkpt>
      <trkpt lat="52.613795958459377" lon="11.864728024229407">
        <ele>35.229999999999997</ele>
        <time>2024-09-13T07:29:27Z</time>
      </trkpt>
      <trkpt lat="52.613793024793267" lon="11.864725006744266">
        <ele>35.229999999999997</ele>
        <time>2024-09-13T07:29:29Z</time>
      </trkpt>
      <trkpt lat="52.613754970952868" lon="11.864689970389009">
        <ele>35.710000000000001</ele>
        <time>2024-09-13T07:29:30Z</time>
      </trkpt>
      <trkpt lat="52.613695040345192" lon="11.864633979275823">
        <ele>35.710000000000001</ele>
        <time>2024-09-13T07:29:31Z</time>
      </trkpt>
      <trkpt lat="52.613624967634678" lon="11.864570025354624">
        <ele>35.710000000000001</ele>
        <time>2024-09-13T07:29:32Z</time>
      </trkpt>
      <trkpt lat="52.613552967086434" lon="11.864501964300871">
        <ele>35.710000000000001</ele>
        <time>2024-09-13T07:29:33Z</time>
      </trkpt>
      <trkpt lat="52.612721985206008" lon="11.863754969090223">
        <ele>37.630000000000003</ele>
        <time>2024-09-13T07:29:44Z</time>
      </trkpt>
      <trkpt lat="52.612127037718892" lon="11.863236967474222">
        <ele>39.07</ele>
        <time>2024-09-13T07:29:50Z</time>
      </trkpt>
      <trkpt lat="52.611837023869157" lon="11.862965980544686">
        <ele>37.630000000000003</ele>
        <time>2024-09-13T07:29:56Z</time>
      </trkpt>
      <trkpt lat="52.611755970865488" lon="11.862885011360049">
        <ele>37.149999999999999</ele>
        <time>2024-09-13T07:29:59Z</time>
      </trkpt>
      <trkpt lat="52.611708026379347" lon="11.862836983054876">
        <ele>37.149999999999999</ele>
        <time>2024-09-13T07:30:00Z</time>
      </trkpt>
      <trkpt lat="52.611649017781019" lon="11.862777974456549">
        <ele>36.670000000000002</ele>
        <time>2024-09-13T07:30:01Z</time>
      </trkpt>
      <trkpt lat="52.611122969537973" lon="11.862296015024185">
        <ele>36.670000000000002</ele>
        <time>2024-09-13T07:30:08Z</time>
      </trkpt>
      <trkpt lat="52.610874027013779" lon="11.862162994220853">
        <ele>36.189999999999998</ele>
        <time>2024-09-13T07:30:11Z</time>
      </trkpt>
      <trkpt lat="52.610790962353349" lon="11.862128963693976">
        <ele>36.189999999999998</ele>
        <time>2024-09-13T07:30:12Z</time>
      </trkpt>
      <trkpt lat="52.610672023147345" lon="11.862080013379455">
        <ele>36.189999999999998</ele>
        <time>2024-09-13T07:30:13Z</time>
      </trkpt>
      <trkpt lat="52.610634975135326" lon="11.862102979794145">
        <ele>36.189999999999998</ele>
        <time>2024-09-13T07:30:14Z</time>
      </trkpt>
      <trkpt lat="52.610550988465548" lon="11.86215603724122">
        <ele>36.189999999999998</ele>
        <time>2024-09-13T07:30:15Z</time>
      </trkpt>
      <trkpt lat="52.610462978482246" lon="11.862211022526026">
        <ele>36.189999999999998</ele>
        <time>2024-09-13T07:30:16Z</time>
      </trkpt>
      <trkpt lat="52.610375974327326" lon="11.86226500198245">
        <ele>35.710000000000001</ele>
        <time>2024-09-13T07:30:17Z</time>
      </trkpt>
      <trkpt lat="52.610286958515644" lon="11.862332979217172">
        <ele>35.710000000000001</ele>
        <time>2024-09-13T07:30:18Z</time>
      </trkpt>
      <trkpt lat="52.60935103520751" lon="11.863197991624475">
        <ele>33.299999999999997</ele>
        <time>2024-09-13T07:30:29Z</time>
      </trkpt>
      <trkpt lat="52.608805038034916" lon="11.863580960780382">
        <ele>30.420000000000002</ele>
        <time>2024-09-13T07:30:38Z</time>
      </trkpt>
      <trkpt lat="52.608419973403215" lon="11.863721022382379">
        <ele>28.98</ele>
        <time>2024-09-13T07:30:47Z</time>
      </trkpt>
      <trkpt lat="52.607823014259338" lon="11.863825041800737">
        <ele>28.5</ele>
        <time>2024-09-13T07:30:55Z</time>
      </trkpt>
      <trkpt lat="52.607036037370563" lon="11.864107009023428">
        <ele>30.899999999999999</ele>
        <time>2024-09-13T07:31:04Z</time>
      </trkpt>
      <trkpt lat="52.606950039044023" lon="11.864158976823092">
        <ele>30.899999999999999</ele>
        <time>2024-09-13T07:31:05Z</time>
      </trkpt>
      <trkpt lat="52.606861023232341" lon="11.864214967936277">
        <ele>31.379999999999999</ele>
        <time>2024-09-13T07:31:06Z</time>
      </trkpt>
      <trkpt lat="52.606270015239716" lon="11.864690976217389">
        <ele>31.379999999999999</ele>
        <time>2024-09-13T07:31:13Z</time>
      </trkpt>
      <trkpt lat="52.606189968064427" lon="11.86475501395762">
        <ele>30.899999999999999</ele>
        <time>2024-09-13T07:31:14Z</time>
      </trkpt>
      <trkpt lat="52.605961980298162" lon="11.864937990903854">
        <ele>30.420000000000002</ele>
        <time>2024-09-13T07:31:17Z</time>
      </trkpt>
      <trkpt lat="52.60589400306344" lon="11.86499297618866">
        <ele>30.899999999999999</ele>
        <time>2024-09-13T07:31:18Z</time>
      </trkpt>
      <trkpt lat="52.605684036388993" lon="11.865150975063443">
        <ele>30.899999999999999</ele>
        <time>2024-09-13T07:31:21Z</time>
      </trkpt>
      <trkpt lat="52.605459988117218" lon="11.865318026393652">
        <ele>31.379999999999999</ele>
        <time>2024-09-13T07:31:24Z</time>
      </trkpt>
      <trkpt lat="52.605382036417723" lon="11.86537703499198">
        <ele>31.379999999999999</ele>
        <time>2024-09-13T07:31:25Z</time>
      </trkpt>
      <trkpt lat="52.605298971757293" lon="11.865439983084798">
        <ele>31.379999999999999</ele>
        <time>2024-09-13T07:31:26Z</time>
      </trkpt>
      <trkpt lat="52.604954978451133" lon="11.865696972236037">
        <ele>32.340000000000003</ele>
        <time>2024-09-13T07:31:30Z</time>
      </trkpt>
      <trkpt lat="52.604856994003057" lon="11.865770984441042">
        <ele>32.340000000000003</ele>
        <time>2024-09-13T07:31:31Z</time>
      </trkpt>
      <trkpt lat="52.603828031569719" lon="11.866446984931827">
        <ele>34.259999999999998</ele>
        <time>2024-09-13T07:31:42Z</time>
      </trkpt>
      <trkpt lat="52.603418994694948" lon="11.866543041542172">
        <ele>34.259999999999998</ele>
        <time>2024-09-13T07:31:46Z</time>
      </trkpt>
      <trkpt lat="52.603335008025169" lon="11.866525020450354">
        <ele>34.259999999999998</ele>
        <time>2024-09-13T07:31:47Z</time>
      </trkpt>
      <trkpt lat="52.602706030011177" lon="11.866224026307464">
        <ele>34.740000000000002</ele>
        <time>2024-09-13T07:31:54Z</time>
      </trkpt>
      <trkpt lat="52.602617014199495" lon="11.866183038800955">
        <ele>34.740000000000002</ele>
        <time>2024-09-13T07:31:55Z</time>
      </trkpt>
      <trkpt lat="52.602353990077972" lon="11.866048006340861">
        <ele>34.740000000000002</ele>
        <time>2024-09-13T07:31:58Z</time>
      </trkpt>
      <trkpt lat="52.601350005716085" lon="11.865519024431705">
        <ele>34.259999999999998</ele>
        <time>2024-09-13T07:32:09Z</time>
      </trkpt>
      <trkpt lat="52.600550958886743" lon="11.865117028355598">
        <ele>33.780000000000001</ele>
        <time>2024-09-13T07:32:19Z</time>
      </trkpt>
      <trkpt lat="52.600384997203946" lon="11.865032035857439">
        <ele>33.299999999999997</ele>
        <time>2024-09-13T07:32:30Z</time>
      </trkpt>
      <trkpt lat="52.600183999165893" lon="11.864818967878819">
        <ele>33.780000000000001</ele>
        <time>2024-09-13T07:32:38Z</time>
      </trkpt>
      <trkpt lat="52.59992198087275" lon="11.86452099122107">
        <ele>34.259999999999998</ele>
        <time>2024-09-13T07:32:44Z</time>
      </trkpt>
      <trkpt lat="52.599842017516494" lon="11.864435998722911">
        <ele>34.259999999999998</ele>
        <time>2024-09-13T07:32:46Z</time>
      </trkpt>
      <trkpt lat="52.599790971726179" lon="11.864422000944614">
        <ele>34.259999999999998</ele>
        <time>2024-09-13T07:32:47Z</time>
      </trkpt>
      <trkpt lat="52.5997069850564" lon="11.864398028701544">
        <ele>33.780000000000001</ele>
        <time>2024-09-13T07:32:48Z</time>
      </trkpt>
      <trkpt lat="52.599659962579608" lon="11.864452008157969">
        <ele>33.780000000000001</ele>
        <time>2024-09-13T07:32:49Z</time>
      </trkpt>
      <trkpt lat="52.599593997001648" lon="11.864529037848115">
        <ele>33.780000000000001</ele>
        <time>2024-09-13T07:32:50Z</time>
      </trkpt>
      <trkpt lat="52.599427029490471" lon="11.864711008965969">
        <ele>32.82</ele>
        <time>2024-09-13T07:32:53Z</time>
      </trkpt>
      <trkpt lat="52.59931999258697" lon="11.864774040877819">
        <ele>32.340000000000003</ele>
        <time>2024-09-13T07:33:00Z</time>
      </trkpt>
      <trkpt lat="52.59931999258697" lon="11.864774040877819">
        <ele>32.340000000000003</ele>
        <time>2024-09-13T07:33:44Z</time>
      </trkpt>
      <trkpt lat="52.599075995385647" lon="11.864860961213708">
        <ele>32.340000000000003</ele>
        <time>2024-09-13T07:33:55Z</time>
      </trkpt>
      <trkpt lat="52.598721021786332" lon="11.864980990067124">
        <ele>31.859999999999999</ele>
        <time>2024-09-13T07:33:59Z</time>
      </trkpt>
      <trkpt lat="52.598629994317889" lon="11.865017032250762">
        <ele>31.859999999999999</ele>
        <time>2024-09-13T07:34:00Z</time>
      </trkpt>
      <trkpt lat="52.59785701520741" lon="11.86533403582871">
        <ele>31.379999999999999</ele>
        <time>2024-09-13T07:34:07Z</time>
      </trkpt>
      <trkpt lat="52.59633201174438" lon="11.865862011909485">
        <ele>30.899999999999999</ele>
        <time>2024-09-13T07:34:20Z</time>
      </trkpt>
      <trkpt lat="52.595675038173795" lon="11.865964019671082">
        <ele>32.340000000000003</ele>
        <time>2024-09-13T07:34:26Z</time>
      </trkpt>
      <trkpt lat="52.59545098990202" lon="11.865981034934521">
        <ele>33.780000000000001</ele>
        <time>2024-09-13T07:34:32Z</time>
      </trkpt>
      <trkpt lat="52.595329033210874" lon="11.865973994135857">
        <ele>35.229999999999997</ele>
        <time>2024-09-13T07:34:43Z</time>
      </trkpt>
      <trkpt lat="52.59523599408567" lon="11.865968964993954">
        <ele>35.710000000000001</ele>
        <time>2024-09-13T07:34:45Z</time>
      </trkpt>
      <trkpt lat="52.595189977437258" lon="11.865967037156224">
        <ele>36.189999999999998</ele>
        <time>2024-09-13T07:34:46Z</time>
      </trkpt>
      <trkpt lat="52.595125017687678" lon="11.866025039926171">
        <ele>36.189999999999998</ele>
        <time>2024-09-13T07:34:47Z</time>
      </trkpt>
      <trkpt lat="52.595113031566143" lon="11.86608798801899">
        <ele>36.670000000000002</ele>
        <time>2024-09-13T07:34:48Z</time>
      </trkpt>
      <trkpt lat="52.595098027959466" lon="11.866171974688768">
        <ele>36.670000000000002</ele>
        <time>2024-09-13T07:34:49Z</time>
      </trkpt>
      <trkpt lat="52.595080006867647" lon="11.866266019642353">
        <ele>37.149999999999999</ele>
        <time>2024-09-13T07:34:50Z</time>
      </trkpt>
      <trkpt lat="52.595062991604209" lon="11.866357969120145">
        <ele>37.630000000000003</ele>
        <time>2024-09-13T07:34:51Z</time>
      </trkpt>
      <trkpt lat="52.595011023804545" lon="11.866633985191584">
        <ele>37.630000000000003</ele>
        <time>2024-09-13T07:34:54Z</time>
      </trkpt>
      <trkpt lat="52.594950003549457" lon="11.866771029308438">
        <ele>38.109999999999999</ele>
        <time>2024-09-13T07:34:56Z</time>
      </trkpt>
      <trkpt lat="52.594909016042948" lon="11.866858033463359">
        <ele>38.109999999999999</ele>
        <time>2024-09-13T07:34:57Z</time>
      </trkpt>
      <trkpt lat="52.594859981909394" lon="11.866960041224957">
        <ele>38.109999999999999</ele>
        <time>2024-09-13T07:34:58Z</time>
      </trkpt>
      <trkpt lat="52.594812037423253" lon="11.867060959339142">
        <ele>38.109999999999999</ele>
        <time>2024-09-13T07:34:59Z</time>
      </trkpt>
      <trkpt lat="52.594768032431602" lon="11.867147963494062">
        <ele>38.109999999999999</ele>
        <time>2024-09-13T07:35:00Z</time>
      </trkpt>
      <trkpt lat="52.594695026054978" lon="11.867212001234293">
        <ele>38.109999999999999</ele>
        <time>2024-09-13T07:35:01Z</time>
      </trkpt>
      <trkpt lat="52.594621013849974" lon="11.867277966812253">
        <ele>37.630000000000003</ele>
        <time>2024-09-13T07:35:02Z</time>
      </trkpt>
      <trkpt lat="52.594461003318429" lon="11.86741903424263">
        <ele>37.630000000000003</ele>
        <time>2024-09-13T07:35:04Z</time>
      </trkpt>
      <trkpt lat="52.593846023082733" lon="11.867964025586843">
        <ele>36.670000000000002</ele>
        <time>2024-09-13T07:35:13Z</time>
      </trkpt>
      <trkpt lat="52.593676960095763" lon="11.868203999474645">
        <ele>36.189999999999998</ele>
        <time>2024-09-13T07:35:17Z</time>
      </trkpt>
      <trkpt lat="52.593634966760874" lon="11.868263008072972">
        <ele>35.710000000000001</ele>
        <time>2024-09-13T07:35:18Z</time>
      </trkpt>
      <trkpt lat="52.593569001182914" lon="11.868324028328061">
        <ele>35.710000000000001</ele>
        <time>2024-09-13T07:35:19Z</time>
      </trkpt>
      <trkpt lat="52.593526002019644" lon="11.868324028328061">
        <ele>35.229999999999997</ele>
        <time>2024-09-13T07:35:20Z</time>
      </trkpt>
      <trkpt lat="52.593484008684754" lon="11.868326039984822">
        <ele>35.229999999999997</ele>
        <time>2024-09-13T07:35:21Z</time>
      </trkpt>
      <trkpt lat="52.593459030613303" lon="11.868384964764118">
        <ele>35.229999999999997</ele>
        <time>2024-09-13T07:35:22Z</time>
      </trkpt>
      <trkpt lat="52.59343002922833" lon="11.86845101416111">
        <ele>35.229999999999997</ele>
        <time>2024-09-13T07:35:23Z</time>
      </trkpt>
      <trkpt lat="52.593370014801621" lon="11.868509016931057">
        <ele>35.229999999999997</ele>
        <time>2024-09-13T07:35:24Z</time>
      </trkpt>
      <trkpt lat="52.593317041173577" lon="11.868544975295663">
        <ele>34.740000000000002</ele>
        <time>2024-09-13T07:35:25Z</time>
      </trkpt>
      <trkpt lat="52.59325803257525" lon="11.868584034964442">
        <ele>34.740000000000002</ele>
        <time>2024-09-13T07:35:26Z</time>
      </trkpt>
      <trkpt lat="52.593193994835019" lon="11.868628039956093">
        <ele>34.740000000000002</ele>
        <time>2024-09-13T07:35:27Z</time>
      </trkpt>
      <trkpt lat="52.593121994286776" lon="11.868676990270615">
        <ele>34.740000000000002</ele>
        <time>2024-09-13T07:35:28Z</time>
      </trkpt>
      <trkpt lat="52.593044964596629" lon="11.86872904188931">
        <ele>34.259999999999998</ele>
        <time>2024-09-13T07:35:29Z</time>
      </trkpt>
      <trkpt lat="52.592497039586306" lon="11.869187029078603">
        <ele>35.229999999999997</ele>
        <time>2024-09-13T07:35:36Z</time>
      </trkpt>
      <trkpt lat="52.59214298799634" lon="11.869522975757718">
        <ele>36.189999999999998</ele>
        <time>2024-09-13T07:35:44Z</time>
      </trkpt>
      <trkpt lat="52.591461958363652" lon="11.870167041197419">
        <ele>36.189999999999998</ele>
        <time>2024-09-13T07:35:51Z</time>
      </trkpt>
      <trkpt lat="52.589994035661221" lon="11.871445029973984">
        <ele>35.710000000000001</ele>
        <time>2024-09-13T07:36:05Z</time>
      </trkpt>
      <trkpt lat="52.588641028851271" lon="11.871979963034391">
        <ele>35.229999999999997</ele>
        <time>2024-09-13T07:36:17Z</time>
      </trkpt>
      <trkpt lat="52.58687999099493" lon="11.872203005477786">
        <ele>33.780000000000001</ele>
        <time>2024-09-13T07:36:32Z</time>
      </trkpt>
      <trkpt lat="52.585148960351944" lon="11.872428981587291">
        <ele>32.82</ele>
        <time>2024-09-13T07:36:47Z</time>
      </trkpt>
      <trkpt lat="52.585070002824068" lon="11.872437028214335">
        <ele>32.340000000000003</ele>
        <time>2024-09-13T07:36:48Z</time>
      </trkpt>
      <trkpt lat="52.585008982568979" lon="11.872443985193968">
        <ele>32.340000000000003</ele>
        <time>2024-09-13T07:36:49Z</time>
      </trkpt>
      <trkpt lat="52.584876967594028" lon="11.872256984934211">
        <ele>32.340000000000003</ele>
        <time>2024-09-13T07:36:51Z</time>
      </trkpt>
      <trkpt lat="52.584784012287855" lon="11.872312976047397">
        <ele>32.340000000000003</ele>
        <time>2024-09-13T07:36:52Z</time>
      </trkpt>
      <trkpt lat="52.584637999534607" lon="11.872496036812663">
        <ele>31.859999999999999</ele>
        <time>2024-09-13T07:36:54Z</time>
      </trkpt>
      <trkpt lat="52.584540015086532" lon="11.872508022934198">
        <ele>31.859999999999999</ele>
        <time>2024-09-13T07:36:55Z</time>
      </trkpt>
      <trkpt lat="52.583408039063215" lon="11.872655041515827">
        <ele>30.899999999999999</ele>
        <time>2024-09-13T07:37:05Z</time>
      </trkpt>
      <trkpt lat="52.581777004525065" lon="11.87287800014019">
        <ele>31.379999999999999</ele>
        <time>2024-09-13T07:37:19Z</time>
      </trkpt>
      <trkpt lat="52.58069297298789" lon="11.873546037822962">
        <ele>31.859999999999999</ele>
        <time>2024-09-13T07:37:28Z</time>
      </trkpt>
      <trkpt lat="52.579238964244723" lon="11.874238969758153">
        <ele>32.82</ele>
        <time>2024-09-13T07:37:39Z</time>
      </trkpt>
      <trkpt lat="52.57787799462676" lon="11.874495958909392">
        <ele>34.740000000000002</ele>
        <time>2024-09-13T07:37:48Z</time>
      </trkpt>
      <trkpt lat="52.576579973101616" lon="11.875162990763783">
        <ele>35.229999999999997</ele>
        <time>2024-09-13T07:37:57Z</time>
      </trkpt>
      <trkpt lat="52.57523300126195" lon="11.875931024551392">
        <ele>34.259999999999998</ele>
        <time>2024-09-13T07:38:05Z</time>
      </trkpt>
      <trkpt lat="52.573689976707101" lon="11.877375980839133">
        <ele>34.259999999999998</ele>
        <time>2024-09-13T07:38:14Z</time>
      </trkpt>
      <trkpt lat="52.572792023420334" lon="11.878495970740914">
        <ele>34.740000000000002</ele>
        <time>2024-09-13T07:38:20Z</time>
      </trkpt>
      <trkpt lat="52.571642026305199" lon="11.881053037941456">
        <ele>35.229999999999997</ele>
        <time>2024-09-13T07:38:30Z</time>
      </trkpt>
      <trkpt lat="52.570455987006426" lon="11.883651008829474">
        <ele>35.229999999999997</ele>
        <time>2024-09-13T07:38:40Z</time>
      </trkpt>
      <trkpt lat="52.569830026477575" lon="11.884868983179331">
        <ele>32.82</ele>
        <time>2024-09-13T07:38:45Z</time>
      </trkpt>
      <trkpt lat="52.569675967097282" lon="11.885041985660791">
        <ele>32.340000000000003</ele>
        <time>2024-09-13T07:38:46Z</time>
      </trkpt>
      <trkpt lat="52.569538000971079" lon="11.885190010070801">
        <ele>31.859999999999999</ele>
        <time>2024-09-13T07:38:47Z</time>
      </trkpt>
      <trkpt lat="52.56934798322618" lon="11.885328982025385">
        <ele>30.899999999999999</ele>
        <time>2024-09-13T07:38:48Z</time>
      </trkpt>
      <trkpt lat="52.569181015715003" lon="11.885435013100505">
        <ele>30.420000000000002</ele>
        <time>2024-09-13T07:38:49Z</time>
      </trkpt>
      <trkpt lat="52.568996027112007" lon="11.885481029748917">
        <ele>29.940000000000001</ele>
        <time>2024-09-13T07:38:50Z</time>
      </trkpt>
      <trkpt lat="52.56880802102387" lon="11.885527968406677">
        <ele>29.460000000000001</ele>
        <time>2024-09-13T07:38:51Z</time>
      </trkpt>
      <trkpt lat="52.568623032420874" lon="11.88555495813489">
        <ele>28.98</ele>
        <time>2024-09-13T07:38:52Z</time>
      </trkpt>
      <trkpt lat="52.566665019840002" lon="11.88555495813489">
        <ele>24.170000000000002</ele>
        <time>2024-09-13T07:39:02Z</time>
      </trkpt>
      <trkpt lat="52.564424034208059" lon="11.885756039991975">
        <ele>24.649999999999999</ele>
        <time>2024-09-13T07:39:13Z</time>
      </trkpt>
      <trkpt lat="52.562000993639231" lon="11.886168010532856">
        <ele>26.57</ele>
        <time>2024-09-13T07:39:25Z</time>
      </trkpt>
      <trkpt lat="52.559468988329172" lon="11.886549973860383">
        <ele>28.02</ele>
        <time>2024-09-13T07:39:37Z</time>
      </trkpt>
      <trkpt lat="52.557525979354978" lon="11.887103011831641">
        <ele>28.5</ele>
        <time>2024-09-13T07:39:46Z</time>
      </trkpt>
      <trkpt lat="52.55585596896708" lon="11.887825028970838">
        <ele>28.02</ele>
        <time>2024-09-13T07:39:54Z</time>
      </trkpt>
      <trkpt lat="52.553845988586545" lon="11.888902019709349">
        <ele>27.050000000000001</ele>
        <time>2024-09-13T07:40:04Z</time>
      </trkpt>
      <trkpt lat="52.552163992077112" lon="11.88950601965189">
        <ele>27.530000000000001</ele>
        <time>2024-09-13T07:40:12Z</time>
      </trkpt>
      <trkpt lat="52.549094036221504" lon="11.889736019074917">
        <ele>29.460000000000001</ele>
        <time>2024-09-13T07:40:26Z</time>
      </trkpt>
      <trkpt lat="52.546740984544158" lon="11.889639040455222">
        <ele>29.940000000000001</ele>
        <time>2024-09-13T07:40:37Z</time>
      </trkpt>
      <trkpt lat="52.545080026611686" lon="11.889405017718673">
        <ele>32.340000000000003</ele>
        <time>2024-09-13T07:40:46Z</time>
      </trkpt>
      <trkpt lat="52.544942982494831" lon="11.889300998300314">
        <ele>32.340000000000003</ele>
        <time>2024-09-13T07:40:47Z</time>
      </trkpt>
      <trkpt lat="52.544803004711866" lon="11.889187004417181">
        <ele>32.340000000000003</ele>
        <time>2024-09-13T07:40:48Z</time>
      </trkpt>
      <trkpt lat="52.54470300860703" lon="11.888954993337393">
        <ele>32.82</ele>
        <time>2024-09-13T07:40:49Z</time>
      </trkpt>
      <trkpt lat="52.544626984745264" lon="11.888743015006185">
        <ele>32.82</ele>
        <time>2024-09-13T07:40:50Z</time>
      </trkpt>
      <trkpt lat="52.544554984197021" lon="11.888532964512706">
        <ele>33.299999999999997</ele>
        <time>2024-09-13T07:40:51Z</time>
      </trkpt>
      <trkpt lat="52.544504022225738" lon="11.888330960646272">
        <ele>33.780000000000001</ele>
        <time>2024-09-13T07:40:52Z</time>
      </trkpt>
      <trkpt lat="52.544171009212732" lon="11.887110974639654">
        <ele>36.670000000000002</ele>
        <time>2024-09-13T07:40:59Z</time>
      </trkpt>
      <trkpt lat="52.544113006442785" lon="11.886960016563535">
        <ele>36.670000000000002</ele>
        <time>2024-09-13T07:41:00Z</time>
      </trkpt>
      <trkpt lat="52.544033965095878" lon="11.886820960789919">
        <ele>37.149999999999999</ele>
        <time>2024-09-13T07:41:01Z</time>
      </trkpt>
      <trkpt lat="52.543960036709905" lon="11.886691963300109">
        <ele>37.630000000000003</ele>
        <time>2024-09-13T07:41:02Z</time>
      </trkpt>
      <trkpt lat="52.543857023119926" lon="11.886632032692432">
        <ele>37.630000000000003</ele>
        <time>2024-09-13T07:41:03Z</time>
      </trkpt>
      <trkpt lat="52.543748980388045" lon="11.886570006608963">
        <ele>38.109999999999999</ele>
        <time>2024-09-13T07:41:04Z</time>
      </trkpt>
      <trkpt lat="52.543640015646815" lon="11.886505968868732">
        <ele>38.590000000000003</ele>
        <time>2024-09-13T07:41:05Z</time>
      </trkpt>
      <trkpt lat="52.543059987947345" lon="11.886182008311152">
        <ele>40.030000000000001</ele>
        <time>2024-09-13T07:41:12Z</time>
      </trkpt>
      <trkpt lat="52.542610969394445" lon="11.886046975851059">
        <ele>42.920000000000002</ele>
        <time>2024-09-13T07:41:19Z</time>
      </trkpt>
      <trkpt lat="52.542546009644866" lon="11.886080000549555">
        <ele>43.399999999999999</ele>
        <time>2024-09-13T07:41:20Z</time>
      </trkpt>
      <trkpt lat="52.542479960247874" lon="11.886113025248051">
        <ele>43.880000000000003</ele>
        <time>2024-09-13T07:41:21Z</time>
      </trkpt>
      <trkpt lat="52.542439978569746" lon="11.886202963069081">
        <ele>44.359999999999999</ele>
        <time>2024-09-13T07:41:22Z</time>
      </trkpt>
      <trkpt lat="52.542396979406476" lon="11.886301031336188">
        <ele>44.840000000000003</ele>
        <time>2024-09-13T07:41:23Z</time>
      </trkpt>
      <trkpt lat="52.542333025485277" lon="11.886447966098785">
        <ele>45.32</ele>
        <time>2024-09-13T07:41:25Z</time>
      </trkpt>
      <trkpt lat="52.542277034372091" lon="11.88645601272583">
        <ele>45.799999999999997</ele>
        <time>2024-09-13T07:41:26Z</time>
      </trkpt>
      <trkpt lat="52.542205033823848" lon="11.88645601272583">
        <ele>46.280000000000001</ele>
        <time>2024-09-13T07:41:27Z</time>
      </trkpt>
      <trkpt lat="52.542131021618843" lon="11.886444026604295">
        <ele>46.759999999999998</ele>
        <time>2024-09-13T07:41:28Z</time>
      </trkpt>
      <trkpt lat="52.542050974443555" lon="11.886406978592277">
        <ele>46.759999999999998</ele>
        <time>2024-09-13T07:41:29Z</time>
      </trkpt>
      <trkpt lat="52.541654007509351" lon="11.886221989989281">
        <ele>48.200000000000003</ele>
        <time>2024-09-13T07:41:34Z</time>
      </trkpt>
      <trkpt lat="52.541573038324714" lon="11.886184019967914">
        <ele>48.200000000000003</ele>
        <time>2024-09-13T07:41:35Z</time>
      </trkpt>
      <trkpt lat="52.541504977270961" lon="11.886146971955895">
        <ele>48.200000000000003</ele>
        <time>2024-09-13T07:41:36Z</time>
      </trkpt>
      <trkpt lat="52.541446974501014" lon="11.88611201941967">
        <ele>47.719999999999999</ele>
        <time>2024-09-13T07:41:37Z</time>
      </trkpt>
      <trkpt lat="52.541384026408195" lon="11.886074971407652">
        <ele>47.719999999999999</ele>
        <time>2024-09-13T07:41:38Z</time>
      </trkpt>
      <trkpt lat="52.541084038093686" lon="11.88589702360332">
        <ele>46.759999999999998</ele>
        <time>2024-09-13T07:41:42Z</time>
      </trkpt>
      <trkpt lat="52.540924027562141" lon="11.885802978649735">
        <ele>46.280000000000001</ele>
        <time>2024-09-13T07:41:44Z</time>
      </trkpt>
      <trkpt lat="52.540673995390534" lon="11.885655960068107">
        <ele>47.240000000000002</ele>
        <time>2024-09-13T07:41:47Z</time>
      </trkpt>
      <trkpt lat="52.540587997063994" lon="11.885613966733217">
        <ele>47.719999999999999</ele>
        <time>2024-09-13T07:41:48Z</time>
      </trkpt>
      <trkpt lat="52.540490012615919" lon="11.885591000318527">
        <ele>47.719999999999999</ele>
        <time>2024-09-13T07:41:49Z</time>
      </trkpt>
      <trkpt lat="52.540396973490715" lon="11.885569039732218">
        <ele>48.200000000000003</ele>
        <time>2024-09-13T07:41:50Z</time>
      </trkpt>
      <trkpt lat="52.540296977385879" lon="11.885544983670115">
        <ele>48.68</ele>
        <time>2024-09-13T07:41:51Z</time>
      </trkpt>
      <trkpt lat="52.539217974990606" lon="11.885351026430726">
        <ele>51.090000000000003</ele>
        <time>2024-09-13T07:41:59Z</time>
      </trkpt>
      <trkpt lat="52.537777964025736" lon="11.88437101431191">
        <ele>52.530000000000001</ele>
        <time>2024-09-13T07:42:07Z</time>
      </trkpt>
      <trkpt lat="52.53576597198844" lon="11.88295497559011">
        <ele>53.009999999999998</ele>
        <time>2024-09-13T07:42:17Z</time>
      </trkpt>
      <trkpt lat="52.533732019364834" lon="11.881524017080665">
        <ele>52.530000000000001</ele>
        <time>2024-09-13T07:42:27Z</time>
      </trkpt>
      <trkpt lat="52.53204901702702" lon="11.880339989438653">
        <ele>52.049999999999997</ele>
        <time>2024-09-13T07:42:35Z</time>
      </trkpt>
      <trkpt lat="52.530957022681832" lon="11.87960397452116">
        <ele>53.009999999999998</ele>
        <time>2024-09-13T07:42:40Z</time>
      </trkpt>
      <trkpt lat="52.530736997723579" lon="11.879487968981266">
        <ele>53.009999999999998</ele>
        <time>2024-09-13T07:42:41Z</time>
      </trkpt>
      <trkpt lat="52.530504986643791" lon="11.879436001181602">
        <ele>53.009999999999998</ele>
        <time>2024-09-13T07:42:42Z</time>
      </trkpt>
      <trkpt lat="52.528700027614832" lon="11.878942977637053">
        <ele>53.009999999999998</ele>
        <time>2024-09-13T07:42:50Z</time>
      </trkpt>
      <trkpt lat="52.526588039472699" lon="11.877943016588688">
        <ele>51.090000000000003</ele>
        <time>2024-09-13T07:43:00Z</time>
      </trkpt>
      <trkpt lat="52.524348981678486" lon="11.876888992264867">
        <ele>45.32</ele>
        <time>2024-09-13T07:43:11Z</time>
      </trkpt>
      <trkpt lat="52.522172033786774" lon="11.875863969326019">
        <ele>38.109999999999999</ele>
        <time>2024-09-13T07:43:22Z</time>
      </trkpt>
      <trkpt lat="52.520947018638253" lon="11.875289976596832">
        <ele>34.740000000000002</ele>
        <time>2024-09-13T07:43:29Z</time>
      </trkpt>
      <trkpt lat="52.520203962922096" lon="11.874975990504026">
        <ele>32.340000000000003</ele>
        <time>2024-09-13T07:43:35Z</time>
      </trkpt>
      <trkpt lat="52.520007994025946" lon="11.874975990504026">
        <ele>30.420000000000002</ele>
        <time>2024-09-13T07:43:40Z</time>
      </trkpt>
      <trkpt lat="52.519915960729122" lon="11.875019995495677">
        <ele>29.940000000000001</ele>
        <time>2024-09-13T07:43:41Z</time>
      </trkpt>
      <trkpt lat="52.51993197016418" lon="11.875097025185823">
        <ele>29.940000000000001</ele>
        <time>2024-09-13T07:43:42Z</time>
      </trkpt>
      <trkpt lat="52.519956026226282" lon="11.875209007412195">
        <ele>29.940000000000001</ele>
        <time>2024-09-13T07:43:43Z</time>
      </trkpt>
      <trkpt lat="52.519984021782875" lon="11.875353008508682">
        <ele>29.940000000000001</ele>
        <time>2024-09-13T07:43:44Z</time>
      </trkpt>
      <trkpt lat="52.520240005105734" lon="11.876772986724973">
        <ele>31.379999999999999</ele>
        <time>2024-09-13T07:43:50Z</time>
      </trkpt>
      <trkpt lat="52.52070696093142" lon="11.879184041172266">
        <ele>32.340000000000003</ele>
        <time>2024-09-13T07:43:58Z</time>
      </trkpt>
      <trkpt lat="52.521256981417537" lon="11.882020980119705">
        <ele>32.340000000000003</ele>
        <time>2024-09-13T07:44:07Z</time>
      </trkpt>
      <trkpt lat="52.521838014945388" lon="11.885010972619057">
        <ele>32.340000000000003</ele>
        <time>2024-09-13T07:44:16Z</time>
      </trkpt>
      <trkpt lat="52.522822972387075" lon="11.889685979112983">
        <ele>32.82</ele>
        <time>2024-09-13T07:44:30Z</time>
      </trkpt>
      <trkpt lat="52.523607015609741" lon="11.893044020980597">
        <ele>31.379999999999999</ele>
        <time>2024-09-13T07:44:41Z</time>
      </trkpt>
      <trkpt lat="52.523907003924251" lon="11.894339025020599">
        <ele>31.859999999999999</ele>
        <time>2024-09-13T07:44:48Z</time>
      </trkpt>
      <trkpt lat="52.524214033037424" lon="11.895658001303673">
        <ele>31.379999999999999</ele>
        <time>2024-09-13T07:44:56Z</time>
      </trkpt>
      <trkpt lat="52.524255020543933" lon="11.895835027098656">
        <ele>31.379999999999999</ele>
        <time>2024-09-13T07:44:57Z</time>
      </trkpt>
      <trkpt lat="52.524713007733226" lon="11.898003006353974">
        <ele>31.859999999999999</ele>
        <time>2024-09-13T07:45:09Z</time>
      </trkpt>
      <trkpt lat="52.525086002424359" lon="11.899979962036014">
        <ele>32.340000000000003</ele>
        <time>2024-09-13T07:45:19Z</time>
      </trkpt>
      <trkpt lat="52.525611966848373" lon="11.902529988437891">
        <ele>33.780000000000001</ele>
        <time>2024-09-13T07:45:28Z</time>
      </trkpt>
      <trkpt lat="52.526415959000587" lon="11.906239986419678">
        <ele>35.710000000000001</ele>
        <time>2024-09-13T07:45:39Z</time>
      </trkpt>
      <trkpt lat="52.527310978621244" lon="11.910551972687244">
        <ele>36.189999999999998</ele>
        <time>2024-09-13T07:45:51Z</time>
      </trkpt>
      <trkpt lat="52.527780029922724" lon="11.912942994385958">
        <ele>34.740000000000002</ele>
        <time>2024-09-13T07:45:59Z</time>
      </trkpt>
      <trkpt lat="52.528414037078619" lon="11.916175978258252">
        <ele>31.859999999999999</ele>
        <time>2024-09-13T07:46:08Z</time>
      </trkpt>
      <trkpt lat="52.529354989528656" lon="11.920914016664028">
        <ele>31.859999999999999</ele>
        <time>2024-09-13T07:46:21Z</time>
      </trkpt>
      <trkpt lat="52.530212961137295" lon="11.925116032361984">
        <ele>32.82</ele>
        <time>2024-09-13T07:46:34Z</time>
      </trkpt>
      <trkpt lat="52.530744960531592" lon="11.927830008789897">
        <ele>33.299999999999997</ele>
        <time>2024-09-13T07:46:44Z</time>
      </trkpt>
      <trkpt lat="52.531332029029727" lon="11.930813966318965">
        <ele>32.340000000000003</ele>
        <time>2024-09-13T07:46:54Z</time>
      </trkpt>
      <trkpt lat="52.53209101036191" lon="11.934703001752496">
        <ele>31.379999999999999</ele>
        <time>2024-09-13T07:47:05Z</time>
      </trkpt>
      <trkpt lat="52.532732980325818" lon="11.937988037243485">
        <ele>33.299999999999997</ele>
        <time>2024-09-13T07:47:15Z</time>
      </trkpt>
      <trkpt lat="52.533173030242324" lon="11.940193986520171">
        <ele>34.259999999999998</ele>
        <time>2024-09-13T07:47:23Z</time>
      </trkpt>
      <trkpt lat="52.533435970544815" lon="11.941500976681709">
        <ele>35.710000000000001</ele>
        <time>2024-09-13T07:47:30Z</time>
      </trkpt>
      <trkpt lat="52.53381097689271" lon="11.943365028128028">
        <ele>38.109999999999999</ele>
        <time>2024-09-13T07:47:40Z</time>
      </trkpt>
      <trkpt lat="52.534105014055967" lon="11.944825993850827">
        <ele>38.590000000000003</ele>
        <time>2024-09-13T07:47:48Z</time>
      </trkpt>
      <trkpt lat="52.534142984077334" lon="11.945012994110584">
        <ele>38.590000000000003</ele>
        <time>2024-09-13T07:47:49Z</time>
      </trkpt>
      <trkpt lat="52.534295031800866" lon="11.945769963786006">
        <ele>41.950000000000003</ele>
        <time>2024-09-13T07:47:53Z</time>
      </trkpt>
      <trkpt lat="52.534685041755438" lon="11.947793019935489">
        <ele>43.880000000000003</ele>
        <time>2024-09-13T07:48:04Z</time>
      </trkpt>
      <trkpt lat="52.534716976806521" lon="11.947984965518117">
        <ele>44.359999999999999</ele>
        <time>2024-09-13T07:48:05Z</time>
      </trkpt>
      <trkpt lat="52.535036997869611" lon="11.950244978070259">
        <ele>44.840000000000003</ele>
        <time>2024-09-13T07:48:17Z</time>
      </trkpt>
      <trkpt lat="52.535434970632195" lon="11.953447032719851">
        <ele>41.469999999999999</ele>
        <time>2024-09-13T07:48:34Z</time>
      </trkpt>
      <trkpt lat="52.535917013883591" lon="11.955803018063307">
        <ele>40.990000000000002</ele>
        <time>2024-09-13T07:48:47Z</time>
      </trkpt>
      <trkpt lat="52.536337031051517" lon="11.957601020112634">
        <ele>42.439999999999998</ele>
        <time>2024-09-13T07:48:57Z</time>
      </trkpt>
      <trkpt lat="52.536380030214787" lon="11.957779973745346">
        <ele>42.439999999999998</ele>
        <time>2024-09-13T07:48:58Z</time>
      </trkpt>
      <trkpt lat="52.536424035206437" lon="11.95795800536871">
        <ele>42.439999999999998</ele>
        <time>2024-09-13T07:48:59Z</time>
      </trkpt>
      <trkpt lat="52.536468962207437" lon="11.958135031163692">
        <ele>42.439999999999998</ele>
        <time>2024-09-13T07:49:00Z</time>
      </trkpt>
      <trkpt lat="52.536511961370707" lon="11.958313984796405">
        <ele>42.439999999999998</ele>
        <time>2024-09-13T07:49:01Z</time>
      </trkpt>
      <trkpt lat="52.536853021010756" lon="11.959551991894841">
        <ele>43.880000000000003</ele>
        <time>2024-09-13T07:49:08Z</time>
      </trkpt>
      <trkpt lat="52.536922004073858" lon="11.959718959406018">
        <ele>44.359999999999999</ele>
        <time>2024-09-13T07:49:09Z</time>
      </trkpt>
      <trkpt lat="52.537014037370682" lon="11.959837982431054">
        <ele>44.840000000000003</ele>
        <time>2024-09-13T07:49:10Z</time>
      </trkpt>
      <trkpt lat="52.537690037861466" lon="11.960712969303131">
        <ele>47.719999999999999</ele>
        <time>2024-09-13T07:49:19Z</time>
      </trkpt>
      <trkpt lat="52.538372995331883" lon="11.961799012497067">
        <ele>51.090000000000003</ele>
        <time>2024-09-13T07:49:29Z</time>
      </trkpt>
      <trkpt lat="52.538436027243733" lon="11.961920969188213">
        <ele>51.090000000000003</ele>
        <time>2024-09-13T07:49:30Z</time>
      </trkpt>
      <trkpt lat="52.538499981164932" lon="11.96204200387001">
        <ele>50.609999999999999</ele>
        <time>2024-09-13T07:49:31Z</time>
      </trkpt>
      <trkpt lat="52.539280001074076" lon="11.963532976806164">
        <ele>44.359999999999999</ele>
        <time>2024-09-13T07:49:43Z</time>
      </trkpt>
      <trkpt lat="52.539974022656679" lon="11.964846001937985">
        <ele>41.950000000000003</ele>
        <time>2024-09-13T07:49:54Z</time>
      </trkpt>
      <trkpt lat="52.540841968730092" lon="11.966544007882476">
        <ele>43.880000000000003</ele>
        <time>2024-09-13T07:50:08Z</time>
      </trkpt>
      <trkpt lat="52.541013965383172" lon="11.966912979260087">
        <ele>43.880000000000003</ele>
        <time>2024-09-13T07:50:11Z</time>
      </trkpt>
      <trkpt lat="52.541070962324739" lon="11.967041976749897">
        <ele>43.399999999999999</ele>
        <time>2024-09-13T07:50:12Z</time>
      </trkpt>
      <trkpt lat="52.541590975597501" lon="11.968051996082067">
        <ele>42.439999999999998</ele>
        <time>2024-09-13T07:50:20Z</time>
      </trkpt>
      <trkpt lat="52.54225398413837" lon="11.969294026494026">
        <ele>45.32</ele>
        <time>2024-09-13T07:50:30Z</time>
      </trkpt>
      <trkpt lat="52.542912969365716" lon="11.970545025542378">
        <ele>47.719999999999999</ele>
        <time>2024-09-13T07:50:40Z</time>
      </trkpt>
      <trkpt lat="52.542982036247849" lon="11.97065700776875">
        <ele>47.719999999999999</ele>
        <time>2024-09-13T07:50:41Z</time>
      </trkpt>
      <trkpt lat="52.543629035353661" lon="11.971718994900584">
        <ele>48.200000000000003</ele>
        <time>2024-09-13T07:50:51Z</time>
      </trkpt>
      <trkpt lat="52.543695000931621" lon="11.971826031804085">
        <ele>47.719999999999999</ele>
        <time>2024-09-13T07:50:52Z</time>
      </trkpt>
      <trkpt lat="52.544269999489188" lon="11.972714010626078">
        <ele>47.240000000000002</ele>
        <time>2024-09-13T07:51:02Z</time>
      </trkpt>
      <trkpt lat="52.544807028025389" lon="11.973709026351571">
        <ele>47.240000000000002</ele>
        <time>2024-09-13T07:51:13Z</time>
      </trkpt>
      <trkpt lat="52.545431982725859" lon="11.975064966827631">
        <ele>47.240000000000002</ele>
        <time>2024-09-13T07:51:25Z</time>
      </trkpt>
      <trkpt lat="52.545920982956886" lon="11.975864013656974">
        <ele>44.359999999999999</ele>
        <time>2024-09-13T07:51:33Z</time>
      </trkpt>
      <trkpt lat="52.545980997383595" lon="11.975972978398204">
        <ele>44.359999999999999</ele>
        <time>2024-09-13T07:51:34Z</time>
      </trkpt>
      <trkpt lat="52.546007987111807" lon="11.976108010858297">
        <ele>44.359999999999999</ele>
        <time>2024-09-13T07:51:35Z</time>
      </trkpt>
      <trkpt lat="52.546042017638683" lon="11.976367011666298">
        <ele>44.840000000000003</ele>
        <time>2024-09-13T07:51:37Z</time>
      </trkpt>
      <trkpt lat="52.546042017638683" lon="11.976485028862953">
        <ele>45.32</ele>
        <time>2024-09-13T07:51:38Z</time>
      </trkpt>
      <trkpt lat="52.546042017638683" lon="11.976699018850923">
        <ele>45.799999999999997</ele>
        <time>2024-09-13T07:51:40Z</time>
      </trkpt>
      <trkpt lat="52.546091973781586" lon="11.976774036884308">
        <ele>45.799999999999997</ele>
        <time>2024-09-13T07:51:41Z</time>
      </trkpt>
      <trkpt lat="52.546145031228662" lon="11.976846037432551">
        <ele>46.280000000000001</ele>
        <time>2024-09-13T07:51:42Z</time>
      </trkpt>
      <trkpt lat="52.54663797095418" lon="11.977541986852884">
        <ele>46.759999999999998</ele>
        <time>2024-09-13T07:51:49Z</time>
      </trkpt>
      <trkpt lat="52.546695973724127" lon="11.977666961029172">
        <ele>45.32</ele>
        <time>2024-09-13T07:51:50Z</time>
      </trkpt>
      <trkpt lat="52.546753976494074" lon="11.977791013196111">
        <ele>44.359999999999999</ele>
        <time>2024-09-13T07:51:51Z</time>
      </trkpt>
      <trkpt lat="52.546864030882716" lon="11.97802796959877">
        <ele>41.950000000000003</ele>
        <time>2024-09-13T07:51:53Z</time>
      </trkpt>
      <trkpt lat="52.546912981197238" lon="11.97813400067389">
        <ele>40.030000000000001</ele>
        <time>2024-09-13T07:51:54Z</time>
      </trkpt>
      <trkpt lat="52.547014988958836" lon="11.978353019803762">
        <ele>34.740000000000002</ele>
        <time>2024-09-13T07:51:56Z</time>
      </trkpt>
      <trkpt lat="52.547177011147141" lon="11.978684021160007">
        <ele>28.5</ele>
        <time>2024-09-13T07:51:59Z</time>
      </trkpt>
      <trkpt lat="52.547247000038624" lon="11.978767002001405">
        <ele>26.57</ele>
        <time>2024-09-13T07:52:00Z</time>
      </trkpt>
      <trkpt lat="52.547316988930106" lon="11.978850988671184">
        <ele>25.129999999999999</ele>
        <time>2024-09-13T07:52:01Z</time>
      </trkpt>
      <trkpt lat="52.548415018245578" lon="11.979513997212052">
        <ele>17.440000000000001</ele>
        <time>2024-09-13T07:52:13Z</time>
      </trkpt>
      <trkpt lat="52.548522977158427" lon="11.979563031345606">
        <ele>16.960000000000001</ele>
        <time>2024-09-13T07:52:14Z</time>
      </trkpt>
      <trkpt lat="52.548620961606503" lon="11.979577029123902">
        <ele>16.48</ele>
        <time>2024-09-13T07:52:15Z</time>
      </trkpt>
      <trkpt lat="52.549535008147359" lon="11.979642994701862">
        <ele>12.15</ele>
        <time>2024-09-13T07:52:24Z</time>
      </trkpt>
      <trkpt lat="52.550664972513914" lon="11.979723963886499">
        <ele>9.75</ele>
        <time>2024-09-13T07:52:35Z</time>
      </trkpt>
      <trkpt lat="52.551289005205035" lon="11.979784984141588">
        <ele>10.23</ele>
        <time>2024-09-13T07:52:41Z</time>
      </trkpt>
      <trkpt lat="52.551391012966633" lon="11.979792024940252">
        <ele>10.710000000000001</ele>
        <time>2024-09-13T07:52:42Z</time>
      </trkpt>
      <trkpt lat="52.552457023411989" lon="11.979882968589664">
        <ele>12.630000000000001</ele>
        <time>2024-09-13T07:52:52Z</time>
      </trkpt>
      <trkpt lat="52.552563976496458" lon="11.979891015216708">
        <ele>12.630000000000001</ele>
        <time>2024-09-13T07:52:53Z</time>
      </trkpt>
      <trkpt lat="52.553643984720111" lon="11.979957986623049">
        <ele>15.039999999999999</ele>
        <time>2024-09-13T07:53:03Z</time>
      </trkpt>
      <trkpt lat="52.554720975458622" lon="11.980049014091492">
        <ele>15.039999999999999</ele>
        <time>2024-09-13T07:53:13Z</time>
      </trkpt>
      <trkpt lat="52.556076999753714" lon="11.980154039338231">
        <ele>16</ele>
        <time>2024-09-13T07:53:25Z</time>
      </trkpt>
      <trkpt lat="52.557708034291863" lon="11.980284964665771">
        <ele>19.359999999999999</ele>
        <time>2024-09-13T07:53:39Z</time>
      </trkpt>
      <trkpt lat="52.559468988329172" lon="11.98041002266109">
        <ele>25.129999999999999</ele>
        <time>2024-09-13T07:53:54Z</time>
      </trkpt>
      <trkpt lat="52.561240000650287" lon="11.980500966310501">
        <ele>31.859999999999999</ele>
        <time>2024-09-13T07:54:09Z</time>
      </trkpt>
      <trkpt lat="52.562992991879582" lon="11.98019502684474">
        <ele>31.859999999999999</ele>
        <time>2024-09-13T07:54:23Z</time>
      </trkpt>
      <trkpt lat="52.565204976126552" lon="11.979725975543261">
        <ele>29.940000000000001</ele>
        <time>2024-09-13T07:54:36Z</time>
      </trkpt>
      <trkpt lat="52.567054023966193" lon="11.979348035529256">
        <ele>28.5</ele>
        <time>2024-09-13T07:54:47Z</time>
      </trkpt>
      <trkpt lat="52.568434020504355" lon="11.979092974215746">
        <ele>28.5</ele>
        <time>2024-09-13T07:54:56Z</time>
      </trkpt>
      <trkpt lat="52.568590007722378" lon="11.97905701585114">
        <ele>28.98</ele>
        <time>2024-09-13T07:54:58Z</time>
      </trkpt>
      <trkpt lat="52.568645998835564" lon="11.979042012244463">
        <ele>29.460000000000001</ele>
        <time>2024-09-13T07:54:59Z</time>
      </trkpt>
      <trkpt lat="52.568570980802178" lon="11.978855011984706">
        <ele>29.460000000000001</ele>
        <time>2024-09-13T07:55:00Z</time>
      </trkpt>
      <trkpt lat="52.568583972752094" lon="11.978719979524612">
        <ele>29.940000000000001</ele>
        <time>2024-09-13T07:55:01Z</time>
      </trkpt>
      <trkpt lat="52.568599982187152" lon="11.978557035326958">
        <ele>29.940000000000001</ele>
        <time>2024-09-13T07:55:02Z</time>
      </trkpt>
      <trkpt lat="52.568692015483975" lon="11.977708032354712">
        <ele>30.899999999999999</ele>
        <time>2024-09-13T07:55:06Z</time>
      </trkpt>
      <trkpt lat="52.568700984120369" lon="11.977479960769415">
        <ele>31.379999999999999</ele>
        <time>2024-09-13T07:55:07Z</time>
      </trkpt>
      <trkpt lat="52.568677011877298" lon="11.977266976609826">
        <ele>31.379999999999999</ele>
        <time>2024-09-13T07:55:08Z</time>
      </trkpt>
      <trkpt lat="52.56863703019917" lon="11.977049969136715">
        <ele>31.379999999999999</ele>
        <time>2024-09-13T07:55:09Z</time>
      </trkpt>
      <trkpt lat="52.568579027429223" lon="11.976892976090312">
        <ele>31.859999999999999</ele>
        <time>2024-09-13T07:55:10Z</time>
      </trkpt>
      <trkpt lat="52.568511972203851" lon="11.976716034114361">
        <ele>32.340000000000003</ele>
        <time>2024-09-13T07:55:11Z</time>
      </trkpt>
      <trkpt lat="52.568442989140749" lon="11.97654202580452">
        <ele>32.82</ele>
        <time>2024-09-13T07:55:12Z</time>
      </trkpt>
      <trkpt lat="52.568371994420886" lon="11.976359970867634">
        <ele>32.82</ele>
        <time>2024-09-13T07:55:13Z</time>
      </trkpt>
      <trkpt lat="52.568300999701023" lon="11.976180011406541">
        <ele>33.299999999999997</ele>
        <time>2024-09-13T07:55:14Z</time>
      </trkpt>
      <trkpt lat="52.56825196556747" lon="11.975965015590191">
        <ele>33.299999999999997</ele>
        <time>2024-09-13T07:55:15Z</time>
      </trkpt>
      <trkpt lat="52.568234028294683" lon="11.975731998682022">
        <ele>33.299999999999997</ele>
        <time>2024-09-13T07:55:16Z</time>
      </trkpt>
      <trkpt lat="52.56825003772974" lon="11.975518008694053">
        <ele>33.299999999999997</ele>
        <time>2024-09-13T07:55:17Z</time>
      </trkpt>
      <trkpt lat="52.568265963345766" lon="11.975302007049322">
        <ele>33.299999999999997</ele>
        <time>2024-09-13T07:55:18Z</time>
      </trkpt>
      <trkpt lat="52.568325977772474" lon="11.975057004019618">
        <ele>33.299999999999997</ele>
        <time>2024-09-13T07:55:19Z</time>
      </trkpt>
      <trkpt lat="52.568394960835576" lon="11.97484502568841">
        <ele>33.780000000000001</ele>
        <time>2024-09-13T07:55:20Z</time>
      </trkpt>
      <trkpt lat="52.569114966318011" lon="11.972538996487856">
        <ele>34.740000000000002</ele>
        <time>2024-09-13T07:55:29Z</time>
      </trkpt>
      <trkpt lat="52.570226993411779" lon="11.96898004040122">
        <ele>36.189999999999998</ele>
        <time>2024-09-13T07:55:41Z</time>
      </trkpt>
      <trkpt lat="52.571039032191038" lon="11.965832971036434">
        <ele>33.780000000000001</ele>
        <time>2024-09-13T07:55:51Z</time>
      </trkpt>
      <trkpt lat="52.571639008820057" lon="11.962270997464657">
        <ele>29.940000000000001</ele>
        <time>2024-09-13T07:56:01Z</time>
      </trkpt>
      <trkpt lat="52.57196900434792" lon="11.957911988720298">
        <ele>30.899999999999999</ele>
        <time>2024-09-13T07:56:12Z</time>
      </trkpt>
      <trkpt lat="52.571934973821044" lon="11.954470966011286">
        <ele>31.379999999999999</ele>
        <time>2024-09-13T07:56:21Z</time>
      </trkpt>
      <trkpt lat="52.571480004116893" lon="11.950276996940374">
        <ele>32.340000000000003</ele>
        <time>2024-09-13T07:56:32Z</time>
      </trkpt>
      <trkpt lat="52.570771984755993" lon="11.946467002853751">
        <ele>33.299999999999997</ele>
        <time>2024-09-13T07:56:43Z</time>
      </trkpt>
      <trkpt lat="52.570249037817121" lon="11.943802982568741">
        <ele>33.780000000000001</ele>
        <time>2024-09-13T07:56:52Z</time>
      </trkpt>
      <trkpt lat="52.570059020072222" lon="11.942560030147433">
        <ele>34.259999999999998</ele>
        <time>2024-09-13T07:56:58Z</time>
      </trkpt>
      <trkpt lat="52.570060025900602" lon="11.942369006574154">
        <ele>34.740000000000002</ele>
        <time>2024-09-13T07:56:59Z</time>
      </trkpt>
      <trkpt lat="52.570072012022138" lon="11.942177983000875">
        <ele>34.740000000000002</ele>
        <time>2024-09-13T07:57:00Z</time>
      </trkpt>
      <trkpt lat="52.570134038105607" lon="11.942007998004556">
        <ele>35.229999999999997</ele>
        <time>2024-09-13T07:57:01Z</time>
      </trkpt>
      <trkpt lat="52.570217018947005" lon="11.941837007179856">
        <ele>35.710000000000001</ele>
        <time>2024-09-13T07:57:02Z</time>
      </trkpt>
      <trkpt lat="52.570322966203094" lon="11.941669033840299">
        <ele>35.710000000000001</ele>
        <time>2024-09-13T07:57:03Z</time>
      </trkpt>
      <trkpt lat="52.570430003106594" lon="11.941497959196568">
        <ele>36.189999999999998</ele>
        <time>2024-09-13T07:57:04Z</time>
      </trkpt>
      <trkpt lat="52.570529999211431" lon="11.941339960321784">
        <ele>36.189999999999998</ele>
        <time>2024-09-13T07:57:05Z</time>
      </trkpt>
      <trkpt lat="52.570597976446152" lon="11.941171986982226">
        <ele>36.670000000000002</ele>
        <time>2024-09-13T07:57:06Z</time>
      </trkpt>
      <trkpt lat="52.570652039721608" lon="11.940975012257695">
        <ele>36.670000000000002</ele>
        <time>2024-09-13T07:57:07Z</time>
      </trkpt>
      <trkpt lat="52.570675006136298" lon="11.940779965370893">
        <ele>36.670000000000002</ele>
        <time>2024-09-13T07:57:08Z</time>
      </trkpt>
      <trkpt lat="52.570669976994395" lon="11.940568992868066">
        <ele>37.149999999999999</ele>
        <time>2024-09-13T07:57:09Z</time>
      </trkpt>
      <trkpt lat="52.570662014186382" lon="11.94036397151649">
        <ele>37.149999999999999</ele>
        <time>2024-09-13T07:57:10Z</time>
      </trkpt>
      <trkpt lat="52.570652961730957" lon="11.940172025933862">
        <ele>37.149999999999999</ele>
        <time>2024-09-13T07:57:11Z</time>
      </trkpt>
      <trkpt lat="52.570627983659506" lon="11.939580012112856">
        <ele>37.149999999999999</ele>
        <time>2024-09-13T07:57:15Z</time>
      </trkpt>
      <trkpt lat="52.570623960345984" lon="11.939487978816032">
        <ele>37.149999999999999</ele>
        <time>2024-09-13T07:57:16Z</time>
      </trkpt>
      <trkpt lat="52.570621026679873" lon="11.939409021288157">
        <ele>37.149999999999999</ele>
        <time>2024-09-13T07:57:17Z</time>
      </trkpt>
      <trkpt lat="52.570744995027781" lon="11.939227972179651">
        <ele>37.630000000000003</ele>
        <time>2024-09-13T07:57:18Z</time>
      </trkpt>
      <trkpt lat="52.570796962827444" lon="11.939246999099851">
        <ele>37.630000000000003</ele>
        <time>2024-09-13T07:57:19Z</time>
      </trkpt>
      <trkpt lat="52.570867035537958" lon="11.939273988828063">
        <ele>37.630000000000003</ele>
        <time>2024-09-13T07:57:20Z</time>
      </trkpt>
      <trkpt lat="52.570964014157653" lon="11.939311036840081">
        <ele>37.630000000000003</ele>
        <time>2024-09-13T07:57:21Z</time>
      </trkpt>
      <trkpt lat="52.571080019697547" lon="11.939365016296506">
        <ele>37.630000000000003</ele>
        <time>2024-09-13T07:57:22Z</time>
      </trkpt>
      <trkpt lat="52.571207005530596" lon="11.939425030723214">
        <ele>37.630000000000003</ele>
        <time>2024-09-13T07:57:23Z</time>
      </trkpt>
      <trkpt lat="52.572412993758917" lon="11.939949989318848">
        <ele>36.670000000000002</ele>
        <time>2024-09-13T07:57:30Z</time>
      </trkpt>
      <trkpt lat="52.573654018342495" lon="11.940510990098119">
        <ele>35.710000000000001</ele>
        <time>2024-09-13T07:57:37Z</time>
      </trkpt>
      <trkpt lat="52.573787039145827" lon="11.940687010064721">
        <ele>36.189999999999998</ele>
        <time>2024-09-13T07:57:38Z</time>
      </trkpt>
      <trkpt lat="52.575387982651591" lon="11.942377975210547">
        <ele>34.740000000000002</ele>
        <time>2024-09-13T07:57:48Z</time>
      </trkpt>
      <trkpt lat="52.576087033376098" lon="11.943025980144739">
        <ele>34.740000000000002</ele>
        <time>2024-09-13T07:57:52Z</time>
      </trkpt>
      <trkpt lat="52.578214025124907" lon="11.944126021116972">
        <ele>34.259999999999998</ele>
        <time>2024-09-13T07:58:03Z</time>
      </trkpt>
      <trkpt lat="52.579774986952543" lon="11.945000002160668">
        <ele>33.780000000000001</ele>
        <time>2024-09-13T07:58:12Z</time>
      </trkpt>
      <trkpt lat="52.580297011882067" lon="11.9453040137887">
        <ele>32.82</ele>
        <time>2024-09-13T07:58:17Z</time>
      </trkpt>
      <trkpt lat="52.580445958301425" lon="11.945339972153306">
        <ele>32.340000000000003</ele>
        <time>2024-09-13T07:58:19Z</time>
      </trkpt>
      <trkpt lat="52.580529022961855" lon="11.945358999073505">
        <ele>32.340000000000003</ele>
        <time>2024-09-13T07:58:20Z</time>
      </trkpt>
      <trkpt lat="52.580609992146492" lon="11.945379031822085">
        <ele>31.859999999999999</ele>
        <time>2024-09-13T07:58:21Z</time>
      </trkpt>
      <trkpt lat="52.580717029049993" lon="11.945379031822085">
        <ele>31.859999999999999</ele>
        <time>2024-09-13T07:58:22Z</time>
      </trkpt>
      <trkpt lat="52.580792969092727" lon="11.945438962429762">
        <ele>31.859999999999999</ele>
        <time>2024-09-13T07:58:23Z</time>
      </trkpt>
      <trkpt lat="52.580881984904408" lon="11.945509035140276">
        <ele>31.859999999999999</ele>
        <time>2024-09-13T07:58:24Z</time>
      </trkpt>
      <trkpt lat="52.581742973998189" lon="11.946095013990998">
        <ele>29.940000000000001</ele>
        <time>2024-09-13T07:58:32Z</time>
      </trkpt>
      <trkpt lat="52.583337966352701" lon="11.946970000863075">
        <ele>28.02</ele>
        <time>2024-09-13T07:58:44Z</time>
      </trkpt>
      <trkpt lat="52.584927007555962" lon="11.947772987186909">
        <ele>27.530000000000001</ele>
        <time>2024-09-13T07:58:53Z</time>
      </trkpt>
      <trkpt lat="52.587059028446674" lon="11.9488509837538">
        <ele>27.530000000000001</ele>
        <time>2024-09-13T07:59:04Z</time>
      </trkpt>
      <trkpt lat="52.588672041893005" lon="11.949666040018201">
        <ele>28.02</ele>
        <time>2024-09-13T07:59:13Z</time>
      </trkpt>
      <trkpt lat="52.590274997055531" lon="11.950475983321667">
        <ele>28.02</ele>
        <time>2024-09-13T07:59:22Z</time>
      </trkpt>
      <trkpt lat="52.59216696023941" lon="11.951433029025793">
        <ele>28.98</ele>
        <time>2024-09-13T07:59:33Z</time>
      </trkpt>
      <trkpt lat="52.592962989583611" lon="11.951746009290218">
        <ele>29.940000000000001</ele>
        <time>2024-09-13T07:59:38Z</time>
      </trkpt>
      <trkpt lat="52.593111013993621" lon="11.951712984591722">
        <ele>29.940000000000001</ele>
        <time>2024-09-13T07:59:39Z</time>
      </trkpt>
      <trkpt lat="52.593263983726501" lon="11.951679037883878">
        <ele>30.420000000000002</ele>
        <time>2024-09-13T07:59:40Z</time>
      </trkpt>
      <trkpt lat="52.593422988429666" lon="11.95164299570024">
        <ele>30.420000000000002</ele>
        <time>2024-09-13T07:59:41Z</time>
      </trkpt>
      <trkpt lat="52.593579981476068" lon="11.95153302513063">
        <ele>30.899999999999999</ele>
        <time>2024-09-13T07:59:42Z</time>
      </trkpt>
      <trkpt lat="52.593742003664374" lon="11.951419031247497">
        <ele>30.899999999999999</ele>
        <time>2024-09-13T07:59:43Z</time>
      </trkpt>
      <trkpt lat="52.593906037509441" lon="11.951304031535983">
        <ele>30.899999999999999</ele>
        <time>2024-09-13T07:59:44Z</time>
      </trkpt>
      <trkpt lat="52.594070993363857" lon="11.951190959662199">
        <ele>30.899999999999999</ele>
        <time>2024-09-13T07:59:45Z</time>
      </trkpt>
      <trkpt lat="52.594921002164483" lon="11.950856018811464">
        <ele>31.859999999999999</ele>
        <time>2024-09-13T07:59:51Z</time>
      </trkpt>
      <trkpt lat="52.595040025189519" lon="11.950850989669561">
        <ele>31.859999999999999</ele>
        <time>2024-09-13T07:59:52Z</time>
      </trkpt>
      <trkpt lat="52.595161981880665" lon="11.950880996882915">
        <ele>31.859999999999999</ele>
        <time>2024-09-13T07:59:53Z</time>
      </trkpt>
      <trkpt lat="52.595951976254582" lon="11.951408972963691">
        <ele>32.340000000000003</ele>
        <time>2024-09-13T07:59:59Z</time>
      </trkpt>
      <trkpt lat="52.596075022593141" lon="11.951585998758674">
        <ele>32.340000000000003</ele>
        <time>2024-09-13T08:00:00Z</time>
      </trkpt>
      <trkpt lat="52.596199996769428" lon="11.951766964048147">
        <ele>32.82</ele>
        <time>2024-09-13T08:00:01Z</time>
      </trkpt>
      <trkpt lat="52.596791004762053" lon="11.952657038345933">
        <ele>32.82</ele>
        <time>2024-09-13T08:00:06Z</time>
      </trkpt>
      <trkpt lat="52.596874991431832" lon="11.952825011685491">
        <ele>32.82</ele>
        <time>2024-09-13T08:00:07Z</time>
      </trkpt>
      <trkpt lat="52.596914973109961" lon="11.953077977523208">
        <ele>33.299999999999997</ele>
        <time>2024-09-13T08:00:08Z</time>
      </trkpt>
      <trkpt lat="52.596953026950359" lon="11.953315017744899">
        <ele>32.82</ele>
        <time>2024-09-13T08:00:09Z</time>
      </trkpt>
      <trkpt lat="52.596992002800107" lon="11.953559014946222">
        <ele>32.82</ele>
        <time>2024-09-13T08:00:10Z</time>
      </trkpt>
      <trkpt lat="52.597032990306616" lon="11.953817009925842">
        <ele>32.82</ele>
        <time>2024-09-13T08:00:11Z</time>
      </trkpt>
      <trkpt lat="52.597075989469886" lon="11.954083973541856">
        <ele>32.82</ele>
        <time>2024-09-13T08:00:12Z</time>
      </trkpt>
      <trkpt lat="52.597306994721293" lon="11.956320013850927">
        <ele>32.340000000000003</ele>
        <time>2024-09-13T08:00:21Z</time>
      </trkpt>
      <trkpt lat="52.59738402441144" lon="11.957115037366748">
        <ele>32.340000000000003</ele>
        <time>2024-09-13T08:00:27Z</time>
      </trkpt>
      <trkpt lat="52.597399028018117" lon="11.957267001271248">
        <ele>32.82</ele>
        <time>2024-09-13T08:00:36Z</time>
      </trkpt>
      <trkpt lat="52.597399028018117" lon="11.957267001271248">
        <ele>34.259999999999998</ele>
        <time>2024-09-13T08:00:49Z</time>
      </trkpt>
      <trkpt lat="52.597399028018117" lon="11.957267001271248">
        <ele>34.259999999999998</ele>
        <time>2024-09-13T08:01:44Z</time>
      </trkpt>
      <trkpt lat="52.597416965290904" lon="11.957444027066231">
        <ele>35.229999999999997</ele>
        <time>2024-09-13T08:01:55Z</time>
      </trkpt>
      <trkpt lat="52.597423000261188" lon="11.957510998472571">
        <ele>35.710000000000001</ele>
        <time>2024-09-13T08:01:56Z</time>
      </trkpt>
      <trkpt lat="52.597364997491241" lon="11.95765701122582">
        <ele>36.189999999999998</ele>
        <time>2024-09-13T08:01:57Z</time>
      </trkpt>
      <trkpt lat="52.597315041348338" lon="11.957692969590425">
        <ele>36.189999999999998</ele>
        <time>2024-09-13T08:01:58Z</time>
      </trkpt>
      <trkpt lat="52.597251003608108" lon="11.957737980410457">
        <ele>36.189999999999998</ele>
        <time>2024-09-13T08:01:59Z</time>
      </trkpt>
      <trkpt lat="52.597176991403103" lon="11.957790032029152">
        <ele>36.189999999999998</ele>
        <time>2024-09-13T08:02:00Z</time>
      </trkpt>
      <trkpt lat="52.597091998904943" lon="11.957849962636828">
        <ele>36.189999999999998</ele>
        <time>2024-09-13T08:02:01Z</time>
      </trkpt>
      <trkpt lat="52.597027039155364" lon="11.957961022853851">
        <ele>36.189999999999998</ele>
        <time>2024-09-13T08:02:02Z</time>
      </trkpt>
      <trkpt lat="52.596968030557036" lon="11.958095971494913">
        <ele>36.670000000000002</ele>
        <time>2024-09-13T08:02:03Z</time>
      </trkpt>
      <trkpt lat="52.596917990595102" lon="11.958210971206427">
        <ele>36.670000000000002</ele>
        <time>2024-09-13T08:02:04Z</time>
      </trkpt>
      <trkpt lat="52.596917990595102" lon="11.958362013101578">
        <ele>37.149999999999999</ele>
        <time>2024-09-13T08:02:05Z</time>
      </trkpt>
      <trkpt lat="52.596917990595102" lon="11.958509031683207">
        <ele>37.630000000000003</ele>
        <time>2024-09-13T08:02:06Z</time>
      </trkpt>
      <trkpt lat="52.596917990595102" lon="11.958597041666508">
        <ele>38.109999999999999</ele>
        <time>2024-09-13T08:02:07Z</time>
      </trkpt>
      <trkpt lat="52.596951015293598" lon="11.958743976429105">
        <ele>38.590000000000003</ele>
        <time>2024-09-13T08:02:08Z</time>
      </trkpt>
      <trkpt lat="52.596981022506952" lon="11.958872973918915">
        <ele>39.07</ele>
        <time>2024-09-13T08:02:09Z</time>
      </trkpt>
      <trkpt lat="52.597010023891926" lon="11.959001971408725">
        <ele>39.549999999999997</ele>
        <time>2024-09-13T08:02:10Z</time>
      </trkpt>
      <trkpt lat="52.597045982256532" lon="11.959100039675832">
        <ele>40.030000000000001</ele>
        <time>2024-09-13T08:02:11Z</time>
      </trkpt>
      <trkpt lat="52.597113037481904" lon="11.959201041609049">
        <ele>40.509999999999998</ele>
        <time>2024-09-13T08:02:12Z</time>
      </trkpt>
      <trkpt lat="52.597197024151683" lon="11.959326015785336">
        <ele>40.990000000000002</ele>
        <time>2024-09-13T08:02:13Z</time>
      </trkpt>
      <trkpt lat="52.597269024699926" lon="11.959350993856788">
        <ele>40.990000000000002</ele>
        <time>2024-09-13T08:02:14Z</time>
      </trkpt>
      <trkpt lat="52.597368014976382" lon="11.959383012726903">
        <ele>40.990000000000002</ele>
        <time>2024-09-13T08:02:15Z</time>
      </trkpt>
      <trkpt lat="52.597469016909599" lon="11.959408996626735">
        <ele>40.990000000000002</ele>
        <time>2024-09-13T08:02:16Z</time>
      </trkpt>
      <trkpt lat="52.597582004964352" lon="11.959384018555284">
        <ele>40.509999999999998</ele>
        <time>2024-09-13T08:02:17Z</time>
      </trkpt>
      <trkpt lat="52.597700022161007" lon="11.959356022998691">
        <ele>40.509999999999998</ele>
        <time>2024-09-13T08:02:18Z</time>
      </trkpt>
      <trkpt lat="52.599245980381966" lon="11.958865011110902">
        <ele>41.950000000000003</ele>
        <time>2024-09-13T08:02:31Z</time>
      </trkpt>
      <trkpt lat="52.599437003955245" lon="11.958673987537622">
        <ele>42.439999999999998</ele>
        <time>2024-09-13T08:02:33Z</time>
      </trkpt>
      <trkpt lat="52.599531970918179" lon="11.958579020574689">
        <ele>42.439999999999998</ele>
        <time>2024-09-13T08:02:34Z</time>
      </trkpt>
      <trkpt lat="52.599626015871763" lon="11.958484975621104">
        <ele>41.950000000000003</ele>
        <time>2024-09-13T08:02:35Z</time>
      </trkpt>
      <trkpt lat="52.599696004763246" lon="11.958366958424449">
        <ele>41.950000000000003</ele>
        <time>2024-09-13T08:02:36Z</time>
      </trkpt>
      <trkpt lat="52.599774040281773" lon="11.958218012005091">
        <ele>41.950000000000003</ele>
        <time>2024-09-13T08:02:37Z</time>
      </trkpt>
      <trkpt lat="52.599850986152887" lon="11.958073005080223">
        <ele>41.950000000000003</ele>
        <time>2024-09-13T08:02:38Z</time>
      </trkpt>
      <trkpt lat="52.599895996972919" lon="11.957922969013453">
        <ele>41.469999999999999</ele>
        <time>2024-09-13T08:02:39Z</time>
      </trkpt>
      <trkpt lat="52.59994201362133" lon="11.957757007330656">
        <ele>41.469999999999999</ele>
        <time>2024-09-13T08:02:40Z</time>
      </trkpt>
      <trkpt lat="52.599986018612981" lon="11.957596996799111">
        <ele>40.990000000000002</ele>
        <time>2024-09-13T08:02:41Z</time>
      </trkpt>
      <trkpt lat="52.600218029692769" lon="11.956764003261924">
        <ele>38.590000000000003</ele>
        <time>2024-09-13T08:02:47Z</time>
      </trkpt>
      <trkpt lat="52.600252982228994" lon="11.956635005772114">
        <ele>38.109999999999999</ele>
        <time>2024-09-13T08:02:48Z</time>
      </trkpt>
      <trkpt lat="52.600287012755871" lon="11.956514976918697">
        <ele>38.109999999999999</ele>
        <time>2024-09-13T08:02:49Z</time>
      </trkpt>
      <trkpt lat="52.600384997203946" lon="11.956450017169118">
        <ele>37.630000000000003</ele>
        <time>2024-09-13T08:02:50Z</time>
      </trkpt>
      <trkpt lat="52.600469989702106" lon="11.956393020227551">
        <ele>37.630000000000003</ele>
        <time>2024-09-13T08:02:51Z</time>
      </trkpt>
      <trkpt lat="52.600550958886743" lon="11.956339040771127">
        <ele>37.149999999999999</ele>
        <time>2024-09-13T08:02:52Z</time>
      </trkpt>
      <trkpt lat="52.600640980526805" lon="11.956312973052263">
        <ele>36.670000000000002</ele>
        <time>2024-09-13T08:02:53Z</time>
      </trkpt>
      <trkpt lat="52.600729996338487" lon="11.956344991922379">
        <ele>36.670000000000002</ele>
        <time>2024-09-13T08:02:54Z</time>
      </trkpt>
      <trkpt lat="52.60082102380693" lon="11.956378016620874">
        <ele>36.189999999999998</ele>
        <time>2024-09-13T08:02:55Z</time>
      </trkpt>
      <trkpt lat="52.601792989298701" lon="11.9567980337888">
        <ele>33.299999999999997</ele>
        <time>2024-09-13T08:03:05Z</time>
      </trkpt>
      <trkpt lat="52.602996965870261" lon="11.95727395825088">
        <ele>32.340000000000003</ele>
        <time>2024-09-13T08:03:18Z</time>
      </trkpt>
      <trkpt lat="52.603162005543709" lon="11.957286028191447">
        <ele>32.82</ele>
        <time>2024-09-13T08:03:20Z</time>
      </trkpt>
      <trkpt lat="52.603241968899965" lon="11.957230037078261">
        <ele>32.82</ele>
        <time>2024-09-13T08:03:21Z</time>
      </trkpt>
      <trkpt lat="52.603547992184758" lon="11.956924013793468">
        <ele>33.780000000000001</ele>
        <time>2024-09-13T08:03:25Z</time>
      </trkpt>
      <trkpt lat="52.603599037975073" lon="11.956831980496645">
        <ele>34.259999999999998</ele>
        <time>2024-09-13T08:03:26Z</time>
      </trkpt>
      <trkpt lat="52.603655029088259" lon="11.956700971350074">
        <ele>34.259999999999998</ele>
        <time>2024-09-13T08:03:27Z</time>
      </trkpt>
      <trkpt lat="52.603774974122643" lon="11.956415986642241">
        <ele>34.259999999999998</ele>
        <time>2024-09-13T08:03:29Z</time>
      </trkpt>
      <trkpt lat="52.604334969073534" lon="11.95505996234715">
        <ele>34.259999999999998</ele>
        <time>2024-09-13T08:03:37Z</time>
      </trkpt>
      <trkpt lat="52.604421973228455" lon="11.9548449665308">
        <ele>34.259999999999998</ele>
        <time>2024-09-13T08:03:38Z</time>
      </trkpt>
      <trkpt lat="52.604511994868517" lon="11.954621002078056">
        <ele>34.259999999999998</ele>
        <time>2024-09-13T08:03:39Z</time>
      </trkpt>
      <trkpt lat="52.604620959609747" lon="11.954348003491759">
        <ele>34.259999999999998</ele>
        <time>2024-09-13T08:03:40Z</time>
      </trkpt>
      <trkpt lat="52.604701006785035" lon="11.954161003232002">
        <ele>34.740000000000002</ele>
        <time>2024-09-13T08:03:41Z</time>
      </trkpt>
      <trkpt lat="52.604803014546633" lon="11.953920023515821">
        <ele>34.740000000000002</ele>
        <time>2024-09-13T08:03:42Z</time>
      </trkpt>
      <trkpt lat="52.604908961802721" lon="11.953672003000975">
        <ele>35.229999999999997</ele>
        <time>2024-09-13T08:03:43Z</time>
      </trkpt>
      <trkpt lat="52.605705996975303" lon="11.951739974319935">
        <ele>38.590000000000003</ele>
        <time>2024-09-13T08:03:50Z</time>
      </trkpt>
      <trkpt lat="52.606210000813007" lon="11.95067304186523">
        <ele>37.630000000000003</ele>
        <time>2024-09-13T08:03:54Z</time>
      </trkpt>
      <trkpt lat="52.606691960245371" lon="11.95011698640883">
        <ele>37.149999999999999</ele>
        <time>2024-09-13T08:03:57Z</time>
      </trkpt>
      <trkpt lat="52.606863034889102" lon="11.949959993362427">
        <ele>36.670000000000002</ele>
        <time>2024-09-13T08:03:58Z</time>
      </trkpt>
      <trkpt lat="52.607033019885421" lon="11.949849016964436">
        <ele>36.670000000000002</ele>
        <time>2024-09-13T08:03:59Z</time>
      </trkpt>
      <trkpt lat="52.607223959639668" lon="11.949727982282639">
        <ele>36.189999999999998</ele>
        <time>2024-09-13T08:04:00Z</time>
      </trkpt>
      <trkpt lat="52.607409032061696" lon="11.949610970914364">
        <ele>36.189999999999998</ele>
        <time>2024-09-13T08:04:01Z</time>
      </trkpt>
      <trkpt lat="52.608850970864296" lon="11.948697008192539">
        <ele>33.299999999999997</ele>
        <time>2024-09-13T08:04:09Z</time>
      </trkpt>
      <trkpt lat="52.610038015991449" lon="11.947944983839989">
        <ele>30.899999999999999</ele>
        <time>2024-09-13T08:04:16Z</time>
      </trkpt>
      <trkpt lat="52.611744990572333" lon="11.946923984214664">
        <ele>27.530000000000001</ele>
        <time>2024-09-13T08:04:25Z</time>
      </trkpt>
      <trkpt lat="52.612967994064093" lon="11.946529028937221">
        <ele>25.609999999999999</ele>
        <time>2024-09-13T08:04:32Z</time>
      </trkpt>
      <trkpt lat="52.613117024302483" lon="11.946481000632048">
        <ele>25.129999999999999</ele>
        <time>2024-09-13T08:04:33Z</time>
      </trkpt>
      <trkpt lat="52.613246021792293" lon="11.946406988427043">
        <ele>24.649999999999999</ele>
        <time>2024-09-13T08:04:34Z</time>
      </trkpt>
      <trkpt lat="52.613379964604974" lon="11.946323001757264">
        <ele>24.649999999999999</ele>
        <time>2024-09-13T08:04:35Z</time>
      </trkpt>
      <trkpt lat="52.613500999286771" lon="11.946226023137569">
        <ele>25.129999999999999</ele>
        <time>2024-09-13T08:04:36Z</time>
      </trkpt>
      <trkpt lat="52.613599989563227" lon="11.946047991514206">
        <ele>25.129999999999999</ele>
        <time>2024-09-13T08:04:37Z</time>
      </trkpt>
      <trkpt lat="52.613697974011302" lon="11.945871971547604">
        <ele>25.609999999999999</ele>
        <time>2024-09-13T08:04:38Z</time>
      </trkpt>
      <trkpt lat="52.613749019801617" lon="11.945657981559634">
        <ele>25.609999999999999</ele>
        <time>2024-09-13T08:04:39Z</time>
      </trkpt>
      <trkpt lat="52.613805010914803" lon="11.945422030985355">
        <ele>26.09</ele>
        <time>2024-09-13T08:04:40Z</time>
      </trkpt>
      <trkpt lat="52.613835018128157" lon="11.945209968835115">
        <ele>26.57</ele>
        <time>2024-09-13T08:04:41Z</time>
      </trkpt>
      <trkpt lat="52.613839963451028" lon="11.945006037130952">
        <ele>27.050000000000001</ele>
        <time>2024-09-13T08:04:42Z</time>
      </trkpt>
      <trkpt lat="52.613825965672731" lon="11.944796992465854">
        <ele>27.530000000000001</ele>
        <time>2024-09-13T08:04:43Z</time>
      </trkpt>
      <trkpt lat="52.613790007308125" lon="11.944269016385078">
        <ele>28.5</ele>
        <time>2024-09-13T08:04:46Z</time>
      </trkpt>
      <trkpt lat="52.613837029784918" lon="11.944081010296941">
        <ele>28.5</ele>
        <time>2024-09-13T08:04:47Z</time>
      </trkpt>
      <trkpt lat="52.613888997584581" lon="11.943987971171737">
        <ele>28.5</ele>
        <time>2024-09-13T08:04:48Z</time>
      </trkpt>
      <trkpt lat="52.61399201117456" lon="11.943943966180086">
        <ele>28.98</ele>
        <time>2024-09-13T08:04:49Z</time>
      </trkpt>
      <trkpt lat="52.614091001451015" lon="11.943941032513976">
        <ele>28.98</ele>
        <time>2024-09-13T08:04:50Z</time>
      </trkpt>
      <trkpt lat="52.614196026697755" lon="11.943941032513976">
        <ele>28.5</ele>
        <time>2024-09-13T08:04:51Z</time>
      </trkpt>
      <trkpt lat="52.61517696082592" lon="11.944000963121653">
        <ele>28.98</ele>
        <time>2024-09-13T08:04:58Z</time>
      </trkpt>
      <trkpt lat="52.616712022572756" lon="11.944103976711631">
        <ele>29.460000000000001</ele>
        <time>2024-09-13T08:05:07Z</time>
      </trkpt>
      <trkpt lat="52.618588982149959" lon="11.944343028590083">
        <ele>26.57</ele>
        <time>2024-09-13T08:05:18Z</time>
      </trkpt>
      <trkpt lat="52.619975013658404" lon="11.945048030465841">
        <ele>24.649999999999999</ele>
        <time>2024-09-13T08:05:26Z</time>
      </trkpt>
      <trkpt lat="52.62123104184866" lon="11.945716990157962">
        <ele>23.210000000000001</ele>
        <time>2024-09-13T08:05:33Z</time>
      </trkpt>
      <trkpt lat="52.621407983824611" lon="11.945811035111547">
        <ele>23.210000000000001</ele>
        <time>2024-09-13T08:05:34Z</time>
      </trkpt>
      <trkpt lat="52.622367041185498" lon="11.946320990100503">
        <ele>22.25</ele>
        <time>2024-09-13T08:05:40Z</time>
      </trkpt>
      <trkpt lat="52.623116970062256" lon="11.946718962863088">
        <ele>20.809999999999999</ele>
        <time>2024-09-13T08:05:45Z</time>
      </trkpt>
      <trkpt lat="52.623225012794137" lon="11.946776965633035">
        <ele>20.809999999999999</ele>
        <time>2024-09-13T08:05:46Z</time>
      </trkpt>
      <trkpt lat="52.623329032212496" lon="11.946832034736872">
        <ele>20.32</ele>
        <time>2024-09-13T08:05:47Z</time>
      </trkpt>
      <trkpt lat="52.623527012765408" lon="11.946913003921509">
        <ele>19.84</ele>
        <time>2024-09-13T08:05:49Z</time>
      </trkpt>
      <trkpt lat="52.624363023787737" lon="11.947047030553222">
        <ele>20.32</ele>
        <time>2024-09-13T08:05:58Z</time>
      </trkpt>
      <trkpt lat="52.624446004629135" lon="11.947060022503138">
        <ele>20.32</ele>
        <time>2024-09-13T08:05:59Z</time>
      </trkpt>
      <trkpt lat="52.624889994040132" lon="11.947167981415987">
        <ele>18.879999999999999</ele>
        <time>2024-09-13T08:06:04Z</time>
      </trkpt>
      <trkpt lat="52.62580999173224" lon="11.94741097278893">
        <ele>19.359999999999999</ele>
        <time>2024-09-13T08:06:15Z</time>
      </trkpt>
      <trkpt lat="52.625891966745257" lon="11.947432011365891">
        <ele>19.359999999999999</ele>
        <time>2024-09-13T08:06:16Z</time>
      </trkpt>
      <trkpt lat="52.626889999955893" lon="11.947806011885405">
        <ele>21.77</ele>
        <time>2024-09-13T08:06:28Z</time>
      </trkpt>
      <trkpt lat="52.62744496576488" lon="11.948009021580219">
        <ele>23.210000000000001</ele>
        <time>2024-09-13T08:06:35Z</time>
      </trkpt>
      <trkpt lat="52.628335962072015" lon="11.948145981878042">
        <ele>24.170000000000002</ele>
        <time>2024-09-13T08:06:45Z</time>
      </trkpt>
      <trkpt lat="52.629222013056278" lon="11.94835402071476">
        <ele>26.09</ele>
        <time>2024-09-13T08:06:52Z</time>
      </trkpt>
      <trkpt lat="52.630354994907975" lon="11.94863498210907">
        <ele>27.530000000000001</ele>
        <time>2024-09-13T08:07:00Z</time>
      </trkpt>
      <trkpt lat="52.631359985098243" lon="11.948900017887354">
        <ele>27.530000000000001</ele>
        <time>2024-09-13T08:07:07Z</time>
      </trkpt>
      <trkpt lat="52.632477963343263" lon="11.94919497705996">
        <ele>25.129999999999999</ele>
        <time>2024-09-13T08:07:15Z</time>
      </trkpt>
      <trkpt lat="52.633599964901805" lon="11.94942899979651">
        <ele>25.609999999999999</ele>
        <time>2024-09-13T08:07:23Z</time>
      </trkpt>
      <trkpt lat="52.635176014155149" lon="11.94949303753674">
        <ele>28.02</ele>
        <time>2024-09-13T08:07:34Z</time>
      </trkpt>
      <trkpt lat="52.637059008702636" lon="11.949384994804859">
        <ele>27.050000000000001</ele>
        <time>2024-09-13T08:07:48Z</time>
      </trkpt>
      <trkpt lat="52.638369016349316" lon="11.949321962893009">
        <ele>26.57</ele>
        <time>2024-09-13T08:07:58Z</time>
      </trkpt>
      <trkpt lat="52.639822019264102" lon="11.949254991486669">
        <ele>28.02</ele>
        <time>2024-09-13T08:08:09Z</time>
      </trkpt>
      <trkpt lat="52.640654006972909" lon="11.949205035343766">
        <ele>27.530000000000001</ele>
        <time>2024-09-13T08:08:17Z</time>
      </trkpt>
      <trkpt lat="52.640703963115811" lon="11.949202017858624">
        <ele>27.050000000000001</ele>
        <time>2024-09-13T08:08:18Z</time>
      </trkpt>
      <trkpt lat="52.640756014734507" lon="11.949197994545102">
        <ele>27.530000000000001</ele>
        <time>2024-09-13T08:08:19Z</time>
      </trkpt>
      <trkpt lat="52.640748973935843" lon="11.949327997863293">
        <ele>27.530000000000001</ele>
        <time>2024-09-13T08:08:20Z</time>
      </trkpt>
      <trkpt lat="52.640744028612971" lon="11.949404021725059">
        <ele>27.530000000000001</ele>
        <time>2024-09-13T08:08:21Z</time>
      </trkpt>
      <trkpt lat="52.640737993642688" lon="11.949517009779811">
        <ele>27.530000000000001</ele>
        <time>2024-09-13T08:08:22Z</time>
      </trkpt>
      <trkpt lat="52.640728019177914" lon="11.94966503418982">
        <ele>27.530000000000001</ele>
        <time>2024-09-13T08:08:23Z</time>
      </trkpt>
      <trkpt lat="52.640712009742856" lon="11.949852034449577">
        <ele>27.530000000000001</ele>
        <time>2024-09-13T08:08:24Z</time>
      </trkpt>
      <trkpt lat="52.640562979504466" lon="11.951632015407085">
        <ele>28.5</ele>
        <time>2024-09-13T08:08:31Z</time>
      </trkpt>
      <trkpt lat="52.640344966202974" lon="11.954196961596608">
        <ele>31.379999999999999</ele>
        <time>2024-09-13T08:08:39Z</time>
      </trkpt>
      <trkpt lat="52.640131982043386" lon="11.956618996337056">
        <ele>35.229999999999997</ele>
        <time>2024-09-13T08:08:47Z</time>
      </trkpt>
      <trkpt lat="52.640009019523859" lon="11.958361007273197">
        <ele>36.670000000000002</ele>
        <time>2024-09-13T08:08:55Z</time>
      </trkpt>
      <trkpt lat="52.64001295901835" lon="11.958550019189715">
        <ele>36.670000000000002</ele>
        <time>2024-09-13T08:08:56Z</time>
      </trkpt>
      <trkpt lat="52.640036009252071" lon="11.958723021671176">
        <ele>36.670000000000002</ele>
        <time>2024-09-13T08:08:57Z</time>
      </trkpt>
      <trkpt lat="52.640069033950567" lon="11.958879008889198">
        <ele>37.149999999999999</ele>
        <time>2024-09-13T08:08:58Z</time>
      </trkpt>
      <trkpt lat="52.640110021457076" lon="11.959014041349292">
        <ele>37.149999999999999</ele>
        <time>2024-09-13T08:08:59Z</time>
      </trkpt>
      <trkpt lat="52.640174981206656" lon="11.959147984161973">
        <ele>37.149999999999999</ele>
        <time>2024-09-13T08:09:00Z</time>
      </trkpt>
      <trkpt lat="52.640255028381944" lon="11.959258038550615">
        <ele>37.149999999999999</ele>
        <time>2024-09-13T08:09:01Z</time>
      </trkpt>
      <trkpt lat="52.640359969809651" lon="11.959350993856788">
        <ele>36.670000000000002</ele>
        <time>2024-09-13T08:09:02Z</time>
      </trkpt>
      <trkpt lat="52.640470024198294" lon="11.959399022161961">
        <ele>36.670000000000002</ele>
        <time>2024-09-13T08:09:03Z</time>
      </trkpt>
      <trkpt lat="52.640582006424665" lon="11.959447972476482">
        <ele>36.189999999999998</ele>
        <time>2024-09-13T08:09:04Z</time>
      </trkpt>
      <trkpt lat="52.641034964472055" lon="11.959647964686155">
        <ele>35.710000000000001</ele>
        <time>2024-09-13T08:09:08Z</time>
      </trkpt>
      <trkpt lat="52.641134960576892" lon="11.959747960790992">
        <ele>35.229999999999997</ele>
        <time>2024-09-13T08:09:09Z</time>
      </trkpt>
      <trkpt lat="52.64123504050076" lon="11.959856003522873">
        <ele>35.229999999999997</ele>
        <time>2024-09-13T08:09:10Z</time>
      </trkpt>
      <trkpt lat="52.641307041049004" lon="11.960011990740895">
        <ele>34.740000000000002</ele>
        <time>2024-09-13T08:09:11Z</time>
      </trkpt>
      <trkpt lat="52.641379041597247" lon="11.960168983787298">
        <ele>34.740000000000002</ele>
        <time>2024-09-13T08:09:12Z</time>
      </trkpt>
      <trkpt lat="52.641397984698415" lon="11.960360007360578">
        <ele>34.740000000000002</ele>
        <time>2024-09-13T08:09:13Z</time>
      </trkpt>
      <trkpt lat="52.641421034932137" lon="11.960592018440366">
        <ele>34.740000000000002</ele>
        <time>2024-09-13T08:09:14Z</time>
      </trkpt>
      <trkpt lat="52.641421034932137" lon="11.960750017315149">
        <ele>34.740000000000002</ele>
        <time>2024-09-13T08:09:15Z</time>
      </trkpt>
      <trkpt lat="52.641421034932137" lon="11.960947997868061">
        <ele>34.740000000000002</ele>
        <time>2024-09-13T08:09:16Z</time>
      </trkpt>
      <trkpt lat="52.64140896499157" lon="11.96154898032546">
        <ele>36.189999999999998</ele>
        <time>2024-09-13T08:09:19Z</time>
      </trkpt>
      <trkpt lat="52.641402008011937" lon="11.961745033040643">
        <ele>36.670000000000002</ele>
        <time>2024-09-13T08:09:20Z</time>
      </trkpt>
      <trkpt lat="52.641403013840318" lon="11.962736025452614">
        <ele>40.030000000000001</ele>
        <time>2024-09-13T08:09:26Z</time>
      </trkpt>
      <trkpt lat="52.641419023275375" lon="11.962907016277313">
        <ele>40.030000000000001</ele>
        <time>2024-09-13T08:09:27Z</time>
      </trkpt>
      <trkpt lat="52.641465961933136" lon="11.963079012930393">
        <ele>40.030000000000001</ele>
        <time>2024-09-13T08:09:28Z</time>
      </trkpt>
      <trkpt lat="52.641519019380212" lon="11.963253021240234">
        <ele>40.509999999999998</ele>
        <time>2024-09-13T08:09:29Z</time>
      </trkpt>
      <trkpt lat="52.641576016321778" lon="11.963439015671611">
        <ele>40.509999999999998</ele>
        <time>2024-09-13T08:09:30Z</time>
      </trkpt>
      <trkpt lat="52.64164499938488" lon="11.963628027588129">
        <ele>40.509999999999998</ele>
        <time>2024-09-13T08:09:31Z</time>
      </trkpt>
      <trkpt lat="52.642110027372837" lon="11.965568019077182">
        <ele>40.030000000000001</ele>
        <time>2024-09-13T08:09:39Z</time>
      </trkpt>
      <trkpt lat="52.642183033749461" lon="11.968077979981899">
        <ele>41.950000000000003</ele>
        <time>2024-09-13T08:09:47Z</time>
      </trkpt>
      <trkpt lat="52.642157971858978" lon="11.972486022859812">
        <ele>46.280000000000001</ele>
        <time>2024-09-13T08:10:00Z</time>
      </trkpt>
      <trkpt lat="52.642136011272669" lon="11.97632803581655">
        <ele>47.719999999999999</ele>
        <time>2024-09-13T08:10:11Z</time>
      </trkpt>
      <trkpt lat="52.64211799018085" lon="11.979577029123902">
        <ele>47.719999999999999</ele>
        <time>2024-09-13T08:10:21Z</time>
      </trkpt>
      <trkpt lat="52.642106004059315" lon="11.98137603700161">
        <ele>48.200000000000003</ele>
        <time>2024-09-13T08:10:28Z</time>
      </trkpt>
      <trkpt lat="52.642073985189199" lon="11.982498038560152">
        <ele>47.719999999999999</ele>
        <time>2024-09-13T08:10:35Z</time>
      </trkpt>
      <trkpt lat="52.642070967704058" lon="11.982575990259647">
        <ele>47.719999999999999</ele>
        <time>2024-09-13T08:10:36Z</time>
      </trkpt>
      <trkpt lat="52.642069039866328" lon="11.982641033828259">
        <ele>47.719999999999999</ele>
        <time>2024-09-13T08:10:37Z</time>
      </trkpt>
      <trkpt lat="52.642068034037948" lon="11.982697024941444">
        <ele>47.719999999999999</ele>
        <time>2024-09-13T08:10:38Z</time>
      </trkpt>
      <trkpt lat="52.642067028209567" lon="11.982730971649289">
        <ele>47.240000000000002</ele>
        <time>2024-09-13T08:10:39Z</time>
      </trkpt>
      <trkpt lat="52.642066022381186" lon="11.982757039368153">
        <ele>47.240000000000002</ele>
        <time>2024-09-13T08:10:40Z</time>
      </trkpt>
      <trkpt lat="52.642104998230934" lon="11.982802972197533">
        <ele>47.240000000000002</ele>
        <time>2024-09-13T08:10:41Z</time>
      </trkpt>
      <trkpt lat="52.642152020707726" lon="11.982804983854294">
        <ele>46.759999999999998</ele>
        <time>2024-09-13T08:10:42Z</time>
      </trkpt>
      <trkpt lat="52.642223015427589" lon="11.982809007167816">
        <ele>46.759999999999998</ele>
        <time>2024-09-13T08:10:43Z</time>
      </trkpt>
      <trkpt lat="52.642303984612226" lon="11.982813030481339">
        <ele>46.280000000000001</ele>
        <time>2024-09-13T08:10:44Z</time>
      </trkpt>
      <trkpt lat="52.643075035884976" lon="11.982851000502706">
        <ele>44.359999999999999</ele>
        <time>2024-09-13T08:10:50Z</time>
      </trkpt>
      <trkpt lat="52.644723001867533" lon="11.982931969687343">
        <ele>43.399999999999999</ele>
        <time>2024-09-13T08:10:59Z</time>
      </trkpt>
      <trkpt lat="52.646604990586638" lon="11.983015034347773">
        <ele>42.920000000000002</ele>
        <time>2024-09-13T08:11:09Z</time>
      </trkpt>
      <trkpt lat="52.648892998695374" lon="11.983262971043587">
        <ele>42.920000000000002</ele>
        <time>2024-09-13T08:11:22Z</time>
      </trkpt>
      <trkpt lat="52.650930974632502" lon="11.983545022085309">
        <ele>41.469999999999999</ele>
        <time>2024-09-13T08:11:33Z</time>
      </trkpt>
      <trkpt lat="52.652354976162314" lon="11.983746020123363">
        <ele>41.950000000000003</ele>
        <time>2024-09-13T08:11:41Z</time>
      </trkpt>
      <trkpt lat="52.654531002044678" lon="11.984051037579775">
        <ele>42.439999999999998</ele>
        <time>2024-09-13T08:11:53Z</time>
      </trkpt>
      <trkpt lat="52.656454984098673" lon="11.98429998010397">
        <ele>43.880000000000003</ele>
        <time>2024-09-13T08:12:04Z</time>
      </trkpt>
      <trkpt lat="52.658319035544991" lon="11.984253041446209">
        <ele>46.280000000000001</ele>
        <time>2024-09-13T08:12:14Z</time>
      </trkpt>
      <trkpt lat="52.660362962633371" lon="11.983758006244898">
        <ele>48.68</ele>
        <time>2024-09-13T08:12:25Z</time>
      </trkpt>
      <trkpt lat="52.662940984591842" lon="11.983128022402525">
        <ele>50.609999999999999</ele>
        <time>2024-09-13T08:12:39Z</time>
      </trkpt>
      <trkpt lat="52.665232010185719" lon="11.982569033280015">
        <ele>48.200000000000003</ele>
        <time>2024-09-13T08:12:51Z</time>
      </trkpt>
      <trkpt lat="52.667228998616338" lon="11.982079027220607">
        <ele>47.240000000000002</ele>
        <time>2024-09-13T08:13:03Z</time>
      </trkpt>
      <trkpt lat="52.668372960761189" lon="11.981797982007265">
        <ele>45.799999999999997</ele>
        <time>2024-09-13T08:13:11Z</time>
      </trkpt>
      <trkpt lat="52.670343965291977" lon="11.981304036453366">
        <ele>46.280000000000001</ele>
        <time>2024-09-13T08:13:23Z</time>
      </trkpt>
      <trkpt lat="52.671839967370033" lon="11.980915032327175">
        <ele>49.159999999999997</ele>
        <time>2024-09-13T08:13:33Z</time>
      </trkpt>
      <trkpt lat="52.672237018123269" lon="11.980811012908816">
        <ele>50.130000000000003</ele>
        <time>2024-09-13T08:13:38Z</time>
      </trkpt>
      <trkpt lat="52.672322010621428" lon="11.980788968503475">
        <ele>50.609999999999999</ele>
        <time>2024-09-13T08:13:41Z</time>
      </trkpt>
      <trkpt lat="52.672349000349641" lon="11.980855017900467">
        <ele>50.609999999999999</ele>
        <time>2024-09-13T08:13:42Z</time>
      </trkpt>
      <trkpt lat="52.672355035319924" lon="11.980913020670414">
        <ele>50.609999999999999</ele>
        <time>2024-09-13T08:13:43Z</time>
      </trkpt>
      <trkpt lat="52.672364003956318" lon="11.981002036482096">
        <ele>51.090000000000003</ele>
        <time>2024-09-13T08:13:44Z</time>
      </trkpt>
      <trkpt lat="52.672376995906234" lon="11.981118964031339">
        <ele>51.57</ele>
        <time>2024-09-13T08:13:45Z</time>
      </trkpt>
      <trkpt lat="52.672436004504561" lon="11.981541998684406">
        <ele>53.009999999999998</ele>
        <time>2024-09-13T08:13:48Z</time>
      </trkpt>
      <trkpt lat="52.672678995877504" lon="11.983231035992503">
        <ele>54.450000000000003</ele>
        <time>2024-09-13T08:13:56Z</time>
      </trkpt>
      <trkpt lat="52.672908995300531" lon="11.984991990029812">
        <ele>56.859999999999999</ele>
        <time>2024-09-13T08:14:05Z</time>
      </trkpt>
      <trkpt lat="52.673212001100183" lon="11.987075982615352">
        <ele>58.780000000000001</ele>
        <time>2024-09-13T08:14:16Z</time>
      </trkpt>
      <trkpt lat="52.6732939761132" lon="11.987631032243371">
        <ele>57.82</ele>
        <time>2024-09-13T08:14:19Z</time>
      </trkpt>
      <trkpt lat="52.673321971669793" lon="11.987821971997619">
        <ele>57.82</ele>
        <time>2024-09-13T08:14:20Z</time>
      </trkpt>
      <trkpt lat="52.673578960821033" lon="11.989706978201866">
        <ele>55.890000000000001</ele>
        <time>2024-09-13T08:14:30Z</time>
      </trkpt>
      <trkpt lat="52.673869980499148" lon="11.99197000823915">
        <ele>55.409999999999997</ele>
        <time>2024-09-13T08:14:42Z</time>
      </trkpt>
      <trkpt lat="52.674222020432353" lon="11.994627993553877">
        <ele>55.890000000000001</ele>
        <time>2024-09-13T08:14:56Z</time>
      </trkpt>
      <trkpt lat="52.674521002918482" lon="11.996881971135736">
        <ele>57.82</ele>
        <time>2024-09-13T08:15:08Z</time>
      </trkpt>
      <trkpt lat="52.674798024818301" lon="11.998966969549656">
        <ele>59.740000000000002</ele>
        <time>2024-09-13T08:15:19Z</time>
      </trkpt>
      <trkpt lat="52.674821997061372" lon="11.999151036143303">
        <ele>60.219999999999999</ele>
        <time>2024-09-13T08:15:20Z</time>
      </trkpt>
      <trkpt lat="52.674924004822969" lon="11.999908005818725">
        <ele>60.700000000000003</ele>
        <time>2024-09-13T08:15:24Z</time>
      </trkpt>
      <trkpt lat="52.674983013421297" lon="12.000317964702845">
        <ele>61.18</ele>
        <time>2024-09-13T08:15:27Z</time>
      </trkpt>
      <trkpt lat="52.674999022856355" lon="12.000428019091487">
        <ele>61.659999999999997</ele>
        <time>2024-09-13T08:15:28Z</time>
      </trkpt>
      <trkpt lat="52.67516003921628" lon="12.001480031758547">
        <ele>65.510000000000005</ele>
        <time>2024-09-13T08:15:39Z</time>
      </trkpt>
      <trkpt lat="52.675243020057678" lon="12.001932989805937">
        <ele>65.989999999999995</ele>
        <time>2024-09-13T08:15:45Z</time>
      </trkpt>
      <trkpt lat="52.675258023664355" lon="12.002015970647335">
        <ele>66.469999999999999</ele>
        <time>2024-09-13T08:15:46Z</time>
      </trkpt>
      <trkpt lat="52.675266992300749" lon="12.002032985910773">
        <ele>66.469999999999999</ele>
        <time>2024-09-13T08:15:47Z</time>
      </trkpt>
      <trkpt lat="52.675318960100412" lon="12.002073973417282">
        <ele>66.469999999999999</ele>
        <time>2024-09-13T08:15:48Z</time>
      </trkpt>
      <trkpt lat="52.675376040861011" lon="12.002118984237313">
        <ele>66.469999999999999</ele>
        <time>2024-09-13T08:15:49Z</time>
      </trkpt>
      <trkpt lat="52.6754180341959" lon="12.002152008935809">
        <ele>66.469999999999999</ele>
        <time>2024-09-13T08:15:50Z</time>
      </trkpt>
      <trkpt lat="52.675454998388886" lon="12.002182016149163">
        <ele>66.950000000000003</ele>
        <time>2024-09-13T08:15:51Z</time>
      </trkpt>
      <trkpt lat="52.67550403252244" lon="12.002220991998911">
        <ele>66.950000000000003</ele>
        <time>2024-09-13T08:15:52Z</time>
      </trkpt>
      <trkpt lat="52.675543008372188" lon="12.002250999212265">
        <ele>66.950000000000003</ele>
        <time>2024-09-13T08:15:53Z</time>
      </trkpt>
      <trkpt lat="52.675574021413922" lon="12.002276983112097">
        <ele>66.950000000000003</ele>
        <time>2024-09-13T08:15:54Z</time>
      </trkpt>
      <trkpt lat="52.675615008920431" lon="12.002309001982212">
        <ele>67.430000000000007</ele>
        <time>2024-09-13T08:15:55Z</time>
      </trkpt>
      <trkpt lat="52.675672005861998" lon="12.002354012802243">
        <ele>67.430000000000007</ele>
        <time>2024-09-13T08:15:56Z</time>
      </trkpt>
      <trkpt lat="52.675752975046635" lon="12.002417966723442">
        <ele>67.430000000000007</ele>
        <time>2024-09-13T08:15:57Z</time>
      </trkpt>
      <trkpt lat="52.675881972536445" lon="12.00252098031342">
        <ele>66.950000000000003</ele>
        <time>2024-09-13T08:15:58Z</time>
      </trkpt>
      <trkpt lat="52.676614969968796" lon="12.003094973042607">
        <ele>63.100000000000001</ele>
        <time>2024-09-13T08:16:06Z</time>
      </trkpt>
      <trkpt lat="52.677162978798151" lon="12.003236040472984">
        <ele>61.18</ele>
        <time>2024-09-13T08:16:12Z</time>
      </trkpt>
      <trkpt lat="52.677248977124691" lon="12.0032490324229">
        <ele>60.700000000000003</ele>
        <time>2024-09-13T08:16:13Z</time>
      </trkpt>
      <trkpt lat="52.677618032321334" lon="12.003179965540767">
        <ele>60.219999999999999</ele>
        <time>2024-09-13T08:16:17Z</time>
      </trkpt>
      <trkpt lat="52.677707970142365" lon="12.003145013004541">
        <ele>60.219999999999999</ele>
        <time>2024-09-13T08:16:18Z</time>
      </trkpt>
      <trkpt lat="52.677887007594109" lon="12.003050968050957">
        <ele>59.740000000000002</ele>
        <time>2024-09-13T08:16:20Z</time>
      </trkpt>
      <trkpt lat="52.678107032552361" lon="12.00290403328836">
        <ele>58.780000000000001</ele>
        <time>2024-09-13T08:16:23Z</time>
      </trkpt>
      <trkpt lat="52.678135028108954" lon="12.00288500636816">
        <ele>58.299999999999997</ele>
        <time>2024-09-13T08:16:24Z</time>
      </trkpt>
      <trkpt lat="52.678197976201773" lon="12.003005035221577">
        <ele>57.82</ele>
        <time>2024-09-13T08:16:25Z</time>
      </trkpt>
      <trkpt lat="52.678241981193423" lon="12.003088016062975">
        <ele>57.82</ele>
        <time>2024-09-13T08:16:26Z</time>
      </trkpt>
      <trkpt lat="52.678295960649848" lon="12.003191029652953">
        <ele>57.340000000000003</ele>
        <time>2024-09-13T08:16:27Z</time>
      </trkpt>
      <trkpt lat="52.678353963419795" lon="12.003304017707705">
        <ele>56.859999999999999</ele>
        <time>2024-09-13T08:16:28Z</time>
      </trkpt>
      <trkpt lat="52.678415989503264" lon="12.003461010754108">
        <ele>56.369999999999997</ele>
        <time>2024-09-13T08:16:29Z</time>
      </trkpt>
      <trkpt lat="52.679109005257487" lon="12.005230011418462">
        <ele>52.049999999999997</ele>
        <time>2024-09-13T08:16:38Z</time>
      </trkpt>
      <trkpt lat="52.679903022944927" lon="12.006952995434403">
        <ele>47.240000000000002</ele>
        <time>2024-09-13T08:16:48Z</time>
      </trkpt>
      <trkpt lat="52.680003019049764" lon="12.007092973217368">
        <ele>47.240000000000002</ele>
        <time>2024-09-13T08:16:49Z</time>
      </trkpt>
      <trkpt lat="52.680120030418038" lon="12.007192969322205">
        <ele>46.759999999999998</ele>
        <time>2024-09-13T08:16:50Z</time>
      </trkpt>
      <trkpt lat="52.680379031226039" lon="12.007391033694148">
        <ele>46.280000000000001</ele>
        <time>2024-09-13T08:16:52Z</time>
      </trkpt>
      <trkpt lat="52.680524960160255" lon="12.007446018978953">
        <ele>46.280000000000001</ele>
        <time>2024-09-13T08:16:53Z</time>
      </trkpt>
      <trkpt lat="52.680679019540548" lon="12.0075040217489">
        <ele>45.799999999999997</ele>
        <time>2024-09-13T08:16:54Z</time>
      </trkpt>
      <trkpt lat="52.682078965008259" lon="12.008030992001295">
        <ele>45.32</ele>
        <time>2024-09-13T08:17:02Z</time>
      </trkpt>
      <trkpt lat="52.684738039970398" lon="12.00932901352644">
        <ele>44.359999999999999</ele>
        <time>2024-09-13T08:17:16Z</time>
      </trkpt>
      <trkpt lat="52.687498033046722" lon="12.010498037561774">
        <ele>44.840000000000003</ele>
        <time>2024-09-13T08:17:30Z</time>
      </trkpt>
      <trkpt lat="52.690671002492309" lon="12.011831011623144">
        <ele>43.399999999999999</ele>
        <time>2024-09-13T08:17:46Z</time>
      </trkpt>
      <trkpt lat="52.69312103278935" lon="12.012856034561992">
        <ele>43.880000000000003</ele>
        <time>2024-09-13T08:17:58Z</time>
      </trkpt>
      <trkpt lat="52.695423038676381" lon="12.013810984790325">
        <ele>44.359999999999999</ele>
        <time>2024-09-13T08:18:09Z</time>
      </trkpt>
      <trkpt lat="52.698273975402117" lon="12.015061983838677">
        <ele>48.200000000000003</ele>
        <time>2024-09-13T08:18:23Z</time>
      </trkpt>
      <trkpt lat="52.700843028724194" lon="12.016409961506724">
        <ele>48.68</ele>
        <time>2024-09-13T08:18:36Z</time>
      </trkpt>
      <trkpt lat="52.703097006306052" lon="12.01719400472939">
        <ele>48.68</ele>
        <time>2024-09-13T08:18:47Z</time>
      </trkpt>
      <trkpt lat="52.704392010346055" lon="12.017027959227562">
        <ele>48.68</ele>
        <time>2024-09-13T08:18:54Z</time>
      </trkpt>
      <trkpt lat="52.705958001315594" lon="12.016857974231243">
        <ele>45.799999999999997</ele>
        <time>2024-09-13T08:19:05Z</time>
      </trkpt>
      <trkpt lat="52.707081008702517" lon="12.016660999506712">
        <ele>42.439999999999998</ele>
        <time>2024-09-13T08:19:14Z</time>
      </trkpt>
      <trkpt lat="52.708039982244372" lon="12.016643984243274">
        <ele>40.990000000000002</ele>
        <time>2024-09-13T08:19:22Z</time>
      </trkpt>
      <trkpt lat="52.708285991102457" lon="12.01667700894177">
        <ele>40.509999999999998</ele>
        <time>2024-09-13T08:19:24Z</time>
      </trkpt>
      <trkpt lat="52.708412976935506" lon="12.016719002276659">
        <ele>40.030000000000001</ele>
        <time>2024-09-13T08:19:25Z</time>
      </trkpt>
      <trkpt lat="52.708536023274064" lon="12.016771975904703">
        <ele>40.030000000000001</ele>
        <time>2024-09-13T08:19:26Z</time>
      </trkpt>
      <trkpt lat="52.708646999672055" lon="12.016845988109708">
        <ele>40.030000000000001</ele>
        <time>2024-09-13T08:19:27Z</time>
      </trkpt>
      <trkpt lat="52.708758981898427" lon="12.016923017799854">
        <ele>40.030000000000001</ele>
        <time>2024-09-13T08:19:28Z</time>
      </trkpt>
      <trkpt lat="52.708860989660025" lon="12.017024019733071">
        <ele>40.030000000000001</ele>
        <time>2024-09-13T08:19:29Z</time>
      </trkpt>
      <trkpt lat="52.708970038220286" lon="12.017148993909359">
        <ele>40.030000000000001</ele>
        <time>2024-09-13T08:19:30Z</time>
      </trkpt>
      <trkpt lat="52.709048995748162" lon="12.017284026369452">
        <ele>40.509999999999998</ele>
        <time>2024-09-13T08:19:31Z</time>
      </trkpt>
      <trkpt lat="52.709836978465319" lon="12.018613982945681">
        <ele>41.950000000000003</ele>
        <time>2024-09-13T08:19:40Z</time>
      </trkpt>
      <trkpt lat="52.710107965394855" lon="12.018910031765699">
        <ele>41.950000000000003</ele>
        <time>2024-09-13T08:19:42Z</time>
      </trkpt>
      <trkpt lat="52.71127900108695" lon="12.019788036122918">
        <ele>41.950000000000003</ele>
        <time>2024-09-13T08:19:48Z</time>
      </trkpt>
      <trkpt lat="52.713036015629768" lon="12.02106200158596">
        <ele>41.950000000000003</ele>
        <time>2024-09-13T08:19:57Z</time>
      </trkpt>
      <trkpt lat="52.715256968513131" lon="12.022421965375543">
        <ele>40.990000000000002</ele>
        <time>2024-09-13T08:20:09Z</time>
      </trkpt>
      <trkpt lat="52.716617016121745" lon="12.022703010588884">
        <ele>39.549999999999997</ele>
        <time>2024-09-13T08:20:17Z</time>
      </trkpt>
      <trkpt lat="52.717383038252592" lon="12.02273796312511">
        <ele>38.590000000000003</ele>
        <time>2024-09-13T08:20:22Z</time>
      </trkpt>
      <trkpt lat="52.718404959887266" lon="12.022018041461706">
        <ele>36.670000000000002</ele>
        <time>2024-09-13T08:20:29Z</time>
      </trkpt>
      <trkpt lat="52.71853999234736" lon="12.021875968202949">
        <ele>36.189999999999998</ele>
        <time>2024-09-13T08:20:30Z</time>
      </trkpt>
      <trkpt lat="52.718655997887254" lon="12.021655021235347">
        <ele>36.189999999999998</ele>
        <time>2024-09-13T08:20:31Z</time>
      </trkpt>
      <trkpt lat="52.718772003427148" lon="12.021432984620333">
        <ele>36.189999999999998</ele>
        <time>2024-09-13T08:20:32Z</time>
      </trkpt>
      <trkpt lat="52.718890020623803" lon="12.021209020167589">
        <ele>35.710000000000001</ele>
        <time>2024-09-13T08:20:33Z</time>
      </trkpt>
      <trkpt lat="52.71899001672864" lon="12.021016990765929">
        <ele>35.710000000000001</ele>
        <time>2024-09-13T08:20:34Z</time>
      </trkpt>
      <trkpt lat="52.719080038368702" lon="12.020724965259433">
        <ele>35.710000000000001</ele>
        <time>2024-09-13T08:20:35Z</time>
      </trkpt>
      <trkpt lat="52.7191630192101" lon="12.020455989986658">
        <ele>36.189999999999998</ele>
        <time>2024-09-13T08:20:36Z</time>
      </trkpt>
      <trkpt lat="52.71924801170826" lon="12.020179973915219">
        <ele>36.189999999999998</ele>
        <time>2024-09-13T08:20:37Z</time>
      </trkpt>
      <trkpt lat="52.71929101087153" lon="12.019895995035768">
        <ele>36.189999999999998</ele>
        <time>2024-09-13T08:20:38Z</time>
      </trkpt>
      <trkpt lat="52.719319006428123" lon="12.019597012549639">
        <ele>35.710000000000001</ele>
        <time>2024-09-13T08:20:39Z</time>
      </trkpt>
      <trkpt lat="52.719331998378038" lon="12.019280008971691">
        <ele>35.710000000000001</ele>
        <time>2024-09-13T08:20:40Z</time>
      </trkpt>
      <trkpt lat="52.719344990327954" lon="12.018957976251841">
        <ele>35.710000000000001</ele>
        <time>2024-09-13T08:20:41Z</time>
      </trkpt>
      <trkpt lat="52.719339961186051" lon="12.015874022617936">
        <ele>35.229999999999997</ele>
        <time>2024-09-13T08:20:51Z</time>
      </trkpt>
      <trkpt lat="52.719351025298238" lon="12.014244999736547">
        <ele>33.299999999999997</ele>
        <time>2024-09-13T08:20:58Z</time>
      </trkpt>
      <trkpt lat="52.719412967562675" lon="12.013978036120534">
        <ele>32.82</ele>
        <time>2024-09-13T08:21:00Z</time>
      </trkpt>
      <trkpt lat="52.719448003917933" lon="12.013872005045414">
        <ele>32.340000000000003</ele>
        <time>2024-09-13T08:21:01Z</time>
      </trkpt>
      <trkpt lat="52.719477005302906" lon="12.013783995062113">
        <ele>31.859999999999999</ele>
        <time>2024-09-13T08:21:02Z</time>
      </trkpt>
      <trkpt lat="52.719499971717596" lon="12.013715011999011">
        <ele>31.859999999999999</ele>
        <time>2024-09-13T08:21:03Z</time>
      </trkpt>
      <trkpt lat="52.719597034156322" lon="12.013718029484153">
        <ele>31.379999999999999</ele>
        <time>2024-09-13T08:21:04Z</time>
      </trkpt>
      <trkpt lat="52.719644978642464" lon="12.013773014768958">
        <ele>30.899999999999999</ele>
        <time>2024-09-13T08:21:05Z</time>
      </trkpt>
      <trkpt lat="52.719713039696217" lon="12.013852978125215">
        <ele>30.899999999999999</ele>
        <time>2024-09-13T08:21:06Z</time>
      </trkpt>
      <trkpt lat="52.719948990270495" lon="12.013983987271786">
        <ele>30.420000000000002</ele>
        <time>2024-09-13T08:21:08Z</time>
      </trkpt>
      <trkpt lat="52.720082011073828" lon="12.014022963121533">
        <ele>29.940000000000001</ele>
        <time>2024-09-13T08:21:09Z</time>
      </trkpt>
      <trkpt lat="52.721552029252052" lon="12.014085995033383">
        <ele>29.460000000000001</ele>
        <time>2024-09-13T08:21:18Z</time>
      </trkpt>
      <trkpt lat="52.72324500605464" lon="12.014097981154919">
        <ele>27.530000000000001</ele>
        <time>2024-09-13T08:21:29Z</time>
      </trkpt>
      <trkpt lat="52.72474997676909" lon="12.014113990589976">
        <ele>27.050000000000001</ele>
        <time>2024-09-13T08:21:39Z</time>
      </trkpt>
      <trkpt lat="52.726169032976031" lon="12.014134023338556">
        <ele>26.57</ele>
        <time>2024-09-13T08:21:48Z</time>
      </trkpt>
      <trkpt lat="52.727614995092154" lon="12.014738023281097">
        <ele>27.530000000000001</ele>
        <time>2024-09-13T08:21:57Z</time>
      </trkpt>
      <trkpt lat="52.729864027351141" lon="12.015680987387896">
        <ele>27.530000000000001</ele>
        <time>2024-09-13T08:22:09Z</time>
      </trkpt>
      <trkpt lat="52.731617018580437" lon="12.016435023397207">
        <ele>29.460000000000001</ele>
        <time>2024-09-13T08:22:19Z</time>
      </trkpt>
      <trkpt lat="52.733639990910888" lon="12.017070958390832">
        <ele>31.379999999999999</ele>
        <time>2024-09-13T08:22:31Z</time>
      </trkpt>
      <trkpt lat="52.736079962924123" lon="12.017090991139412">
        <ele>32.82</ele>
        <time>2024-09-13T08:22:43Z</time>
      </trkpt>
      <trkpt lat="52.739198030903935" lon="12.016898961737752">
        <ele>31.859999999999999</ele>
        <time>2024-09-13T08:22:59Z</time>
      </trkpt>
      <trkpt lat="52.741117989644408" lon="12.016187002882361">
        <ele>30.420000000000002</ele>
        <time>2024-09-13T08:23:09Z</time>
      </trkpt>
      <trkpt lat="52.742757992818952" lon="12.016234025359154">
        <ele>28.98</ele>
        <time>2024-09-13T08:23:17Z</time>
      </trkpt>
      <trkpt lat="52.744862018153071" lon="12.016745992004871">
        <ele>26.57</ele>
        <time>2024-09-13T08:23:27Z</time>
      </trkpt>
      <trkpt lat="52.746476959437132" lon="12.016805000603199">
        <ele>25.609999999999999</ele>
        <time>2024-09-13T08:23:35Z</time>
      </trkpt>
      <trkpt lat="52.746663959696889" lon="12.016722019761801">
        <ele>25.609999999999999</ele>
        <time>2024-09-13T08:23:36Z</time>
      </trkpt>
      <trkpt lat="52.746850959956646" lon="12.016610037535429">
        <ele>25.609999999999999</ele>
        <time>2024-09-13T08:23:37Z</time>
      </trkpt>
      <trkpt lat="52.747022034600377" lon="12.016438962891698">
        <ele>25.609999999999999</ele>
        <time>2024-09-13T08:23:38Z</time>
      </trkpt>
      <trkpt lat="52.747189002111554" lon="12.016242993995547">
        <ele>25.609999999999999</ele>
        <time>2024-09-13T08:23:39Z</time>
      </trkpt>
      <trkpt lat="52.747345995157957" lon="12.016018023714423">
        <ele>25.129999999999999</ele>
        <time>2024-09-13T08:23:40Z</time>
      </trkpt>
      <trkpt lat="52.747501982375979" lon="12.015791041776538">
        <ele>25.129999999999999</ele>
        <time>2024-09-13T08:23:41Z</time>
      </trkpt>
      <trkpt lat="52.747651012614369" lon="12.015552995726466">
        <ele>24.649999999999999</ele>
        <time>2024-09-13T08:23:42Z</time>
      </trkpt>
      <trkpt lat="52.747769029811025" lon="12.01526197604835">
        <ele>24.170000000000002</ele>
        <time>2024-09-13T08:23:43Z</time>
      </trkpt>
      <trkpt lat="52.74788998067379" lon="12.014965005218983">
        <ele>24.170000000000002</ele>
        <time>2024-09-13T08:23:44Z</time>
      </trkpt>
      <trkpt lat="52.747980002313852" lon="12.014629980549216">
        <ele>23.690000000000001</ele>
        <time>2024-09-13T08:23:45Z</time>
      </trkpt>
      <trkpt lat="52.748059965670109" lon="12.014287998899817">
        <ele>23.690000000000001</ele>
        <time>2024-09-13T08:23:46Z</time>
      </trkpt>
      <trkpt lat="52.749272994697094" lon="12.009152993559837">
        <ele>24.170000000000002</ele>
        <time>2024-09-13T08:24:01Z</time>
      </trkpt>
      <trkpt lat="52.749977996572852" lon="12.005750024691224">
        <ele>24.649999999999999</ele>
        <time>2024-09-13T08:24:12Z</time>
      </trkpt>
      <trkpt lat="52.75005703791976" lon="12.003757981583476">
        <ele>23.210000000000001</ele>
        <time>2024-09-13T08:24:19Z</time>
      </trkpt>
      <trkpt lat="52.750072963535786" lon="12.003467967733741">
        <ele>23.210000000000001</ele>
        <time>2024-09-13T08:24:20Z</time>
      </trkpt>
      <trkpt lat="52.750111017376184" lon="12.003173008561134">
        <ele>22.73</ele>
        <time>2024-09-13T08:24:21Z</time>
      </trkpt>
      <trkpt lat="52.750177988782525" lon="12.002887018024921">
        <ele>22.25</ele>
        <time>2024-09-13T08:24:22Z</time>
      </trkpt>
      <trkpt lat="52.750246971845627" lon="12.002589963376522">
        <ele>22.25</ele>
        <time>2024-09-13T08:24:23Z</time>
      </trkpt>
      <trkpt lat="52.750316960737109" lon="12.002288969233632">
        <ele>21.77</ele>
        <time>2024-09-13T08:24:24Z</time>
      </trkpt>
      <trkpt lat="52.75111198425293" lon="11.998577965423465">
        <ele>20.32</ele>
        <time>2024-09-13T08:24:36Z</time>
      </trkpt>
      <trkpt lat="52.751855039969087" lon="11.994337979704142">
        <ele>21.77</ele>
        <time>2024-09-13T08:24:49Z</time>
      </trkpt>
      <trkpt lat="52.751955036073923" lon="11.991133997216821">
        <ele>20.32</ele>
        <time>2024-09-13T08:24:58Z</time>
      </trkpt>
      <trkpt lat="52.752069029957056" lon="11.987159969285131">
        <ele>17.440000000000001</ele>
        <time>2024-09-13T08:25:09Z</time>
      </trkpt>
      <trkpt lat="52.752138013020158" lon="11.984756039455533">
        <ele>15.039999999999999</ele>
        <time>2024-09-13T08:25:16Z</time>
      </trkpt>
      <trkpt lat="52.752162991091609" lon="11.982868015766144">
        <ele>16</ele>
        <time>2024-09-13T08:25:23Z</time>
      </trkpt>
      <trkpt lat="52.752190986648202" lon="11.979288021102548">
        <ele>20.32</ele>
        <time>2024-09-13T08:25:35Z</time>
      </trkpt>
      <trkpt lat="52.752204984426498" lon="11.975314998999238">
        <ele>22.25</ele>
        <time>2024-09-13T08:25:48Z</time>
      </trkpt>
      <trkpt lat="52.752527017146349" lon="11.972879972308874">
        <ele>22.73</ele>
        <time>2024-09-13T08:25:56Z</time>
      </trkpt>
      <trkpt lat="52.753106961026788" lon="11.969169974327087">
        <ele>22.73</ele>
        <time>2024-09-13T08:26:07Z</time>
      </trkpt>
      <trkpt lat="52.753294967114925" lon="11.966416016221046">
        <ele>24.170000000000002</ele>
        <time>2024-09-13T08:26:15Z</time>
      </trkpt>
      <trkpt lat="52.753562014549971" lon="11.960578020662069">
        <ele>25.129999999999999</ele>
        <time>2024-09-13T08:26:32Z</time>
      </trkpt>
      <trkpt lat="52.753566959872842" lon="11.958815976977348">
        <ele>25.129999999999999</ele>
        <time>2024-09-13T08:26:38Z</time>
      </trkpt>
      <trkpt lat="52.753517003729939" lon="11.958544990047812">
        <ele>25.129999999999999</ele>
        <time>2024-09-13T08:26:39Z</time>
      </trkpt>
      <trkpt lat="52.753429999575019" lon="11.958305016160011">
        <ele>24.649999999999999</ele>
        <time>2024-09-13T08:26:40Z</time>
      </trkpt>
      <trkpt lat="52.753341989591718" lon="11.958061018958688">
        <ele>24.649999999999999</ele>
        <time>2024-09-13T08:26:41Z</time>
      </trkpt>
      <trkpt lat="52.753252973780036" lon="11.957815010100603">
        <ele>25.129999999999999</ele>
        <time>2024-09-13T08:26:42Z</time>
      </trkpt>
      <trkpt lat="52.752286037430167" lon="11.954996008425951">
        <ele>25.609999999999999</ele>
        <time>2024-09-13T08:26:53Z</time>
      </trkpt>
      <trkpt lat="52.752224011346698" lon="11.954686967656016">
        <ele>25.609999999999999</ele>
        <time>2024-09-13T08:26:54Z</time>
      </trkpt>
      <trkpt lat="52.752201966941357" lon="11.954383039847016">
        <ele>26.09</ele>
        <time>2024-09-13T08:26:55Z</time>
      </trkpt>
      <trkpt lat="52.75218503549695" lon="11.954081961885095">
        <ele>26.09</ele>
        <time>2024-09-13T08:26:56Z</time>
      </trkpt>
      <trkpt lat="52.75218503549695" lon="11.953781973570585">
        <ele>26.09</ele>
        <time>2024-09-13T08:26:57Z</time>
      </trkpt>
      <trkpt lat="52.752029970288277" lon="11.950250007212162">
        <ele>27.530000000000001</ele>
        <time>2024-09-13T08:27:08Z</time>
      </trkpt>
      <trkpt lat="52.751423958688974" lon="11.946274973452091">
        <ele>27.530000000000001</ele>
        <time>2024-09-13T08:27:21Z</time>
      </trkpt>
      <trkpt lat="52.751223966479301" lon="11.943888980895281">
        <ele>27.530000000000001</ele>
        <time>2024-09-13T08:27:30Z</time>
      </trkpt>
      <trkpt lat="52.75121902115643" lon="11.942444024607539">
        <ele>28.5</ele>
        <time>2024-09-13T08:27:37Z</time>
      </trkpt>
      <trkpt lat="52.751281969249249" lon="11.941784033551812">
        <ele>29.460000000000001</ele>
        <time>2024-09-13T08:27:40Z</time>
      </trkpt>
      <trkpt lat="52.751337960362434" lon="11.941559985280037">
        <ele>29.460000000000001</ele>
        <time>2024-09-13T08:27:41Z</time>
      </trkpt>
      <trkpt lat="52.751980014145374" lon="11.93898699246347">
        <ele>28.5</ele>
        <time>2024-09-13T08:27:51Z</time>
      </trkpt>
      <trkpt lat="52.752694990485907" lon="11.935923993587494">
        <ele>28.5</ele>
        <time>2024-09-13T08:28:02Z</time>
      </trkpt>
      <trkpt lat="52.753127999603748" lon="11.934588002040982">
        <ele>28.02</ele>
        <time>2024-09-13T08:28:10Z</time>
      </trkpt>
      <trkpt lat="52.753544999286532" lon="11.933254022151232">
        <ele>28.02</ele>
        <time>2024-09-13T08:28:21Z</time>
      </trkpt>
      <trkpt lat="52.753570983186364" lon="11.933169029653072">
        <ele>28.02</ele>
        <time>2024-09-13T08:28:22Z</time>
      </trkpt>
      <trkpt lat="52.753592021763325" lon="11.933099962770939">
        <ele>28.02</ele>
        <time>2024-09-13T08:28:23Z</time>
      </trkpt>
      <trkpt lat="52.753608031198382" lon="11.933050006628036">
        <ele>27.530000000000001</ele>
        <time>2024-09-13T08:28:24Z</time>
      </trkpt>
      <trkpt lat="52.753696041181684" lon="11.933041037991643">
        <ele>27.530000000000001</ele>
        <time>2024-09-13T08:28:25Z</time>
      </trkpt>
      <trkpt lat="52.753720013424754" lon="11.933091999962926">
        <ele>27.530000000000001</ele>
        <time>2024-09-13T08:28:26Z</time>
      </trkpt>
      <trkpt lat="52.75375597178936" lon="11.933166012167931">
        <ele>27.530000000000001</ele>
        <time>2024-09-13T08:28:27Z</time>
      </trkpt>
      <trkpt lat="52.753802994266152" lon="11.933266008272767">
        <ele>27.530000000000001</ele>
        <time>2024-09-13T08:28:28Z</time>
      </trkpt>
      <trkpt lat="52.753876000642776" lon="11.933411015197635">
        <ele>27.050000000000001</ele>
        <time>2024-09-13T08:28:29Z</time>
      </trkpt>
      <trkpt lat="52.753965016454458" lon="11.933550992980599">
        <ele>27.050000000000001</ele>
        <time>2024-09-13T08:28:30Z</time>
      </trkpt>
      <trkpt lat="52.754239020869136" lon="11.933982996270061">
        <ele>26.09</ele>
        <time>2024-09-13T08:28:33Z</time>
      </trkpt>
      <trkpt lat="52.754345973953605" lon="11.934091961011291">
        <ele>26.09</ele>
        <time>2024-09-13T08:28:34Z</time>
      </trkpt>
      <trkpt lat="52.754458962008357" lon="11.934185000136495">
        <ele>25.609999999999999</ele>
        <time>2024-09-13T08:28:35Z</time>
      </trkpt>
      <trkpt lat="52.7556880004704" lon="11.934881033375859">
        <ele>21.289999999999999</ele>
        <time>2024-09-13T08:28:45Z</time>
      </trkpt>
      <trkpt lat="52.757287016138434" lon="11.935746967792511">
        <ele>19.359999999999999</ele>
        <time>2024-09-13T08:28:56Z</time>
      </trkpt>
      <trkpt lat="52.759278975427151" lon="11.93675103597343">
        <ele>17.440000000000001</ele>
        <time>2024-09-13T08:29:07Z</time>
      </trkpt>
      <trkpt lat="52.760686967521906" lon="11.937817968428135">
        <ele>16.48</ele>
        <time>2024-09-13T08:29:16Z</time>
      </trkpt>
      <trkpt lat="52.762238960713148" lon="11.939310031011701">
        <ele>16</ele>
        <time>2024-09-13T08:29:28Z</time>
      </trkpt>
      <trkpt lat="52.76252101175487" lon="11.9394810218364">
        <ele>16.960000000000001</ele>
        <time>2024-09-13T08:29:32Z</time>
      </trkpt>
      <trkpt lat="52.762557975947857" lon="11.939502982422709">
        <ele>16.960000000000001</ele>
        <time>2024-09-13T08:29:33Z</time>
      </trkpt>
      <trkpt lat="52.76258597150445" lon="11.939521003514528">
        <ele>17.440000000000001</ele>
        <time>2024-09-13T08:29:34Z</time>
      </trkpt>
      <trkpt lat="52.762656966224313" lon="11.939564002677798">
        <ele>17.920000000000002</ele>
        <time>2024-09-13T08:29:39Z</time>
      </trkpt>
      <trkpt lat="52.762669958174229" lon="11.939565008506179">
        <ele>17.920000000000002</ele>
        <time>2024-09-13T08:29:40Z</time>
      </trkpt>
      <trkpt lat="52.762669958174229" lon="11.939565008506179">
        <ele>17.920000000000002</ele>
        <time>2024-09-13T08:29:52Z</time>
      </trkpt>
      <trkpt lat="52.762626959010959" lon="11.939773969352245">
        <ele>13.119999999999999</ele>
        <time>2024-09-13T08:34:01Z</time>
      </trkpt>
      <trkpt lat="52.762657972052693" lon="11.939752008765936">
        <ele>18.399999999999999</ele>
        <time>2024-09-13T08:34:35Z</time>
      </trkpt>
      <trkpt lat="52.762684039771557" lon="11.939737005159259">
        <ele>19.359999999999999</ele>
        <time>2024-09-13T08:35:16Z</time>
      </trkpt>
      <trkpt lat="52.762638023123145" lon="11.939700040966272">
        <ele>16.48</ele>
        <time>2024-09-13T08:36:04Z</time>
      </trkpt>
      <trkpt lat="52.762594018131495" lon="11.939630974084139">
        <ele>16</ele>
        <time>2024-09-13T08:37:11Z</time>
      </trkpt>
      <trkpt lat="52.76256300508976" lon="11.939743962138891">
        <ele>14.08</ele>
        <time>2024-09-13T08:37:39Z</time>
      </trkpt>
      <trkpt lat="52.7626490034163" lon="11.939703980460763">
        <ele>13.119999999999999</ele>
        <time>2024-09-13T08:37:41Z</time>
      </trkpt>
      <trkpt lat="52.762656966224313" lon="11.939564002677798">
        <ele>13.119999999999999</ele>
        <time>2024-09-13T08:37:42Z</time>
      </trkpt>
      <trkpt lat="52.762686973437667" lon="11.939568025991321">
        <ele>12.630000000000001</ele>
        <time>2024-09-13T08:37:43Z</time>
      </trkpt>
      <trkpt lat="52.762781018391252" lon="11.939580012112856">
        <ele>12.630000000000001</ele>
        <time>2024-09-13T08:37:44Z</time>
      </trkpt>
      <trkpt lat="52.762893000617623" lon="11.939594009891152">
        <ele>12.15</ele>
        <time>2024-09-13T08:37:45Z</time>
      </trkpt>
      <trkpt lat="52.763043036684394" lon="11.939613958820701">
        <ele>11.67</ele>
        <time>2024-09-13T08:37:46Z</time>
      </trkpt>
      <trkpt lat="52.763217967003584" lon="11.939636003226042">
        <ele>11.19</ele>
        <time>2024-09-13T08:37:47Z</time>
      </trkpt>
      <trkpt lat="52.765026027336717" lon="11.939857034012675">
        <ele>10.710000000000001</ele>
        <time>2024-09-13T08:37:57Z</time>
      </trkpt>
      <trkpt lat="52.767529031261802" lon="11.940096002072096">
        <ele>12.15</ele>
        <time>2024-09-13T08:38:10Z</time>
      </trkpt>
      <trkpt lat="52.7684719953686" lon="11.940186023712158">
        <ele>12.630000000000001</ele>
        <time>2024-09-13T08:38:15Z</time>
      </trkpt>
      <trkpt lat="52.768662013113499" lon="11.940288031473756">
        <ele>12.15</ele>
        <time>2024-09-13T08:38:16Z</time>
      </trkpt>
      <trkpt lat="52.768834009766579" lon="11.940428009256721">
        <ele>12.15</ele>
        <time>2024-09-13T08:38:17Z</time>
      </trkpt>
      <trkpt lat="52.768991002812982" lon="11.940601011738181">
        <ele>12.15</ele>
        <time>2024-09-13T08:38:18Z</time>
      </trkpt>
      <trkpt lat="52.769153025001287" lon="11.940777031704783">
        <ele>12.15</ele>
        <time>2024-09-13T08:38:19Z</time>
      </trkpt>
      <trkpt lat="52.769821984693408" lon="11.941472981125116">
        <ele>12.15</ele>
        <time>2024-09-13T08:38:23Z</time>
      </trkpt>
      <trkpt lat="52.770005967468023" lon="11.941610025241971">
        <ele>12.630000000000001</ele>
        <time>2024-09-13T08:38:24Z</time>
      </trkpt>
      <trkpt lat="52.772885989397764" lon="11.94343401119113">
        <ele>14.08</ele>
        <time>2024-09-13T08:38:39Z</time>
      </trkpt>
      <trkpt lat="52.776333969086409" lon="11.94567097350955">
        <ele>16</ele>
        <time>2024-09-13T08:38:56Z</time>
      </trkpt>
      <trkpt lat="52.779302000999451" lon="11.947498982772231">
        <ele>17.440000000000001</ele>
        <time>2024-09-13T08:39:11Z</time>
      </trkpt>
      <trkpt lat="52.78179201297462" lon="11.949038989841938">
        <ele>17.920000000000002</ele>
        <time>2024-09-13T08:39:23Z</time>
      </trkpt>
      <trkpt lat="52.782660964876413" lon="11.949762012809515">
        <ele>17.920000000000002</ele>
        <time>2024-09-13T08:39:29Z</time>
      </trkpt>
      <trkpt lat="52.783391028642654" lon="11.950679998844862">
        <ele>17.920000000000002</ele>
        <time>2024-09-13T08:39:38Z</time>
      </trkpt>
      <trkpt lat="52.783604012802243" lon="11.950868004933">
        <ele>17.920000000000002</ele>
        <time>2024-09-13T08:39:40Z</time>
      </trkpt>
      <trkpt lat="52.78368498198688" lon="11.950935982167721">
        <ele>17.920000000000002</ele>
        <time>2024-09-13T08:39:41Z</time>
      </trkpt>
      <trkpt lat="52.78383401222527" lon="11.950965989381075">
        <ele>18.399999999999999</ele>
        <time>2024-09-13T08:39:42Z</time>
      </trkpt>
      <trkpt lat="52.783953035250306" lon="11.950989961624146">
        <ele>18.399999999999999</ele>
        <time>2024-09-13T08:39:43Z</time>
      </trkpt>
      <trkpt lat="52.784058982506394" lon="11.950981998816133">
        <ele>18.879999999999999</ele>
        <time>2024-09-13T08:39:44Z</time>
      </trkpt>
      <trkpt lat="52.784174988046288" lon="11.950941011309624">
        <ele>18.879999999999999</ele>
        <time>2024-09-13T08:39:45Z</time>
      </trkpt>
      <trkpt lat="52.784293005242944" lon="11.950898012146354">
        <ele>19.359999999999999</ele>
        <time>2024-09-13T08:39:46Z</time>
      </trkpt>
      <trkpt lat="52.784635992720723" lon="11.950733978301287">
        <ele>19.359999999999999</ele>
        <time>2024-09-13T08:39:49Z</time>
      </trkpt>
      <trkpt lat="52.785073025152087" lon="11.950385039672256">
        <ele>19.84</ele>
        <time>2024-09-13T08:39:53Z</time>
      </trkpt>
      <trkpt lat="52.78553101234138" lon="11.950184963643551">
        <ele>20.32</ele>
        <time>2024-09-13T08:39:57Z</time>
      </trkpt>
      <trkpt lat="52.78566000983119" lon="11.950219999998808">
        <ele>20.32</ele>
        <time>2024-09-13T08:39:58Z</time>
      </trkpt>
      <trkpt lat="52.785779032856226" lon="11.950251013040543">
        <ele>20.32</ele>
        <time>2024-09-13T08:39:59Z</time>
      </trkpt>
      <trkpt lat="52.785885985940695" lon="11.950305998325348">
        <ele>20.32</ele>
        <time>2024-09-13T08:40:00Z</time>
      </trkpt>
      <trkpt lat="52.78598296456039" lon="11.950404988601804">
        <ele>20.32</ele>
        <time>2024-09-13T08:40:01Z</time>
      </trkpt>
      <trkpt lat="52.786082960665226" lon="11.950508002191782">
        <ele>20.32</ele>
        <time>2024-09-13T08:40:02Z</time>
      </trkpt>
      <trkpt lat="52.787272017449141" lon="11.951755983754992">
        <ele>19.84</ele>
        <time>2024-09-13T08:40:13Z</time>
      </trkpt>
      <trkpt lat="52.788210958242416" lon="11.952705988660455">
        <ele>19.84</ele>
        <time>2024-09-13T08:40:20Z</time>
      </trkpt>
      <trkpt lat="52.789536975324154" lon="11.95325399748981">
        <ele>19.84</ele>
        <time>2024-09-13T08:40:28Z</time>
      </trkpt>
      <trkpt lat="52.790526961907744" lon="11.953521966934204">
        <ele>20.32</ele>
        <time>2024-09-13T08:40:34Z</time>
      </trkpt>
      <trkpt lat="52.790694013237953" lon="11.95353202521801">
        <ele>20.32</ele>
        <time>2024-09-13T08:40:35Z</time>
      </trkpt>
      <trkpt lat="52.790857963263988" lon="11.953466981649399">
        <ele>20.32</ele>
        <time>2024-09-13T08:40:36Z</time>
      </trkpt>
      <trkpt lat="52.791026020422578" lon="11.953395986929536">
        <ele>20.32</ele>
        <time>2024-09-13T08:40:37Z</time>
      </trkpt>
      <trkpt lat="52.791192987933755" lon="11.953324992209673">
        <ele>20.32</ele>
        <time>2024-09-13T08:40:38Z</time>
      </trkpt>
      <trkpt lat="52.791360039263964" lon="11.953239999711514">
        <ele>20.32</ele>
        <time>2024-09-13T08:40:39Z</time>
      </trkpt>
      <trkpt lat="52.792324963957071" lon="11.952773965895176">
        <ele>19.84</ele>
        <time>2024-09-13T08:40:46Z</time>
      </trkpt>
      <trkpt lat="52.793762963265181" lon="11.952272979542613">
        <ele>19.359999999999999</ele>
        <time>2024-09-13T08:40:58Z</time>
      </trkpt>
      <trkpt lat="52.79494296759367" lon="11.952307010069489">
        <ele>18.399999999999999</ele>
        <time>2024-09-13T08:41:08Z</time>
      </trkpt>
      <trkpt lat="52.796461014077067" lon="11.95273800753057">
        <ele>15.52</ele>
        <time>2024-09-13T08:41:20Z</time>
      </trkpt>
      <trkpt lat="52.797977970913053" lon="11.953150983899832">
        <ele>15.52</ele>
        <time>2024-09-13T08:41:32Z</time>
      </trkpt>
      <trkpt lat="52.799528036266565" lon="11.953579969704151">
        <ele>15.52</ele>
        <time>2024-09-13T08:41:45Z</time>
      </trkpt>
      <trkpt lat="52.800730001181364" lon="11.953951036557555">
        <ele>15.039999999999999</ele>
        <time>2024-09-13T08:41:55Z</time>
      </trkpt>
      <trkpt lat="52.801934983581305" lon="11.95432998239994">
        <ele>16.48</ele>
        <time>2024-09-13T08:42:05Z</time>
      </trkpt>
      <trkpt lat="52.802929999306798" lon="11.954643968492746">
        <ele>16.960000000000001</ele>
        <time>2024-09-13T08:42:13Z</time>
      </trkpt>
      <trkpt lat="52.803629972040653" lon="11.954900035634637">
        <ele>16.48</ele>
        <time>2024-09-13T08:42:19Z</time>
      </trkpt>
      <trkpt lat="52.80482497997582" lon="11.955630015581846">
        <ele>15.52</ele>
        <time>2024-09-13T08:42:29Z</time>
      </trkpt>
      <trkpt lat="52.805836005136371" lon="11.956166960299015">
        <ele>15.039999999999999</ele>
        <time>2024-09-13T08:42:37Z</time>
      </trkpt>
      <trkpt lat="52.806894974783063" lon="11.956701977178454">
        <ele>15.039999999999999</ele>
        <time>2024-09-13T08:42:45Z</time>
      </trkpt>
      <trkpt lat="52.808249993249774" lon="11.957387030124664">
        <ele>14.08</ele>
        <time>2024-09-13T08:42:55Z</time>
      </trkpt>
      <trkpt lat="52.809368977323174" lon="11.957963034510612">
        <ele>12.15</ele>
        <time>2024-09-13T08:43:02Z</time>
      </trkpt>
      <trkpt lat="52.810994982719421" lon="11.958378022536635">
        <ele>13.119999999999999</ele>
        <time>2024-09-13T08:43:10Z</time>
      </trkpt>
      <trkpt lat="52.813240997493267" lon="11.958956960588694">
        <ele>15.039999999999999</ele>
        <time>2024-09-13T08:43:20Z</time>
      </trkpt>
      <trkpt lat="52.815940976142883" lon="11.9596560113132">
        <ele>16.960000000000001</ele>
        <time>2024-09-13T08:43:33Z</time>
      </trkpt>
      <trkpt lat="52.818603990599513" lon="11.960279960185289">
        <ele>16.960000000000001</ele>
        <time>2024-09-13T08:43:46Z</time>
      </trkpt>
      <trkpt lat="52.820040984079242" lon="11.960528986528516">
        <ele>17.440000000000001</ele>
        <time>2024-09-13T08:43:54Z</time>
      </trkpt>
      <trkpt lat="52.821070030331612" lon="11.960657984018326">
        <ele>17.920000000000002</ele>
        <time>2024-09-13T08:44:03Z</time>
      </trkpt>
      <trkpt lat="52.822263026610017" lon="11.960659995675087">
        <ele>18.399999999999999</ele>
        <time>2024-09-13T08:44:13Z</time>
      </trkpt>
      <trkpt lat="52.823596000671387" lon="11.960491016507149">
        <ele>18.399999999999999</ele>
        <time>2024-09-13T08:44:24Z</time>
      </trkpt>
      <trkpt lat="52.825531968846917" lon="11.960240984335542">
        <ele>18.399999999999999</ele>
        <time>2024-09-13T08:44:40Z</time>
      </trkpt>
      <trkpt lat="52.826006971299648" lon="11.960180969908834">
        <ele>17.920000000000002</ele>
        <time>2024-09-13T08:44:44Z</time>
      </trkpt>
      <trkpt lat="52.827701959758997" lon="11.960002016276121">
        <ele>18.399999999999999</ele>
        <time>2024-09-13T08:44:58Z</time>
      </trkpt>
      <trkpt lat="52.829042980447412" lon="11.959883999079466">
        <ele>19.359999999999999</ele>
        <time>2024-09-13T08:45:09Z</time>
      </trkpt>
      <trkpt lat="52.830374026671052" lon="11.959908977150917">
        <ele>18.879999999999999</ele>
        <time>2024-09-13T08:45:17Z</time>
      </trkpt>
      <trkpt lat="52.832400016486645" lon="11.960254982113838">
        <ele>18.879999999999999</ele>
        <time>2024-09-13T08:45:27Z</time>
      </trkpt>
      <trkpt lat="52.834467999637127" lon="11.96073199622333">
        <ele>20.809999999999999</ele>
        <time>2024-09-13T08:45:37Z</time>
      </trkpt>
      <trkpt lat="52.836507987231016" lon="11.960994014516473">
        <ele>20.809999999999999</ele>
        <time>2024-09-13T08:45:47Z</time>
      </trkpt>
      <trkpt lat="52.839270997792482" lon="11.961406990885735">
        <ele>20.32</ele>
        <time>2024-09-13T08:46:01Z</time>
      </trkpt>
      <trkpt lat="52.84141399897635" lon="11.961804963648319">
        <ele>20.809999999999999</ele>
        <time>2024-09-13T08:46:12Z</time>
      </trkpt>
      <trkpt lat="52.841599993407726" lon="11.96191200055182">
        <ele>20.809999999999999</ele>
        <time>2024-09-13T08:46:13Z</time>
      </trkpt>
      <trkpt lat="52.841787999495864" lon="11.96202096529305">
        <ele>20.32</ele>
        <time>2024-09-13T08:46:14Z</time>
      </trkpt>
      <trkpt lat="52.841964019462466" lon="11.962163038551807">
        <ele>20.32</ele>
        <time>2024-09-13T08:46:15Z</time>
      </trkpt>
      <trkpt lat="52.842134004458785" lon="11.96234199218452">
        <ele>20.32</ele>
        <time>2024-09-13T08:46:16Z</time>
      </trkpt>
      <trkpt lat="52.842303989455104" lon="11.962520023807883">
        <ele>20.32</ele>
        <time>2024-09-13T08:46:17Z</time>
      </trkpt>
      <trkpt lat="52.844382030889392" lon="11.964785987511277">
        <ele>18.879999999999999</ele>
        <time>2024-09-13T08:46:29Z</time>
      </trkpt>
      <trkpt lat="52.846710020676255" lon="11.967513961717486">
        <ele>19.84</ele>
        <time>2024-09-13T08:46:42Z</time>
      </trkpt>
      <trkpt lat="52.847690032795072" lon="11.968794967979193">
        <ele>20.809999999999999</ele>
        <time>2024-09-13T08:46:48Z</time>
      </trkpt>
      <trkpt lat="52.847833028063178" lon="11.969057992100716">
        <ele>20.809999999999999</ele>
        <time>2024-09-13T08:46:49Z</time>
      </trkpt>
      <trkpt lat="52.848507016897202" lon="11.97046397253871">
        <ele>21.289999999999999</ele>
        <time>2024-09-13T08:46:55Z</time>
      </trkpt>
      <trkpt lat="52.848630985245109" lon="11.970654996111989">
        <ele>21.289999999999999</ele>
        <time>2024-09-13T08:46:56Z</time>
      </trkpt>
      <trkpt lat="52.848766017705202" lon="11.97080897167325">
        <ele>21.289999999999999</ele>
        <time>2024-09-13T08:46:57Z</time>
      </trkpt>
      <trkpt lat="52.848917981609702" lon="11.970918020233512">
        <ele>21.289999999999999</ele>
        <time>2024-09-13T08:46:58Z</time>
      </trkpt>
      <trkpt lat="52.849071035161614" lon="11.970998989418149">
        <ele>20.809999999999999</ele>
        <time>2024-09-13T08:46:59Z</time>
      </trkpt>
      <trkpt lat="52.849232973530889" lon="11.971049029380083">
        <ele>20.809999999999999</ele>
        <time>2024-09-13T08:47:00Z</time>
      </trkpt>
      <trkpt lat="52.851070035248995" lon="11.971597960218787">
        <ele>21.77</ele>
        <time>2024-09-13T08:47:10Z</time>
      </trkpt>
      <trkpt lat="52.853697007521987" lon="11.972392983734608">
        <ele>20.809999999999999</ele>
        <time>2024-09-13T08:47:23Z</time>
      </trkpt>
      <trkpt lat="52.854516003280878" lon="11.972691966220737">
        <ele>20.32</ele>
        <time>2024-09-13T08:47:28Z</time>
      </trkpt>
      <trkpt lat="52.854652041569352" lon="11.972794979810715">
        <ele>20.32</ele>
        <time>2024-09-13T08:47:29Z</time>
      </trkpt>
      <trkpt lat="52.854773998260498" lon="11.97295599617064">
        <ele>19.84</ele>
        <time>2024-09-13T08:47:30Z</time>
      </trkpt>
      <trkpt lat="52.854901989921927" lon="11.973122963681817">
        <ele>19.84</ele>
        <time>2024-09-13T08:47:31Z</time>
      </trkpt>
      <trkpt lat="52.855027969926596" lon="11.973309963941574">
        <ele>19.84</ele>
        <time>2024-09-13T08:47:32Z</time>
      </trkpt>
      <trkpt lat="52.855968000367284" lon="11.97486899793148">
        <ele>18.879999999999999</ele>
        <time>2024-09-13T08:47:40Z</time>
      </trkpt>
      <trkpt lat="52.85609096288681" lon="11.974973017349839">
        <ele>18.879999999999999</ele>
        <time>2024-09-13T08:47:41Z</time>
      </trkpt>
      <trkpt lat="52.856218032538891" lon="11.975073013454676">
        <ele>18.399999999999999</ele>
        <time>2024-09-13T08:47:42Z</time>
      </trkpt>
      <trkpt lat="52.856351975351572" lon="11.975140990689397">
        <ele>18.399999999999999</ele>
        <time>2024-09-13T08:47:43Z</time>
      </trkpt>
      <trkpt lat="52.856488013640046" lon="11.975180972367525">
        <ele>18.399999999999999</ele>
        <time>2024-09-13T08:47:44Z</time>
      </trkpt>
      <trkpt lat="52.858031960204244" lon="11.975628985092044">
        <ele>16.960000000000001</ele>
        <time>2024-09-13T08:47:56Z</time>
      </trkpt>
      <trkpt lat="52.859279019758105" lon="11.975927967578173">
        <ele>18.399999999999999</ele>
        <time>2024-09-13T08:48:06Z</time>
      </trkpt>
      <trkpt lat="52.859816970303655" lon="11.976084960624576">
        <ele>17.920000000000002</ele>
        <time>2024-09-13T08:48:11Z</time>
      </trkpt>
      <trkpt lat="52.859874973073602" lon="11.976084960624576">
        <ele>17.440000000000001</ele>
        <time>2024-09-13T08:48:12Z</time>
      </trkpt>
      <trkpt lat="52.859962983056903" lon="11.976169031113386">
        <ele>16.960000000000001</ele>
        <time>2024-09-13T08:48:13Z</time>
      </trkpt>
      <trkpt lat="52.860031966120005" lon="11.976320995017886">
        <ele>16.960000000000001</ele>
        <time>2024-09-13T08:48:14Z</time>
      </trkpt>
      <trkpt lat="52.86008502356708" lon="11.976476982235909">
        <ele>16.48</ele>
        <time>2024-09-13T08:48:15Z</time>
      </trkpt>
      <trkpt lat="52.860137997195125" lon="11.976630035787821">
        <ele>16.48</ele>
        <time>2024-09-13T08:48:16Z</time>
      </trkpt>
      <trkpt lat="52.860272023826838" lon="11.977078970521688">
        <ele>16.960000000000001</ele>
        <time>2024-09-13T08:48:19Z</time>
      </trkpt>
      <trkpt lat="52.860283004119992" lon="11.977239986881614">
        <ele>16.960000000000001</ele>
        <time>2024-09-13T08:48:20Z</time>
      </trkpt>
      <trkpt lat="52.860294990241528" lon="11.977411983534694">
        <ele>16.960000000000001</ele>
        <time>2024-09-13T08:48:21Z</time>
      </trkpt>
      <trkpt lat="52.860306976363063" lon="11.977592026814818">
        <ele>16.960000000000001</ele>
        <time>2024-09-13T08:48:22Z</time>
      </trkpt>
      <trkpt lat="52.860303958877921" lon="11.977781960740685">
        <ele>16.960000000000001</ele>
        <time>2024-09-13T08:48:23Z</time>
      </trkpt>
      <trkpt lat="52.860294990241528" lon="11.977964015677571">
        <ele>16.960000000000001</ele>
        <time>2024-09-13T08:48:24Z</time>
      </trkpt>
      <trkpt lat="52.860255008563399" lon="11.978716040030122">
        <ele>18.399999999999999</ele>
        <time>2024-09-13T08:48:28Z</time>
      </trkpt>
      <trkpt lat="52.860251991078258" lon="11.978902034461498">
        <ele>18.399999999999999</ele>
        <time>2024-09-13T08:48:29Z</time>
      </trkpt>
      <trkpt lat="52.860274035483599" lon="11.979082999750972">
        <ele>18.879999999999999</ele>
        <time>2024-09-13T08:48:30Z</time>
      </trkpt>
      <trkpt lat="52.860297001898289" lon="11.979262959212065">
        <ele>18.879999999999999</ele>
        <time>2024-09-13T08:48:31Z</time>
      </trkpt>
      <trkpt lat="52.860318040475249" lon="11.979435039684176">
        <ele>19.359999999999999</ele>
        <time>2024-09-13T08:48:32Z</time>
      </trkpt>
      <trkpt lat="52.860336983576417" lon="11.979590021073818">
        <ele>19.84</ele>
        <time>2024-09-13T08:48:33Z</time>
      </trkpt>
      <trkpt lat="52.860353998839855" lon="11.979728993028402">
        <ele>20.32</ele>
        <time>2024-09-13T08:48:34Z</time>
      </trkpt>
      <trkpt lat="52.860417030751705" lon="11.98006602935493">
        <ele>21.289999999999999</ele>
        <time>2024-09-13T08:48:37Z</time>
      </trkpt>
      <trkpt lat="52.860470004379749" lon="11.980267027392983">
        <ele>21.289999999999999</ele>
        <time>2024-09-13T08:48:39Z</time>
      </trkpt>
      <trkpt lat="52.860545022413135" lon="11.980464002117515">
        <ele>21.77</ele>
        <time>2024-09-13T08:48:41Z</time>
      </trkpt>
      <trkpt lat="52.860599001869559" lon="11.980547988787293">
        <ele>21.77</ele>
        <time>2024-09-13T08:48:42Z</time>
      </trkpt>
      <trkpt lat="52.861020024865866" lon="11.981451977044344">
        <ele>23.210000000000001</ele>
        <time>2024-09-13T08:48:52Z</time>
      </trkpt>
      <trkpt lat="52.861071992665529" lon="11.981649035587907">
        <ele>23.210000000000001</ele>
        <time>2024-09-13T08:48:54Z</time>
      </trkpt>
      <trkpt lat="52.86109697073698" lon="11.981740985065699">
        <ele>23.210000000000001</ele>
        <time>2024-09-13T08:48:55Z</time>
      </trkpt>
      <trkpt lat="52.861105017364025" lon="11.981770992279053">
        <ele>23.210000000000001</ele>
        <time>2024-09-13T08:48:56Z</time>
      </trkpt>
      <trkpt lat="52.861123038455844" lon="11.981918010860682">
        <ele>23.210000000000001</ele>
        <time>2024-09-13T08:48:57Z</time>
      </trkpt>
      <trkpt lat="52.861135024577379" lon="11.982014989480376">
        <ele>23.690000000000001</ele>
        <time>2024-09-13T08:48:58Z</time>
      </trkpt>
      <trkpt lat="52.861147010698915" lon="11.982110040262341">
        <ele>23.690000000000001</ele>
        <time>2024-09-13T08:48:59Z</time>
      </trkpt>
      <trkpt lat="52.861153967678547" lon="11.98219402693212">
        <ele>23.690000000000001</ele>
        <time>2024-09-13T08:49:00Z</time>
      </trkpt>
      <trkpt lat="52.861156985163689" lon="11.982397958636284">
        <ele>23.690000000000001</ele>
        <time>2024-09-13T08:49:01Z</time>
      </trkpt>
      <trkpt lat="52.86109403707087" lon="11.982421008870006">
        <ele>24.170000000000002</ele>
        <time>2024-09-13T08:49:02Z</time>
      </trkpt>
      <trkpt lat="52.861023964360356" lon="11.982446992769837">
        <ele>24.170000000000002</ele>
        <time>2024-09-13T08:49:03Z</time>
      </trkpt>
      <trkpt lat="52.860950035974383" lon="11.98247398249805">
        <ele>24.170000000000002</ele>
        <time>2024-09-13T08:49:04Z</time>
      </trkpt>
      <trkpt lat="52.860877029597759" lon="11.982500972226262">
        <ele>24.170000000000002</ele>
        <time>2024-09-13T08:49:05Z</time>
      </trkpt>
      <trkpt lat="52.860802011564374" lon="11.982527961954474">
        <ele>24.649999999999999</ele>
        <time>2024-09-13T08:49:06Z</time>
      </trkpt>
      <trkpt lat="52.860651975497603" lon="11.982579007744789">
        <ele>24.649999999999999</ele>
        <time>2024-09-13T08:49:08Z</time>
      </trkpt>
      <trkpt lat="52.860375037416816" lon="11.982668023556471">
        <ele>26.09</ele>
        <time>2024-09-13T08:49:12Z</time>
      </trkpt>
      <trkpt lat="52.860319968312979" lon="11.982685038819909">
        <ele>26.57</ele>
        <time>2024-09-13T08:49:13Z</time>
      </trkpt>
      <trkpt lat="52.860219972208142" lon="11.982716973870993">
        <ele>27.530000000000001</ele>
        <time>2024-09-13T08:49:15Z</time>
      </trkpt>
      <trkpt lat="52.860163981094956" lon="11.982791991904378">
        <ele>27.530000000000001</ele>
        <time>2024-09-13T08:49:16Z</time>
      </trkpt>
      <trkpt lat="52.860168004408479" lon="11.982857035472989">
        <ele>28.02</ele>
        <time>2024-09-13T08:49:17Z</time>
      </trkpt>
      <trkpt lat="52.860174039378762" lon="11.982943033799529">
        <ele>28.02</ele>
        <time>2024-09-13T08:49:18Z</time>
      </trkpt>
      <trkpt lat="52.860179990530014" lon="11.983046969398856">
        <ele>28.02</ele>
        <time>2024-09-13T08:49:19Z</time>
      </trkpt>
      <trkpt lat="52.860202034935355" lon="11.983384005725384">
        <ele>28.5</ele>
        <time>2024-09-13T08:49:22Z</time>
      </trkpt>
      <trkpt lat="52.860190970823169" lon="11.98350596241653">
        <ele>28.5</ele>
        <time>2024-09-13T08:49:23Z</time>
      </trkpt>
      <trkpt lat="52.860160963609815" lon="11.983755994588137">
        <ele>28.98</ele>
        <time>2024-09-13T08:49:25Z</time>
      </trkpt>
      <trkpt lat="52.860145960003138" lon="11.983882980421185">
        <ele>28.5</ele>
        <time>2024-09-13T08:49:26Z</time>
      </trkpt>
      <trkpt lat="52.860113019123673" lon="11.983995968475938">
        <ele>28.5</ele>
        <time>2024-09-13T08:49:27Z</time>
      </trkpt>
      <trkpt lat="52.860064990818501" lon="11.984097976237535">
        <ele>28.5</ele>
        <time>2024-09-13T08:49:28Z</time>
      </trkpt>
      <trkpt lat="52.860010005533695" lon="11.984216999262571">
        <ele>28.5</ele>
        <time>2024-09-13T08:49:29Z</time>
      </trkpt>
      <trkpt lat="52.859959965571761" lon="11.984291011467576">
        <ele>28.5</ele>
        <time>2024-09-13T08:49:30Z</time>
      </trkpt>
      <trkpt lat="52.859901962801814" lon="11.984377009794116">
        <ele>28.5</ele>
        <time>2024-09-13T08:49:31Z</time>
      </trkpt>
      <trkpt lat="52.859843960031867" lon="11.984462002292275">
        <ele>28.5</ele>
        <time>2024-09-13T08:49:32Z</time>
      </trkpt>
      <trkpt lat="52.859728960320354" lon="11.984630981460214">
        <ele>28.5</ele>
        <time>2024-09-13T08:49:34Z</time>
      </trkpt>
      <trkpt lat="52.859671963378787" lon="11.984713962301612">
        <ele>28.02</ele>
        <time>2024-09-13T08:49:35Z</time>
      </trkpt>
      <trkpt lat="52.85961396060884" lon="11.984788980334997">
        <ele>27.530000000000001</ele>
        <time>2024-09-13T08:49:36Z</time>
      </trkpt>
      <trkpt lat="52.859484041109681" lon="11.984937004745007">
        <ele>26.57</ele>
        <time>2024-09-13T08:49:38Z</time>
      </trkpt>
      <trkpt lat="52.859416985884309" lon="11.985012022778392">
        <ele>26.09</ele>
        <time>2024-09-13T08:49:39Z</time>
      </trkpt>
      <trkpt lat="52.858531018719077" lon="11.985709983855486">
        <ele>21.77</ele>
        <time>2024-09-13T08:49:49Z</time>
      </trkpt>
      <trkpt lat="52.858232036232948" lon="11.98595498688519">
        <ele>21.289999999999999</ele>
        <time>2024-09-13T08:49:52Z</time>
      </trkpt>
      <trkpt lat="52.857426032423973" lon="11.986672980710864">
        <ele>19.359999999999999</ele>
        <time>2024-09-13T08:50:00Z</time>
      </trkpt>
      <trkpt lat="52.857325030490756" lon="11.986763002350926">
        <ele>19.359999999999999</ele>
        <time>2024-09-13T08:50:01Z</time>
      </trkpt>
      <trkpt lat="52.85638902336359" lon="11.98763002641499">
        <ele>16.960000000000001</ele>
        <time>2024-09-13T08:50:11Z</time>
      </trkpt>
      <trkpt lat="52.856297995895147" lon="11.987718036398292">
        <ele>16.960000000000001</ele>
        <time>2024-09-13T08:50:12Z</time>
      </trkpt>
      <trkpt lat="52.856211997568607" lon="11.98780101723969">
        <ele>16.960000000000001</ele>
        <time>2024-09-13T08:50:13Z</time>
      </trkpt>
      <trkpt lat="52.856125999242067" lon="11.987929008901119">
        <ele>16.48</ele>
        <time>2024-09-13T08:50:14Z</time>
      </trkpt>
      <trkpt lat="52.855441030114889" lon="11.989254020154476">
        <ele>18.879999999999999</ele>
        <time>2024-09-13T08:50:23Z</time>
      </trkpt>
      <trkpt lat="52.855284959077835" lon="11.989601030945778">
        <ele>19.359999999999999</ele>
        <time>2024-09-13T08:50:25Z</time>
      </trkpt>
      <trkpt lat="52.85492998547852" lon="11.990700988098979">
        <ele>20.809999999999999</ele>
        <time>2024-09-13T08:50:30Z</time>
      </trkpt>
      <trkpt lat="52.85417502745986" lon="11.993202986195683">
        <ele>22.25</ele>
        <time>2024-09-13T08:50:41Z</time>
      </trkpt>
      <trkpt lat="52.853418979793787" lon="11.994941979646683">
        <ele>24.170000000000002</ele>
        <time>2024-09-13T08:50:49Z</time>
      </trkpt>
      <trkpt lat="52.852583974599838" lon="11.996737970039248">
        <ele>23.690000000000001</ele>
        <time>2024-09-13T08:50:57Z</time>
      </trkpt>
      <trkpt lat="52.851459961384535" lon="11.999153969809413">
        <ele>23.210000000000001</ele>
        <time>2024-09-13T08:51:07Z</time>
      </trkpt>
      <trkpt lat="52.850033026188612" lon="12.002161983400583">
        <ele>24.170000000000002</ele>
        <time>2024-09-13T08:51:19Z</time>
      </trkpt>
      <trkpt lat="52.848846986889839" lon="12.004661969840527">
        <ele>24.649999999999999</ele>
        <time>2024-09-13T08:51:29Z</time>
      </trkpt>
      <trkpt lat="52.84764401614666" lon="12.007262036204338">
        <ele>25.129999999999999</ele>
        <time>2024-09-13T08:51:39Z</time>
      </trkpt>
      <trkpt lat="52.846243986859918" lon="12.009740984067321">
        <ele>25.609999999999999</ele>
        <time>2024-09-13T08:51:49Z</time>
      </trkpt>
      <trkpt lat="52.844589985907078" lon="12.012222027406096">
        <ele>25.609999999999999</ele>
        <time>2024-09-13T08:52:00Z</time>
      </trkpt>
      <trkpt lat="52.842839006334543" lon="12.014825027436018">
        <ele>26.09</ele>
        <time>2024-09-13T08:52:12Z</time>
      </trkpt>
      <trkpt lat="52.841076962649822" lon="12.01749499887228">
        <ele>26.57</ele>
        <time>2024-09-13T08:52:24Z</time>
      </trkpt>
      <trkpt lat="52.839018031954765" lon="12.020618012174964">
        <ele>26.57</ele>
        <time>2024-09-13T08:52:38Z</time>
      </trkpt>
      <trkpt lat="52.836947031319141" lon="12.023624014109373">
        <ele>24.170000000000002</ele>
        <time>2024-09-13T08:52:52Z</time>
      </trkpt>
      <trkpt lat="52.835739031434059" lon="12.024945002049208">
        <ele>24.649999999999999</ele>
        <time>2024-09-13T08:53:00Z</time>
      </trkpt>
      <trkpt lat="52.8355279751122" lon="12.025337023660541">
        <ele>25.129999999999999</ele>
        <time>2024-09-13T08:53:02Z</time>
      </trkpt>
      <trkpt lat="52.835423033684492" lon="12.025532992556691">
        <ele>25.129999999999999</ele>
        <time>2024-09-13T08:53:03Z</time>
      </trkpt>
      <trkpt lat="52.835240978747606" lon="12.025952003896236">
        <ele>25.609999999999999</ele>
        <time>2024-09-13T08:53:05Z</time>
      </trkpt>
      <trkpt lat="52.835165038704872" lon="12.026178985834122">
        <ele>26.09</ele>
        <time>2024-09-13T08:53:06Z</time>
      </trkpt>
      <trkpt lat="52.835122039541602" lon="12.026418959721923">
        <ele>26.09</ele>
        <time>2024-09-13T08:53:07Z</time>
      </trkpt>
      <trkpt lat="52.835095971822739" lon="12.026655999943614">
        <ele>26.09</ele>
        <time>2024-09-13T08:53:08Z</time>
      </trkpt>
      <trkpt lat="52.835073005408049" lon="12.026885999366641">
        <ele>26.09</ele>
        <time>2024-09-13T08:53:09Z</time>
      </trkpt>
      <trkpt lat="52.835056995972991" lon="12.027117004618049">
        <ele>26.09</ele>
        <time>2024-09-13T08:53:10Z</time>
      </trkpt>
      <trkpt lat="52.835030006244779" lon="12.029062025249004">
        <ele>26.57</ele>
        <time>2024-09-13T08:53:19Z</time>
      </trkpt>
      <trkpt lat="52.835050038993359" lon="12.029218012467027">
        <ele>27.050000000000001</ele>
        <time>2024-09-13T08:53:20Z</time>
      </trkpt>
      <trkpt lat="52.835133019834757" lon="12.029457986354828">
        <ele>27.050000000000001</ele>
        <time>2024-09-13T08:53:22Z</time>
      </trkpt>
      <trkpt lat="52.835294036194682" lon="12.02978303655982">
        <ele>27.530000000000001</ele>
        <time>2024-09-13T08:53:26Z</time>
      </trkpt>
      <trkpt lat="52.835335023701191" lon="12.029846990481019">
        <ele>27.530000000000001</ele>
        <time>2024-09-13T08:53:27Z</time>
      </trkpt>
      <trkpt lat="52.835381040349603" lon="12.02987096272409">
        <ele>27.530000000000001</ele>
        <time>2024-09-13T08:53:28Z</time>
      </trkpt>
      <trkpt lat="52.835456980392337" lon="12.029846990481019">
        <ele>27.050000000000001</ele>
        <time>2024-09-13T08:53:29Z</time>
      </trkpt>
      <trkpt lat="52.835550019517541" lon="12.029816983267665">
        <ele>27.050000000000001</ele>
        <time>2024-09-13T08:53:30Z</time>
      </trkpt>
      <trkpt lat="52.835864005610347" lon="12.029715981334448">
        <ele>25.609999999999999</ele>
        <time>2024-09-13T08:53:33Z</time>
      </trkpt>
      <trkpt lat="52.835959978401661" lon="12.029753029346466">
        <ele>24.649999999999999</ele>
        <time>2024-09-13T08:53:34Z</time>
      </trkpt>
      <trkpt lat="52.83604203723371" lon="12.029808014631271">
        <ele>24.170000000000002</ele>
        <time>2024-09-13T08:53:35Z</time>
      </trkpt>
      <trkpt lat="52.836120994761586" lon="12.029859982430935">
        <ele>23.690000000000001</ele>
        <time>2024-09-13T08:53:36Z</time>
      </trkpt>
      <trkpt lat="52.836167011409998" lon="12.029970036819577">
        <ele>23.210000000000001</ele>
        <time>2024-09-13T08:53:37Z</time>
      </trkpt>
      <trkpt lat="52.836199030280113" lon="12.030128035694361">
        <ele>22.25</ele>
        <time>2024-09-13T08:53:38Z</time>
      </trkpt>
      <trkpt lat="52.8362359944731" lon="12.030314030125737">
        <ele>22.25</ele>
        <time>2024-09-13T08:53:39Z</time>
      </trkpt>
      <trkpt lat="52.836269019171596" lon="12.030511004850268">
        <ele>21.77</ele>
        <time>2024-09-13T08:53:40Z</time>
      </trkpt>
      <trkpt lat="52.836298020556569" lon="12.030719965696335">
        <ele>21.289999999999999</ele>
        <time>2024-09-13T08:53:41Z</time>
      </trkpt>
      <trkpt lat="52.836608989164233" lon="12.033379962667823">
        <ele>20.32</ele>
        <time>2024-09-13T08:53:52Z</time>
      </trkpt>
      <trkpt lat="52.836935967206955" lon="12.035694038495421">
        <ele>20.809999999999999</ele>
        <time>2024-09-13T08:54:01Z</time>
      </trkpt>
      <trkpt lat="52.837498979642987" lon="12.037381986156106">
        <ele>20.809999999999999</ele>
        <time>2024-09-13T08:54:09Z</time>
      </trkpt>
      <trkpt lat="52.83761003986001" lon="12.037728996947408">
        <ele>20.809999999999999</ele>
        <time>2024-09-13T08:54:11Z</time>
      </trkpt>
      <trkpt lat="52.837625965476036" lon="12.037896970286965">
        <ele>20.809999999999999</ele>
        <time>2024-09-13T08:54:12Z</time>
      </trkpt>
      <trkpt lat="52.837640969082713" lon="12.038053963333368">
        <ele>20.809999999999999</ele>
        <time>2024-09-13T08:54:13Z</time>
      </trkpt>
      <trkpt lat="52.837647004052997" lon="12.038202993571758">
        <ele>20.809999999999999</ele>
        <time>2024-09-13T08:54:14Z</time>
      </trkpt>
      <trkpt lat="52.837635017931461" lon="12.038317993283272">
        <ele>20.809999999999999</ele>
        <time>2024-09-13T08:54:15Z</time>
      </trkpt>
      <trkpt lat="52.837624959647655" lon="12.038415977731347">
        <ele>20.809999999999999</ele>
        <time>2024-09-13T08:54:16Z</time>
      </trkpt>
      <trkpt lat="52.837595958262682" lon="12.038709009066224">
        <ele>20.809999999999999</ele>
        <time>2024-09-13T08:54:24Z</time>
      </trkpt>
      <trkpt lat="52.837595958262682" lon="12.038709009066224">
        <ele>21.289999999999999</ele>
        <time>2024-09-13T08:55:02Z</time>
      </trkpt>
      <trkpt lat="52.837595958262682" lon="12.038709009066224">
        <ele>20.809999999999999</ele>
        <time>2024-09-13T08:55:58Z</time>
      </trkpt>
      <trkpt lat="52.837595958262682" lon="12.038709009066224">
        <ele>20.809999999999999</ele>
        <time>2024-09-13T08:56:47Z</time>
      </trkpt>
      <trkpt lat="52.837594030424953" lon="12.038728035986423">
        <ele>20.809999999999999</ele>
        <time>2024-09-13T08:56:51Z</time>
      </trkpt>
      <trkpt lat="52.836974021047354" lon="12.041581990197301">
        <ele>26.09</ele>
        <time>2024-09-13T09:12:25Z</time>
      </trkpt>
      <trkpt lat="52.836964968591928" lon="12.041617026552558">
        <ele>26.09</ele>
        <time>2024-09-13T09:12:27Z</time>
      </trkpt>
      <trkpt lat="52.836964968591928" lon="12.041800003498793">
        <ele>26.09</ele>
        <time>2024-09-13T09:12:28Z</time>
      </trkpt>
      <trkpt lat="52.836964968591928" lon="12.041852977126837">
        <ele>26.57</ele>
        <time>2024-09-13T09:12:29Z</time>
      </trkpt>
      <trkpt lat="52.836977960541844" lon="12.041964959353209">
        <ele>26.09</ele>
        <time>2024-09-13T09:12:30Z</time>
      </trkpt>
      <trkpt lat="52.836991036310792" lon="12.042066967114806">
        <ele>25.609999999999999</ele>
        <time>2024-09-13T09:12:31Z</time>
      </trkpt>
      <trkpt lat="52.837004028260708" lon="12.042176015675068">
        <ele>24.649999999999999</ele>
        <time>2024-09-13T09:12:32Z</time>
      </trkpt>
      <trkpt lat="52.837089020758867" lon="12.043504966422915">
        <ele>22.73</ele>
        <time>2024-09-13T09:12:42Z</time>
      </trkpt>
      <trkpt lat="52.837092038244009" lon="12.043608985841274">
        <ele>22.73</ele>
        <time>2024-09-13T09:12:43Z</time>
      </trkpt>
      <trkpt lat="52.837069993838668" lon="12.043718034401536">
        <ele>22.73</ele>
        <time>2024-09-13T09:12:44Z</time>
      </trkpt>
      <trkpt lat="52.837028000503778" lon="12.04379104077816">
        <ele>22.73</ele>
        <time>2024-09-13T09:12:45Z</time>
      </trkpt>
      <trkpt lat="52.836979972198606" lon="12.043840996921062">
        <ele>22.73</ele>
        <time>2024-09-13T09:12:46Z</time>
      </trkpt>
      <trkpt lat="52.836920041590929" lon="12.043869998306036">
        <ele>22.73</ele>
        <time>2024-09-13T09:12:47Z</time>
      </trkpt>
      <trkpt lat="52.836850974708796" lon="12.043905034661293">
        <ele>22.73</ele>
        <time>2024-09-13T09:12:48Z</time>
      </trkpt>
      <trkpt lat="52.836503963917494" lon="12.043971000239253">
        <ele>22.73</ele>
        <time>2024-09-13T09:12:51Z</time>
      </trkpt>
      <trkpt lat="52.836344037204981" lon="12.043991032987833">
        <ele>22.73</ele>
        <time>2024-09-13T09:12:52Z</time>
      </trkpt>
      <trkpt lat="52.835767026990652" lon="12.044093040749431">
        <ele>21.77</ele>
        <time>2024-09-13T09:12:56Z</time>
      </trkpt>
      <trkpt lat="52.83563400618732" lon="12.044128999114037">
        <ele>21.289999999999999</ele>
        <time>2024-09-13T09:12:57Z</time>
      </trkpt>
      <trkpt lat="52.835497967898846" lon="12.044165963307023">
        <ele>21.289999999999999</ele>
        <time>2024-09-13T09:12:58Z</time>
      </trkpt>
      <trkpt lat="52.835360001772642" lon="12.044204017147422">
        <ele>21.289999999999999</ele>
        <time>2024-09-13T09:12:59Z</time>
      </trkpt>
      <trkpt lat="52.83520401455462" lon="12.044279035180807">
        <ele>20.809999999999999</ele>
        <time>2024-09-13T09:13:00Z</time>
      </trkpt>
      <trkpt lat="52.835079962387681" lon="12.044401997700334">
        <ele>20.32</ele>
        <time>2024-09-13T09:13:01Z</time>
      </trkpt>
      <trkpt lat="52.834441009908915" lon="12.044993005692959">
        <ele>19.84</ele>
        <time>2024-09-13T09:13:06Z</time>
      </trkpt>
      <trkpt lat="52.834008000791073" lon="12.045091995969415">
        <ele>19.359999999999999</ele>
        <time>2024-09-13T09:13:09Z</time>
      </trkpt>
      <trkpt lat="52.833870034664869" lon="12.045109011232853">
        <ele>18.879999999999999</ele>
        <time>2024-09-13T09:13:10Z</time>
      </trkpt>
      <trkpt lat="52.832519039511681" lon="12.045412017032504">
        <ele>16</ele>
        <time>2024-09-13T09:13:20Z</time>
      </trkpt>
      <trkpt lat="52.832115031778812" lon="12.04561703838408">
        <ele>16.960000000000001</ele>
        <time>2024-09-13T09:13:24Z</time>
      </trkpt>
      <trkpt lat="52.832006989046931" lon="12.045698007568717">
        <ele>16.960000000000001</ele>
        <time>2024-09-13T09:13:25Z</time>
      </trkpt>
      <trkpt lat="52.831906992942095" lon="12.045810995623469">
        <ele>17.440000000000001</ele>
        <time>2024-09-13T09:13:26Z</time>
      </trkpt>
      <trkpt lat="52.830996969714761" lon="12.046855967491865">
        <ele>16</ele>
        <time>2024-09-13T09:13:33Z</time>
      </trkpt>
      <trkpt lat="52.829775977879763" lon="12.048393962904811">
        <ele>13.6</ele>
        <time>2024-09-13T09:13:41Z</time>
      </trkpt>
      <trkpt lat="52.829054966568947" lon="12.049301974475384">
        <ele>12.630000000000001</ele>
        <time>2024-09-13T09:13:46Z</time>
      </trkpt>
      <trkpt lat="52.828925969079137" lon="12.04946399666369">
        <ele>12.630000000000001</ele>
        <time>2024-09-13T09:13:47Z</time>
      </trkpt>
      <trkpt lat="52.828554986044765" lon="12.049931036308408">
        <ele>11.67</ele>
        <time>2024-09-13T09:13:50Z</time>
      </trkpt>
      <trkpt lat="52.827445976436138" lon="12.051343973726034">
        <ele>10.710000000000001</ele>
        <time>2024-09-13T09:13:59Z</time>
      </trkpt>
      <trkpt lat="52.827238021418452" lon="12.051648991182446">
        <ele>10.710000000000001</ele>
        <time>2024-09-13T09:14:01Z</time>
      </trkpt>
      <trkpt lat="52.827145988121629" lon="12.051796009764075">
        <ele>10.710000000000001</ele>
        <time>2024-09-13T09:14:02Z</time>
      </trkpt>
      <trkpt lat="52.827069964259863" lon="12.051970018073916">
        <ele>10.710000000000001</ele>
        <time>2024-09-13T09:14:03Z</time>
      </trkpt>
      <trkpt lat="52.826992012560368" lon="12.052148971706629">
        <ele>10.23</ele>
        <time>2024-09-13T09:14:04Z</time>
      </trkpt>
      <trkpt lat="52.826916994526982" lon="12.052357010543346">
        <ele>10.23</ele>
        <time>2024-09-13T09:14:05Z</time>
      </trkpt>
      <trkpt lat="52.826294973492622" lon="12.054608976468444">
        <ele>8.789999999999999</ele>
        <time>2024-09-13T09:14:15Z</time>
      </trkpt>
      <trkpt lat="52.825647974386811" lon="12.057089013978839">
        <ele>8.310000000000001</ele>
        <time>2024-09-13T09:14:25Z</time>
      </trkpt>
      <trkpt lat="52.824843982234597" lon="12.060189982876182">
        <ele>11.67</ele>
        <time>2024-09-13T09:14:37Z</time>
      </trkpt>
      <trkpt lat="52.823747964575887" lon="12.063231021165848">
        <ele>13.119999999999999</ele>
        <time>2024-09-13T09:14:49Z</time>
      </trkpt>
      <trkpt lat="52.823073975741863" lon="12.065652972087264">
        <ele>14.08</ele>
        <time>2024-09-13T09:14:59Z</time>
      </trkpt>
      <trkpt lat="52.822717996314168" lon="12.066919980570674">
        <ele>14.08</ele>
        <time>2024-09-13T09:15:04Z</time>
      </trkpt>
      <trkpt lat="52.822051970288157" lon="12.069254005327821">
        <ele>15.52</ele>
        <time>2024-09-13T09:15:14Z</time>
      </trkpt>
      <trkpt lat="52.822015006095171" lon="12.069514011964202">
        <ele>16.48</ele>
        <time>2024-09-13T09:15:15Z</time>
      </trkpt>
      <trkpt lat="52.821979969739914" lon="12.069755997508764">
        <ele>16.960000000000001</ele>
        <time>2024-09-13T09:15:16Z</time>
      </trkpt>
      <trkpt lat="52.821965971961617" lon="12.07000401802361">
        <ele>17.440000000000001</ele>
        <time>2024-09-13T09:15:17Z</time>
      </trkpt>
      <trkpt lat="52.821965971961617" lon="12.07077800296247">
        <ele>17.920000000000002</ele>
        <time>2024-09-13T09:15:20Z</time>
      </trkpt>
      <trkpt lat="52.821965971961617" lon="12.071023005992174">
        <ele>17.920000000000002</ele>
        <time>2024-09-13T09:15:21Z</time>
      </trkpt>
      <trkpt lat="52.821938982233405" lon="12.071248982101679">
        <ele>17.920000000000002</ele>
        <time>2024-09-13T09:15:22Z</time>
      </trkpt>
      <trkpt lat="52.821824988350272" lon="12.071783998981118">
        <ele>17.920000000000002</ele>
        <time>2024-09-13T09:15:25Z</time>
      </trkpt>
      <trkpt lat="52.821791963651776" lon="12.071925988420844">
        <ele>18.399999999999999</ele>
        <time>2024-09-13T09:15:26Z</time>
      </trkpt>
      <trkpt lat="52.821661960333586" lon="12.072472991421819">
        <ele>20.32</ele>
        <time>2024-09-13T09:15:33Z</time>
      </trkpt>
      <trkpt lat="52.821661960333586" lon="12.072472991421819">
        <ele>20.809999999999999</ele>
        <time>2024-09-13T09:15:47Z</time>
      </trkpt>
      <trkpt lat="52.821636982262135" lon="12.072578016668558">
        <ele>21.77</ele>
        <time>2024-09-13T09:15:52Z</time>
      </trkpt>
      <trkpt lat="52.821633964776993" lon="12.072739033028483">
        <ele>21.77</ele>
        <time>2024-09-13T09:15:53Z</time>
      </trkpt>
      <trkpt lat="52.821696996688843" lon="12.07275697030127">
        <ele>21.77</ele>
        <time>2024-09-13T09:15:54Z</time>
      </trkpt>
      <trkpt lat="52.821772014722228" lon="12.072778008878231">
        <ele>21.77</ele>
        <time>2024-09-13T09:15:55Z</time>
      </trkpt>
      <trkpt lat="52.821848960593343" lon="12.07279896363616">
        <ele>21.289999999999999</ele>
        <time>2024-09-13T09:15:56Z</time>
      </trkpt>
      <trkpt lat="52.82192699611187" lon="12.072821008041501">
        <ele>21.289999999999999</ele>
        <time>2024-09-13T09:15:57Z</time>
      </trkpt>
      <trkpt lat="52.822006037458777" lon="12.07284296862781">
        <ele>21.289999999999999</ele>
        <time>2024-09-13T09:15:58Z</time>
      </trkpt>
      <trkpt lat="52.822709027677774" lon="12.07301395945251">
        <ele>24.170000000000002</ele>
        <time>2024-09-13T09:16:08Z</time>
      </trkpt>
      <trkpt lat="52.823417969048023" lon="12.073130970820785">
        <ele>26.09</ele>
        <time>2024-09-13T09:16:18Z</time>
      </trkpt>
      <trkpt lat="52.823486030101776" lon="12.073116973042488">
        <ele>26.09</ele>
        <time>2024-09-13T09:16:19Z</time>
      </trkpt>
      <trkpt lat="52.823490975424647" lon="12.073067016899586">
        <ele>25.609999999999999</ele>
        <time>2024-09-13T09:16:20Z</time>
      </trkpt>
      <trkpt lat="52.82349600456655" lon="12.072941958904266">
        <ele>25.609999999999999</ele>
        <time>2024-09-13T09:16:21Z</time>
      </trkpt>
      <trkpt lat="52.823502039536834" lon="12.07279996946454">
        <ele>25.609999999999999</ele>
        <time>2024-09-13T09:16:22Z</time>
      </trkpt>
      <trkpt lat="52.823507990688086" lon="12.072650017216802">
        <ele>25.609999999999999</ele>
        <time>2024-09-13T09:16:23Z</time>
      </trkpt>
      <trkpt lat="52.82353799790144" lon="12.072481960058212">
        <ele>25.129999999999999</ele>
        <time>2024-09-13T09:16:24Z</time>
      </trkpt>
      <trkpt lat="52.823573034256697" lon="12.072356985881925">
        <ele>25.129999999999999</ele>
        <time>2024-09-13T09:16:25Z</time>
      </trkpt>
      <trkpt lat="52.823607986792922" lon="12.072230000048876">
        <ele>25.129999999999999</ele>
        <time>2024-09-13T09:16:26Z</time>
      </trkpt>
      <trkpt lat="52.823674036189914" lon="12.072109971195459">
        <ele>24.649999999999999</ele>
        <time>2024-09-13T09:16:27Z</time>
      </trkpt>
      <trkpt lat="52.823734972625971" lon="12.072019027546048">
        <ele>23.690000000000001</ele>
        <time>2024-09-13T09:16:28Z</time>
      </trkpt>
      <trkpt lat="52.82379599288106" lon="12.071926994249225">
        <ele>23.210000000000001</ele>
        <time>2024-09-13T09:16:29Z</time>
      </trkpt>
      <trkpt lat="52.824020041152835" lon="12.071747034788132">
        <ele>22.25</ele>
        <time>2024-09-13T09:16:32Z</time>
      </trkpt>
      <trkpt lat="52.824090030044317" lon="12.071700012311339">
        <ele>22.25</ele>
        <time>2024-09-13T09:16:33Z</time>
      </trkpt>
      <trkpt lat="52.824181979522109" lon="12.071686014533043">
        <ele>22.73</ele>
        <time>2024-09-13T09:16:34Z</time>
      </trkpt>
      <trkpt lat="52.824989994987845" lon="12.071677967905998">
        <ele>21.77</ele>
        <time>2024-09-13T09:16:44Z</time>
      </trkpt>
      <trkpt lat="52.82512896694243" lon="12.071737982332706">
        <ele>21.77</ele>
        <time>2024-09-13T09:16:46Z</time>
      </trkpt>
      <trkpt lat="52.825199039652944" lon="12.071768995374441">
        <ele>21.289999999999999</ele>
        <time>2024-09-13T09:16:47Z</time>
      </trkpt>
      <trkpt lat="52.825938994064927" lon="12.072165962308645">
        <ele>20.32</ele>
        <time>2024-09-13T09:17:00Z</time>
      </trkpt>
      <trkpt lat="52.825975036248565" lon="12.072187000885606">
        <ele>19.84</ele>
        <time>2024-09-13T09:17:10Z</time>
      </trkpt>
      <trkpt lat="52.826063968241215" lon="12.072240980342031">
        <ele>18.879999999999999</ele>
        <time>2024-09-13T09:17:43Z</time>
      </trkpt>
      <trkpt lat="52.826329004019499" lon="12.072406020015478">
        <ele>16.48</ele>
        <time>2024-09-13T09:17:51Z</time>
      </trkpt>
      <trkpt lat="52.826686995103955" lon="12.072666026651859">
        <ele>13.119999999999999</ele>
        <time>2024-09-13T09:17:58Z</time>
      </trkpt>
      <trkpt lat="52.826722031459212" lon="12.072700979188085">
        <ele>12.630000000000001</ele>
        <time>2024-09-13T09:17:59Z</time>
      </trkpt>
      <trkpt lat="52.826922023668885" lon="12.072918992489576">
        <ele>11.19</ele>
        <time>2024-09-13T09:18:05Z</time>
      </trkpt>
      <trkpt lat="52.826977008953691" lon="12.072941036894917">
        <ele>11.19</ele>
        <time>2024-09-13T09:18:06Z</time>
      </trkpt>
      <trkpt lat="52.827017996460199" lon="12.072935001924634">
        <ele>11.19</ele>
        <time>2024-09-13T09:18:07Z</time>
      </trkpt>
      <trkpt lat="52.827097959816456" lon="12.07292502745986">
        <ele>11.19</ele>
        <time>2024-09-13T09:18:09Z</time>
      </trkpt>
      <trkpt lat="52.827307004481554" lon="12.072897031903267">
        <ele>11.19</ele>
        <time>2024-09-13T09:18:13Z</time>
      </trkpt>
      <trkpt lat="52.827376993373036" lon="12.072887979447842">
        <ele>11.19</ele>
        <time>2024-09-13T09:18:14Z</time>
      </trkpt>
      <trkpt lat="52.827443964779377" lon="12.07288202829659">
        <ele>11.67</ele>
        <time>2024-09-13T09:18:15Z</time>
      </trkpt>
      <trkpt lat="52.827524011954665" lon="12.072907006368041">
        <ele>11.67</ele>
        <time>2024-09-13T09:18:16Z</time>
      </trkpt>
      <trkpt lat="52.827606992796063" lon="12.072931984439492">
        <ele>11.67</ele>
        <time>2024-09-13T09:18:17Z</time>
      </trkpt>
      <trkpt lat="52.827689973637462" lon="12.072956962510943">
        <ele>11.67</ele>
        <time>2024-09-13T09:18:18Z</time>
      </trkpt>
      <trkpt lat="52.82777002081275" lon="12.072981018573046">
        <ele>11.67</ele>
        <time>2024-09-13T09:18:19Z</time>
      </trkpt>
      <trkpt lat="52.827844033017755" lon="12.073003984987736">
        <ele>11.67</ele>
        <time>2024-09-13T09:18:20Z</time>
      </trkpt>
      <trkpt lat="52.828145027160645" lon="12.073072968050838">
        <ele>13.119999999999999</ele>
        <time>2024-09-13T09:18:25Z</time>
      </trkpt>
      <trkpt lat="52.828208981081843" lon="12.073085960000753">
        <ele>13.119999999999999</ele>
        <time>2024-09-13T09:18:26Z</time>
      </trkpt>
      <trkpt lat="52.828279975801706" lon="12.073100041598082">
        <ele>13.6</ele>
        <time>2024-09-13T09:18:27Z</time>
      </trkpt>
      <trkpt lat="52.828355999663472" lon="12.073114961385727">
        <ele>14.56</ele>
        <time>2024-09-13T09:18:28Z</time>
      </trkpt>
      <trkpt lat="52.82843797467649" lon="12.073135999962687">
        <ele>15.039999999999999</ele>
        <time>2024-09-13T09:18:29Z</time>
      </trkpt>
      <trkpt lat="52.828525984659791" lon="12.073157960548997">
        <ele>15.52</ele>
        <time>2024-09-13T09:18:30Z</time>
      </trkpt>
      <trkpt lat="52.828617012128234" lon="12.073180004954338">
        <ele>16.48</ele>
        <time>2024-09-13T09:18:31Z</time>
      </trkpt>
      <trkpt lat="52.828704016283154" lon="12.073201965540648">
        <ele>16.960000000000001</ele>
        <time>2024-09-13T09:18:32Z</time>
      </trkpt>
      <trkpt lat="52.828768976032734" lon="12.073309002444148">
        <ele>17.920000000000002</ele>
        <time>2024-09-13T09:18:33Z</time>
      </trkpt>
      <trkpt lat="52.828843994066119" lon="12.073430037125945">
        <ele>19.359999999999999</ele>
        <time>2024-09-13T09:18:34Z</time>
      </trkpt>
      <trkpt lat="52.829739013686776" lon="12.07471095956862">
        <ele>29.460000000000001</ele>
        <time>2024-09-13T09:18:46Z</time>
      </trkpt>
      <trkpt lat="52.830729000270367" lon="12.07572097890079">
        <ele>31.859999999999999</ele>
        <time>2024-09-13T09:18:58Z</time>
      </trkpt>
      <trkpt lat="52.831733990460634" lon="12.076626978814602">
        <ele>33.299999999999997</ele>
        <time>2024-09-13T09:19:09Z</time>
      </trkpt>
      <trkpt lat="52.832823973149061" lon="12.077514035627246">
        <ele>33.780000000000001</ele>
        <time>2024-09-13T09:19:20Z</time>
      </trkpt>
      <trkpt lat="52.83361597917974" lon="12.078156005591154">
        <ele>34.259999999999998</ele>
        <time>2024-09-13T09:19:29Z</time>
      </trkpt>
      <trkpt lat="52.834682995453477" lon="12.079014983028173">
        <ele>36.189999999999998</ele>
        <time>2024-09-13T09:19:41Z</time>
      </trkpt>
      <trkpt lat="52.834935039281845" lon="12.079254034906626">
        <ele>36.189999999999998</ele>
        <time>2024-09-13T09:19:44Z</time>
      </trkpt>
      <trkpt lat="52.835018020123243" lon="12.079335004091263">
        <ele>36.189999999999998</ele>
        <time>2024-09-13T09:19:45Z</time>
      </trkpt>
      <trkpt lat="52.83612702973187" lon="12.080433033406734">
        <ele>36.189999999999998</ele>
        <time>2024-09-13T09:19:58Z</time>
      </trkpt>
      <trkpt lat="52.836439004167914" lon="12.080744002014399">
        <ele>37.630000000000003</ele>
        <time>2024-09-13T09:20:03Z</time>
      </trkpt>
      <trkpt lat="52.836487032473087" lon="12.080792030319571">
        <ele>37.630000000000003</ele>
        <time>2024-09-13T09:20:04Z</time>
      </trkpt>
      <trkpt lat="52.836488960310817" lon="12.080909041687846">
        <ele>37.630000000000003</ele>
        <time>2024-09-13T09:20:05Z</time>
      </trkpt>
      <trkpt lat="52.836470017209649" lon="12.080976013094187">
        <ele>37.630000000000003</ele>
        <time>2024-09-13T09:20:06Z</time>
      </trkpt>
      <trkpt lat="52.83645099028945" lon="12.081044996157289">
        <ele>37.630000000000003</ele>
        <time>2024-09-13T09:20:07Z</time>
      </trkpt>
      <trkpt lat="52.836432969197631" lon="12.081109033897519">
        <ele>38.109999999999999</ele>
        <time>2024-09-13T09:20:08Z</time>
      </trkpt>
      <trkpt lat="52.836416959762573" lon="12.081165025010705">
        <ele>38.109999999999999</ele>
        <time>2024-09-13T09:20:09Z</time>
      </trkpt>
      <trkpt lat="52.836402039974928" lon="12.081221016123891">
        <ele>38.590000000000003</ele>
        <time>2024-09-13T09:20:10Z</time>
      </trkpt>
      <trkpt lat="52.836387036368251" lon="12.081271978095174">
        <ele>38.590000000000003</ele>
        <time>2024-09-13T09:20:11Z</time>
      </trkpt>
      <trkpt lat="52.836363986134529" lon="12.081355964764953">
        <ele>39.549999999999997</ele>
        <time>2024-09-13T09:20:21Z</time>
      </trkpt>
      <trkpt lat="52.836363986134529" lon="12.081355964764953">
        <ele>39.549999999999997</ele>
        <time>2024-09-13T09:20:43Z</time>
      </trkpt>
      <trkpt lat="52.83625703305006" lon="12.081356970593333">
        <ele>57.82</ele>
        <time>2024-09-13T09:33:14Z</time>
      </trkpt>
      <trkpt lat="52.836245968937874" lon="12.081344984471798">
        <ele>51.090000000000003</ele>
        <time>2024-09-13T09:33:52Z</time>
      </trkpt>
      <trkpt lat="52.836246974766254" lon="12.081337021663785">
        <ele>49.649999999999999</ele>
        <time>2024-09-13T09:34:44Z</time>
      </trkpt>
      <trkpt lat="52.836240017786622" lon="12.081317994743586">
        <ele>48.68</ele>
        <time>2024-09-13T09:35:41Z</time>
      </trkpt>
      <trkpt lat="52.836240017786622" lon="12.081317994743586">
        <ele>48.68</ele>
        <time>2024-09-13T09:36:11Z</time>
      </trkpt>
      <trkpt lat="52.836240017786622" lon="12.081317994743586">
        <ele>48.68</ele>
        <time>2024-09-13T09:36:12Z</time>
      </trkpt>
      <trkpt lat="52.836455013602972" lon="12.081029992550611">
        <ele>42.920000000000002</ele>
        <time>2024-09-13T09:36:21Z</time>
      </trkpt>
      <trkpt lat="52.836483009159565" lon="12.080929996445775">
        <ele>41.950000000000003</ele>
        <time>2024-09-13T09:36:23Z</time>
      </trkpt>
      <trkpt lat="52.836562972515821" lon="12.080867970362306">
        <ele>41.469999999999999</ele>
        <time>2024-09-13T09:36:24Z</time>
      </trkpt>
      <trkpt lat="52.836583005264401" lon="12.080888003110886">
        <ele>40.990000000000002</ele>
        <time>2024-09-13T09:36:25Z</time>
      </trkpt>
      <trkpt lat="52.836613012477756" lon="12.08091801032424">
        <ele>40.509999999999998</ele>
        <time>2024-09-13T09:36:26Z</time>
      </trkpt>
      <trkpt lat="52.836657017469406" lon="12.08096201531589">
        <ele>40.030000000000001</ele>
        <time>2024-09-13T09:36:27Z</time>
      </trkpt>
      <trkpt lat="52.836713008582592" lon="12.081018006429076">
        <ele>39.549999999999997</ele>
        <time>2024-09-13T09:36:28Z</time>
      </trkpt>
      <trkpt lat="52.836776962503791" lon="12.081082966178656">
        <ele>39.07</ele>
        <time>2024-09-13T09:36:29Z</time>
      </trkpt>
      <trkpt lat="52.836850974708796" lon="12.08115597255528">
        <ele>38.590000000000003</ele>
        <time>2024-09-13T09:36:30Z</time>
      </trkpt>
      <trkpt lat="52.837797040119767" lon="12.081995001062751">
        <ele>37.630000000000003</ele>
        <time>2024-09-13T09:36:40Z</time>
      </trkpt>
      <trkpt lat="52.838452002033591" lon="12.082378976047039">
        <ele>38.109999999999999</ele>
        <time>2024-09-13T09:36:46Z</time>
      </trkpt>
      <trkpt lat="52.838530037552118" lon="12.08240102045238">
        <ele>38.109999999999999</ele>
        <time>2024-09-13T09:36:47Z</time>
      </trkpt>
      <trkpt lat="52.838573958724737" lon="12.082621967419982">
        <ele>38.590000000000003</ele>
        <time>2024-09-13T09:36:48Z</time>
      </trkpt>
      <trkpt lat="52.838625004515052" lon="12.082682987675071">
        <ele>39.07</ele>
        <time>2024-09-13T09:36:49Z</time>
      </trkpt>
      <trkpt lat="52.838748972862959" lon="12.082710983231664">
        <ele>39.07</ele>
        <time>2024-09-13T09:36:50Z</time>
      </trkpt>
      <trkpt lat="52.838789038360119" lon="12.082687010988593">
        <ele>39.549999999999997</ele>
        <time>2024-09-13T09:36:51Z</time>
      </trkpt>
      <trkpt lat="52.838916024193168" lon="12.082522977143526">
        <ele>39.549999999999997</ele>
        <time>2024-09-13T09:36:52Z</time>
      </trkpt>
      <trkpt lat="52.839009985327721" lon="12.082539992406964">
        <ele>40.030000000000001</ele>
        <time>2024-09-13T09:36:53Z</time>
      </trkpt>
      <trkpt lat="52.839111993089318" lon="12.082550972700119">
        <ele>40.030000000000001</ele>
        <time>2024-09-13T09:36:54Z</time>
      </trkpt>
      <trkpt lat="52.839951021596789" lon="12.08261501044035">
        <ele>40.030000000000001</ele>
        <time>2024-09-13T09:37:04Z</time>
      </trkpt>
      <trkpt lat="52.83999796025455" lon="12.082617022097111">
        <ele>40.030000000000001</ele>
        <time>2024-09-13T09:37:05Z</time>
      </trkpt>
      <trkpt lat="52.840026961639524" lon="12.082618027925491">
        <ele>40.030000000000001</ele>
        <time>2024-09-13T09:37:06Z</time>
      </trkpt>
      <trkpt lat="52.840026961639524" lon="12.082618027925491">
        <ele>40.030000000000001</ele>
        <time>2024-09-13T09:37:16Z</time>
      </trkpt>
      <trkpt lat="52.840070966631174" lon="12.082620039582253">
        <ele>39.549999999999997</ele>
        <time>2024-09-13T09:37:34Z</time>
      </trkpt>
      <trkpt lat="52.840094016864896" lon="12.082620039582253">
        <ele>39.549999999999997</ele>
        <time>2024-09-13T09:37:35Z</time>
      </trkpt>
      <trkpt lat="52.840115977451205" lon="12.082620961591601">
        <ele>39.549999999999997</ele>
        <time>2024-09-13T09:37:36Z</time>
      </trkpt>
      <trkpt lat="52.840140033513308" lon="12.082621967419982">
        <ele>39.07</ele>
        <time>2024-09-13T09:37:37Z</time>
      </trkpt>
      <trkpt lat="52.840131986886263" lon="12.082645017653704">
        <ele>39.07</ele>
        <time>2024-09-13T09:37:38Z</time>
      </trkpt>
      <trkpt lat="52.840131986886263" lon="12.082645017653704">
        <ele>38.590000000000003</ele>
        <time>2024-09-13T09:37:39Z</time>
      </trkpt>
      <trkpt lat="52.840168029069901" lon="12.082621967419982">
        <ele>38.109999999999999</ele>
        <time>2024-09-13T09:37:43Z</time>
      </trkpt>
      <trkpt lat="52.840198036283255" lon="12.082621967419982">
        <ele>38.109999999999999</ele>
        <time>2024-09-13T09:37:44Z</time>
      </trkpt>
      <trkpt lat="52.840681001543999" lon="12.082624984905124">
        <ele>35.229999999999997</ele>
        <time>2024-09-13T09:37:49Z</time>
      </trkpt>
      <trkpt lat="52.841835021972656" lon="12.082667984068394">
        <ele>32.82</ele>
        <time>2024-09-13T09:37:56Z</time>
      </trkpt>
      <trkpt lat="52.844227971509099" lon="12.082763034850359">
        <ele>30.420000000000002</ele>
        <time>2024-09-13T09:38:07Z</time>
      </trkpt>
      <trkpt lat="52.846607007086277" lon="12.082859007641673">
        <ele>25.609999999999999</ele>
        <time>2024-09-13T09:38:17Z</time>
      </trkpt>
      <trkpt lat="52.84934202209115" lon="12.082970989868045">
        <ele>23.210000000000001</ele>
        <time>2024-09-13T09:38:28Z</time>
      </trkpt>
      <trkpt lat="52.852074019610882" lon="12.083082972094417">
        <ele>22.73</ele>
        <time>2024-09-13T09:38:39Z</time>
      </trkpt>
      <trkpt lat="52.854782966896892" lon="12.08319696597755">
        <ele>22.73</ele>
        <time>2024-09-13T09:38:50Z</time>
      </trkpt>
      <trkpt lat="52.857998013496399" lon="12.083331998437643">
        <ele>24.170000000000002</ele>
        <time>2024-09-13T09:39:03Z</time>
      </trkpt>
      <trkpt lat="52.860969984903932" lon="12.083457978442311">
        <ele>25.609999999999999</ele>
        <time>2024-09-13T09:39:15Z</time>
      </trkpt>
      <trkpt lat="52.864699009805918" lon="12.083598962053657">
        <ele>25.609999999999999</ele>
        <time>2024-09-13T09:39:30Z</time>
      </trkpt>
      <trkpt lat="52.867422960698605" lon="12.083700969815254">
        <ele>28.98</ele>
        <time>2024-09-13T09:39:41Z</time>
      </trkpt>
      <trkpt lat="52.869134964421391" lon="12.083759978413582">
        <ele>30.899999999999999</ele>
        <time>2024-09-13T09:39:49Z</time>
      </trkpt>
      <trkpt lat="52.87127997726202" lon="12.083832984790206">
        <ele>32.340000000000003</ele>
        <time>2024-09-13T09:40:01Z</time>
      </trkpt>
      <trkpt lat="52.873237989842892" lon="12.083892999216914">
        <ele>29.460000000000001</ele>
        <time>2024-09-13T09:40:11Z</time>
      </trkpt>
      <trkpt lat="52.875715009868145" lon="12.084001963958144">
        <ele>20.809999999999999</ele>
        <time>2024-09-13T09:40:22Z</time>
      </trkpt>
      <trkpt lat="52.879391983151436" lon="12.084122998639941">
        <ele>11.67</ele>
        <time>2024-09-13T09:40:37Z</time>
      </trkpt>
      <trkpt lat="52.882926966995001" lon="12.084239004179835">
        <ele>7.83</ele>
        <time>2024-09-13T09:40:51Z</time>
      </trkpt>
      <trkpt lat="52.885253028944135" lon="12.084334976971149">
        <ele>2.54</ele>
        <time>2024-09-13T09:41:00Z</time>
      </trkpt>
      <trkpt lat="52.887340961024165" lon="12.08442198112607">
        <ele>-1.79</ele>
        <time>2024-09-13T09:41:08Z</time>
      </trkpt>
      <trkpt lat="52.888442007824779" lon="12.084467997774482">
        <ele>-4.19</ele>
        <time>2024-09-13T09:41:13Z</time>
      </trkpt>
      <trkpt lat="52.888803016394377" lon="12.08448501303792">
        <ele>-5.15</ele>
        <time>2024-09-13T09:41:15Z</time>
      </trkpt>
      <trkpt lat="52.890201034024358" lon="12.084527006372809">
        <ele>-10.92</ele>
        <time>2024-09-13T09:41:23Z</time>
      </trkpt>
      <trkpt lat="52.891692006960511" lon="12.084611998870969">
        <ele>-17.649999999999999</ele>
        <time>2024-09-13T09:41:32Z</time>
      </trkpt>
      <trkpt lat="52.893004026263952" lon="12.084672013297677">
        <ele>-21.489999999999998</ele>
        <time>2024-09-13T09:41:40Z</time>
      </trkpt>
      <trkpt lat="52.894403971731663" lon="12.084734039381146">
        <ele>-24.379999999999999</ele>
        <time>2024-09-13T09:41:49Z</time>
      </trkpt>
      <trkpt lat="52.895694030448794" lon="12.084789024665952">
        <ele>-21.489999999999998</ele>
        <time>2024-09-13T09:41:57Z</time>
      </trkpt>
      <trkpt lat="52.895866027101874" lon="12.084792964160442">
        <ele>-21.489999999999998</ele>
        <time>2024-09-13T09:41:58Z</time>
      </trkpt>
      <trkpt lat="52.896591983735561" lon="12.084806961938739">
        <ele>-19.09</ele>
        <time>2024-09-13T09:42:03Z</time>
      </trkpt>
      <trkpt lat="52.896771021187305" lon="12.084794975817204">
        <ele>-19.57</ele>
        <time>2024-09-13T09:42:04Z</time>
      </trkpt>
      <trkpt lat="52.896792981773615" lon="12.084699003025889">
        <ele>-19.57</ele>
        <time>2024-09-13T09:42:05Z</time>
      </trkpt>
      <trkpt lat="52.896826006472111" lon="12.084560031071305">
        <ele>-20.530000000000001</ele>
        <time>2024-09-13T09:42:06Z</time>
      </trkpt>
      <trkpt lat="52.896863976493478" lon="12.084392979741096">
        <ele>-21.010000000000002</ele>
        <time>2024-09-13T09:42:07Z</time>
      </trkpt>
      <trkpt lat="52.896906975656748" lon="12.084211008623242">
        <ele>-21.969999999999999</ele>
        <time>2024-09-13T09:42:08Z</time>
      </trkpt>
      <trkpt lat="52.896955003961921" lon="12.084002969786525">
        <ele>-22.449999999999999</ele>
        <time>2024-09-13T09:42:09Z</time>
      </trkpt>
      <trkpt lat="52.897302014753222" lon="12.082373024895787">
        <ele>-21.489999999999998</ele>
        <time>2024-09-13T09:42:15Z</time>
      </trkpt>
      <trkpt lat="52.897967034950852" lon="12.079231990501285">
        <ele>-20.530000000000001</ele>
        <time>2024-09-13T09:42:24Z</time>
      </trkpt>
      <trkpt lat="52.898672958835959" lon="12.07589297555387">
        <ele>-19.57</ele>
        <time>2024-09-13T09:42:33Z</time>
      </trkpt>
      <trkpt lat="52.89944501593709" lon="12.073589963838458">
        <ele>-17.649999999999999</ele>
        <time>2024-09-13T09:42:40Z</time>
      </trkpt>
      <trkpt lat="52.900625020265579" lon="12.070772973820567">
        <ele>-12.359999999999999</ele>
        <time>2024-09-13T09:42:49Z</time>
      </trkpt>
      <trkpt lat="52.901499001309276" lon="12.06867297179997">
        <ele>-9.48</ele>
        <time>2024-09-13T09:42:56Z</time>
      </trkpt>
      <trkpt lat="52.902311040088534" lon="12.066612029448152">
        <ele>-8.51</ele>
        <time>2024-09-13T09:43:03Z</time>
      </trkpt>
      <trkpt lat="52.902642041444778" lon="12.065323982387781">
        <ele>-7.55</ele>
        <time>2024-09-13T09:43:07Z</time>
      </trkpt>
      <trkpt lat="52.902792999520898" lon="12.064681006595492">
        <ele>-7.55</ele>
        <time>2024-09-13T09:43:09Z</time>
      </trkpt>
      <trkpt lat="52.903301026672125" lon="12.062443038448691">
        <ele>-8.51</ele>
        <time>2024-09-13T09:43:16Z</time>
      </trkpt>
      <trkpt lat="52.903672009706497" lon="12.06014497205615">
        <ele>-8.51</ele>
        <time>2024-09-13T09:43:23Z</time>
      </trkpt>
      <trkpt lat="52.904217001050711" lon="12.057438958436251">
        <ele>-9.48</ele>
        <time>2024-09-13T09:43:31Z</time>
      </trkpt>
      <trkpt lat="52.904647998511791" lon="12.055397965013981">
        <ele>-13.800000000000001</ele>
        <time>2024-09-13T09:43:37Z</time>
      </trkpt>
      <trkpt lat="52.904743971303105" lon="12.054717019200325">
        <ele>-15.24</ele>
        <time>2024-09-13T09:43:39Z</time>
      </trkpt>
      <trkpt lat="52.904899958521128" lon="12.05298900604248">
        <ele>-18.609999999999999</ele>
        <time>2024-09-13T09:43:44Z</time>
      </trkpt>
      <trkpt lat="52.905492978170514" lon="12.049913015216589">
        <ele>-18.129999999999999</ele>
        <time>2024-09-13T09:43:53Z</time>
      </trkpt>
      <trkpt lat="52.905565984547138" lon="12.049583019688725">
        <ele>-18.129999999999999</ele>
        <time>2024-09-13T09:43:54Z</time>
      </trkpt>
      <trkpt lat="52.906087003648281" lon="12.047326024621725">
        <ele>-18.129999999999999</ele>
        <time>2024-09-13T09:44:01Z</time>
      </trkpt>
      <trkpt lat="52.906199991703033" lon="12.047040034085512">
        <ele>-19.09</ele>
        <time>2024-09-13T09:44:02Z</time>
      </trkpt>
      <trkpt lat="52.907105991616845" lon="12.044943971559405">
        <ele>-21.010000000000002</ele>
        <time>2024-09-13T09:44:10Z</time>
      </trkpt>
      <trkpt lat="52.908134032040834" lon="12.042665015906096">
        <ele>-23.41</ele>
        <time>2024-09-13T09:44:19Z</time>
      </trkpt>
      <trkpt lat="52.908357996493578" lon="12.042185990139842">
        <ele>-24.379999999999999</ele>
        <time>2024-09-13T09:44:21Z</time>
      </trkpt>
      <trkpt lat="52.908505015075207" lon="12.041874015703797">
        <ele>-24.859999999999999</ele>
        <time>2024-09-13T09:44:22Z</time>
      </trkpt>
      <trkpt lat="52.908782036975026" lon="12.04158098436892">
        <ele>-25.34</ele>
        <time>2024-09-13T09:44:24Z</time>
      </trkpt>
      <trkpt lat="52.909127036109567" lon="12.041216036304832">
        <ele>-23.899999999999999</ele>
        <time>2024-09-13T09:44:26Z</time>
      </trkpt>
      <trkpt lat="52.909444961696863" lon="12.040814962238073">
        <ele>-23.41</ele>
        <time>2024-09-13T09:44:28Z</time>
      </trkpt>
      <trkpt lat="52.909600026905537" lon="12.040574988350272">
        <ele>-22.93</ele>
        <time>2024-09-13T09:44:29Z</time>
      </trkpt>
      <trkpt lat="52.909713014960289" lon="12.040300983935595">
        <ele>-22.93</ele>
        <time>2024-09-13T09:44:30Z</time>
      </trkpt>
      <trkpt lat="52.909834971651435" lon="12.040007030591369">
        <ele>-22.449999999999999</ele>
        <time>2024-09-13T09:44:31Z</time>
      </trkpt>
      <trkpt lat="52.909891968593001" lon="12.039716010913253">
        <ele>-21.969999999999999</ele>
        <time>2024-09-13T09:44:32Z</time>
      </trkpt>
      <trkpt lat="52.90995198301971" lon="12.039404958486557">
        <ele>-21.969999999999999</ele>
        <time>2024-09-13T09:44:33Z</time>
      </trkpt>
      <trkpt lat="52.910002022981644" lon="12.039089966565371">
        <ele>-22.449999999999999</ele>
        <time>2024-09-13T09:44:34Z</time>
      </trkpt>
      <trkpt lat="52.910036975517869" lon="12.038775980472565">
        <ele>-22.93</ele>
        <time>2024-09-13T09:44:35Z</time>
      </trkpt>
      <trkpt lat="52.910073017701507" lon="12.038460988551378">
        <ele>-23.41</ele>
        <time>2024-09-13T09:44:36Z</time>
      </trkpt>
      <trkpt lat="52.910220958292484" lon="12.035527992993593">
        <ele>-21.489999999999998</ele>
        <time>2024-09-13T09:44:45Z</time>
      </trkpt>
      <trkpt lat="52.910260017961264" lon="12.032842012122273">
        <ele>-15.24</ele>
        <time>2024-09-13T09:44:53Z</time>
      </trkpt>
      <trkpt lat="52.910289019346237" lon="12.032510004937649">
        <ele>-14.279999999999999</ele>
        <time>2024-09-13T09:44:54Z</time>
      </trkpt>
      <trkpt lat="52.910710964351892" lon="12.030359962955117">
        <ele>-12.359999999999999</ele>
        <time>2024-09-13T09:45:01Z</time>
      </trkpt>
      <trkpt lat="52.911003995686769" lon="12.028947025537491">
        <ele>-10.92</ele>
        <time>2024-09-13T09:45:06Z</time>
      </trkpt>
      <trkpt lat="52.911067027598619" lon="12.028643013909459">
        <ele>-9.48</ele>
        <time>2024-09-13T09:45:08Z</time>
      </trkpt>
      <trkpt lat="52.911087982356548" lon="12.028543017804623">
        <ele>-7.55</ele>
        <time>2024-09-13T09:45:09Z</time>
      </trkpt>
      <trkpt lat="52.911107009276748" lon="12.028357023373246">
        <ele>-6.59</ele>
        <time>2024-09-13T09:45:10Z</time>
      </trkpt>
      <trkpt lat="52.911032997071743" lon="12.028263984248042">
        <ele>-6.11</ele>
        <time>2024-09-13T09:45:11Z</time>
      </trkpt>
      <trkpt lat="52.910942975431681" lon="12.028148984536529">
        <ele>-5.63</ele>
        <time>2024-09-13T09:45:12Z</time>
      </trkpt>
      <trkpt lat="52.910836022347212" lon="12.028014035895467">
        <ele>-5.63</ele>
        <time>2024-09-13T09:45:13Z</time>
      </trkpt>
      <trkpt lat="52.909700023010373" lon="12.026573019102216">
        <ele>-4.67</ele>
        <time>2024-09-13T09:45:21Z</time>
      </trkpt>
      <trkpt lat="52.908636024221778" lon="12.025187993422151">
        <ele>-3.71</ele>
        <time>2024-09-13T09:45:28Z</time>
      </trkpt>
      <trkpt lat="52.908481964841485" lon="12.025015996769071">
        <ele>-3.23</ele>
        <time>2024-09-13T09:45:29Z</time>
      </trkpt>
      <trkpt lat="52.908291025087237" lon="12.024877024814487">
        <ele>-2.75</ele>
        <time>2024-09-13T09:45:30Z</time>
      </trkpt>
      <trkpt lat="52.908112993463874" lon="12.024851040914655">
        <ele>-1.3</ele>
        <time>2024-09-13T09:45:31Z</time>
      </trkpt>
      <trkpt lat="52.907905038446188" lon="12.024847017601132">
        <ele>-0.34</ele>
        <time>2024-09-13T09:45:32Z</time>
      </trkpt>
      <trkpt lat="52.907698005437851" lon="12.024868978187442">
        <ele>0.62</ele>
        <time>2024-09-13T09:45:33Z</time>
      </trkpt>
      <trkpt lat="52.905920036137104" lon="12.025063019245863">
        <ele>5.91</ele>
        <time>2024-09-13T09:45:41Z</time>
      </trkpt>
      <trkpt lat="52.904031006619334" lon="12.025273991748691">
        <ele>8.789999999999999</ele>
        <time>2024-09-13T09:45:50Z</time>
      </trkpt>
      <trkpt lat="52.902061007916927" lon="12.025470966473222">
        <ele>11.19</ele>
        <time>2024-09-13T09:46:00Z</time>
      </trkpt>
      <trkpt lat="52.901861015707254" lon="12.025438025593758">
        <ele>11.19</ele>
        <time>2024-09-13T09:46:01Z</time>
      </trkpt>
      <trkpt lat="52.901669992133975" lon="12.025333000347018">
        <ele>11.19</ele>
        <time>2024-09-13T09:46:02Z</time>
      </trkpt>
      <trkpt lat="52.900963984429836" lon="12.024945002049208">
        <ele>11.19</ele>
        <time>2024-09-13T09:46:06Z</time>
      </trkpt>
      <trkpt lat="52.900812020525336" lon="12.024879958480597">
        <ele>11.67</ele>
        <time>2024-09-13T09:46:07Z</time>
      </trkpt>
      <trkpt lat="52.900666007772088" lon="12.024879958480597">
        <ele>12.15</ele>
        <time>2024-09-13T09:46:08Z</time>
      </trkpt>
      <trkpt lat="52.900547990575433" lon="12.024947013705969">
        <ele>12.15</ele>
        <time>2024-09-13T09:46:09Z</time>
      </trkpt>
      <trkpt lat="52.900394015014172" lon="12.025072993710637">
        <ele>12.630000000000001</ele>
        <time>2024-09-13T09:46:10Z</time>
      </trkpt>
      <trkpt lat="52.900309022516012" lon="12.025235015898943">
        <ele>12.630000000000001</ele>
        <time>2024-09-13T09:46:11Z</time>
      </trkpt>
      <trkpt lat="52.90019704028964" lon="12.025449005886912">
        <ele>13.119999999999999</ele>
        <time>2024-09-13T09:46:12Z</time>
      </trkpt>
      <trkpt lat="52.900081034749746" lon="12.025698032230139">
        <ele>13.119999999999999</ele>
        <time>2024-09-13T09:46:13Z</time>
      </trkpt>
      <trkpt lat="52.899002032354474" lon="12.02828099951148">
        <ele>14.08</ele>
        <time>2024-09-13T09:46:22Z</time>
      </trkpt>
      <trkpt lat="52.897922024130821" lon="12.03059901483357">
        <ele>16.48</ele>
        <time>2024-09-13T09:46:31Z</time>
      </trkpt>
      <trkpt lat="52.896920973435044" lon="12.032375978305936">
        <ele>16.960000000000001</ele>
        <time>2024-09-13T09:46:39Z</time>
      </trkpt>
      <trkpt lat="52.89590198546648" lon="12.034069960936904">
        <ele>20.32</ele>
        <time>2024-09-13T09:46:47Z</time>
      </trkpt>
      <trkpt lat="52.895086007192731" lon="12.035421039909124">
        <ele>22.25</ele>
        <time>2024-09-13T09:46:55Z</time>
      </trkpt>
      <trkpt lat="52.89501903578639" lon="12.035526987165213">
        <ele>22.25</ele>
        <time>2024-09-13T09:46:56Z</time>
      </trkpt>
      <trkpt lat="52.894961033016443" lon="12.035617008805275">
        <ele>22.73</ele>
        <time>2024-09-13T09:46:57Z</time>
      </trkpt>
      <trkpt lat="52.89482600055635" lon="12.035819012671709">
        <ele>23.210000000000001</ele>
        <time>2024-09-13T09:47:00Z</time>
      </trkpt>
      <trkpt lat="52.894794987514615" lon="12.035858994349837">
        <ele>23.690000000000001</ele>
        <time>2024-09-13T09:47:01Z</time>
      </trkpt>
      <trkpt lat="52.894686022773385" lon="12.035995032638311">
        <ele>23.690000000000001</ele>
        <time>2024-09-13T09:47:02Z</time>
      </trkpt>
      <trkpt lat="52.894577980041504" lon="12.035723039880395">
        <ele>23.690000000000001</ele>
        <time>2024-09-13T09:47:03Z</time>
      </trkpt>
      <trkpt lat="52.894574040547013" lon="12.035618014633656">
        <ele>23.690000000000001</ele>
        <time>2024-09-13T09:47:04Z</time>
      </trkpt>
      <trkpt lat="52.894570017233491" lon="12.035495974123478">
        <ele>23.690000000000001</ele>
        <time>2024-09-13T09:47:05Z</time>
      </trkpt>
      <trkpt lat="52.894563982263207" lon="12.03534702770412">
        <ele>23.690000000000001</ele>
        <time>2024-09-13T09:47:06Z</time>
      </trkpt>
      <trkpt lat="52.894409000873566" lon="12.033945992588997">
        <ele>21.289999999999999</ele>
        <time>2024-09-13T09:47:13Z</time>
      </trkpt>
      <trkpt lat="52.894147988408804" lon="12.031817995011806">
        <ele>16.960000000000001</ele>
        <time>2024-09-13T09:47:21Z</time>
      </trkpt>
      <trkpt lat="52.893990995362401" lon="12.03027899377048">
        <ele>13.6</ele>
        <time>2024-09-13T09:47:26Z</time>
      </trkpt>
      <trkpt lat="52.893980015069246" lon="12.029945980757475">
        <ele>13.119999999999999</ele>
        <time>2024-09-13T09:47:27Z</time>
      </trkpt>
      <trkpt lat="52.894094008952379" lon="12.02701399102807">
        <ele>8.310000000000001</ele>
        <time>2024-09-13T09:47:36Z</time>
      </trkpt>
      <trkpt lat="52.894186964258552" lon="12.026081001386046">
        <ele>7.83</ele>
        <time>2024-09-13T09:47:39Z</time>
      </trkpt>
      <trkpt lat="52.894215965643525" lon="12.025794005021453">
        <ele>7.35</ele>
        <time>2024-09-13T09:47:40Z</time>
      </trkpt>
      <trkpt lat="52.894514026120305" lon="12.02297299169004">
        <ele>3.5</ele>
        <time>2024-09-13T09:47:49Z</time>
      </trkpt>
      <trkpt lat="52.894749976694584" lon="12.020164970308542">
        <ele>10.23</ele>
        <time>2024-09-13T09:47:58Z</time>
      </trkpt>
      <trkpt lat="52.894724998623133" lon="12.01985701918602">
        <ele>11.19</ele>
        <time>2024-09-13T09:47:59Z</time>
      </trkpt>
      <trkpt lat="52.894406989216805" lon="12.016136962920427">
        <ele>12.630000000000001</ele>
        <time>2024-09-13T09:48:11Z</time>
      </trkpt>
      <trkpt lat="52.894298024475574" lon="12.014905996620655">
        <ele>13.119999999999999</ele>
        <time>2024-09-13T09:48:15Z</time>
      </trkpt>
      <trkpt lat="52.894022008404136" lon="12.011849032714963">
        <ele>9.27</ele>
        <time>2024-09-13T09:48:25Z</time>
      </trkpt>
      <trkpt lat="52.894027959555387" lon="12.011538986116648">
        <ele>8.789999999999999</ele>
        <time>2024-09-13T09:48:26Z</time>
      </trkpt>
      <trkpt lat="52.894033994525671" lon="12.011226005852222">
        <ele>8.310000000000001</ele>
        <time>2024-09-13T09:48:27Z</time>
      </trkpt>
      <trkpt lat="52.894083028659225" lon="12.010283041745424">
        <ele>7.35</ele>
        <time>2024-09-13T09:48:30Z</time>
      </trkpt>
      <trkpt lat="52.894105995073915" lon="12.009982969611883">
        <ele>6.87</ele>
        <time>2024-09-13T09:48:31Z</time>
      </trkpt>
      <trkpt lat="52.894349992275238" lon="12.006555022671819">
        <ele>3.5</ele>
        <time>2024-09-13T09:48:42Z</time>
      </trkpt>
      <trkpt lat="52.894593989476562" lon="12.00310000218451">
        <ele>4.94</ele>
        <time>2024-09-13T09:48:53Z</time>
      </trkpt>
      <trkpt lat="52.894686022773385" lon="12.001235028728843">
        <ele>4.46</ele>
        <time>2024-09-13T09:48:59Z</time>
      </trkpt>
      <trkpt lat="52.894652998074889" lon="12.000933028757572">
        <ele>3.98</ele>
        <time>2024-09-13T09:49:00Z</time>
      </trkpt>
      <trkpt lat="52.894615028053522" lon="12.000633962452412">
        <ele>3.5</ele>
        <time>2024-09-13T09:49:01Z</time>
      </trkpt>
      <trkpt lat="52.894134996458888" lon="11.997613040730357">
        <ele>1.58</ele>
        <time>2024-09-13T09:49:11Z</time>
      </trkpt>
      <trkpt lat="52.893475005403161" lon="11.993705984205008">
        <ele>2.06</ele>
        <time>2024-09-13T09:49:24Z</time>
      </trkpt>
      <trkpt lat="52.893226984888315" lon="11.992252981290221">
        <ele>3.5</ele>
        <time>2024-09-13T09:49:31Z</time>
      </trkpt>
      <trkpt lat="52.89308700710535" lon="11.991355028003454">
        <ele>3.5</ele>
        <time>2024-09-13T09:49:36Z</time>
      </trkpt>
      <trkpt lat="52.893060017377138" lon="11.991184037178755">
        <ele>3.5</ele>
        <time>2024-09-13T09:49:37Z</time>
      </trkpt>
      <trkpt lat="52.893033027648926" lon="11.991008017212152">
        <ele>3.02</ele>
        <time>2024-09-13T09:49:38Z</time>
      </trkpt>
      <trkpt lat="52.892749970778823" lon="11.989196017384529">
        <ele>1.58</ele>
        <time>2024-09-13T09:49:48Z</time>
      </trkpt>
      <trkpt lat="52.892720969393849" lon="11.989010022953153">
        <ele>1.1</ele>
        <time>2024-09-13T09:49:49Z</time>
      </trkpt>
      <trkpt lat="52.892692973837256" lon="11.988825034350157">
        <ele>1.1</ele>
        <time>2024-09-13T09:49:50Z</time>
      </trkpt>
      <trkpt lat="52.892663972452283" lon="11.98864197358489">
        <ele>1.1</ele>
        <time>2024-09-13T09:49:51Z</time>
      </trkpt>
      <trkpt lat="52.892456017434597" lon="11.987607982009649">
        <ele>1.58</ele>
        <time>2024-09-13T09:49:57Z</time>
      </trkpt>
      <trkpt lat="52.892371024936438" lon="11.987269017845392">
        <ele>1.58</ele>
        <time>2024-09-13T09:49:59Z</time>
      </trkpt>
      <trkpt lat="52.892329031601548" lon="11.987098027020693">
        <ele>1.58</ele>
        <time>2024-09-13T09:50:00Z</time>
      </trkpt>
      <trkpt lat="52.892286032438278" lon="11.986926030367613">
        <ele>1.1</ele>
        <time>2024-09-13T09:50:01Z</time>
      </trkpt>
      <trkpt lat="52.891888981685042" lon="11.985293990001082">
        <ele>-4.19</ele>
        <time>2024-09-13T09:50:11Z</time>
      </trkpt>
      <trkpt lat="52.891831984743476" lon="11.985011016950011">
        <ele>-5.15</ele>
        <time>2024-09-13T09:50:13Z</time>
      </trkpt>
      <trkpt lat="52.891831984743476" lon="11.984774982556701">
        <ele>-5.15</ele>
        <time>2024-09-13T09:50:14Z</time>
      </trkpt>
      <trkpt lat="52.891868026927114" lon="11.984674986451864">
        <ele>-4.67</ele>
        <time>2024-09-13T09:50:15Z</time>
      </trkpt>
      <trkpt lat="52.892196010798216" lon="11.983774015679955">
        <ele>-1.3</ele>
        <time>2024-09-13T09:50:21Z</time>
      </trkpt>
      <trkpt lat="52.892260970547795" lon="11.983663039281964">
        <ele>-0.34</ele>
        <time>2024-09-13T09:50:22Z</time>
      </trkpt>
      <trkpt lat="52.892319979146123" lon="11.983561031520367">
        <ele>0.14</ele>
        <time>2024-09-13T09:50:23Z</time>
      </trkpt>
      <trkpt lat="52.892405977472663" lon="11.983532030135393">
        <ele>1.1</ele>
        <time>2024-09-13T09:50:24Z</time>
      </trkpt>
      <trkpt lat="52.892495999112725" lon="11.983509985730052">
        <ele>1.58</ele>
        <time>2024-09-13T09:50:25Z</time>
      </trkpt>
      <trkpt lat="52.892586020752788" lon="11.983516020700336">
        <ele>2.06</ele>
        <time>2024-09-13T09:50:26Z</time>
      </trkpt>
      <trkpt lat="52.892682999372482" lon="11.983524989336729">
        <ele>2.54</ele>
        <time>2024-09-13T09:50:27Z</time>
      </trkpt>
      <trkpt lat="52.893253974616528" lon="11.983636971563101">
        <ele>4.46</ele>
        <time>2024-09-13T09:50:33Z</time>
      </trkpt>
      <trkpt lat="52.893355982378125" lon="11.983659015968442">
        <ele>4.94</ele>
        <time>2024-09-13T09:50:34Z</time>
      </trkpt>
      <trkpt lat="52.893437035381794" lon="11.98359196074307">
        <ele>5.42</ele>
        <time>2024-09-13T09:50:35Z</time>
      </trkpt>
      <trkpt lat="52.893518004566431" lon="11.983490036800504">
        <ele>5.91</ele>
        <time>2024-09-13T09:50:36Z</time>
      </trkpt>
      <trkpt lat="52.893587993457913" lon="11.983361961320043">
        <ele>5.91</ele>
        <time>2024-09-13T09:50:37Z</time>
      </trkpt>
      <trkpt lat="52.893658988177776" lon="11.983200022950768">
        <ele>5.91</ele>
        <time>2024-09-13T09:50:38Z</time>
      </trkpt>
      <trkpt lat="52.893725959584117" lon="11.98303003795445">
        <ele>5.91</ele>
        <time>2024-09-13T09:50:39Z</time>
      </trkpt>
      <trkpt lat="52.893797038123012" lon="11.982852006331086">
        <ele>5.91</ele>
        <time>2024-09-13T09:50:40Z</time>
      </trkpt>
      <trkpt lat="52.893869038671255" lon="11.982669029384851">
        <ele>5.42</ele>
        <time>2024-09-13T09:50:41Z</time>
      </trkpt>
      <trkpt lat="52.894481001421809" lon="11.981127010658383">
        <ele>3.98</ele>
        <time>2024-09-13T09:50:49Z</time>
      </trkpt>
      <trkpt lat="52.894572028890252" lon="11.980900028720498">
        <ele>3.98</ele>
        <time>2024-09-13T09:50:50Z</time>
      </trkpt>
      <trkpt lat="52.89557701908052" lon="11.978399958461523">
        <ele>4.46</ele>
        <time>2024-09-13T09:51:00Z</time>
      </trkpt>
      <trkpt lat="52.897418020293117" lon="11.973813967779279">
        <ele>7.35</ele>
        <time>2024-09-13T09:51:17Z</time>
      </trkpt>
      <trkpt lat="52.898949980735779" lon="11.970456009730697">
        <ele>9.75</ele>
        <time>2024-09-13T09:51:30Z</time>
      </trkpt>
      <trkpt lat="52.900081034749746" lon="11.968692038208246">
        <ele>10.23</ele>
        <time>2024-09-13T09:51:38Z</time>
      </trkpt>
      <trkpt lat="52.900501973927021" lon="11.96816498413682">
        <ele>10.710000000000001</ele>
        <time>2024-09-13T09:51:42Z</time>
      </trkpt>
      <trkpt lat="52.900565005838871" lon="11.968037998303771">
        <ele>10.710000000000001</ele>
        <time>2024-09-13T09:51:43Z</time>
      </trkpt>
      <trkpt lat="52.900569029152393" lon="11.967875976115465">
        <ele>10.710000000000001</ele>
        <time>2024-09-13T09:51:44Z</time>
      </trkpt>
      <trkpt lat="52.900572968646884" lon="11.967690987512469">
        <ele>11.19</ele>
        <time>2024-09-13T09:51:45Z</time>
      </trkpt>
      <trkpt lat="52.900576991960406" lon="11.967503987252712">
        <ele>11.19</ele>
        <time>2024-09-13T09:51:46Z</time>
      </trkpt>
      <trkpt lat="52.900581015273929" lon="11.967323021963239">
        <ele>11.19</ele>
        <time>2024-09-13T09:51:47Z</time>
      </trkpt>
      <trkpt lat="52.900585038587451" lon="11.967149013653398">
        <ele>11.19</ele>
        <time>2024-09-13T09:51:48Z</time>
      </trkpt>
      <trkpt lat="52.90058696642518" lon="11.96698104031384">
        <ele>11.67</ele>
        <time>2024-09-13T09:51:49Z</time>
      </trkpt>
      <trkpt lat="52.90058696642518" lon="11.966474018990993">
        <ele>11.67</ele>
        <time>2024-09-13T09:51:52Z</time>
      </trkpt>
      <trkpt lat="52.900611022487283" lon="11.966292969882488">
        <ele>12.15</ele>
        <time>2024-09-13T09:51:53Z</time>
      </trkpt>
      <trkpt lat="52.900643041357398" lon="11.966135976836085">
        <ele>12.15</ele>
        <time>2024-09-13T09:51:54Z</time>
      </trkpt>
      <trkpt lat="52.900676988065243" lon="11.965974038466811">
        <ele>12.630000000000001</ele>
        <time>2024-09-13T09:51:55Z</time>
      </trkpt>
      <trkpt lat="52.900728033855557" lon="11.965811010450125">
        <ele>12.630000000000001</ele>
        <time>2024-09-13T09:51:56Z</time>
      </trkpt>
      <trkpt lat="52.900787964463234" lon="11.965664997696877">
        <ele>12.630000000000001</ele>
        <time>2024-09-13T09:51:57Z</time>
      </trkpt>
      <trkpt lat="52.900843033567071" lon="11.965528959408402">
        <ele>12.630000000000001</ele>
        <time>2024-09-13T09:51:58Z</time>
      </trkpt>
      <trkpt lat="52.90092702023685" lon="11.965444972738624">
        <ele>12.630000000000001</ele>
        <time>2024-09-13T09:51:59Z</time>
      </trkpt>
      <trkpt lat="52.901005977764726" lon="11.965366015210748">
        <ele>13.119999999999999</ele>
        <time>2024-09-13T09:52:00Z</time>
      </trkpt>
      <trkpt lat="52.901102034375072" lon="11.965325027704239">
        <ele>13.119999999999999</ele>
        <time>2024-09-13T09:52:01Z</time>
      </trkpt>
      <trkpt lat="52.901203036308289" lon="11.965309018269181">
        <ele>13.119999999999999</ele>
        <time>2024-09-13T09:52:02Z</time>
      </trkpt>
      <trkpt lat="52.901308983564377" lon="11.965293008834124">
        <ele>13.119999999999999</ele>
        <time>2024-09-13T09:52:03Z</time>
      </trkpt>
      <trkpt lat="52.901417026296258" lon="11.965275993570685">
        <ele>13.119999999999999</ele>
        <time>2024-09-13T09:52:04Z</time>
      </trkpt>
      <trkpt lat="52.901523979380727" lon="11.965259984135628">
        <ele>13.119999999999999</ele>
        <time>2024-09-13T09:52:05Z</time>
      </trkpt>
      <trkpt lat="52.902473984286189" lon="11.965154036879539">
        <ele>12.15</ele>
        <time>2024-09-13T09:52:12Z</time>
      </trkpt>
      <trkpt lat="52.904072999954224" lon="11.964995032176375">
        <ele>11.67</ele>
        <time>2024-09-13T09:52:21Z</time>
      </trkpt>
      <trkpt lat="52.905574031174183" lon="11.964229010045528">
        <ele>12.15</ele>
        <time>2024-09-13T09:52:29Z</time>
      </trkpt>
      <trkpt lat="52.906894013285637" lon="11.963519984856248">
        <ele>12.630000000000001</ele>
        <time>2024-09-13T09:52:36Z</time>
      </trkpt>
      <trkpt lat="52.908500991761684" lon="11.962275020778179">
        <ele>14.08</ele>
        <time>2024-09-13T09:52:45Z</time>
      </trkpt>
      <trkpt lat="52.910220958292484" lon="11.960764015093446">
        <ele>14.08</ele>
        <time>2024-09-13T09:52:55Z</time>
      </trkpt>
      <trkpt lat="52.910418016836047" lon="11.960736019536853">
        <ele>14.56</ele>
        <time>2024-09-13T09:52:56Z</time>
      </trkpt>
      <trkpt lat="52.910609962418675" lon="11.96070802398026">
        <ele>14.56</ele>
        <time>2024-09-13T09:52:57Z</time>
      </trkpt>
      <trkpt lat="52.910797968506813" lon="11.960705006495118">
        <ele>14.56</ele>
        <time>2024-09-13T09:52:58Z</time>
      </trkpt>
      <trkpt lat="52.910992009565234" lon="11.960713975131512">
        <ele>14.56</ele>
        <time>2024-09-13T09:52:59Z</time>
      </trkpt>
      <trkpt lat="52.913167029619217" lon="11.960813971236348">
        <ele>16.48</ele>
        <time>2024-09-13T09:53:10Z</time>
      </trkpt>
      <trkpt lat="52.914518024772406" lon="11.960875997319818">
        <ele>16.48</ele>
        <time>2024-09-13T09:53:18Z</time>
      </trkpt>
      <trkpt lat="52.915359986945987" lon="11.960917990654707">
        <ele>17.440000000000001</ele>
        <time>2024-09-13T09:53:25Z</time>
      </trkpt>
      <trkpt lat="52.916129026561975" lon="11.960956966504455">
        <ele>16.48</ele>
        <time>2024-09-13T09:53:31Z</time>
      </trkpt>
      <trkpt lat="52.916533034294844" lon="11.960978005081415">
        <ele>15.52</ele>
        <time>2024-09-13T09:53:36Z</time>
      </trkpt>
      <trkpt lat="52.916563041508198" lon="11.960941040888429">
        <ele>15.52</ele>
        <time>2024-09-13T09:53:37Z</time>
      </trkpt>
      <trkpt lat="52.916582990437746" lon="11.960873985663056">
        <ele>15.039999999999999</ele>
        <time>2024-09-13T09:53:38Z</time>
      </trkpt>
      <trkpt lat="52.916609980165958" lon="11.960786981508136">
        <ele>15.52</ele>
        <time>2024-09-13T09:53:39Z</time>
      </trkpt>
      <trkpt lat="52.916640993207693" lon="11.960686985403299">
        <ele>15.52</ele>
        <time>2024-09-13T09:53:40Z</time>
      </trkpt>
      <trkpt lat="52.91667502373457" lon="11.960577014833689">
        <ele>15.52</ele>
        <time>2024-09-13T09:53:41Z</time>
      </trkpt>
      <trkpt lat="52.916722968220711" lon="11.960421027615666">
        <ele>15.52</ele>
        <time>2024-09-13T09:53:42Z</time>
      </trkpt>
      <trkpt lat="52.916941987350583" lon="11.959882993251085">
        <ele>16.960000000000001</ele>
        <time>2024-09-13T09:53:46Z</time>
      </trkpt>
      <trkpt lat="52.916975012049079" lon="11.959718037396669">
        <ele>17.440000000000001</ele>
        <time>2024-09-13T09:53:47Z</time>
      </trkpt>
      <trkpt lat="52.91699999012053" lon="11.959534976631403">
        <ele>17.440000000000001</ele>
        <time>2024-09-13T09:53:48Z</time>
      </trkpt>
      <trkpt lat="52.916980963200331" lon="11.959364991635084">
        <ele>17.920000000000002</ele>
        <time>2024-09-13T09:53:49Z</time>
      </trkpt>
      <trkpt lat="52.916953973472118" lon="11.959164999425411">
        <ele>17.920000000000002</ele>
        <time>2024-09-13T09:53:50Z</time>
      </trkpt>
      <trkpt lat="52.916925977915525" lon="11.958953021094203">
        <ele>17.920000000000002</ele>
        <time>2024-09-13T09:53:51Z</time>
      </trkpt>
      <trkpt lat="52.916619032621384" lon="11.957075977697968">
        <ele>15.52</ele>
        <time>2024-09-13T09:53:59Z</time>
      </trkpt>
      <trkpt lat="52.916148975491524" lon="11.954055977985263">
        <ele>15.52</ele>
        <time>2024-09-13T09:54:09Z</time>
      </trkpt>
      <trkpt lat="52.915671961382031" lon="11.948593994602561">
        <ele>16.960000000000001</ele>
        <time>2024-09-13T09:54:26Z</time>
      </trkpt>
      <trkpt lat="52.915256973356009" lon="11.94409903138876">
        <ele>16.960000000000001</ele>
        <time>2024-09-13T09:54:40Z</time>
      </trkpt>
      <trkpt lat="52.915201988071203" lon="11.943784039467573">
        <ele>16.960000000000001</ele>
        <time>2024-09-13T09:54:41Z</time>
      </trkpt>
      <trkpt lat="52.915102997794747" lon="11.943513974547386">
        <ele>16.48</ele>
        <time>2024-09-13T09:54:42Z</time>
      </trkpt>
      <trkpt lat="52.914984980598092" lon="11.943252962082624">
        <ele>16.48</ele>
        <time>2024-09-13T09:54:43Z</time>
      </trkpt>
      <trkpt lat="52.914859000593424" lon="11.942997984588146">
        <ele>16.960000000000001</ele>
        <time>2024-09-13T09:54:44Z</time>
      </trkpt>
      <trkpt lat="52.913234001025558" lon="11.939723007380962">
        <ele>18.879999999999999</ele>
        <time>2024-09-13T09:54:57Z</time>
      </trkpt>
      <trkpt lat="52.912425985559821" lon="11.937545975670218">
        <ele>19.84</ele>
        <time>2024-09-13T09:55:05Z</time>
      </trkpt>
      <trkpt lat="52.912328001111746" lon="11.937264008447528">
        <ele>20.32</ele>
        <time>2024-09-13T09:55:06Z</time>
      </trkpt>
      <trkpt lat="52.91179901920259" lon="11.935890968888998">
        <ele>20.809999999999999</ele>
        <time>2024-09-13T09:55:11Z</time>
      </trkpt>
      <trkpt lat="52.910882038995624" lon="11.931952983140945">
        <ele>20.32</ele>
        <time>2024-09-13T09:55:24Z</time>
      </trkpt>
      <trkpt lat="52.90978099219501" lon="11.927824979647994">
        <ele>18.879999999999999</ele>
        <time>2024-09-13T09:55:38Z</time>
      </trkpt>
      <trkpt lat="52.908366965129972" lon="11.924705989658833">
        <ele>14.08</ele>
        <time>2024-09-13T09:55:50Z</time>
      </trkpt>
      <trkpt lat="52.907359963282943" lon="11.923172017559409">
        <ele>14.56</ele>
        <time>2024-09-13T09:55:57Z</time>
      </trkpt>
      <trkpt lat="52.906183982267976" lon="11.921947002410889">
        <ele>11.67</ele>
        <time>2024-09-13T09:56:04Z</time>
      </trkpt>
      <trkpt lat="52.905297009274364" lon="11.9213040266186">
        <ele>10.23</ele>
        <time>2024-09-13T09:56:09Z</time>
      </trkpt>
      <trkpt lat="52.905136998742819" lon="11.921120965853333">
        <ele>10.23</ele>
        <time>2024-09-13T09:56:10Z</time>
      </trkpt>
      <trkpt lat="52.905008001253009" lon="11.920903036370873">
        <ele>9.75</ele>
        <time>2024-09-13T09:56:11Z</time>
      </trkpt>
      <trkpt lat="52.904896019026637" lon="11.920655015856028">
        <ele>9.27</ele>
        <time>2024-09-13T09:56:12Z</time>
      </trkpt>
      <trkpt lat="52.904783030971885" lon="11.920401966199279">
        <ele>8.789999999999999</ele>
        <time>2024-09-13T09:56:13Z</time>
      </trkpt>
      <trkpt lat="52.904669959098101" lon="11.920150006189942">
        <ele>8.789999999999999</ele>
        <time>2024-09-13T09:56:14Z</time>
      </trkpt>
      <trkpt lat="52.90354804135859" lon="11.917513981461525">
        <ele>10.710000000000001</ele>
        <time>2024-09-13T09:56:24Z</time>
      </trkpt>
      <trkpt lat="52.903198013082147" lon="11.916718035936356">
        <ele>11.19</ele>
        <time>2024-09-13T09:56:27Z</time>
      </trkpt>
      <trkpt lat="52.903061974793673" lon="11.916501028463244">
        <ele>12.15</ele>
        <time>2024-09-13T09:56:28Z</time>
      </trkpt>
      <trkpt lat="52.902637012302876" lon="11.91595695912838">
        <ele>13.119999999999999</ele>
        <time>2024-09-13T09:56:31Z</time>
      </trkpt>
      <trkpt lat="52.901247963309288" lon="11.914691962301731">
        <ele>15.52</ele>
        <time>2024-09-13T09:56:40Z</time>
      </trkpt>
      <trkpt lat="52.900483030825853" lon="11.913990983739495">
        <ele>17.440000000000001</ele>
        <time>2024-09-13T09:56:47Z</time>
      </trkpt>
      <trkpt lat="52.900292007252574" lon="11.913843965157866">
        <ele>18.399999999999999</ele>
        <time>2024-09-13T09:56:49Z</time>
      </trkpt>
      <trkpt lat="52.90019603446126" lon="11.913785962387919">
        <ele>18.879999999999999</ele>
        <time>2024-09-13T09:56:50Z</time>
      </trkpt>
      <trkpt lat="52.899164976552129" lon="11.913494020700455">
        <ele>20.32</ele>
        <time>2024-09-13T09:57:00Z</time>
      </trkpt>
      <trkpt lat="52.899085013195872" lon="11.913424031808972">
        <ele>20.32</ele>
        <time>2024-09-13T09:57:01Z</time>
      </trkpt>
      <trkpt lat="52.899031033739448" lon="11.913298973813653">
        <ele>19.84</ele>
        <time>2024-09-13T09:57:02Z</time>
      </trkpt>
      <trkpt lat="52.898975964635611" lon="11.913172993808985">
        <ele>19.84</ele>
        <time>2024-09-13T09:57:03Z</time>
      </trkpt>
      <trkpt lat="52.898919973522425" lon="11.913042990490794">
        <ele>19.359999999999999</ele>
        <time>2024-09-13T09:57:04Z</time>
      </trkpt>
      <trkpt lat="52.898876974359155" lon="11.912897983565927">
        <ele>19.359999999999999</ele>
        <time>2024-09-13T09:57:05Z</time>
      </trkpt>
      <trkpt lat="52.898847972974181" lon="11.912734033539891">
        <ele>19.359999999999999</ele>
        <time>2024-09-13T09:57:06Z</time>
      </trkpt>
      <trkpt lat="52.898678993806243" lon="11.911493008956313">
        <ele>20.32</ele>
        <time>2024-09-13T09:57:14Z</time>
      </trkpt>
      <trkpt lat="52.898690979927778" lon="11.911332998424768">
        <ele>20.32</ele>
        <time>2024-09-13T09:57:15Z</time>
      </trkpt>
      <trkpt lat="52.898707995191216" lon="11.911176005378366">
        <ele>20.32</ele>
        <time>2024-09-13T09:57:16Z</time>
      </trkpt>
      <trkpt lat="52.898726016283035" lon="11.911012977361679">
        <ele>20.809999999999999</ele>
        <time>2024-09-13T09:57:17Z</time>
      </trkpt>
      <trkpt lat="52.898741019889712" lon="11.910875011235476">
        <ele>20.809999999999999</ele>
        <time>2024-09-13T09:57:18Z</time>
      </trkpt>
      <trkpt lat="52.898781001567841" lon="11.910707959905267">
        <ele>20.809999999999999</ele>
        <time>2024-09-13T09:57:19Z</time>
      </trkpt>
      <trkpt lat="52.898817965760827" lon="11.910557001829147">
        <ele>20.809999999999999</ele>
        <time>2024-09-13T09:57:20Z</time>
      </trkpt>
      <trkpt lat="52.898855013772845" lon="11.910402020439506">
        <ele>20.809999999999999</ele>
        <time>2024-09-13T09:57:21Z</time>
      </trkpt>
      <trkpt lat="52.899299003183842" lon="11.908986987546086">
        <ele>21.77</ele>
        <time>2024-09-13T09:57:30Z</time>
      </trkpt>
      <trkpt lat="52.899336973205209" lon="11.90875799395144">
        <ele>21.77</ele>
        <time>2024-09-13T09:57:31Z</time>
      </trkpt>
      <trkpt lat="52.899366980418563" lon="11.908561019226909">
        <ele>21.77</ele>
        <time>2024-09-13T09:57:32Z</time>
      </trkpt>
      <trkpt lat="52.899382989853621" lon="11.908357003703713">
        <ele>21.77</ele>
        <time>2024-09-13T09:57:33Z</time>
      </trkpt>
      <trkpt lat="52.899417020380497" lon="11.907946038991213">
        <ele>21.289999999999999</ele>
        <time>2024-09-13T09:57:35Z</time>
      </trkpt>
      <trkpt lat="52.899446021765471" lon="11.907729031518102">
        <ele>21.289999999999999</ele>
        <time>2024-09-13T09:57:36Z</time>
      </trkpt>
      <trkpt lat="52.899505030363798" lon="11.907508000731468">
        <ele>21.289999999999999</ele>
        <time>2024-09-13T09:57:37Z</time>
      </trkpt>
      <trkpt lat="52.899609971791506" lon="11.907342039048672">
        <ele>21.289999999999999</ele>
        <time>2024-09-13T09:57:38Z</time>
      </trkpt>
      <trkpt lat="52.899722959846258" lon="11.907163001596928">
        <ele>21.289999999999999</ele>
        <time>2024-09-13T09:57:39Z</time>
      </trkpt>
      <trkpt lat="52.899845000356436" lon="11.906969966366887">
        <ele>21.289999999999999</ele>
        <time>2024-09-13T09:57:40Z</time>
      </trkpt>
      <trkpt lat="52.901007989421487" lon="11.90519099123776">
        <ele>21.289999999999999</ele>
        <time>2024-09-13T09:57:48Z</time>
      </trkpt>
      <trkpt lat="52.902161004021764" lon="11.903578983619809">
        <ele>20.809999999999999</ele>
        <time>2024-09-13T09:57:55Z</time>
      </trkpt>
      <trkpt lat="52.902327971532941" lon="11.903419978916645">
        <ele>20.809999999999999</ele>
        <time>2024-09-13T09:57:56Z</time>
      </trkpt>
      <trkpt lat="52.904204009100795" lon="11.901757009327412">
        <ele>20.809999999999999</ele>
        <time>2024-09-13T09:58:07Z</time>
      </trkpt>
      <trkpt lat="52.906265035271645" lon="11.899908967316151">
        <ele>21.289999999999999</ele>
        <time>2024-09-13T09:58:19Z</time>
      </trkpt>
      <trkpt lat="52.906422028318048" lon="11.899739988148212">
        <ele>21.77</ele>
        <time>2024-09-13T09:58:20Z</time>
      </trkpt>
      <trkpt lat="52.906552031636238" lon="11.899545025080442">
        <ele>21.77</ele>
        <time>2024-09-13T09:58:21Z</time>
      </trkpt>
      <trkpt lat="52.906671976670623" lon="11.89926004037261">
        <ele>22.25</ele>
        <time>2024-09-13T09:58:22Z</time>
      </trkpt>
      <trkpt lat="52.907403968274593" lon="11.897320970892906">
        <ele>22.25</ele>
        <time>2024-09-13T09:58:29Z</time>
      </trkpt>
      <trkpt lat="52.908159010112286" lon="11.894652005285025">
        <ele>25.129999999999999</ele>
        <time>2024-09-13T09:58:38Z</time>
      </trkpt>
      <trkpt lat="52.909125024452806" lon="11.890755007043481">
        <ele>27.530000000000001</ele>
        <time>2024-09-13T09:58:51Z</time>
      </trkpt>
      <trkpt lat="52.909784009680152" lon="11.888130968436599">
        <ele>25.129999999999999</ele>
        <time>2024-09-13T09:59:00Z</time>
      </trkpt>
      <trkpt lat="52.91012498550117" lon="11.886956999078393">
        <ele>25.609999999999999</ele>
        <time>2024-09-13T09:59:05Z</time>
      </trkpt>
      <trkpt lat="52.91021098382771" lon="11.886745020747185">
        <ele>25.609999999999999</ele>
        <time>2024-09-13T09:59:06Z</time>
      </trkpt>
      <trkpt lat="52.910299999639392" lon="11.886527007445693">
        <ele>25.609999999999999</ele>
        <time>2024-09-13T09:59:07Z</time>
      </trkpt>
      <trkpt lat="52.910981029272079" lon="11.885321019217372">
        <ele>25.609999999999999</ele>
        <time>2024-09-13T09:59:14Z</time>
      </trkpt>
      <trkpt lat="52.911338014528155" lon="11.884594978764653">
        <ele>25.609999999999999</ele>
        <time>2024-09-13T09:59:19Z</time>
      </trkpt>
      <trkpt lat="52.911410015076399" lon="11.884447960183024">
        <ele>25.609999999999999</ele>
        <time>2024-09-13T09:59:20Z</time>
      </trkpt>
      <trkpt lat="52.911481009796262" lon="11.884303959086537">
        <ele>25.129999999999999</ele>
        <time>2024-09-13T09:59:21Z</time>
      </trkpt>
      <trkpt lat="52.91154102422297" lon="11.884149983525276">
        <ele>25.129999999999999</ele>
        <time>2024-09-13T09:59:22Z</time>
      </trkpt>
      <trkpt lat="52.911575976759195" lon="11.883982010185719">
        <ele>25.129999999999999</ele>
        <time>2024-09-13T09:59:23Z</time>
      </trkpt>
      <trkpt lat="52.911610007286072" lon="11.883818982169032">
        <ele>24.649999999999999</ele>
        <time>2024-09-13T09:59:24Z</time>
      </trkpt>
      <trkpt lat="52.911641020327806" lon="11.883667018264532">
        <ele>24.649999999999999</ele>
        <time>2024-09-13T09:59:25Z</time>
      </trkpt>
      <trkpt lat="52.911655018106103" lon="11.883509019389749">
        <ele>24.649999999999999</ele>
        <time>2024-09-13T09:59:26Z</time>
      </trkpt>
      <trkpt lat="52.911647977307439" lon="11.883371975272894">
        <ele>24.170000000000002</ele>
        <time>2024-09-13T09:59:27Z</time>
      </trkpt>
      <trkpt lat="52.911641020327806" lon="11.883247001096606">
        <ele>23.690000000000001</ele>
        <time>2024-09-13T09:59:28Z</time>
      </trkpt>
      <trkpt lat="52.911616964265704" lon="11.883149016648531">
        <ele>23.210000000000001</ele>
        <time>2024-09-13T09:59:29Z</time>
      </trkpt>
      <trkpt lat="52.911555022001266" lon="11.883075004443526">
        <ele>22.73</ele>
        <time>2024-09-13T09:59:30Z</time>
      </trkpt>
      <trkpt lat="52.911484027281404" lon="11.882990011945367">
        <ele>22.25</ele>
        <time>2024-09-13T09:59:31Z</time>
      </trkpt>
      <trkpt lat="52.911408003419638" lon="11.882898984476924">
        <ele>21.77</ele>
        <time>2024-09-13T09:59:32Z</time>
      </trkpt>
      <trkpt lat="52.910604011267424" lon="11.88190103508532">
        <ele>19.359999999999999</ele>
        <time>2024-09-13T09:59:42Z</time>
      </trkpt>
      <trkpt lat="52.910032030194998" lon="11.881135012954473">
        <ele>18.879999999999999</ele>
        <time>2024-09-13T09:59:51Z</time>
      </trkpt>
      <trkpt lat="52.909968998283148" lon="11.881050020456314">
        <ele>18.879999999999999</ele>
        <time>2024-09-13T09:59:52Z</time>
      </trkpt>
      <trkpt lat="52.909766994416714" lon="11.880792025476694">
        <ele>19.359999999999999</ele>
        <time>2024-09-13T09:59:55Z</time>
      </trkpt>
      <trkpt lat="52.908995021134615" lon="11.880132034420967">
        <ele>20.32</ele>
        <time>2024-09-13T10:00:05Z</time>
      </trkpt>
      <trkpt lat="52.908926038071513" lon="11.88007403165102">
        <ele>20.809999999999999</ele>
        <time>2024-09-13T10:00:06Z</time>
      </trkpt>
      <trkpt lat="52.908871974796057" lon="11.879997001960874">
        <ele>20.809999999999999</ele>
        <time>2024-09-13T10:00:07Z</time>
      </trkpt>
      <trkpt lat="52.908820006996393" lon="11.879914021119475">
        <ele>20.809999999999999</ele>
        <time>2024-09-13T10:00:08Z</time>
      </trkpt>
      <trkpt lat="52.90881103836" lon="11.879801033064723">
        <ele>20.809999999999999</ele>
        <time>2024-09-13T10:00:09Z</time>
      </trkpt>
      <trkpt lat="52.908819001168013" lon="11.87966700643301">
        <ele>20.809999999999999</ele>
        <time>2024-09-13T10:00:10Z</time>
      </trkpt>
      <trkpt lat="52.908831993117929" lon="11.879525016993284">
        <ele>20.809999999999999</ele>
        <time>2024-09-13T10:00:11Z</time>
      </trkpt>
      <trkpt lat="52.908869963139296" lon="11.879373975098133">
        <ele>20.809999999999999</ele>
        <time>2024-09-13T10:00:12Z</time>
      </trkpt>
      <trkpt lat="52.908910028636456" lon="11.87921698205173">
        <ele>20.809999999999999</ele>
        <time>2024-09-13T10:00:13Z</time>
      </trkpt>
      <trkpt lat="52.909476980566978" lon="11.877099964767694">
        <ele>19.84</ele>
        <time>2024-09-13T10:00:25Z</time>
      </trkpt>
      <trkpt lat="52.910172007977962" lon="11.874975990504026">
        <ele>20.809999999999999</ele>
        <time>2024-09-13T10:00:35Z</time>
      </trkpt>
      <trkpt lat="52.911107009276748" lon="11.872707009315491">
        <ele>19.84</ele>
        <time>2024-09-13T10:00:45Z</time>
      </trkpt>
      <trkpt lat="52.911937991157174" lon="11.870748996734619">
        <ele>18.879999999999999</ele>
        <time>2024-09-13T10:00:54Z</time>
      </trkpt>
      <trkpt lat="52.912085009738803" lon="11.870581023395061">
        <ele>18.879999999999999</ele>
        <time>2024-09-13T10:00:55Z</time>
      </trkpt>
      <trkpt lat="52.912211995571852" lon="11.870436016470194">
        <ele>18.879999999999999</ele>
        <time>2024-09-13T10:00:56Z</time>
      </trkpt>
      <trkpt lat="52.912349039688706" lon="11.870378013700247">
        <ele>18.879999999999999</ele>
        <time>2024-09-13T10:00:57Z</time>
      </trkpt>
      <trkpt lat="52.912506032735109" lon="11.870338032022119">
        <ele>18.879999999999999</ele>
        <time>2024-09-13T10:00:58Z</time>
      </trkpt>
      <trkpt lat="52.912668976932764" lon="11.870296960696578">
        <ele>18.879999999999999</ele>
        <time>2024-09-13T10:00:59Z</time>
      </trkpt>
      <trkpt lat="52.91455096565187" lon="11.86976102180779">
        <ele>20.32</ele>
        <time>2024-09-13T10:01:10Z</time>
      </trkpt>
      <trkpt lat="52.915670033544302" lon="11.869295993819833">
        <ele>22.25</ele>
        <time>2024-09-13T10:01:18Z</time>
      </trkpt>
      <trkpt lat="52.91586097329855" lon="11.869214018806815">
        <ele>22.73</ele>
        <time>2024-09-13T10:01:20Z</time>
      </trkpt>
      <trkpt lat="52.916113017126918" lon="11.869105976074934">
        <ele>23.690000000000001</ele>
        <time>2024-09-13T10:01:23Z</time>
      </trkpt>
      <trkpt lat="52.916888007894158" lon="11.868782015517354">
        <ele>25.129999999999999</ele>
        <time>2024-09-13T10:01:33Z</time>
      </trkpt>
      <trkpt lat="52.917193025350571" lon="11.868671961128712">
        <ele>24.649999999999999</ele>
        <time>2024-09-13T10:01:37Z</time>
      </trkpt>
      <trkpt lat="52.917479015886784" lon="11.86868897639215">
        <ele>23.210000000000001</ele>
        <time>2024-09-13T10:01:41Z</time>
      </trkpt>
      <trkpt lat="52.917516985908151" lon="11.868711020797491">
        <ele>22.73</ele>
        <time>2024-09-13T10:01:42Z</time>
      </trkpt>
      <trkpt lat="52.917556967586279" lon="11.868816968053579">
        <ele>22.25</ele>
        <time>2024-09-13T10:01:43Z</time>
      </trkpt>
      <trkpt lat="52.917597033083439" lon="11.868922999128699">
        <ele>21.77</ele>
        <time>2024-09-13T10:01:44Z</time>
      </trkpt>
      <trkpt lat="52.917641038075089" lon="11.869039004668593">
        <ele>21.77</ele>
        <time>2024-09-13T10:01:45Z</time>
      </trkpt>
      <trkpt lat="52.917685965076089" lon="11.869158027693629">
        <ele>21.289999999999999</ele>
        <time>2024-09-13T10:01:46Z</time>
      </trkpt>
      <trkpt lat="52.917788978666067" lon="11.86937796883285">
        <ele>21.289999999999999</ele>
        <time>2024-09-13T10:01:48Z</time>
      </trkpt>
      <trkpt lat="52.917853016406298" lon="11.869457010179758">
        <ele>21.289999999999999</ele>
        <time>2024-09-13T10:01:49Z</time>
      </trkpt>
      <trkpt lat="52.917916970327497" lon="11.869537979364395">
        <ele>21.289999999999999</ele>
        <time>2024-09-13T10:01:50Z</time>
      </trkpt>
      <trkpt lat="52.91798603720963" lon="11.869551977142692">
        <ele>21.289999999999999</ele>
        <time>2024-09-13T10:01:51Z</time>
      </trkpt>
      <trkpt lat="52.918063988909125" lon="11.869559017941356">
        <ele>21.289999999999999</ele>
        <time>2024-09-13T10:01:52Z</time>
      </trkpt>
      <trkpt lat="52.918150993064046" lon="11.869565974920988">
        <ele>21.289999999999999</ele>
        <time>2024-09-13T10:01:53Z</time>
      </trkpt>
      <trkpt lat="52.918243026360869" lon="11.869573015719652">
        <ele>21.289999999999999</ele>
        <time>2024-09-13T10:01:54Z</time>
      </trkpt>
      <trkpt lat="52.919183978810906" lon="11.869735959917307">
        <ele>21.77</ele>
        <time>2024-09-13T10:02:05Z</time>
      </trkpt>
      <trkpt lat="52.919227983802557" lon="11.869846014305949">
        <ele>21.77</ele>
        <time>2024-09-13T10:02:06Z</time>
      </trkpt>
      <trkpt lat="52.919264025986195" lon="11.869948022067547">
        <ele>21.77</ele>
        <time>2024-09-13T10:02:07Z</time>
      </trkpt>
      <trkpt lat="52.919301996007562" lon="11.870052963495255">
        <ele>21.77</ele>
        <time>2024-09-13T10:02:08Z</time>
      </trkpt>
      <trkpt lat="52.919338960200548" lon="11.870156982913613">
        <ele>21.289999999999999</ele>
        <time>2024-09-13T10:02:09Z</time>
      </trkpt>
      <trkpt lat="52.91940500959754" lon="11.870340965688229">
        <ele>20.809999999999999</ele>
        <time>2024-09-13T10:02:11Z</time>
      </trkpt>
      <trkpt lat="52.9194709751755" lon="11.87040701508522">
        <ele>20.809999999999999</ele>
        <time>2024-09-13T10:02:12Z</time>
      </trkpt>
      <trkpt lat="52.919529983773828" lon="11.870466023683548">
        <ele>20.32</ele>
        <time>2024-09-13T10:02:13Z</time>
      </trkpt>
      <trkpt lat="52.919605001807213" lon="11.870495025068521">
        <ele>20.32</ele>
        <time>2024-09-13T10:02:14Z</time>
      </trkpt>
      <trkpt lat="52.919689994305372" lon="11.870499970391393">
        <ele>19.84</ele>
        <time>2024-09-13T10:02:15Z</time>
      </trkpt>
      <trkpt lat="52.919775992631912" lon="11.870504999533296">
        <ele>19.359999999999999</ele>
        <time>2024-09-13T10:02:16Z</time>
      </trkpt>
      <trkpt lat="52.919948995113373" lon="11.87051597982645">
        <ele>18.879999999999999</ele>
        <time>2024-09-13T10:02:18Z</time>
      </trkpt>
      <trkpt lat="52.920621978119016" lon="11.870555961504579">
        <ele>16.960000000000001</ele>
        <time>2024-09-13T10:02:26Z</time>
      </trkpt>
      <trkpt lat="52.920690961182117" lon="11.8705980386585">
        <ele>16.960000000000001</ele>
        <time>2024-09-13T10:02:27Z</time>
      </trkpt>
      <trkpt lat="52.920760028064251" lon="11.870649000629783">
        <ele>16.960000000000001</ele>
        <time>2024-09-13T10:02:28Z</time>
      </trkpt>
      <trkpt lat="52.920797998085618" lon="11.870744973421097">
        <ele>16.960000000000001</ele>
        <time>2024-09-13T10:02:29Z</time>
      </trkpt>
      <trkpt lat="52.920836973935366" lon="11.870841030031443">
        <ele>16.48</ele>
        <time>2024-09-13T10:02:30Z</time>
      </trkpt>
      <trkpt lat="52.920877039432526" lon="11.870941026136279">
        <ele>16.48</ele>
        <time>2024-09-13T10:02:31Z</time>
      </trkpt>
      <trkpt lat="52.92091098614037" lon="11.871027024462819">
        <ele>16.48</ele>
        <time>2024-09-13T10:02:32Z</time>
      </trkpt>
      <trkpt lat="52.920944010838866" lon="11.871067006140947">
        <ele>16.48</ele>
        <time>2024-09-13T10:02:33Z</time>
      </trkpt>
      <trkpt lat="52.92101701721549" lon="11.871046973392367">
        <ele>16.48</ele>
        <time>2024-09-13T10:02:34Z</time>
      </trkpt>
      <trkpt lat="52.921099998056889" lon="11.871024006977677">
        <ele>16.48</ele>
        <time>2024-09-13T10:02:35Z</time>
      </trkpt>
      <trkpt lat="52.922366000711918" lon="11.870426964014769">
        <ele>16.48</ele>
        <time>2024-09-13T10:02:48Z</time>
      </trkpt>
      <trkpt lat="52.923546005040407" lon="11.87002002261579">
        <ele>16.48</ele>
        <time>2024-09-13T10:02:59Z</time>
      </trkpt>
      <trkpt lat="52.923850016668439" lon="11.869919020682573">
        <ele>16.48</ele>
        <time>2024-09-13T10:03:01Z</time>
      </trkpt>
      <trkpt lat="52.925332020968199" lon="11.869423985481262">
        <ele>16.48</ele>
        <time>2024-09-13T10:03:10Z</time>
      </trkpt>
      <trkpt lat="52.926543038338423" lon="11.868831971660256">
        <ele>16</ele>
        <time>2024-09-13T10:03:18Z</time>
      </trkpt>
      <trkpt lat="52.926670024171472" lon="11.868685036897659">
        <ele>16.48</ele>
        <time>2024-09-13T10:03:19Z</time>
      </trkpt>
      <trkpt lat="52.92780501767993" lon="11.867373017594218">
        <ele>18.879999999999999</ele>
        <time>2024-09-13T10:03:28Z</time>
      </trkpt>
      <trkpt lat="52.928401976823807" lon="11.866693999618292">
        <ele>18.879999999999999</ele>
        <time>2024-09-13T10:03:34Z</time>
      </trkpt>
      <trkpt lat="52.928568022325635" lon="11.866565002128482">
        <ele>17.440000000000001</ele>
        <time>2024-09-13T10:03:36Z</time>
      </trkpt>
      <trkpt lat="52.928647985681891" lon="11.866540024057031">
        <ele>16.48</ele>
        <time>2024-09-13T10:03:37Z</time>
      </trkpt>
      <trkpt lat="52.928683022037148" lon="11.866528959944844">
        <ele>16</ele>
        <time>2024-09-13T10:03:38Z</time>
      </trkpt>
      <trkpt lat="52.928717974573374" lon="11.86651797965169">
        <ele>13.6</ele>
        <time>2024-09-13T10:03:46Z</time>
      </trkpt>
      <trkpt lat="52.928893994539976" lon="11.866423012688756">
        <ele>20.809999999999999</ele>
        <time>2024-09-13T10:18:01Z</time>
      </trkpt>
      <trkpt lat="52.928801961243153" lon="11.866466011852026">
        <ele>28.02</ele>
        <time>2024-09-13T10:18:32Z</time>
      </trkpt>
      <trkpt lat="52.928741024807096" lon="11.866497024893761">
        <ele>24.170000000000002</ele>
        <time>2024-09-13T10:19:13Z</time>
      </trkpt>
      <trkpt lat="52.928785029798746" lon="11.866506999358535">
        <ele>24.170000000000002</ele>
        <time>2024-09-13T10:19:51Z</time>
      </trkpt>
      <trkpt lat="52.928804978728294" lon="11.866490989923477">
        <ele>24.170000000000002</ele>
        <time>2024-09-13T10:19:58Z</time>
      </trkpt>
      <trkpt lat="52.929203035309911" lon="11.86649601906538">
        <ele>23.210000000000001</ele>
        <time>2024-09-13T10:20:03Z</time>
      </trkpt>
      <trkpt lat="52.930528968572617" lon="11.866795001551509">
        <ele>20.32</ele>
        <time>2024-09-13T10:20:11Z</time>
      </trkpt>
      <trkpt lat="52.93255303055048" lon="11.867236979305744">
        <ele>20.809999999999999</ele>
        <time>2024-09-13T10:20:22Z</time>
      </trkpt>
      <trkpt lat="52.934050960466266" lon="11.867563035339117">
        <ele>21.77</ele>
        <time>2024-09-13T10:20:31Z</time>
      </trkpt>
      <trkpt lat="52.935603959485888" lon="11.867878027260303">
        <ele>20.809999999999999</ele>
        <time>2024-09-13T10:20:41Z</time>
      </trkpt>
      <trkpt lat="52.936828974634409" lon="11.868067039176822">
        <ele>20.32</ele>
        <time>2024-09-13T10:20:49Z</time>
      </trkpt>
      <trkpt lat="52.936952020972967" lon="11.868018005043268">
        <ele>20.32</ele>
        <time>2024-09-13T10:20:50Z</time>
      </trkpt>
      <trkpt lat="52.937042964622378" lon="11.867981040850282">
        <ele>20.32</ele>
        <time>2024-09-13T10:20:51Z</time>
      </trkpt>
      <trkpt lat="52.937137009575963" lon="11.867868974804878">
        <ele>20.32</ele>
        <time>2024-09-13T10:20:52Z</time>
      </trkpt>
      <trkpt lat="52.9372179787606" lon="11.867771996185184">
        <ele>20.32</ele>
        <time>2024-09-13T10:20:53Z</time>
      </trkpt>
      <trkpt lat="52.937295008450747" lon="11.867679040879011">
        <ele>20.32</ele>
        <time>2024-09-13T10:20:54Z</time>
      </trkpt>
      <trkpt lat="52.937368014827371" lon="11.867588013410568">
        <ele>20.32</ele>
        <time>2024-09-13T10:20:55Z</time>
      </trkpt>
      <trkpt lat="52.937428029254079" lon="11.867453986778855">
        <ele>20.809999999999999</ele>
        <time>2024-09-13T10:20:56Z</time>
      </trkpt>
      <trkpt lat="52.937489971518517" lon="11.867317026481032">
        <ele>20.809999999999999</ele>
        <time>2024-09-13T10:20:57Z</time>
      </trkpt>
      <trkpt lat="52.938074022531509" lon="11.865777019411325">
        <ele>22.73</ele>
        <time>2024-09-13T10:21:08Z</time>
      </trkpt>
      <trkpt lat="52.938288012519479" lon="11.865231022238731">
        <ele>22.73</ele>
        <time>2024-09-13T10:21:12Z</time>
      </trkpt>
      <trkpt lat="52.938340986147523" lon="11.865096995607018">
        <ele>22.25</ele>
        <time>2024-09-13T10:21:13Z</time>
      </trkpt>
      <trkpt lat="52.938603004440665" lon="11.864428035914898">
        <ele>21.289999999999999</ele>
        <time>2024-09-13T10:21:18Z</time>
      </trkpt>
      <trkpt lat="52.938655978068709" lon="11.864294009283185">
        <ele>21.289999999999999</ele>
        <time>2024-09-13T10:21:19Z</time>
      </trkpt>
      <trkpt lat="52.939238017424941" lon="11.862788032740355">
        <ele>20.809999999999999</ele>
        <time>2024-09-13T10:21:30Z</time>
      </trkpt>
      <trkpt lat="52.939685024321079" lon="11.861106958240271">
        <ele>20.32</ele>
        <time>2024-09-13T10:21:42Z</time>
      </trkpt>
      <trkpt lat="52.939703967422247" lon="11.861029006540775">
        <ele>20.32</ele>
        <time>2024-09-13T10:21:43Z</time>
      </trkpt>
      <trkpt lat="52.939772028476" lon="11.860926998779178">
        <ele>20.32</ele>
        <time>2024-09-13T10:21:45Z</time>
      </trkpt>
      <trkpt lat="52.939802035689354" lon="11.86091098934412">
        <ele>19.84</ele>
        <time>2024-09-13T10:21:46Z</time>
      </trkpt>
      <trkpt lat="52.939847968518734" lon="11.860952982679009">
        <ele>19.84</ele>
        <time>2024-09-13T10:21:47Z</time>
      </trkpt>
      <trkpt lat="52.939903037622571" lon="11.861003022640944">
        <ele>19.84</ele>
        <time>2024-09-13T10:21:48Z</time>
      </trkpt>
      <trkpt lat="52.939961962401867" lon="11.861057002097368">
        <ele>19.359999999999999</ele>
        <time>2024-09-13T10:21:49Z</time>
      </trkpt>
      <trkpt lat="52.940019965171814" lon="11.861109975725412">
        <ele>19.359999999999999</ele>
        <time>2024-09-13T10:21:50Z</time>
      </trkpt>
      <trkpt lat="52.940080985426903" lon="11.861165966838598">
        <ele>19.359999999999999</ele>
        <time>2024-09-13T10:21:51Z</time>
      </trkpt>
      <trkpt lat="52.940282989293337" lon="11.861351039260626">
        <ele>19.359999999999999</ele>
        <time>2024-09-13T10:21:54Z</time>
      </trkpt>
      <trkpt lat="52.94033101759851" lon="11.86138398014009">
        <ele>19.359999999999999</ele>
        <time>2024-09-13T10:21:55Z</time>
      </trkpt>
      <trkpt lat="52.941159987822175" lon="11.861755969002843">
        <ele>19.84</ele>
        <time>2024-09-13T10:22:03Z</time>
      </trkpt>
      <trkpt lat="52.9414729680866" lon="11.861815983429551">
        <ele>20.32</ele>
        <time>2024-09-13T10:22:05Z</time>
      </trkpt>
      <trkpt lat="52.94164496473968" lon="11.861797962337732">
        <ele>20.32</ele>
        <time>2024-09-13T10:22:06Z</time>
      </trkpt>
      <trkpt lat="52.941821990534663" lon="11.861767033115029">
        <ele>20.32</ele>
        <time>2024-09-13T10:22:07Z</time>
      </trkpt>
      <trkpt lat="52.942001027986407" lon="11.861698972061276">
        <ele>19.84</ele>
        <time>2024-09-13T10:22:08Z</time>
      </trkpt>
      <trkpt lat="52.942181993275881" lon="11.861614985391498">
        <ele>19.84</ele>
        <time>2024-09-13T10:22:09Z</time>
      </trkpt>
      <trkpt lat="52.943723006173968" lon="11.860850974917412">
        <ele>19.84</ele>
        <time>2024-09-13T10:22:18Z</time>
      </trkpt>
      <trkpt lat="52.945185983553529" lon="11.860254015773535">
        <ele>19.84</ele>
        <time>2024-09-13T10:22:27Z</time>
      </trkpt>
      <trkpt lat="52.946898993104696" lon="11.860045976936817">
        <ele>20.809999999999999</ele>
        <time>2024-09-13T10:22:37Z</time>
      </trkpt>
      <trkpt lat="52.947376007214189" lon="11.859839027747512">
        <ele>21.289999999999999</ele>
        <time>2024-09-13T10:22:40Z</time>
      </trkpt>
      <trkpt lat="52.947493018582463" lon="11.859763003885746">
        <ele>21.289999999999999</ele>
        <time>2024-09-13T10:22:41Z</time>
      </trkpt>
      <trkpt lat="52.947625033557415" lon="11.859565023332834">
        <ele>21.289999999999999</ele>
        <time>2024-09-13T10:22:42Z</time>
      </trkpt>
      <trkpt lat="52.947749001905322" lon="11.859380034729838">
        <ele>21.289999999999999</ele>
        <time>2024-09-13T10:22:43Z</time>
      </trkpt>
      <trkpt lat="52.947807004675269" lon="11.859150035306811">
        <ele>21.289999999999999</ele>
        <time>2024-09-13T10:22:44Z</time>
      </trkpt>
      <trkpt lat="52.94787397608161" lon="11.858884999528527">
        <ele>21.289999999999999</ele>
        <time>2024-09-13T10:22:45Z</time>
      </trkpt>
      <trkpt lat="52.94791404157877" lon="11.858613006770611">
        <ele>21.289999999999999</ele>
        <time>2024-09-13T10:22:46Z</time>
      </trkpt>
      <trkpt lat="52.947939019650221" lon="11.858321987092495">
        <ele>21.289999999999999</ele>
        <time>2024-09-13T10:22:47Z</time>
      </trkpt>
      <trkpt lat="52.947967015206814" lon="11.858039014041424">
        <ele>21.289999999999999</ele>
        <time>2024-09-13T10:22:48Z</time>
      </trkpt>
      <trkpt lat="52.948111016303301" lon="11.856654994189739">
        <ele>20.32</ele>
        <time>2024-09-13T10:22:53Z</time>
      </trkpt>
      <trkpt lat="52.948551988229156" lon="11.854625986889005">
        <ele>14.08</ele>
        <time>2024-09-13T10:23:01Z</time>
      </trkpt>
      <trkpt lat="52.949266964569688" lon="11.852642996236682">
        <ele>1.1</ele>
        <time>2024-09-13T10:23:11Z</time>
      </trkpt>
      <trkpt lat="52.949382970109582" lon="11.852502012625337">
        <ele>0.14</ele>
        <time>2024-09-13T10:23:12Z</time>
      </trkpt>
      <trkpt lat="52.949495958164334" lon="11.852364968508482">
        <ele>-0.82</ele>
        <time>2024-09-13T10:23:13Z</time>
      </trkpt>
      <trkpt lat="52.949612969532609" lon="11.852280981838703">
        <ele>-1.79</ele>
        <time>2024-09-13T10:23:14Z</time>
      </trkpt>
      <trkpt lat="52.949769962579012" lon="11.852241000160575">
        <ele>-2.27</ele>
        <time>2024-09-13T10:23:15Z</time>
      </trkpt>
      <trkpt lat="52.949982024729252" lon="11.852188026532531">
        <ele>-2.75</ele>
        <time>2024-09-13T10:23:16Z</time>
      </trkpt>
      <trkpt lat="52.950114961713552" lon="11.852235971018672">
        <ele>-3.71</ele>
        <time>2024-09-13T10:23:17Z</time>
      </trkpt>
      <trkpt lat="52.950290981680155" lon="11.852299002930522">
        <ele>-4.19</ele>
        <time>2024-09-13T10:23:18Z</time>
      </trkpt>
      <trkpt lat="52.95216903090477" lon="11.853056978434324">
        <ele>-4.67</ele>
        <time>2024-09-13T10:23:28Z</time>
      </trkpt>
      <trkpt lat="52.953715994954109" lon="11.853700960054994">
        <ele>-2.27</ele>
        <time>2024-09-13T10:23:36Z</time>
      </trkpt>
      <trkpt lat="52.955043017864227" lon="11.854364974424243">
        <ele>1.1</ele>
        <time>2024-09-13T10:23:43Z</time>
      </trkpt>
      <trkpt lat="52.956775976344943" lon="11.855167038738728">
        <ele>6.87</ele>
        <time>2024-09-13T10:23:52Z</time>
      </trkpt>
      <trkpt lat="52.958182040601969" lon="11.856258027255535">
        <ele>7.35</ele>
        <time>2024-09-13T10:24:00Z</time>
      </trkpt>
      <trkpt lat="52.960027987137437" lon="11.858058040961623">
        <ele>9.27</ele>
        <time>2024-09-13T10:24:11Z</time>
      </trkpt>
      <trkpt lat="52.961871000006795" lon="11.859854031354189">
        <ele>12.630000000000001</ele>
        <time>2024-09-13T10:24:22Z</time>
      </trkpt>
      <trkpt lat="52.962961988523602" lon="11.860619969666004">
        <ele>14.56</ele>
        <time>2024-09-13T10:24:30Z</time>
      </trkpt>
      <trkpt lat="52.963575040921569" lon="11.860947031527758">
        <ele>15.52</ele>
        <time>2024-09-13T10:24:37Z</time>
      </trkpt>
      <trkpt lat="52.963644023984671" lon="11.860981984063983">
        <ele>15.039999999999999</ele>
        <time>2024-09-13T10:24:42Z</time>
      </trkpt>
      <trkpt lat="52.963657015934587" lon="11.860952982679009">
        <ele>15.039999999999999</ele>
        <time>2024-09-13T10:24:43Z</time>
      </trkpt>
      <trkpt lat="52.963674031198025" lon="11.860851980745792">
        <ele>15.52</ele>
        <time>2024-09-13T10:24:44Z</time>
      </trkpt>
      <trkpt lat="52.963809985667467" lon="11.860129963606596">
        <ele>16</ele>
        <time>2024-09-13T10:24:49Z</time>
      </trkpt>
      <trkpt lat="52.964126989245415" lon="11.858565984293818">
        <ele>16.960000000000001</ele>
        <time>2024-09-13T10:24:59Z</time>
      </trkpt>
      <trkpt lat="52.964422032237053" lon="11.857158998027444">
        <ele>17.920000000000002</ele>
        <time>2024-09-13T10:25:08Z</time>
      </trkpt>
      <trkpt lat="52.964600985869765" lon="11.856666980311275">
        <ele>18.399999999999999</ele>
        <time>2024-09-13T10:25:13Z</time>
      </trkpt>
      <trkpt lat="52.964650020003319" lon="11.856606965884566">
        <ele>18.399999999999999</ele>
        <time>2024-09-13T10:25:14Z</time>
      </trkpt>
      <trkpt lat="52.964827967807651" lon="11.856389036402106">
        <ele>17.920000000000002</ele>
        <time>2024-09-13T10:25:17Z</time>
      </trkpt>
      <trkpt lat="52.965184031054378" lon="11.855959966778755">
        <ele>17.920000000000002</ele>
        <time>2024-09-13T10:25:23Z</time>
      </trkpt>
      <trkpt lat="52.965245973318815" lon="11.855929037556052">
        <ele>17.920000000000002</ele>
        <time>2024-09-13T10:25:24Z</time>
      </trkpt>
      <trkpt lat="52.965302970260382" lon="11.855900036171079">
        <ele>17.440000000000001</ele>
        <time>2024-09-13T10:25:25Z</time>
      </trkpt>
      <trkpt lat="52.965468009933829" lon="11.855866005644202">
        <ele>17.440000000000001</ele>
        <time>2024-09-13T10:25:27Z</time>
      </trkpt>
      <trkpt lat="52.965959021821618" lon="11.855765003710985">
        <ele>17.440000000000001</ele>
        <time>2024-09-13T10:25:33Z</time>
      </trkpt>
      <trkpt lat="52.966033034026623" lon="11.855750000104308">
        <ele>17.920000000000002</ele>
        <time>2024-09-13T10:25:34Z</time>
      </trkpt>
      <trkpt lat="52.966120038181543" lon="11.85577698983252">
        <ele>17.920000000000002</ele>
        <time>2024-09-13T10:25:35Z</time>
      </trkpt>
      <trkpt lat="52.966207964345813" lon="11.855803979560733">
        <ele>18.399999999999999</ele>
        <time>2024-09-13T10:25:36Z</time>
      </trkpt>
      <trkpt lat="52.966301003471017" lon="11.855832980945706">
        <ele>18.399999999999999</ele>
        <time>2024-09-13T10:25:37Z</time>
      </trkpt>
      <trkpt lat="52.966381972655654" lon="11.855892995372415">
        <ele>18.399999999999999</ele>
        <time>2024-09-13T10:25:38Z</time>
      </trkpt>
      <trkpt lat="52.966468976810575" lon="11.855963990092278">
        <ele>18.879999999999999</ele>
        <time>2024-09-13T10:25:39Z</time>
      </trkpt>
      <trkpt lat="52.967569017782807" lon="11.856973003596067">
        <ele>20.32</ele>
        <time>2024-09-13T10:25:49Z</time>
      </trkpt>
      <trkpt lat="52.969088992103934" lon="11.858399016782641">
        <ele>20.809999999999999</ele>
        <time>2024-09-13T10:25:58Z</time>
      </trkpt>
      <trkpt lat="52.970242006704211" lon="11.860254015773535">
        <ele>21.77</ele>
        <time>2024-09-13T10:26:05Z</time>
      </trkpt>
      <trkpt lat="52.971692997962236" lon="11.862986013293266">
        <ele>21.289999999999999</ele>
        <time>2024-09-13T10:26:14Z</time>
      </trkpt>
      <trkpt lat="52.974159037694335" lon="11.867598993703723">
        <ele>21.77</ele>
        <time>2024-09-13T10:26:29Z</time>
      </trkpt>
      <trkpt lat="52.976172035560012" lon="11.870367033407092">
        <ele>21.289999999999999</ele>
        <time>2024-09-13T10:26:40Z</time>
      </trkpt>
      <trkpt lat="52.976356018334627" lon="11.870517991483212">
        <ele>20.809999999999999</ele>
        <time>2024-09-13T10:26:41Z</time>
      </trkpt>
      <trkpt lat="52.976560033857822" lon="11.870561996474862">
        <ele>20.809999999999999</ele>
        <time>2024-09-13T10:26:42Z</time>
      </trkpt>
      <trkpt lat="52.976770000532269" lon="11.870608013123274">
        <ele>20.809999999999999</ele>
        <time>2024-09-13T10:26:43Z</time>
      </trkpt>
      <trkpt lat="52.976986002177" lon="11.870604995638132">
        <ele>20.809999999999999</ele>
        <time>2024-09-13T10:26:44Z</time>
      </trkpt>
      <trkpt lat="52.977204015478492" lon="11.870584040880203">
        <ele>20.809999999999999</ele>
        <time>2024-09-13T10:26:45Z</time>
      </trkpt>
      <trkpt lat="52.979952022433281" lon="11.870290003716946">
        <ele>22.25</ele>
        <time>2024-09-13T10:26:58Z</time>
      </trkpt>
      <trkpt lat="52.982104998081923" lon="11.870064027607441">
        <ele>27.050000000000001</ele>
        <time>2024-09-13T10:27:08Z</time>
      </trkpt>
      <trkpt lat="52.984960963949561" lon="11.869739983230829">
        <ele>32.82</ele>
        <time>2024-09-13T10:27:22Z</time>
      </trkpt>
      <trkpt lat="52.986122025176883" lon="11.8690300360322">
        <ele>34.259999999999998</ele>
        <time>2024-09-13T10:27:29Z</time>
      </trkpt>
      <trkpt lat="52.987117040902376" lon="11.867708964273334">
        <ele>31.379999999999999</ele>
        <time>2024-09-13T10:27:36Z</time>
      </trkpt>
      <trkpt lat="52.987962020561099" lon="11.865641986951232">
        <ele>28.02</ele>
        <time>2024-09-13T10:27:44Z</time>
      </trkpt>
      <trkpt lat="52.988615976646543" lon="11.863335035741329">
        <ele>24.649999999999999</ele>
        <time>2024-09-13T10:27:53Z</time>
      </trkpt>
      <trkpt lat="52.9886510130018" lon="11.863048961386085">
        <ele>24.170000000000002</ele>
        <time>2024-09-13T10:27:54Z</time>
      </trkpt>
      <trkpt lat="52.988722007721663" lon="11.862461976706982">
        <ele>23.690000000000001</ele>
        <time>2024-09-13T10:27:56Z</time>
      </trkpt>
      <trkpt lat="52.989047979936004" lon="11.859705001115799">
        <ele>22.25</ele>
        <time>2024-09-13T10:28:05Z</time>
      </trkpt>
      <trkpt lat="52.989335982128978" lon="11.857179030776024">
        <ele>26.57</ele>
        <time>2024-09-13T10:28:13Z</time>
      </trkpt>
      <trkpt lat="52.989751975983381" lon="11.854098010808229">
        <ele>23.690000000000001</ele>
        <time>2024-09-13T10:28:23Z</time>
      </trkpt>
      <trkpt lat="52.989817019551992" lon="11.853806991130114">
        <ele>23.210000000000001</ele>
        <time>2024-09-13T10:28:24Z</time>
      </trkpt>
      <trkpt lat="52.990722013637424" lon="11.851054038852453">
        <ele>18.399999999999999</ele>
        <time>2024-09-13T10:28:34Z</time>
      </trkpt>
      <trkpt lat="52.991275973618031" lon="11.849447982385755">
        <ele>16</ele>
        <time>2024-09-13T10:28:41Z</time>
      </trkpt>
      <trkpt lat="52.991333976387978" lon="11.849277997389436">
        <ele>16</ele>
        <time>2024-09-13T10:28:42Z</time>
      </trkpt>
      <trkpt lat="52.991385022178292" lon="11.849127039313316">
        <ele>15.52</ele>
        <time>2024-09-13T10:28:43Z</time>
      </trkpt>
      <trkpt lat="52.991435984149575" lon="11.848974991589785">
        <ele>15.52</ele>
        <time>2024-09-13T10:28:44Z</time>
      </trkpt>
      <trkpt lat="52.99148702993989" lon="11.848825039342046">
        <ele>15.52</ele>
        <time>2024-09-13T10:28:45Z</time>
      </trkpt>
      <trkpt lat="52.991949040442705" lon="11.847456023097038">
        <ele>14.08</ele>
        <time>2024-09-13T10:28:54Z</time>
      </trkpt>
      <trkpt lat="52.992547005414963" lon="11.845703031867743">
        <ele>16</ele>
        <time>2024-09-13T10:29:04Z</time>
      </trkpt>
      <trkpt lat="52.992898961529136" lon="11.844439962878823">
        <ele>17.440000000000001</ele>
        <time>2024-09-13T10:29:11Z</time>
      </trkpt>
      <trkpt lat="52.992951013147831" lon="11.844049030914903">
        <ele>17.440000000000001</ele>
        <time>2024-09-13T10:29:13Z</time>
      </trkpt>
      <trkpt lat="52.992968028411269" lon="11.843855995684862">
        <ele>17.440000000000001</ele>
        <time>2024-09-13T10:29:14Z</time>
      </trkpt>
      <trkpt lat="52.992976997047663" lon="11.843665977939963">
        <ele>17.440000000000001</ele>
        <time>2024-09-13T10:29:15Z</time>
      </trkpt>
      <trkpt lat="52.993082022294402" lon="11.841260958462954">
        <ele>14.08</ele>
        <time>2024-09-13T10:29:27Z</time>
      </trkpt>
      <trkpt lat="52.993088979274035" lon="11.840860974043608">
        <ele>13.6</ele>
        <time>2024-09-13T10:29:29Z</time>
      </trkpt>
      <trkpt lat="52.993103982880712" lon="11.840662993490696">
        <ele>13.6</ele>
        <time>2024-09-13T10:29:30Z</time>
      </trkpt>
      <trkpt lat="52.993139019235969" lon="11.840460989624262">
        <ele>13.6</ele>
        <time>2024-09-13T10:29:31Z</time>
      </trkpt>
      <trkpt lat="52.993212025612593" lon="11.840315982699394">
        <ele>13.6</ele>
        <time>2024-09-13T10:29:32Z</time>
      </trkpt>
      <trkpt lat="52.993309004232287" lon="11.840207017958164">
        <ele>13.119999999999999</ele>
        <time>2024-09-13T10:29:33Z</time>
      </trkpt>
      <trkpt lat="52.993418974801898" lon="11.840125964954495">
        <ele>13.119999999999999</ele>
        <time>2024-09-13T10:29:34Z</time>
      </trkpt>
      <trkpt lat="52.993533974513412" lon="11.840067962184548">
        <ele>13.119999999999999</ele>
        <time>2024-09-13T10:29:35Z</time>
      </trkpt>
      <trkpt lat="52.993650985881686" lon="11.840009959414601">
        <ele>13.119999999999999</ele>
        <time>2024-09-13T10:29:36Z</time>
      </trkpt>
      <trkpt lat="52.995012039318681" lon="11.839267993345857">
        <ele>14.08</ele>
        <time>2024-09-13T10:29:46Z</time>
      </trkpt>
      <trkpt lat="52.996658999472857" lon="11.838366016745567">
        <ele>16.48</ele>
        <time>2024-09-13T10:29:56Z</time>
      </trkpt>
      <trkpt lat="52.99767698161304" lon="11.837820019572973">
        <ele>16.960000000000001</ele>
        <time>2024-09-13T10:30:02Z</time>
      </trkpt>
      <trkpt lat="52.997839003801346" lon="11.837734021246433">
        <ele>16.960000000000001</ele>
        <time>2024-09-13T10:30:03Z</time>
      </trkpt>
      <trkpt lat="52.999447993934155" lon="11.836849981918931">
        <ele>19.359999999999999</ele>
        <time>2024-09-13T10:30:12Z</time>
      </trkpt>
      <trkpt lat="53.000742997974157" lon="11.836065016686916">
        <ele>21.289999999999999</ele>
        <time>2024-09-13T10:30:19Z</time>
      </trkpt>
      <trkpt lat="53.000896973535419" lon="11.835863012820482">
        <ele>21.77</ele>
        <time>2024-09-13T10:30:20Z</time>
      </trkpt>
      <trkpt lat="53.001042986288667" lon="11.83564399369061">
        <ele>22.25</ele>
        <time>2024-09-13T10:30:21Z</time>
      </trkpt>
      <trkpt lat="53.002288034185767" lon="11.833608029410243">
        <ele>23.210000000000001</ele>
        <time>2024-09-13T10:30:30Z</time>
      </trkpt>
      <trkpt lat="53.003616984933615" lon="11.83143200352788">
        <ele>23.210000000000001</ele>
        <time>2024-09-13T10:30:41Z</time>
      </trkpt>
      <trkpt lat="53.003791999071836" lon="11.831074012443423">
        <ele>23.690000000000001</ele>
        <time>2024-09-13T10:30:43Z</time>
      </trkpt>
      <trkpt lat="53.003873974084854" lon="11.830904027447104">
        <ele>24.170000000000002</ele>
        <time>2024-09-13T10:30:44Z</time>
      </trkpt>
      <trkpt lat="53.003953015431762" lon="11.830729013308883">
        <ele>24.649999999999999</ele>
        <time>2024-09-13T10:30:45Z</time>
      </trkpt>
      <trkpt lat="53.00399299710989" lon="11.830531032755971">
        <ele>24.649999999999999</ele>
        <time>2024-09-13T10:30:46Z</time>
      </trkpt>
      <trkpt lat="53.004034990444779" lon="11.830328023061156">
        <ele>24.649999999999999</ele>
        <time>2024-09-13T10:30:47Z</time>
      </trkpt>
      <trkpt lat="53.004075977951288" lon="11.83012300170958">
        <ele>24.649999999999999</ele>
        <time>2024-09-13T10:30:48Z</time>
      </trkpt>
      <trkpt lat="53.004351994022727" lon="11.828570002689958">
        <ele>25.129999999999999</ele>
        <time>2024-09-13T10:30:56Z</time>
      </trkpt>
      <trkpt lat="53.004645025357604" lon="11.826614001765847">
        <ele>23.690000000000001</ele>
        <time>2024-09-13T10:31:06Z</time>
      </trkpt>
      <trkpt lat="53.004930010065436" lon="11.824692031368613">
        <ele>22.73</ele>
        <time>2024-09-13T10:31:16Z</time>
      </trkpt>
      <trkpt lat="53.0051080416888" lon="11.823561983183026">
        <ele>20.32</ele>
        <time>2024-09-13T10:31:22Z</time>
      </trkpt>
      <trkpt lat="53.005138970911503" lon="11.823368025943637">
        <ele>20.32</ele>
        <time>2024-09-13T10:31:23Z</time>
      </trkpt>
      <trkpt lat="53.005292024463415" lon="11.822399999946356">
        <ele>20.32</ele>
        <time>2024-09-13T10:31:28Z</time>
      </trkpt>
      <trkpt lat="53.005349021404982" lon="11.822021976113319">
        <ele>20.32</ele>
        <time>2024-09-13T10:31:30Z</time>
      </trkpt>
      <trkpt lat="53.005377016961575" lon="11.821827013045549">
        <ele>20.32</ele>
        <time>2024-09-13T10:31:31Z</time>
      </trkpt>
      <trkpt lat="53.005688991397619" lon="11.819674959406257">
        <ele>21.289999999999999</ele>
        <time>2024-09-13T10:31:42Z</time>
      </trkpt>
      <trkpt lat="53.005717992782593" lon="11.819474967196584">
        <ele>21.77</ele>
        <time>2024-09-13T10:31:43Z</time>
      </trkpt>
      <trkpt lat="53.005983028560877" lon="11.817506980150938">
        <ele>23.210000000000001</ele>
        <time>2024-09-13T10:31:53Z</time>
      </trkpt>
      <trkpt lat="53.005997026339173" lon="11.81731503456831">
        <ele>23.210000000000001</ele>
        <time>2024-09-13T10:31:54Z</time>
      </trkpt>
      <trkpt lat="53.005985962226987" lon="11.816929969936609">
        <ele>23.210000000000001</ele>
        <time>2024-09-13T10:31:56Z</time>
      </trkpt>
      <trkpt lat="53.005729978904128" lon="11.815596995875239">
        <ele>23.210000000000001</ele>
        <time>2024-09-13T10:32:03Z</time>
      </trkpt>
      <trkpt lat="53.005104018375278" lon="11.814083978533745">
        <ele>24.649999999999999</ele>
        <time>2024-09-13T10:32:11Z</time>
      </trkpt>
      <trkpt lat="53.004210004583001" lon="11.811719024553895">
        <ele>26.57</ele>
        <time>2024-09-13T10:32:21Z</time>
      </trkpt>
      <trkpt lat="53.004158036783338" lon="11.81145197711885">
        <ele>26.57</ele>
        <time>2024-09-13T10:32:22Z</time>
      </trkpt>
      <trkpt lat="53.004143033176661" lon="11.811185013502836">
        <ele>27.050000000000001</ele>
        <time>2024-09-13T10:32:23Z</time>
      </trkpt>
      <trkpt lat="53.004127023741603" lon="11.810911009088159">
        <ele>27.530000000000001</ele>
        <time>2024-09-13T10:32:24Z</time>
      </trkpt>
      <trkpt lat="53.004111014306545" lon="11.810629963874817">
        <ele>28.02</ele>
        <time>2024-09-13T10:32:25Z</time>
      </trkpt>
      <trkpt lat="53.004096010699868" lon="11.810352019965649">
        <ele>28.5</ele>
        <time>2024-09-13T10:32:26Z</time>
      </trkpt>
      <trkpt lat="53.004014035686851" lon="11.808912009000778">
        <ele>29.940000000000001</ele>
        <time>2024-09-13T10:32:31Z</time>
      </trkpt>
      <trkpt lat="53.003999032080173" lon="11.808630041778088">
        <ele>29.940000000000001</ele>
        <time>2024-09-13T10:32:32Z</time>
      </trkpt>
      <trkpt lat="53.003980005159974" lon="11.808125032112002">
        <ele>29.940000000000001</ele>
        <time>2024-09-13T10:32:34Z</time>
      </trkpt>
      <trkpt lat="53.003966007381678" lon="11.807666961103678">
        <ele>30.420000000000002</ele>
        <time>2024-09-13T10:32:36Z</time>
      </trkpt>
      <trkpt lat="53.003909010440111" lon="11.805515997111797">
        <ele>31.859999999999999</ele>
        <time>2024-09-13T10:32:46Z</time>
      </trkpt>
      <trkpt lat="53.003917979076505" lon="11.805324973538518">
        <ele>31.379999999999999</ele>
        <time>2024-09-13T10:32:47Z</time>
      </trkpt>
      <trkpt lat="53.004015041515231" lon="11.803936008363962">
        <ele>28.02</ele>
        <time>2024-09-13T10:32:54Z</time>
      </trkpt>
      <trkpt lat="53.004034990444779" lon="11.803721012547612">
        <ele>27.530000000000001</ele>
        <time>2024-09-13T10:32:55Z</time>
      </trkpt>
      <trkpt lat="53.004176979884505" lon="11.801957041025162">
        <ele>25.609999999999999</ele>
        <time>2024-09-13T10:33:04Z</time>
      </trkpt>
      <trkpt lat="53.004184020683169" lon="11.801573988050222">
        <ele>25.129999999999999</ele>
        <time>2024-09-13T10:33:06Z</time>
      </trkpt>
      <trkpt lat="53.004184020683169" lon="11.801251033321023">
        <ele>24.649999999999999</ele>
        <time>2024-09-13T10:33:08Z</time>
      </trkpt>
      <trkpt lat="53.004177985712886" lon="11.801103008911014">
        <ele>24.649999999999999</ele>
        <time>2024-09-13T10:33:09Z</time>
      </trkpt>
      <trkpt lat="53.004154013469815" lon="11.800959007814527">
        <ele>24.649999999999999</ele>
        <time>2024-09-13T10:33:10Z</time>
      </trkpt>
      <trkpt lat="53.004128029569983" lon="11.800800003111362">
        <ele>25.129999999999999</ele>
        <time>2024-09-13T10:33:11Z</time>
      </trkpt>
      <trkpt lat="53.00409902818501" lon="11.800627000629902">
        <ele>25.609999999999999</ele>
        <time>2024-09-13T10:33:12Z</time>
      </trkpt>
      <trkpt lat="53.004068015143275" lon="11.800440000370145">
        <ele>26.09</ele>
        <time>2024-09-13T10:33:13Z</time>
      </trkpt>
      <trkpt lat="53.004033984616399" lon="11.800239002332091">
        <ele>26.09</ele>
        <time>2024-09-13T10:33:14Z</time>
      </trkpt>
      <trkpt lat="53.003738019615412" lon="11.798696983605623">
        <ele>27.050000000000001</ele>
        <time>2024-09-13T10:33:22Z</time>
      </trkpt>
      <trkpt lat="53.003474995493889" lon="11.797365015372634">
        <ele>28.5</ele>
        <time>2024-09-13T10:33:29Z</time>
      </trkpt>
      <trkpt lat="53.003332000225782" lon="11.796606034040451">
        <ele>28.02</ele>
        <time>2024-09-13T10:33:33Z</time>
      </trkpt>
      <trkpt lat="53.003296041861176" lon="11.796418027952313">
        <ele>28.02</ele>
        <time>2024-09-13T10:33:34Z</time>
      </trkpt>
      <trkpt lat="53.002926986664534" lon="11.794525980949402">
        <ele>28.98</ele>
        <time>2024-09-13T10:33:44Z</time>
      </trkpt>
      <trkpt lat="53.002609983086586" lon="11.79278296418488">
        <ele>28.02</ele>
        <time>2024-09-13T10:33:53Z</time>
      </trkpt>
      <trkpt lat="53.002225002273917" lon="11.790690002962947">
        <ele>27.530000000000001</ele>
        <time>2024-09-13T10:34:04Z</time>
      </trkpt>
      <trkpt lat="53.001916967332363" lon="11.789186038076878">
        <ele>28.98</ele>
        <time>2024-09-13T10:34:12Z</time>
      </trkpt>
      <trkpt lat="53.00173700787127" lon="11.788491010665894">
        <ele>29.940000000000001</ele>
        <time>2024-09-13T10:34:16Z</time>
      </trkpt>
      <trkpt lat="53.00167297013104" lon="11.788349021226168">
        <ele>29.940000000000001</ele>
        <time>2024-09-13T10:34:17Z</time>
      </trkpt>
      <trkpt lat="53.001440959051251" lon="11.78783998824656">
        <ele>30.420000000000002</ele>
        <time>2024-09-13T10:34:21Z</time>
      </trkpt>
      <trkpt lat="53.001391002908349" lon="11.78773001767695">
        <ele>30.899999999999999</ele>
        <time>2024-09-13T10:34:22Z</time>
      </trkpt>
      <trkpt lat="53.001310033723712" lon="11.78749498911202">
        <ele>31.379999999999999</ele>
        <time>2024-09-13T10:34:24Z</time>
      </trkpt>
      <trkpt lat="53.001259993761778" lon="11.787316035479307">
        <ele>30.899999999999999</ele>
        <time>2024-09-13T10:34:26Z</time>
      </trkpt>
      <trkpt lat="53.00124398432672" lon="11.78725702688098">
        <ele>30.899999999999999</ele>
        <time>2024-09-13T10:34:27Z</time>
      </trkpt>
      <trkpt lat="53.001124039292336" lon="11.787077989429235">
        <ele>31.379999999999999</ele>
        <time>2024-09-13T10:34:32Z</time>
      </trkpt>
      <trkpt lat="53.000992024317384" lon="11.786998026072979">
        <ele>31.379999999999999</ele>
        <time>2024-09-13T10:34:34Z</time>
      </trkpt>
      <trkpt lat="53.000922035425901" lon="11.786914961412549">
        <ele>31.379999999999999</ele>
        <time>2024-09-13T10:34:35Z</time>
      </trkpt>
      <trkpt lat="53.000841988250613" lon="11.786822006106377">
        <ele>31.379999999999999</ele>
        <time>2024-09-13T10:34:36Z</time>
      </trkpt>
      <trkpt lat="52.999982004985213" lon="11.785522978752851">
        <ele>30.420000000000002</ele>
        <time>2024-09-13T10:34:45Z</time>
      </trkpt>
      <trkpt lat="52.999012973159552" lon="11.783974003046751">
        <ele>29.940000000000001</ele>
        <time>2024-09-13T10:34:56Z</time>
      </trkpt>
      <trkpt lat="52.998824967071414" lon="11.783598996698856">
        <ele>30.899999999999999</ele>
        <time>2024-09-13T10:34:59Z</time>
      </trkpt>
      <trkpt lat="52.99870703369379" lon="11.783280987292528">
        <ele>33.299999999999997</ele>
        <time>2024-09-13T10:35:03Z</time>
      </trkpt>
      <trkpt lat="52.998669985681772" lon="11.783179985359311">
        <ele>33.780000000000001</ele>
        <time>2024-09-13T10:35:04Z</time>
      </trkpt>
      <trkpt lat="52.998627992346883" lon="11.783197000622749">
        <ele>33.780000000000001</ele>
        <time>2024-09-13T10:35:05Z</time>
      </trkpt>
      <trkpt lat="52.998549034819007" lon="11.783230025321245">
        <ele>34.259999999999998</ele>
        <time>2024-09-13T10:35:06Z</time>
      </trkpt>
      <trkpt lat="52.998458007350564" lon="11.783267995342612">
        <ele>34.259999999999998</ele>
        <time>2024-09-13T10:35:07Z</time>
      </trkpt>
      <trkpt lat="52.997555024921894" lon="11.783703016117215">
        <ele>36.189999999999998</ele>
        <time>2024-09-13T10:35:14Z</time>
      </trkpt>
      <trkpt lat="52.99741898663342" lon="11.783853974193335">
        <ele>36.189999999999998</ele>
        <time>2024-09-13T10:35:15Z</time>
      </trkpt>
      <trkpt lat="52.997278003022075" lon="11.784009961411357">
        <ele>36.189999999999998</ele>
        <time>2024-09-13T10:35:16Z</time>
      </trkpt>
      <trkpt lat="52.99585098400712" lon="11.785688018426299">
        <ele>34.740000000000002</ele>
        <time>2024-09-13T10:35:26Z</time>
      </trkpt>
      <trkpt lat="52.994671985507011" lon="11.786064030602574">
        <ele>35.229999999999997</ele>
        <time>2024-09-13T10:35:33Z</time>
      </trkpt>
      <trkpt lat="52.993155028671026" lon="11.785887004807591">
        <ele>39.549999999999997</ele>
        <time>2024-09-13T10:35:42Z</time>
      </trkpt>
      <trkpt lat="52.993019996210933" lon="11.785824978724122">
        <ele>39.549999999999997</ele>
        <time>2024-09-13T10:35:43Z</time>
      </trkpt>
      <trkpt lat="52.992912037298083" lon="11.78573302924633">
        <ele>39.549999999999997</ele>
        <time>2024-09-13T10:35:44Z</time>
      </trkpt>
      <trkpt lat="52.992812041193247" lon="11.78560302592814">
        <ele>39.549999999999997</ele>
        <time>2024-09-13T10:35:45Z</time>
      </trkpt>
      <trkpt lat="52.992729982361197" lon="11.785467993468046">
        <ele>39.07</ele>
        <time>2024-09-13T10:35:46Z</time>
      </trkpt>
      <trkpt lat="52.992665022611618" lon="11.785285016521811">
        <ele>39.07</ele>
        <time>2024-09-13T10:35:47Z</time>
      </trkpt>
      <trkpt lat="52.992596961557865" lon="11.78508996963501">
        <ele>39.07</ele>
        <time>2024-09-13T10:35:48Z</time>
      </trkpt>
      <trkpt lat="52.992580030113459" lon="11.784886037930846">
        <ele>38.590000000000003</ele>
        <time>2024-09-13T10:35:49Z</time>
      </trkpt>
      <trkpt lat="52.992561003193259" lon="11.784654026851058">
        <ele>38.109999999999999</ele>
        <time>2024-09-13T10:35:50Z</time>
      </trkpt>
      <trkpt lat="52.992566032335162" lon="11.78440298885107">
        <ele>37.630000000000003</ele>
        <time>2024-09-13T10:35:51Z</time>
      </trkpt>
      <trkpt lat="52.992583969607949" lon="11.784147005528212">
        <ele>37.149999999999999</ele>
        <time>2024-09-13T10:35:52Z</time>
      </trkpt>
      <trkpt lat="52.992682037875056" lon="11.782327964901924">
        <ele>30.899999999999999</ele>
        <time>2024-09-13T10:35:59Z</time>
      </trkpt>
      <trkpt lat="52.992662005126476" lon="11.780208013951778">
        <ele>27.530000000000001</ele>
        <time>2024-09-13T10:36:09Z</time>
      </trkpt>
      <trkpt lat="52.992709027603269" lon="11.777622029185295">
        <ele>27.530000000000001</ele>
        <time>2024-09-13T10:36:22Z</time>
      </trkpt>
      <trkpt lat="52.993000969290733" lon="11.775267971679568">
        <ele>27.050000000000001</ele>
        <time>2024-09-13T10:36:34Z</time>
      </trkpt>
      <trkpt lat="52.993170032277703" lon="11.773902978748083">
        <ele>25.609999999999999</ele>
        <time>2024-09-13T10:36:41Z</time>
      </trkpt>
      <trkpt lat="52.993153017014265" lon="11.773689994588494">
        <ele>25.609999999999999</ele>
        <time>2024-09-13T10:36:42Z</time>
      </trkpt>
      <trkpt lat="52.992872977629304" lon="11.772002968937159">
        <ele>23.210000000000001</ele>
        <time>2024-09-13T10:36:51Z</time>
      </trkpt>
      <trkpt lat="52.992466036230326" lon="11.769737005233765">
        <ele>21.77</ele>
        <time>2024-09-13T10:37:03Z</time>
      </trkpt>
      <trkpt lat="52.992260009050369" lon="11.768587008118629">
        <ele>21.289999999999999</ele>
        <time>2024-09-13T10:37:09Z</time>
      </trkpt>
      <trkpt lat="52.992224972695112" lon="11.768391961231828">
        <ele>21.289999999999999</ele>
        <time>2024-09-13T10:37:10Z</time>
      </trkpt>
      <trkpt lat="52.992054987698793" lon="11.767433993518353">
        <ele>21.77</ele>
        <time>2024-09-13T10:37:15Z</time>
      </trkpt>
      <trkpt lat="52.992022968828678" lon="11.767251016572118">
        <ele>21.77</ele>
        <time>2024-09-13T10:37:16Z</time>
      </trkpt>
      <trkpt lat="52.991990027949214" lon="11.767060998827219">
        <ele>22.25</ele>
        <time>2024-09-13T10:37:17Z</time>
      </trkpt>
      <trkpt lat="52.991958009079099" lon="11.766873998567462">
        <ele>22.25</ele>
        <time>2024-09-13T10:37:18Z</time>
      </trkpt>
      <trkpt lat="52.991921966895461" lon="11.766685992479324">
        <ele>21.77</ele>
        <time>2024-09-13T10:37:19Z</time>
      </trkpt>
      <trkpt lat="52.991886008530855" lon="11.766493963077664">
        <ele>21.77</ele>
        <time>2024-09-13T10:37:20Z</time>
      </trkpt>
      <trkpt lat="52.991848960518837" lon="11.766301011666656">
        <ele>21.77</ele>
        <time>2024-09-13T10:37:21Z</time>
      </trkpt>
      <trkpt lat="52.99181199632585" lon="11.766107976436615">
        <ele>21.289999999999999</ele>
        <time>2024-09-13T10:37:22Z</time>
      </trkpt>
      <trkpt lat="52.991779977455735" lon="11.765941008925438">
        <ele>21.289999999999999</ele>
        <time>2024-09-13T10:37:23Z</time>
      </trkpt>
      <trkpt lat="52.99174603074789" lon="11.765813017264009">
        <ele>21.289999999999999</ele>
        <time>2024-09-13T10:37:24Z</time>
      </trkpt>
      <trkpt lat="52.991718035191298" lon="11.76570899784565">
        <ele>21.289999999999999</ele>
        <time>2024-09-13T10:37:25Z</time>
      </trkpt>
      <trkpt lat="52.991694984957576" lon="11.765618976205587">
        <ele>21.289999999999999</ele>
        <time>2024-09-13T10:37:26Z</time>
      </trkpt>
      <trkpt lat="52.991670006886125" lon="11.765534989535809">
        <ele>21.289999999999999</ele>
        <time>2024-09-13T10:37:27Z</time>
      </trkpt>
      <trkpt lat="52.99153002910316" lon="11.765319993719459">
        <ele>20.809999999999999</ele>
        <time>2024-09-13T10:37:30Z</time>
      </trkpt>
      <trkpt lat="52.991480994969606" lon="11.765241958200932">
        <ele>20.809999999999999</ele>
        <time>2024-09-13T10:37:31Z</time>
      </trkpt>
      <trkpt lat="52.991421986371279" lon="11.765153026208282">
        <ele>20.32</ele>
        <time>2024-09-13T10:37:32Z</time>
      </trkpt>
      <trkpt lat="52.991305980831385" lon="11.764971977099776">
        <ele>20.32</ele>
        <time>2024-09-13T10:37:34Z</time>
      </trkpt>
      <trkpt lat="52.991249989718199" lon="11.764885978773236">
        <ele>19.84</ele>
        <time>2024-09-13T10:37:35Z</time>
      </trkpt>
      <trkpt lat="52.991070030257106" lon="11.764608034864068">
        <ele>19.359999999999999</ele>
        <time>2024-09-13T10:37:38Z</time>
      </trkpt>
      <trkpt lat="52.990903984755278" lon="11.764310980215669">
        <ele>18.399999999999999</ele>
        <time>2024-09-13T10:37:41Z</time>
      </trkpt>
      <trkpt lat="52.990856040269136" lon="11.76420796662569">
        <ele>17.920000000000002</ele>
        <time>2024-09-13T10:37:42Z</time>
      </trkpt>
      <trkpt lat="52.990818992257118" lon="11.76397000439465">
        <ele>17.920000000000002</ele>
        <time>2024-09-13T10:37:44Z</time>
      </trkpt>
      <trkpt lat="52.990808011963964" lon="11.76386103965342">
        <ele>17.920000000000002</ele>
        <time>2024-09-13T10:37:45Z</time>
      </trkpt>
      <trkpt lat="52.990796025842428" lon="11.763728018850088">
        <ele>17.920000000000002</ele>
        <time>2024-09-13T10:37:46Z</time>
      </trkpt>
      <trkpt lat="52.990790996700525" lon="11.763593992218375">
        <ele>17.920000000000002</ele>
        <time>2024-09-13T10:37:47Z</time>
      </trkpt>
      <trkpt lat="52.990787979215384" lon="11.763452002778649">
        <ele>17.920000000000002</ele>
        <time>2024-09-13T10:37:48Z</time>
      </trkpt>
      <trkpt lat="52.990783033892512" lon="11.763301966711879">
        <ele>17.920000000000002</ele>
        <time>2024-09-13T10:37:49Z</time>
      </trkpt>
      <trkpt lat="52.990749003365636" lon="11.761926999315619">
        <ele>19.84</ele>
        <time>2024-09-13T10:37:58Z</time>
      </trkpt>
      <trkpt lat="52.990745985880494" lon="11.761776963248849">
        <ele>20.32</ele>
        <time>2024-09-13T10:37:59Z</time>
      </trkpt>
      <trkpt lat="52.990742968395352" lon="11.76162701100111">
        <ele>20.809999999999999</ele>
        <time>2024-09-13T10:38:00Z</time>
      </trkpt>
      <trkpt lat="52.99075897783041" lon="11.76020703278482">
        <ele>20.809999999999999</ele>
        <time>2024-09-13T10:38:10Z</time>
      </trkpt>
      <trkpt lat="52.990763001143932" lon="11.76005800254643">
        <ele>20.809999999999999</ele>
        <time>2024-09-13T10:38:11Z</time>
      </trkpt>
      <trkpt lat="52.990903984755278" lon="11.75842504017055">
        <ele>18.399999999999999</ele>
        <time>2024-09-13T10:38:22Z</time>
      </trkpt>
      <trkpt lat="52.99103700555861" lon="11.757165994495153">
        <ele>18.399999999999999</ele>
        <time>2024-09-13T10:38:30Z</time>
      </trkpt>
      <trkpt lat="52.991070030257106" lon="11.756838010624051">
        <ele>17.920000000000002</ele>
        <time>2024-09-13T10:38:32Z</time>
      </trkpt>
      <trkpt lat="52.991086961701512" lon="11.756679005920887">
        <ele>17.440000000000001</ele>
        <time>2024-09-13T10:38:33Z</time>
      </trkpt>
      <trkpt lat="52.991158962249756" lon="11.755880964919925">
        <ele>16.48</ele>
        <time>2024-09-13T10:38:38Z</time>
      </trkpt>
      <trkpt lat="52.991156028583646" lon="11.755709974095225">
        <ele>16.48</ele>
        <time>2024-09-13T10:38:39Z</time>
      </trkpt>
      <trkpt lat="52.991154016926885" lon="11.755540994927287">
        <ele>16</ele>
        <time>2024-09-13T10:38:40Z</time>
      </trkpt>
      <trkpt lat="52.991152005270123" lon="11.755368998274207">
        <ele>16</ele>
        <time>2024-09-13T10:38:41Z</time>
      </trkpt>
      <trkpt lat="52.991149993613362" lon="11.755200019106269">
        <ele>16</ele>
        <time>2024-09-13T10:38:42Z</time>
      </trkpt>
      <trkpt lat="52.991162985563278" lon="11.754110958427191">
        <ele>16.48</ele>
        <time>2024-09-13T10:38:50Z</time>
      </trkpt>
      <trkpt lat="52.991203973069787" lon="11.754015991464257">
        <ele>16.48</ele>
        <time>2024-09-13T10:38:51Z</time>
      </trkpt>
      <trkpt lat="52.991246972233057" lon="11.75391498953104">
        <ele>16.48</ele>
        <time>2024-09-13T10:38:52Z</time>
      </trkpt>
      <trkpt lat="52.991311009973288" lon="11.753829997032881">
        <ele>16.48</ele>
        <time>2024-09-13T10:38:53Z</time>
      </trkpt>
      <trkpt lat="52.991385022178292" lon="11.75376302562654">
        <ele>16.48</ele>
        <time>2024-09-13T10:38:54Z</time>
      </trkpt>
      <trkpt lat="52.991459034383297" lon="11.753695970401168">
        <ele>16</ele>
        <time>2024-09-13T10:38:55Z</time>
      </trkpt>
      <trkpt lat="52.991533968597651" lon="11.753640985116363">
        <ele>16</ele>
        <time>2024-09-13T10:38:56Z</time>
      </trkpt>
      <trkpt lat="52.991609992459416" lon="11.75359002314508">
        <ele>16</ele>
        <time>2024-09-13T10:38:57Z</time>
      </trkpt>
      <trkpt lat="52.99187402240932" lon="11.753389025107026">
        <ele>15.52</ele>
        <time>2024-09-13T10:39:01Z</time>
      </trkpt>
      <trkpt lat="52.992067979648709" lon="11.753210993483663">
        <ele>14.56</ele>
        <time>2024-09-13T10:39:04Z</time>
      </trkpt>
      <trkpt lat="52.992119025439024" lon="11.753155002370477">
        <ele>14.08</ele>
        <time>2024-09-13T10:39:05Z</time>
      </trkpt>
      <trkpt lat="52.9923050198704" lon="11.752899019047618">
        <ele>12.15</ele>
        <time>2024-09-13T10:39:09Z</time>
      </trkpt>
      <trkpt lat="52.992341984063387" lon="11.752831041812897">
        <ele>11.67</ele>
        <time>2024-09-13T10:39:10Z</time>
      </trkpt>
      <trkpt lat="52.992361010983586" lon="11.752727022394538">
        <ele>11.67</ele>
        <time>2024-09-13T10:39:11Z</time>
      </trkpt>
      <trkpt lat="52.992365034297109" lon="11.752554019913077">
        <ele>11.19</ele>
        <time>2024-09-13T10:39:13Z</time>
      </trkpt>
      <trkpt lat="52.99236997961998" lon="11.752471039071679">
        <ele>10.710000000000001</ele>
        <time>2024-09-13T10:39:14Z</time>
      </trkpt>
      <trkpt lat="52.992372997105122" lon="11.752408007159829">
        <ele>10.23</ele>
        <time>2024-09-13T10:39:15Z</time>
      </trkpt>
      <trkpt lat="52.992375008761883" lon="11.752368025481701">
        <ele>10.23</ele>
        <time>2024-09-13T10:39:16Z</time>
      </trkpt>
      <trkpt lat="52.992388000711799" lon="11.752239027991891">
        <ele>9.75</ele>
        <time>2024-09-13T10:39:22Z</time>
      </trkpt>
      <trkpt lat="52.992415996268392" lon="11.752241039648652">
        <ele>9.27</ele>
        <time>2024-09-13T10:39:23Z</time>
      </trkpt>
      <trkpt lat="52.992458995431662" lon="11.752243973314762">
        <ele>8.789999999999999</ele>
        <time>2024-09-13T10:39:24Z</time>
      </trkpt>
      <trkpt lat="52.992782033979893" lon="11.752265011891723">
        <ele>6.39</ele>
        <time>2024-09-13T10:39:29Z</time>
      </trkpt>
      <trkpt lat="52.99284397624433" lon="11.752268029376864">
        <ele>6.39</ele>
        <time>2024-09-13T10:39:30Z</time>
      </trkpt>
      <trkpt lat="52.992911031469703" lon="11.752271968871355">
        <ele>5.91</ele>
        <time>2024-09-13T10:39:31Z</time>
      </trkpt>
      <trkpt lat="52.993042962625623" lon="11.752279009670019">
        <ele>5.42</ele>
        <time>2024-09-13T10:39:33Z</time>
      </trkpt>
      <trkpt lat="52.993113035336137" lon="11.752287978306413">
        <ele>5.91</ele>
        <time>2024-09-13T10:39:34Z</time>
      </trkpt>
      <trkpt lat="52.993383016437292" lon="11.752375988289714">
        <ele>5.91</ele>
        <time>2024-09-13T10:39:38Z</time>
      </trkpt>
      <trkpt lat="52.993451999500394" lon="11.752398032695055">
        <ele>5.91</ele>
        <time>2024-09-13T10:39:39Z</time>
      </trkpt>
      <trkpt lat="52.993866987526417" lon="11.752530969679356">
        <ele>5.91</ele>
        <time>2024-09-13T10:39:45Z</time>
      </trkpt>
      <trkpt lat="52.994416002184153" lon="11.752750994637609">
        <ele>6.87</ele>
        <time>2024-09-13T10:39:53Z</time>
      </trkpt>
      <trkpt lat="52.994463024660945" lon="11.752771027386189">
        <ele>6.87</ele>
        <time>2024-09-13T10:39:54Z</time>
      </trkpt>
      <trkpt lat="52.99456100910902" lon="11.752813020721078">
        <ele>7.35</ele>
        <time>2024-09-13T10:39:57Z</time>
      </trkpt>
      <trkpt lat="52.9945810418576" lon="11.752821989357471">
        <ele>6.87</ele>
        <time>2024-09-13T10:40:01Z</time>
      </trkpt>
      <trkpt lat="52.994609959423542" lon="11.752833975479007">
        <ele>6.87</ele>
        <time>2024-09-13T10:40:02Z</time>
      </trkpt>
      <trkpt lat="52.994649019092321" lon="11.752850990742445">
        <ele>7.35</ele>
        <time>2024-09-13T10:40:03Z</time>
      </trkpt>
      <trkpt lat="52.994722025468946" lon="11.75288200378418">
        <ele>7.83</ele>
        <time>2024-09-13T10:40:04Z</time>
      </trkpt>
      <trkpt lat="52.994762007147074" lon="11.752820983529091">
        <ele>7.83</ele>
        <time>2024-09-13T10:40:05Z</time>
      </trkpt>
      <trkpt lat="52.994806012138724" lon="11.752755017951131">
        <ele>8.310000000000001</ele>
        <time>2024-09-13T10:40:06Z</time>
      </trkpt>
      <trkpt lat="52.994885975494981" lon="11.752634989097714">
        <ele>8.789999999999999</ele>
        <time>2024-09-13T10:40:08Z</time>
      </trkpt>
      <trkpt lat="52.995000975206494" lon="11.75262501463294">
        <ele>9.75</ele>
        <time>2024-09-13T10:40:10Z</time>
      </trkpt>
      <trkpt lat="52.995038023218513" lon="11.752605987712741">
        <ele>9.75</ele>
        <time>2024-09-13T10:40:11Z</time>
      </trkpt>
      <trkpt lat="52.995095020160079" lon="11.752498028799891">
        <ele>10.23</ele>
        <time>2024-09-13T10:40:12Z</time>
      </trkpt>
      <trkpt lat="52.995101977139711" lon="11.752427034080029">
        <ele>10.23</ele>
        <time>2024-09-13T10:40:13Z</time>
      </trkpt>
      <trkpt lat="52.995108012109995" lon="11.75236701965332">
        <ele>10.23</ele>
        <time>2024-09-13T10:40:14Z</time>
      </trkpt>
      <trkpt lat="52.995044980198145" lon="11.752288984134793">
        <ele>10.710000000000001</ele>
        <time>2024-09-13T10:40:15Z</time>
      </trkpt>
      <trkpt lat="52.995040034875274" lon="11.752183036878705">
        <ele>11.19</ele>
        <time>2024-09-13T10:40:16Z</time>
      </trkpt>
      <trkpt lat="52.99505696631968" lon="11.75211195833981">
        <ele>11.19</ele>
        <time>2024-09-13T10:40:17Z</time>
      </trkpt>
      <trkpt lat="52.99507699906826" lon="11.75202596001327">
        <ele>11.19</ele>
        <time>2024-09-13T10:40:18Z</time>
      </trkpt>
      <trkpt lat="52.995100971311331" lon="11.751923030242324">
        <ele>11.19</ele>
        <time>2024-09-13T10:40:19Z</time>
      </trkpt>
      <trkpt lat="52.995127961039543" lon="11.75180702470243">
        <ele>11.19</ele>
        <time>2024-09-13T10:40:20Z</time>
      </trkpt>
      <trkpt lat="52.995156962424517" lon="11.751683978363872">
        <ele>11.19</ele>
        <time>2024-09-13T10:40:21Z</time>
      </trkpt>
      <trkpt lat="52.99556901678443" lon="11.749865021556616">
        <ele>9.27</ele>
        <time>2024-09-13T10:40:34Z</time>
      </trkpt>
      <trkpt lat="52.995602041482925" lon="11.749721020460129">
        <ele>9.27</ele>
        <time>2024-09-13T10:40:35Z</time>
      </trkpt>
      <trkpt lat="52.995633976534009" lon="11.749579031020403">
        <ele>8.789999999999999</ele>
        <time>2024-09-13T10:40:36Z</time>
      </trkpt>
      <trkpt lat="52.996070003136992" lon="11.747771976515651">
        <ele>10.710000000000001</ele>
        <time>2024-09-13T10:40:48Z</time>
      </trkpt>
      <trkpt lat="52.996580963954329" lon="11.745810024440289">
        <ele>14.56</ele>
        <time>2024-09-13T10:41:00Z</time>
      </trkpt>
      <trkpt lat="52.996637960895896" lon="11.745481034740806">
        <ele>14.56</ele>
        <time>2024-09-13T10:41:02Z</time>
      </trkpt>
      <trkpt lat="52.996647013351321" lon="11.745309960097075">
        <ele>15.039999999999999</ele>
        <time>2024-09-13T10:41:03Z</time>
      </trkpt>
      <trkpt lat="52.996648019179702" lon="11.745141986757517">
        <ele>15.52</ele>
        <time>2024-09-13T10:41:04Z</time>
      </trkpt>
      <trkpt lat="52.996635027229786" lon="11.74497501924634">
        <ele>15.52</ele>
        <time>2024-09-13T10:41:05Z</time>
      </trkpt>
      <trkpt lat="52.99662203527987" lon="11.744808973744512">
        <ele>15.52</ele>
        <time>2024-09-13T10:41:06Z</time>
      </trkpt>
      <trkpt lat="52.996455989778042" lon="11.742349974811077">
        <ele>17.440000000000001</ele>
        <time>2024-09-13T10:41:20Z</time>
      </trkpt>
      <trkpt lat="52.996379965916276" lon="11.740989005193114">
        <ele>17.440000000000001</ele>
        <time>2024-09-13T10:41:30Z</time>
      </trkpt>
      <trkpt lat="52.996354987844825" lon="11.740612993016839">
        <ele>16.48</ele>
        <time>2024-09-13T10:41:38Z</time>
      </trkpt>
      <trkpt lat="52.996350964531302" lon="11.740535041317344">
        <ele>16.48</ele>
        <time>2024-09-13T10:41:39Z</time>
      </trkpt>
      <trkpt lat="52.996345013380051" lon="11.740446025505662">
        <ele>16.48</ele>
        <time>2024-09-13T10:41:40Z</time>
      </trkpt>
      <trkpt lat="52.996333027258515" lon="11.740148970857263">
        <ele>16.48</ele>
        <time>2024-09-13T10:41:43Z</time>
      </trkpt>
      <trkpt lat="52.996343001723289" lon="11.73992701806128">
        <ele>16.48</ele>
        <time>2024-09-13T10:41:45Z</time>
      </trkpt>
      <trkpt lat="52.996349036693573" lon="11.739805983379483">
        <ele>16.48</ele>
        <time>2024-09-13T10:41:46Z</time>
      </trkpt>
      <trkpt lat="52.996360016986728" lon="11.739682015031576">
        <ele>16.48</ele>
        <time>2024-09-13T10:41:47Z</time>
      </trkpt>
      <trkpt lat="52.996651036664844" lon="11.737897004932165">
        <ele>16.48</ele>
        <time>2024-09-13T10:42:00Z</time>
      </trkpt>
      <trkpt lat="52.996820015832782" lon="11.737428959459066">
        <ele>16.960000000000001</ele>
        <time>2024-09-13T10:42:07Z</time>
      </trkpt>
      <trkpt lat="52.99683703109622" lon="11.737382020801306">
        <ele>16.960000000000001</ele>
        <time>2024-09-13T10:42:10Z</time>
      </trkpt>
      <trkpt lat="52.996842982247472" lon="11.737366011366248">
        <ele>16.960000000000001</ele>
        <time>2024-09-13T10:42:11Z</time>
      </trkpt>
      <trkpt lat="52.996842982247472" lon="11.737366011366248">
        <ele>15.52</ele>
        <time>2024-09-13T10:42:28Z</time>
      </trkpt>
      <trkpt lat="52.996376026421785" lon="11.736595965921879">
        <ele>-51.770000000000003</ele>
        <time>2024-09-13T10:45:25Z</time>
      </trkpt>
      <trkpt lat="52.996733011677861" lon="11.736954962834716">
        <ele>3.02</ele>
        <time>2024-09-13T10:45:46Z</time>
      </trkpt>
      <trkpt lat="52.996835019439459" lon="11.736996034160256">
        <ele>15.52</ele>
        <time>2024-09-13T10:46:25Z</time>
      </trkpt>
      <trkpt lat="52.99681699834764" lon="11.736905006691813">
        <ele>19.84</ele>
        <time>2024-09-13T10:46:47Z</time>
      </trkpt>
      <trkpt lat="52.996957981958985" lon="11.737044984474778">
        <ele>20.809999999999999</ele>
        <time>2024-09-13T10:46:49Z</time>
      </trkpt>
      <trkpt lat="52.996963011100888" lon="11.737031992524862">
        <ele>21.77</ele>
        <time>2024-09-13T10:46:50Z</time>
      </trkpt>
      <trkpt lat="52.996965022757649" lon="11.737026963382959">
        <ele>22.25</ele>
        <time>2024-09-13T10:46:51Z</time>
      </trkpt>
      <trkpt lat="52.996965022757649" lon="11.737026963382959">
        <ele>29.460000000000001</ele>
        <time>2024-09-13T10:47:05Z</time>
      </trkpt>
      <trkpt lat="52.996997963637114" lon="11.736935013905168">
        <ele>28.5</ele>
        <time>2024-09-13T10:47:26Z</time>
      </trkpt>
      <trkpt lat="52.997022019699216" lon="11.736869970336556">
        <ele>27.530000000000001</ele>
        <time>2024-09-13T10:47:27Z</time>
      </trkpt>
      <trkpt lat="52.997364001348615" lon="11.735968999564648">
        <ele>24.649999999999999</ele>
        <time>2024-09-13T10:47:35Z</time>
      </trkpt>
      <trkpt lat="52.997678993269801" lon="11.735199959948659">
        <ele>22.25</ele>
        <time>2024-09-13T10:47:41Z</time>
      </trkpt>
      <trkpt lat="52.998355999588966" lon="11.734109977260232">
        <ele>20.809999999999999</ele>
        <time>2024-09-13T10:47:52Z</time>
      </trkpt>
      <trkpt lat="52.999221011996269" lon="11.732786977663636">
        <ele>18.879999999999999</ele>
        <time>2024-09-13T10:48:03Z</time>
      </trkpt>
      <trkpt lat="53.000078983604908" lon="11.731255017220974">
        <ele>18.399999999999999</ele>
        <time>2024-09-13T10:48:14Z</time>
      </trkpt>
      <trkpt lat="53.000917006283998" lon="11.729370011016726">
        <ele>19.84</ele>
        <time>2024-09-13T10:48:26Z</time>
      </trkpt>
      <trkpt lat="53.001674981787801" lon="11.727622970938683">
        <ele>20.32</ele>
        <time>2024-09-13T10:48:37Z</time>
      </trkpt>
      <trkpt lat="53.002287028357387" lon="11.726125963032246">
        <ele>23.690000000000001</ele>
        <time>2024-09-13T10:48:46Z</time>
      </trkpt>
      <trkpt lat="53.002849034965038" lon="11.724704978987575">
        <ele>25.609999999999999</ele>
        <time>2024-09-13T10:48:55Z</time>
      </trkpt>
      <trkpt lat="53.003009967505932" lon="11.724298037588596">
        <ele>26.09</ele>
        <time>2024-09-13T10:49:00Z</time>
      </trkpt>
      <trkpt lat="53.003033017739654" lon="11.724237017333508">
        <ele>26.09</ele>
        <time>2024-09-13T10:49:01Z</time>
      </trkpt>
      <trkpt lat="53.003174001350999" lon="11.723862010985613">
        <ele>26.09</ele>
        <time>2024-09-13T10:49:06Z</time>
      </trkpt>
      <trkpt lat="53.003665013238788" lon="11.722647976130247">
        <ele>24.170000000000002</ele>
        <time>2024-09-13T10:49:15Z</time>
      </trkpt>
      <trkpt lat="53.004239005967975" lon="11.721088020130992">
        <ele>24.649999999999999</ele>
        <time>2024-09-13T10:49:25Z</time>
      </trkpt>
      <trkpt lat="53.004470011219382" lon="11.720329038798809">
        <ele>25.129999999999999</ele>
        <time>2024-09-13T10:49:33Z</time>
      </trkpt>
      <trkpt lat="53.004479985684156" lon="11.720298025757074">
        <ele>25.129999999999999</ele>
        <time>2024-09-13T10:49:34Z</time>
      </trkpt>
      <trkpt lat="53.004517033696175" lon="11.720176991075277">
        <ele>25.129999999999999</ele>
        <time>2024-09-13T10:49:40Z</time>
      </trkpt>
      <trkpt lat="53.004530025646091" lon="11.720132986083627">
        <ele>25.129999999999999</ele>
        <time>2024-09-13T10:49:41Z</time>
      </trkpt>
      <trkpt lat="53.00472398288548" lon="11.719481963664293">
        <ele>26.09</ele>
        <time>2024-09-13T10:49:49Z</time>
      </trkpt>
      <trkpt lat="53.004742003977299" lon="11.719419015571475">
        <ele>25.609999999999999</ele>
        <time>2024-09-13T10:49:50Z</time>
      </trkpt>
      <trkpt lat="53.004792965948582" lon="11.719245007261634">
        <ele>25.609999999999999</ele>
        <time>2024-09-13T10:50:00Z</time>
      </trkpt>
      <trkpt lat="53.004792965948582" lon="11.719245007261634">
        <ele>25.609999999999999</ele>
        <time>2024-09-13T10:50:36Z</time>
      </trkpt>
      <trkpt lat="53.004935039207339" lon="11.718862960115075">
        <ele>22.25</ele>
        <time>2024-09-13T10:51:06Z</time>
      </trkpt>
      <trkpt lat="53.005365030840039" lon="11.71807799488306">
        <ele>20.809999999999999</ele>
        <time>2024-09-13T10:51:12Z</time>
      </trkpt>
      <trkpt lat="53.006157958880067" lon="11.716876029968262">
        <ele>18.879999999999999</ele>
        <time>2024-09-13T10:51:21Z</time>
      </trkpt>
      <trkpt lat="53.007055995985866" lon="11.715515982359648">
        <ele>18.879999999999999</ele>
        <time>2024-09-13T10:51:31Z</time>
      </trkpt>
      <trkpt lat="53.007941041141748" lon="11.713826023042202">
        <ele>18.399999999999999</ele>
        <time>2024-09-13T10:51:40Z</time>
      </trkpt>
      <trkpt lat="53.008799012750387" lon="11.711984016001225">
        <ele>18.399999999999999</ele>
        <time>2024-09-13T10:51:49Z</time>
      </trkpt>
      <trkpt lat="53.008914012461901" lon="11.711787963286042">
        <ele>18.879999999999999</ele>
        <time>2024-09-13T10:51:50Z</time>
      </trkpt>
      <trkpt lat="53.010365003719926" lon="11.709649991244078">
        <ele>20.32</ele>
        <time>2024-09-13T10:52:01Z</time>
      </trkpt>
      <trkpt lat="53.011502008885145" lon="11.708103027194738">
        <ele>19.84</ele>
        <time>2024-09-13T10:52:09Z</time>
      </trkpt>
      <trkpt lat="53.011637963354588" lon="11.707945028319955">
        <ele>19.84</ele>
        <time>2024-09-13T10:52:10Z</time>
      </trkpt>
      <trkpt lat="53.011953961104155" lon="11.707749981433153">
        <ele>20.32</ele>
        <time>2024-09-13T10:52:12Z</time>
      </trkpt>
      <trkpt lat="53.013732014223933" lon="11.70679503120482">
        <ele>20.809999999999999</ele>
        <time>2024-09-13T10:52:23Z</time>
      </trkpt>
      <trkpt lat="53.015759009867907" lon="11.70572399161756">
        <ele>19.359999999999999</ele>
        <time>2024-09-13T10:52:35Z</time>
      </trkpt>
      <trkpt lat="53.016272988170385" lon="11.705325013026595">
        <ele>18.879999999999999</ele>
        <time>2024-09-13T10:52:38Z</time>
      </trkpt>
      <trkpt lat="53.016435010358691" lon="11.705147987231612">
        <ele>18.879999999999999</ele>
        <time>2024-09-13T10:52:39Z</time>
      </trkpt>
      <trkpt lat="53.016574988141656" lon="11.704941960051656">
        <ele>18.399999999999999</ele>
        <time>2024-09-13T10:52:40Z</time>
      </trkpt>
      <trkpt lat="53.017668994143605" lon="11.702899038791656">
        <ele>17.440000000000001</ele>
        <time>2024-09-13T10:52:49Z</time>
      </trkpt>
      <trkpt lat="53.018546998500824" lon="11.701245959848166">
        <ele>17.440000000000001</ele>
        <time>2024-09-13T10:52:57Z</time>
      </trkpt>
      <trkpt lat="53.019749969244003" lon="11.698988964781165">
        <ele>19.359999999999999</ele>
        <time>2024-09-13T10:53:08Z</time>
      </trkpt>
      <trkpt lat="53.020991999655962" lon="11.696594003587961">
        <ele>21.77</ele>
        <time>2024-09-13T10:53:19Z</time>
      </trkpt>
      <trkpt lat="53.021046984940767" lon="11.696314970031381">
        <ele>21.77</ele>
        <time>2024-09-13T10:53:20Z</time>
      </trkpt>
      <trkpt lat="53.02109501324594" lon="11.696028979495168">
        <ele>22.25</ele>
        <time>2024-09-13T10:53:21Z</time>
      </trkpt>
      <trkpt lat="53.021277990192175" lon="11.693722028285265">
        <ele>24.170000000000002</ele>
        <time>2024-09-13T10:53:29Z</time>
      </trkpt>
      <trkpt lat="53.021491980180144" lon="11.691130008548498">
        <ele>26.09</ele>
        <time>2024-09-13T10:53:38Z</time>
      </trkpt>
      <trkpt lat="53.021691972389817" lon="11.688783997669816">
        <ele>27.050000000000001</ele>
        <time>2024-09-13T10:53:46Z</time>
      </trkpt>
      <trkpt lat="53.021810995414853" lon="11.687348010018468">
        <ele>26.57</ele>
        <time>2024-09-13T10:53:51Z</time>
      </trkpt>
      <trkpt lat="53.021892970427871" lon="11.686258027330041">
        <ele>26.57</ele>
        <time>2024-09-13T10:53:55Z</time>
      </trkpt>
      <trkpt lat="53.022067984566092" lon="11.684287022799253">
        <ele>27.050000000000001</ele>
        <time>2024-09-13T10:54:02Z</time>
      </trkpt>
      <trkpt lat="53.022123975679278" lon="11.684020981192589">
        <ele>27.050000000000001</ele>
        <time>2024-09-13T10:54:03Z</time>
      </trkpt>
      <trkpt lat="53.022561008110642" lon="11.68262598104775">
        <ele>25.129999999999999</ele>
        <time>2024-09-13T10:54:09Z</time>
      </trkpt>
      <trkpt lat="53.023219993337989" lon="11.680826973170042">
        <ele>23.690000000000001</ele>
        <time>2024-09-13T10:54:18Z</time>
      </trkpt>
      <trkpt lat="53.023662976920605" lon="11.679613022133708">
        <ele>23.690000000000001</ele>
        <time>2024-09-13T10:54:26Z</time>
      </trkpt>
      <trkpt lat="53.024308970198035" lon="11.677868999540806">
        <ele>22.25</ele>
        <time>2024-09-13T10:54:36Z</time>
      </trkpt>
      <trkpt lat="53.024832000955939" lon="11.676570978015661">
        <ele>22.25</ele>
        <time>2024-09-13T10:54:45Z</time>
      </trkpt>
      <trkpt lat="53.025581007823348" lon="11.675158040598035">
        <ele>20.809999999999999</ele>
        <time>2024-09-13T10:54:58Z</time>
      </trkpt>
      <trkpt lat="53.025912009179592" lon="11.674623023718596">
        <ele>19.359999999999999</ele>
        <time>2024-09-13T10:55:03Z</time>
      </trkpt>
      <trkpt lat="53.025970011949539" lon="11.674517998471856">
        <ele>19.359999999999999</ele>
        <time>2024-09-13T10:55:04Z</time>
      </trkpt>
      <trkpt lat="53.026005970314145" lon="11.674383971840143">
        <ele>18.879999999999999</ele>
        <time>2024-09-13T10:55:05Z</time>
      </trkpt>
      <trkpt lat="53.026137985289097" lon="11.673643011599779">
        <ele>18.879999999999999</ele>
        <time>2024-09-13T10:55:10Z</time>
      </trkpt>
      <trkpt lat="53.026288021355867" lon="11.672567026689649">
        <ele>17.440000000000001</ele>
        <time>2024-09-13T10:55:16Z</time>
      </trkpt>
      <trkpt lat="53.026306964457035" lon="11.672351025044918">
        <ele>16.960000000000001</ele>
        <time>2024-09-13T10:55:17Z</time>
      </trkpt>
      <trkpt lat="53.026307970285416" lon="11.672191014513373">
        <ele>16.960000000000001</ele>
        <time>2024-09-13T10:55:18Z</time>
      </trkpt>
      <trkpt lat="53.026311993598938" lon="11.672010971233249">
        <ele>16.48</ele>
        <time>2024-09-13T10:55:19Z</time>
      </trkpt>
      <trkpt lat="53.02631601691246" lon="11.671824976801872">
        <ele>16.48</ele>
        <time>2024-09-13T10:55:20Z</time>
      </trkpt>
      <trkpt lat="53.026323979720473" lon="11.671439995989203">
        <ele>16</ele>
        <time>2024-09-13T10:55:22Z</time>
      </trkpt>
      <trkpt lat="53.026329008862376" lon="11.671235980466008">
        <ele>16</ele>
        <time>2024-09-13T10:55:23Z</time>
      </trkpt>
      <trkpt lat="53.026706026867032" lon="11.66915399953723">
        <ele>16</ele>
        <time>2024-09-13T10:55:34Z</time>
      </trkpt>
      <trkpt lat="53.02706602960825" lon="11.667134966701269">
        <ele>15.039999999999999</ele>
        <time>2024-09-13T10:55:43Z</time>
      </trkpt>
      <trkpt lat="53.027481017634273" lon="11.664807982742786">
        <ele>15.039999999999999</ele>
        <time>2024-09-13T10:55:52Z</time>
      </trkpt>
      <trkpt lat="53.027855018153787" lon="11.662813005968928">
        <ele>16.960000000000001</ele>
        <time>2024-09-13T10:56:01Z</time>
      </trkpt>
      <trkpt lat="53.028025003150105" lon="11.662132982164621">
        <ele>16.960000000000001</ele>
        <time>2024-09-13T10:56:04Z</time>
      </trkpt>
      <trkpt lat="53.02807898260653" lon="11.66191597469151">
        <ele>16.960000000000001</ele>
        <time>2024-09-13T10:56:05Z</time>
      </trkpt>
      <trkpt lat="53.02854903973639" lon="11.660348977893591">
        <ele>16.960000000000001</ele>
        <time>2024-09-13T10:56:13Z</time>
      </trkpt>
      <trkpt lat="53.02861500531435" lon="11.660210005939007">
        <ele>16.960000000000001</ele>
        <time>2024-09-13T10:56:14Z</time>
      </trkpt>
      <trkpt lat="53.028693040832877" lon="11.660062987357378">
        <ele>16.960000000000001</ele>
        <time>2024-09-13T10:56:15Z</time>
      </trkpt>
      <trkpt lat="53.029358983039856" lon="11.659002006053925">
        <ele>18.879999999999999</ele>
        <time>2024-09-13T10:56:24Z</time>
      </trkpt>
      <trkpt lat="53.029803978279233" lon="11.658427007496357">
        <ele>19.359999999999999</ele>
        <time>2024-09-13T10:56:30Z</time>
      </trkpt>
      <trkpt lat="53.029889976605773" lon="11.658397000283003">
        <ele>19.359999999999999</ele>
        <time>2024-09-13T10:56:31Z</time>
      </trkpt>
      <trkpt lat="53.029970023781061" lon="11.658371016383171">
        <ele>19.359999999999999</ele>
        <time>2024-09-13T10:56:32Z</time>
      </trkpt>
      <trkpt lat="53.030056022107601" lon="11.658399011939764">
        <ele>19.359999999999999</ele>
        <time>2024-09-13T10:56:33Z</time>
      </trkpt>
      <trkpt lat="53.030145037919283" lon="11.658459026366472">
        <ele>19.359999999999999</ele>
        <time>2024-09-13T10:56:34Z</time>
      </trkpt>
      <trkpt lat="53.030238999053836" lon="11.658521974459291">
        <ele>19.359999999999999</ele>
        <time>2024-09-13T10:56:35Z</time>
      </trkpt>
      <trkpt lat="53.030319968238473" lon="11.658576037734747">
        <ele>19.84</ele>
        <time>2024-09-13T10:56:36Z</time>
      </trkpt>
      <trkpt lat="53.030390040948987" lon="11.658543013036251">
        <ele>20.32</ele>
        <time>2024-09-13T10:56:37Z</time>
      </trkpt>
      <trkpt lat="53.030476039275527" lon="11.658502025529742">
        <ele>20.809999999999999</ele>
        <time>2024-09-13T10:56:38Z</time>
      </trkpt>
      <trkpt lat="53.030562037602067" lon="11.658461960032582">
        <ele>20.809999999999999</ele>
        <time>2024-09-13T10:56:39Z</time>
      </trkpt>
      <trkpt lat="53.030648035928607" lon="11.658421978354454">
        <ele>21.289999999999999</ele>
        <time>2024-09-13T10:56:40Z</time>
      </trkpt>
      <trkpt lat="53.030703021213412" lon="11.658376967534423">
        <ele>21.289999999999999</ele>
        <time>2024-09-13T10:56:41Z</time>
      </trkpt>
      <trkpt lat="53.030770998448133" lon="11.658277977257967">
        <ele>22.25</ele>
        <time>2024-09-13T10:56:42Z</time>
      </trkpt>
      <trkpt lat="53.030837969854474" lon="11.658180998638272">
        <ele>22.25</ele>
        <time>2024-09-13T10:56:43Z</time>
      </trkpt>
      <trkpt lat="53.030904019251466" lon="11.658085025846958">
        <ele>22.73</ele>
        <time>2024-09-13T10:56:44Z</time>
      </trkpt>
      <trkpt lat="53.030952969565988" lon="11.657987041398883">
        <ele>22.73</ele>
        <time>2024-09-13T10:56:45Z</time>
      </trkpt>
      <trkpt lat="53.031002003699541" lon="11.65787598118186">
        <ele>22.73</ele>
        <time>2024-09-13T10:56:46Z</time>
      </trkpt>
      <trkpt lat="53.031127983704209" lon="11.657688980922103">
        <ele>22.25</ele>
        <time>2024-09-13T10:56:48Z</time>
      </trkpt>
      <trkpt lat="53.031156985089183" lon="11.657673977315426">
        <ele>21.77</ele>
        <time>2024-09-13T10:56:49Z</time>
      </trkpt>
      <trkpt lat="53.03125899285078" lon="11.657713036984205">
        <ele>21.289999999999999</ele>
        <time>2024-09-13T10:56:50Z</time>
      </trkpt>
      <trkpt lat="53.031339962035418" lon="11.657742960378528">
        <ele>20.809999999999999</ele>
        <time>2024-09-13T10:56:51Z</time>
      </trkpt>
      <trkpt lat="53.031433001160622" lon="11.657777996733785">
        <ele>20.809999999999999</ele>
        <time>2024-09-13T10:56:52Z</time>
      </trkpt>
      <trkpt lat="53.031512964516878" lon="11.657817978411913">
        <ele>20.809999999999999</ele>
        <time>2024-09-13T10:56:53Z</time>
      </trkpt>
      <trkpt lat="53.031595023348927" lon="11.657910011708736">
        <ele>20.809999999999999</ele>
        <time>2024-09-13T10:56:54Z</time>
      </trkpt>
      <trkpt lat="53.031674986705184" lon="11.657999027520418">
        <ele>20.809999999999999</ele>
        <time>2024-09-13T10:56:55Z</time>
      </trkpt>
      <trkpt lat="53.03175201639533" lon="11.658087037503719">
        <ele>20.809999999999999</ele>
        <time>2024-09-13T10:56:56Z</time>
      </trkpt>
      <trkpt lat="53.031842960044742" lon="11.658188961446285">
        <ele>20.809999999999999</ele>
        <time>2024-09-13T10:56:57Z</time>
      </trkpt>
      <trkpt lat="53.031896017491817" lon="11.658290969207883">
        <ele>20.809999999999999</ele>
        <time>2024-09-13T10:56:58Z</time>
      </trkpt>
      <trkpt lat="53.032424999400973" lon="11.659308029338717">
        <ele>20.809999999999999</ele>
        <time>2024-09-13T10:57:06Z</time>
      </trkpt>
      <trkpt lat="53.032496999949217" lon="11.659399978816509">
        <ele>20.809999999999999</ele>
        <time>2024-09-13T10:57:07Z</time>
      </trkpt>
      <trkpt lat="53.032573023810983" lon="11.659497963264585">
        <ele>20.809999999999999</ele>
        <time>2024-09-13T10:57:08Z</time>
      </trkpt>
      <trkpt lat="53.033323958516121" lon="11.660032980144024">
        <ele>21.289999999999999</ele>
        <time>2024-09-13T10:57:16Z</time>
      </trkpt>
      <trkpt lat="53.033424038439989" lon="11.660068016499281">
        <ele>21.289999999999999</ele>
        <time>2024-09-13T10:57:17Z</time>
      </trkpt>
      <trkpt lat="53.033517999574542" lon="11.6600860375911">
        <ele>20.809999999999999</ele>
        <time>2024-09-13T10:57:18Z</time>
      </trkpt>
      <trkpt lat="53.033612966537476" lon="11.660104980692267">
        <ele>20.809999999999999</ele>
        <time>2024-09-13T10:57:19Z</time>
      </trkpt>
      <trkpt lat="53.03370701149106" lon="11.660124007612467">
        <ele>20.809999999999999</ele>
        <time>2024-09-13T10:57:20Z</time>
      </trkpt>
      <trkpt lat="53.033796027302742" lon="11.660142028704286">
        <ele>20.809999999999999</ele>
        <time>2024-09-13T10:57:21Z</time>
      </trkpt>
      <trkpt lat="53.033962994813919" lon="11.660090982913971">
        <ele>19.84</ele>
        <time>2024-09-13T10:57:23Z</time>
      </trkpt>
      <trkpt lat="53.034074977040291" lon="11.660056030377746">
        <ele>19.84</ele>
        <time>2024-09-13T10:57:24Z</time>
      </trkpt>
      <trkpt lat="53.034138008952141" lon="11.659979000687599">
        <ele>19.84</ele>
        <time>2024-09-13T10:57:25Z</time>
      </trkpt>
      <trkpt lat="53.034217972308397" lon="11.659882022067904">
        <ele>19.84</ele>
        <time>2024-09-13T10:57:26Z</time>
      </trkpt>
      <trkpt lat="53.034296007826924" lon="11.659775990992785">
        <ele>19.84</ele>
        <time>2024-09-13T10:57:27Z</time>
      </trkpt>
      <trkpt lat="53.034369014203548" lon="11.659660991281271">
        <ele>19.84</ele>
        <time>2024-09-13T10:57:28Z</time>
      </trkpt>
      <trkpt lat="53.034640001133084" lon="11.65916302241385">
        <ele>20.32</ele>
        <time>2024-09-13T10:57:32Z</time>
      </trkpt>
      <trkpt lat="53.034696998074651" lon="11.659022960811853">
        <ele>20.32</ele>
        <time>2024-09-13T10:57:33Z</time>
      </trkpt>
      <trkpt lat="53.034748965874314" lon="11.658883988857269">
        <ele>20.32</ele>
        <time>2024-09-13T10:57:34Z</time>
      </trkpt>
      <trkpt lat="53.0350829847157" lon="11.657610023394227">
        <ele>21.77</ele>
        <time>2024-09-13T10:57:42Z</time>
      </trkpt>
      <trkpt lat="53.035198990255594" lon="11.657464010640979">
        <ele>21.77</ele>
        <time>2024-09-13T10:57:43Z</time>
      </trkpt>
      <trkpt lat="53.035298986360431" lon="11.657336018979549">
        <ele>21.77</ele>
        <time>2024-09-13T10:57:44Z</time>
      </trkpt>
      <trkpt lat="53.036353010684252" lon="11.656043026596308">
        <ele>21.289999999999999</ele>
        <time>2024-09-13T10:57:54Z</time>
      </trkpt>
      <trkpt lat="53.037825962528586" lon="11.654289029538631">
        <ele>18.399999999999999</ele>
        <time>2024-09-13T10:58:09Z</time>
      </trkpt>
      <trkpt lat="53.038266012445092" lon="11.653654016554356">
        <ele>16.48</ele>
        <time>2024-09-13T10:58:14Z</time>
      </trkpt>
      <trkpt lat="53.038889961317182" lon="11.652187015861273">
        <ele>15.52</ele>
        <time>2024-09-13T10:58:23Z</time>
      </trkpt>
      <trkpt lat="53.039158014580607" lon="11.651548985391855">
        <ele>17.440000000000001</ele>
        <time>2024-09-13T10:58:27Z</time>
      </trkpt>
      <trkpt lat="53.039238983765244" lon="11.651409007608891">
        <ele>17.920000000000002</ele>
        <time>2024-09-13T10:58:28Z</time>
      </trkpt>
      <trkpt lat="53.039324982091784" lon="11.6512790042907">
        <ele>18.399999999999999</ele>
        <time>2024-09-13T10:58:29Z</time>
      </trkpt>
      <trkpt lat="53.039425984025002" lon="11.651171967387199">
        <ele>18.879999999999999</ele>
        <time>2024-09-13T10:58:30Z</time>
      </trkpt>
      <trkpt lat="53.039532015100121" lon="11.651077000424266">
        <ele>19.359999999999999</ele>
        <time>2024-09-13T10:58:31Z</time>
      </trkpt>
      <trkpt lat="53.040834981948137" lon="11.649931026622653">
        <ele>22.25</ele>
        <time>2024-09-13T10:58:42Z</time>
      </trkpt>
      <trkpt lat="53.042032001540065" lon="11.648826962336898">
        <ele>23.210000000000001</ele>
        <time>2024-09-13T10:58:51Z</time>
      </trkpt>
      <trkpt lat="53.043440999463201" lon="11.647517960518599">
        <ele>22.73</ele>
        <time>2024-09-13T10:59:02Z</time>
      </trkpt>
      <trkpt lat="53.044532993808389" lon="11.646535014733672">
        <ele>22.25</ele>
        <time>2024-09-13T10:59:10Z</time>
      </trkpt>
      <trkpt lat="53.04586797952652" lon="11.645273035392165">
        <ele>23.690000000000001</ele>
        <time>2024-09-13T10:59:19Z</time>
      </trkpt>
      <trkpt lat="53.046832988038659" lon="11.644057994708419">
        <ele>22.25</ele>
        <time>2024-09-13T10:59:26Z</time>
      </trkpt>
      <trkpt lat="53.047879971563816" lon="11.642023036256433">
        <ele>22.73</ele>
        <time>2024-09-13T10:59:34Z</time>
      </trkpt>
      <trkpt lat="53.049162989482284" lon="11.640324024483562">
        <ele>24.170000000000002</ele>
        <time>2024-09-13T10:59:42Z</time>
      </trkpt>
      <trkpt lat="53.05147698149085" lon="11.638459973037243">
        <ele>25.129999999999999</ele>
        <time>2024-09-13T10:59:54Z</time>
      </trkpt>
      <trkpt lat="53.053702041506767" lon="11.636951984837651">
        <ele>24.649999999999999</ele>
        <time>2024-09-13T11:00:05Z</time>
      </trkpt>
      <trkpt lat="53.055562991648912" lon="11.635748008266091">
        <ele>21.289999999999999</ele>
        <time>2024-09-13T11:00:14Z</time>
      </trkpt>
      <trkpt lat="53.057329980656505" lon="11.634702030569315">
        <ele>19.84</ele>
        <time>2024-09-13T11:00:22Z</time>
      </trkpt>
      <trkpt lat="53.059034021571279" lon="11.633797958493233">
        <ele>17.440000000000001</ele>
        <time>2024-09-13T11:00:30Z</time>
      </trkpt>
      <trkpt lat="53.061114996671677" lon="11.632846025750041">
        <ele>15.52</ele>
        <time>2024-09-13T11:00:40Z</time>
      </trkpt>
      <trkpt lat="53.062757011502981" lon="11.632234985008836">
        <ele>13.6</ele>
        <time>2024-09-13T11:00:49Z</time>
      </trkpt>
      <trkpt lat="53.064564988017082" lon="11.631586980074644">
        <ele>13.119999999999999</ele>
        <time>2024-09-13T11:01:00Z</time>
      </trkpt>
      <trkpt lat="53.065716996788979" lon="11.631159000098705">
        <ele>13.6</ele>
        <time>2024-09-13T11:01:07Z</time>
      </trkpt>
      <trkpt lat="53.066356033086777" lon="11.630775025114417">
        <ele>15.52</ele>
        <time>2024-09-13T11:01:11Z</time>
      </trkpt>
      <trkpt lat="53.066489975899458" lon="11.630589030683041">
        <ele>16</ele>
        <time>2024-09-13T11:01:12Z</time>
      </trkpt>
      <trkpt lat="53.06769797578454" lon="11.628965036943555">
        <ele>15.039999999999999</ele>
        <time>2024-09-13T11:01:21Z</time>
      </trkpt>
      <trkpt lat="53.06885601952672" lon="11.627358980476856">
        <ele>16</ele>
        <time>2024-09-13T11:01:30Z</time>
      </trkpt>
      <trkpt lat="53.070253031328321" lon="11.625419994816184">
        <ele>16.48</ele>
        <time>2024-09-13T11:01:41Z</time>
      </trkpt>
      <trkpt lat="53.071905020624399" lon="11.623106002807617">
        <ele>14.08</ele>
        <time>2024-09-13T11:01:54Z</time>
      </trkpt>
      <trkpt lat="53.072284972295165" lon="11.622529998421669">
        <ele>14.08</ele>
        <time>2024-09-13T11:01:57Z</time>
      </trkpt>
      <trkpt lat="53.072403995320201" lon="11.622320031747222">
        <ele>14.08</ele>
        <time>2024-09-13T11:01:58Z</time>
      </trkpt>
      <trkpt lat="53.072518995031714" lon="11.622097995132208">
        <ele>14.08</ele>
        <time>2024-09-13T11:01:59Z</time>
      </trkpt>
      <trkpt lat="53.072600970044732" lon="11.621838994324207">
        <ele>14.08</ele>
        <time>2024-09-13T11:02:00Z</time>
      </trkpt>
      <trkpt lat="53.072656039148569" lon="11.621547974646091">
        <ele>14.08</ele>
        <time>2024-09-13T11:02:01Z</time>
      </trkpt>
      <trkpt lat="53.072691997513175" lon="11.621253015473485">
        <ele>14.08</ele>
        <time>2024-09-13T11:02:02Z</time>
      </trkpt>
      <trkpt lat="53.072727033868432" lon="11.620958978310227">
        <ele>14.08</ele>
        <time>2024-09-13T11:02:03Z</time>
      </trkpt>
      <trkpt lat="53.07287497445941" lon="11.618999037891626">
        <ele>13.6</ele>
        <time>2024-09-13T11:02:10Z</time>
      </trkpt>
      <trkpt lat="53.07285200804472" lon="11.617852980270982">
        <ele>14.56</ele>
        <time>2024-09-13T11:02:14Z</time>
      </trkpt>
      <trkpt lat="53.072946975007653" lon="11.616972964257002">
        <ele>15.039999999999999</ele>
        <time>2024-09-13T11:02:17Z</time>
      </trkpt>
      <trkpt lat="53.073159959167242" lon="11.615866972133517">
        <ele>14.56</ele>
        <time>2024-09-13T11:02:21Z</time>
      </trkpt>
      <trkpt lat="53.073160964995623" lon="11.615585004910827">
        <ele>14.56</ele>
        <time>2024-09-13T11:02:22Z</time>
      </trkpt>
      <trkpt lat="53.073145039379597" lon="11.615308988839388">
        <ele>14.56</ele>
        <time>2024-09-13T11:02:23Z</time>
      </trkpt>
      <trkpt lat="53.073105979710817" lon="11.615038001909852">
        <ele>14.56</ele>
        <time>2024-09-13T11:02:24Z</time>
      </trkpt>
      <trkpt lat="53.073041019961238" lon="11.614814959466457">
        <ele>14.56</ele>
        <time>2024-09-13T11:02:25Z</time>
      </trkpt>
      <trkpt lat="53.072974970564246" lon="11.614593006670475">
        <ele>15.039999999999999</ele>
        <time>2024-09-13T11:02:26Z</time>
      </trkpt>
      <trkpt lat="53.072772966697812" lon="11.613908037543297">
        <ele>15.039999999999999</ele>
        <time>2024-09-13T11:02:29Z</time>
      </trkpt>
      <trkpt lat="53.072713958099484" lon="11.613648030906916">
        <ele>15.039999999999999</ele>
        <time>2024-09-13T11:02:30Z</time>
      </trkpt>
      <trkpt lat="53.072693003341556" lon="11.613360028713942">
        <ele>15.039999999999999</ele>
        <time>2024-09-13T11:02:31Z</time>
      </trkpt>
      <trkpt lat="53.072670958936214" lon="11.613051993772388">
        <ele>15.039999999999999</ele>
        <time>2024-09-13T11:02:32Z</time>
      </trkpt>
      <trkpt lat="53.072656039148569" lon="11.612729039043188">
        <ele>15.039999999999999</ele>
        <time>2024-09-13T11:02:33Z</time>
      </trkpt>
      <trkpt lat="53.072656039148569" lon="11.612387979403138">
        <ele>15.039999999999999</ele>
        <time>2024-09-13T11:02:34Z</time>
      </trkpt>
      <trkpt lat="53.072757041081786" lon="11.609824039041996">
        <ele>16</ele>
        <time>2024-09-13T11:02:41Z</time>
      </trkpt>
      <trkpt lat="53.073184015229344" lon="11.607093969359994">
        <ele>17.440000000000001</ele>
        <time>2024-09-13T11:02:49Z</time>
      </trkpt>
      <trkpt lat="53.073403034359217" lon="11.605726964771748">
        <ele>18.879999999999999</ele>
        <time>2024-09-13T11:02:55Z</time>
      </trkpt>
      <trkpt lat="53.073547035455704" lon="11.604787018150091">
        <ele>19.84</ele>
        <time>2024-09-13T11:03:00Z</time>
      </trkpt>
      <trkpt lat="53.073575031012297" lon="11.604609992355108">
        <ele>19.359999999999999</ele>
        <time>2024-09-13T11:03:01Z</time>
      </trkpt>
      <trkpt lat="53.07360403239727" lon="11.604422992095351">
        <ele>19.359999999999999</ele>
        <time>2024-09-13T11:03:02Z</time>
      </trkpt>
      <trkpt lat="53.073634039610624" lon="11.604230040684342">
        <ele>18.879999999999999</ele>
        <time>2024-09-13T11:03:03Z</time>
      </trkpt>
      <trkpt lat="53.073664968833327" lon="11.604034993797541">
        <ele>19.359999999999999</ele>
        <time>2024-09-13T11:03:04Z</time>
      </trkpt>
      <trkpt lat="53.073786003515124" lon="11.60325899720192">
        <ele>18.879999999999999</ele>
        <time>2024-09-13T11:03:08Z</time>
      </trkpt>
      <trkpt lat="53.073826991021633" lon="11.603070991113782">
        <ele>18.879999999999999</ele>
        <time>2024-09-13T11:03:09Z</time>
      </trkpt>
      <trkpt lat="53.073999993503094" lon="11.602347968146205">
        <ele>18.879999999999999</ele>
        <time>2024-09-13T11:03:14Z</time>
      </trkpt>
      <trkpt lat="53.074022959917784" lon="11.602251995354891">
        <ele>18.879999999999999</ele>
        <time>2024-09-13T11:03:15Z</time>
      </trkpt>
      <trkpt lat="53.07399001903832" lon="11.602198015898466">
        <ele>18.879999999999999</ele>
        <time>2024-09-13T11:03:16Z</time>
      </trkpt>
      <trkpt lat="53.073940984904766" lon="11.602159962058067">
        <ele>19.359999999999999</ele>
        <time>2024-09-13T11:03:17Z</time>
      </trkpt>
      <trkpt lat="53.073870996013284" lon="11.602105982601643">
        <ele>19.359999999999999</ele>
        <time>2024-09-13T11:03:18Z</time>
      </trkpt>
      <trkpt lat="53.073786003515124" lon="11.602041022852063">
        <ele>19.359999999999999</ele>
        <time>2024-09-13T11:03:19Z</time>
      </trkpt>
      <trkpt lat="53.073698999360204" lon="11.601995006203651">
        <ele>19.84</ele>
        <time>2024-09-13T11:03:20Z</time>
      </trkpt>
      <trkpt lat="53.073597997426987" lon="11.601957958191633">
        <ele>19.84</ele>
        <time>2024-09-13T11:03:21Z</time>
      </trkpt>
      <trkpt lat="53.073494983837008" lon="11.601929040625691">
        <ele>20.32</ele>
        <time>2024-09-13T11:03:22Z</time>
      </trkpt>
      <trkpt lat="53.073266996070743" lon="11.601943038403988">
        <ele>20.32</ele>
        <time>2024-09-13T11:03:24Z</time>
      </trkpt>
      <trkpt lat="53.071998981758952" lon="11.601988971233368">
        <ele>22.25</ele>
        <time>2024-09-13T11:03:35Z</time>
      </trkpt>
      <trkpt lat="53.071469999849796" lon="11.601877994835377">
        <ele>22.25</ele>
        <time>2024-09-13T11:03:40Z</time>
      </trkpt>
      <trkpt lat="53.071381989866495" lon="11.601782022044063">
        <ele>22.25</ele>
        <time>2024-09-13T11:03:41Z</time>
      </trkpt>
      <trkpt lat="53.071291968226433" lon="11.601684037595987">
        <ele>21.77</ele>
        <time>2024-09-13T11:03:42Z</time>
      </trkpt>
      <trkpt lat="53.071215022355318" lon="11.601557973772287">
        <ele>21.77</ele>
        <time>2024-09-13T11:03:43Z</time>
      </trkpt>
      <trkpt lat="53.07115601375699" lon="11.601396035403013">
        <ele>21.77</ele>
        <time>2024-09-13T11:03:44Z</time>
      </trkpt>
      <trkpt lat="53.071093987673521" lon="11.601224960759282">
        <ele>21.77</ele>
        <time>2024-09-13T11:03:45Z</time>
      </trkpt>
      <trkpt lat="53.071031039580703" lon="11.601049024611712">
        <ele>21.77</ele>
        <time>2024-09-13T11:03:46Z</time>
      </trkpt>
      <trkpt lat="53.070625020191073" lon="11.599786039441824">
        <ele>21.289999999999999</ele>
        <time>2024-09-13T11:03:53Z</time>
      </trkpt>
      <trkpt lat="53.07055402547121" lon="11.599654024466872">
        <ele>21.289999999999999</ele>
        <time>2024-09-13T11:03:54Z</time>
      </trkpt>
      <trkpt lat="53.070462998002768" lon="11.599593004211783">
        <ele>21.289999999999999</ele>
        <time>2024-09-13T11:03:55Z</time>
      </trkpt>
      <trkpt lat="53.070363001897931" lon="11.599526032805443">
        <ele>21.77</ele>
        <time>2024-09-13T11:03:56Z</time>
      </trkpt>
      <trkpt lat="53.070260994136333" lon="11.59945797175169">
        <ele>21.77</ele>
        <time>2024-09-13T11:03:57Z</time>
      </trkpt>
      <trkpt lat="53.069987995550036" lon="11.59930600784719">
        <ele>21.77</ele>
        <time>2024-09-13T11:04:00Z</time>
      </trkpt>
      <trkpt lat="53.069912977516651" lon="11.599268959835172">
        <ele>22.25</ele>
        <time>2024-09-13T11:04:01Z</time>
      </trkpt>
      <trkpt lat="53.069853968918324" lon="11.599239036440849">
        <ele>22.25</ele>
        <time>2024-09-13T11:04:02Z</time>
      </trkpt>
      <trkpt lat="53.069835025817156" lon="11.599080031737685">
        <ele>22.25</ele>
        <time>2024-09-13T11:04:03Z</time>
      </trkpt>
      <trkpt lat="53.069842988625169" lon="11.598974000662565">
        <ele>22.73</ele>
        <time>2024-09-13T11:04:04Z</time>
      </trkpt>
      <trkpt lat="53.069853968918324" lon="11.598840979859233">
        <ele>22.73</ele>
        <time>2024-09-13T11:04:05Z</time>
      </trkpt>
      <trkpt lat="53.069866960868239" lon="11.598677029833198">
        <ele>22.73</ele>
        <time>2024-09-13T11:04:06Z</time>
      </trkpt>
      <trkpt lat="53.069983972236514" lon="11.597217991948128">
        <ele>22.25</ele>
        <time>2024-09-13T11:04:13Z</time>
      </trkpt>
      <trkpt lat="53.070140965282917" lon="11.595259979367256">
        <ele>23.210000000000001</ele>
        <time>2024-09-13T11:04:21Z</time>
      </trkpt>
      <trkpt lat="53.070369958877563" lon="11.592429997399449">
        <ele>19.84</ele>
        <time>2024-09-13T11:04:32Z</time>
      </trkpt>
      <trkpt lat="53.070559976622462" lon="11.590112987905741">
        <ele>18.879999999999999</ele>
        <time>2024-09-13T11:04:41Z</time>
      </trkpt>
      <trkpt lat="53.07074898853898" lon="11.587786003947258">
        <ele>20.32</ele>
        <time>2024-09-13T11:04:50Z</time>
      </trkpt>
      <trkpt lat="53.070953004062176" lon="11.585295991972089">
        <ele>19.84</ele>
        <time>2024-09-13T11:04:59Z</time>
      </trkpt>
      <trkpt lat="53.071120977401733" lon="11.58323597162962">
        <ele>17.440000000000001</ele>
        <time>2024-09-13T11:05:07Z</time>
      </trkpt>
      <trkpt lat="53.071290040388703" lon="11.581168994307518">
        <ele>17.920000000000002</ele>
        <time>2024-09-13T11:05:15Z</time>
      </trkpt>
      <trkpt lat="53.071454996243119" lon="11.579146021977067">
        <ele>20.32</ele>
        <time>2024-09-13T11:05:23Z</time>
      </trkpt>
      <trkpt lat="53.07162900455296" lon="11.577008971944451">
        <ele>22.73</ele>
        <time>2024-09-13T11:05:31Z</time>
      </trkpt>
      <trkpt lat="53.071810975670815" lon="11.574781984090805">
        <ele>23.210000000000001</ele>
        <time>2024-09-13T11:05:39Z</time>
      </trkpt>
      <trkpt lat="53.071990013122559" lon="11.572589026764035">
        <ele>18.879999999999999</ele>
        <time>2024-09-13T11:05:47Z</time>
      </trkpt>
      <trkpt lat="53.072237027809024" lon="11.569560980424285">
        <ele>16.48</ele>
        <time>2024-09-13T11:05:58Z</time>
      </trkpt>
      <trkpt lat="53.072481025010347" lon="11.566536035388708">
        <ele>16</ele>
        <time>2024-09-13T11:06:09Z</time>
      </trkpt>
      <trkpt lat="53.072640029713511" lon="11.564593026414514">
        <ele>15.52</ele>
        <time>2024-09-13T11:06:16Z</time>
      </trkpt>
      <trkpt lat="53.072886038571596" lon="11.561603033915162">
        <ele>13.119999999999999</ele>
        <time>2024-09-13T11:06:27Z</time>
      </trkpt>
      <trkpt lat="53.073118971660733" lon="11.558771962299943">
        <ele>13.6</ele>
        <time>2024-09-13T11:06:38Z</time>
      </trkpt>
      <trkpt lat="53.073306977748871" lon="11.556481020525098">
        <ele>12.630000000000001</ele>
        <time>2024-09-13T11:06:47Z</time>
      </trkpt>
      <trkpt lat="53.073557009920478" lon="11.553485998883843">
        <ele>7.83</ele>
        <time>2024-09-13T11:06:59Z</time>
      </trkpt>
      <trkpt lat="53.073620963841677" lon="11.552734980359674">
        <ele>7.35</ele>
        <time>2024-09-13T11:07:04Z</time>
      </trkpt>
      <trkpt lat="53.073613001033664" lon="11.552615035325289">
        <ele>7.35</ele>
        <time>2024-09-13T11:07:05Z</time>
      </trkpt>
      <trkpt lat="53.073605038225651" lon="11.552505986765027">
        <ele>7.35</ele>
        <time>2024-09-13T11:07:06Z</time>
      </trkpt>
      <trkpt lat="53.073578970506787" lon="11.55238201841712">
        <ele>7.35</ele>
        <time>2024-09-13T11:07:07Z</time>
      </trkpt>
      <trkpt lat="53.073514010757208" lon="11.55225302092731">
        <ele>7.83</ele>
        <time>2024-09-13T11:07:08Z</time>
      </trkpt>
      <trkpt lat="53.073465982452035" lon="11.552203986793756">
        <ele>7.83</ele>
        <time>2024-09-13T11:07:09Z</time>
      </trkpt>
      <trkpt lat="53.073372021317482" lon="11.552150007337332">
        <ele>8.310000000000001</ele>
        <time>2024-09-13T11:07:10Z</time>
      </trkpt>
      <trkpt lat="53.07330496609211" lon="11.552157970145345">
        <ele>8.789999999999999</ele>
        <time>2024-09-13T11:07:11Z</time>
      </trkpt>
      <trkpt lat="53.073236988857388" lon="11.55216702260077">
        <ele>8.789999999999999</ele>
        <time>2024-09-13T11:07:12Z</time>
      </trkpt>
      <trkpt lat="53.073177980259061" lon="11.552173979580402">
        <ele>8.789999999999999</ele>
        <time>2024-09-13T11:07:13Z</time>
      </trkpt>
      <trkpt lat="53.07311100885272" lon="11.552182026207447">
        <ele>8.789999999999999</ele>
        <time>2024-09-13T11:07:14Z</time>
      </trkpt>
      <trkpt lat="53.073030961677432" lon="11.552229970693588">
        <ele>8.789999999999999</ele>
        <time>2024-09-13T11:07:15Z</time>
      </trkpt>
      <trkpt lat="53.072959966957569" lon="11.55231898650527">
        <ele>8.310000000000001</ele>
        <time>2024-09-13T11:07:16Z</time>
      </trkpt>
      <trkpt lat="53.072878997772932" lon="11.552420994266868">
        <ele>8.310000000000001</ele>
        <time>2024-09-13T11:07:17Z</time>
      </trkpt>
      <trkpt lat="53.072795011103153" lon="11.552526019513607">
        <ele>7.83</ele>
        <time>2024-09-13T11:07:18Z</time>
      </trkpt>
      <trkpt lat="53.072715969756246" lon="11.552626015618443">
        <ele>7.83</ele>
        <time>2024-09-13T11:07:19Z</time>
      </trkpt>
      <trkpt lat="53.071894040331244" lon="11.553769977763295">
        <ele>5.42</ele>
        <time>2024-09-13T11:07:30Z</time>
      </trkpt>
      <trkpt lat="53.071817010641098" lon="11.553881037980318">
        <ele>5.42</ele>
        <time>2024-09-13T11:07:31Z</time>
      </trkpt>
      <trkpt lat="53.071738975122571" lon="11.553995031863451">
        <ele>5.42</ele>
        <time>2024-09-13T11:07:32Z</time>
      </trkpt>
      <trkpt lat="53.071641996502876" lon="11.554063009098172">
        <ele>4.94</ele>
        <time>2024-09-13T11:07:33Z</time>
      </trkpt>
      <trkpt lat="53.071532025933266" lon="11.554109025746584">
        <ele>4.94</ele>
        <time>2024-09-13T11:07:34Z</time>
      </trkpt>
      <trkpt lat="53.071419959887862" lon="11.554155964404345">
        <ele>4.94</ele>
        <time>2024-09-13T11:07:35Z</time>
      </trkpt>
      <trkpt lat="53.071146961301565" lon="11.554269036278129">
        <ele>3.98</ele>
        <time>2024-09-13T11:07:38Z</time>
      </trkpt>
      <trkpt lat="53.071074038743973" lon="11.554298959672451">
        <ele>3.5</ele>
        <time>2024-09-13T11:07:39Z</time>
      </trkpt>
      <trkpt lat="53.070916961878538" lon="11.554386969655752">
        <ele>2.06</ele>
        <time>2024-09-13T11:07:41Z</time>
      </trkpt>
      <trkpt lat="53.070857031270862" lon="11.554472967982292">
        <ele>1.58</ele>
        <time>2024-09-13T11:07:42Z</time>
      </trkpt>
      <trkpt lat="53.070796011015773" lon="11.554558966308832">
        <ele>1.1</ele>
        <time>2024-09-13T11:07:43Z</time>
      </trkpt>
      <trkpt lat="53.070219000801444" lon="11.555717010051012">
        <ele>-4.19</ele>
        <time>2024-09-13T11:07:53Z</time>
      </trkpt>
      <trkpt lat="53.069890011101961" lon="11.556424023583531">
        <ele>-5.15</ele>
        <time>2024-09-13T11:07:59Z</time>
      </trkpt>
      <trkpt lat="53.069832008332014" lon="11.556538017466664">
        <ele>-5.15</ele>
        <time>2024-09-13T11:08:00Z</time>
      </trkpt>
      <trkpt lat="53.069755984470248" lon="11.556623009964824">
        <ele>-4.67</ele>
        <time>2024-09-13T11:08:01Z</time>
      </trkpt>
      <trkpt lat="53.069671997800469" lon="11.556715965270996">
        <ele>-4.19</ele>
        <time>2024-09-13T11:08:02Z</time>
      </trkpt>
      <trkpt lat="53.069583987817168" lon="11.556740021333098">
        <ele>-3.23</ele>
        <time>2024-09-13T11:08:03Z</time>
      </trkpt>
      <trkpt lat="53.069493966177106" lon="11.55676499940455">
        <ele>-2.75</ele>
        <time>2024-09-13T11:08:04Z</time>
      </trkpt>
      <trkpt lat="53.068994991481304" lon="11.556901959702373">
        <ele>1.1</ele>
        <time>2024-09-13T11:08:10Z</time>
      </trkpt>
      <trkpt lat="53.068919973447919" lon="11.556922998279333">
        <ele>1.58</ele>
        <time>2024-09-13T11:08:11Z</time>
      </trkpt>
      <trkpt lat="53.068808997049928" lon="11.556945964694023">
        <ele>2.06</ele>
        <time>2024-09-13T11:08:12Z</time>
      </trkpt>
      <trkpt lat="53.068741019815207" lon="11.556878993287683">
        <ele>2.54</ele>
        <time>2024-09-13T11:08:13Z</time>
      </trkpt>
      <trkpt lat="53.068668013438582" lon="11.556781008839607">
        <ele>3.02</ele>
        <time>2024-09-13T11:08:14Z</time>
      </trkpt>
      <trkpt lat="53.068624008446932" lon="11.556681012734771">
        <ele>3.5</ele>
        <time>2024-09-13T11:08:15Z</time>
      </trkpt>
      <trkpt lat="53.06857698597014" lon="11.55657397583127">
        <ele>3.98</ele>
        <time>2024-09-13T11:08:16Z</time>
      </trkpt>
      <trkpt lat="53.068525018170476" lon="11.556451013311744">
        <ele>4.46</ele>
        <time>2024-09-13T11:08:17Z</time>
      </trkpt>
      <trkpt lat="53.068171972408891" lon="11.555525986477733">
        <ele>6.87</ele>
        <time>2024-09-13T11:08:25Z</time>
      </trkpt>
      <trkpt lat="53.06812796741724" lon="11.555410986766219">
        <ele>7.35</ele>
        <time>2024-09-13T11:08:26Z</time>
      </trkpt>
      <trkpt lat="53.068085974082351" lon="11.555302022024989">
        <ele>8.310000000000001</ele>
        <time>2024-09-13T11:08:27Z</time>
      </trkpt>
      <trkpt lat="53.067881958559155" lon="11.555012008175254">
        <ele>9.27</ele>
        <time>2024-09-13T11:08:30Z</time>
      </trkpt>
      <trkpt lat="53.066918961703777" lon="11.554362997412682">
        <ele>12.15</ele>
        <time>2024-09-13T11:08:40Z</time>
      </trkpt>
      <trkpt lat="53.065448021516204" lon="11.553592029958963">
        <ele>13.119999999999999</ele>
        <time>2024-09-13T11:08:53Z</time>
      </trkpt>
      <trkpt lat="53.064857013523579" lon="11.553278965875506">
        <ele>14.08</ele>
        <time>2024-09-13T11:09:01Z</time>
      </trkpt>
      <trkpt lat="53.064801022410393" lon="11.553238984197378">
        <ele>14.08</ele>
        <time>2024-09-13T11:09:02Z</time>
      </trkpt>
      <trkpt lat="53.064747964963317" lon="11.553185004740953">
        <ele>14.08</ele>
        <time>2024-09-13T11:09:03Z</time>
      </trkpt>
      <trkpt lat="53.064693985506892" lon="11.553103029727936">
        <ele>14.56</ele>
        <time>2024-09-13T11:09:04Z</time>
      </trkpt>
      <trkpt lat="53.06469096802175" lon="11.552985012531281">
        <ele>14.56</ele>
        <time>2024-09-13T11:09:05Z</time>
      </trkpt>
      <trkpt lat="53.06468702852726" lon="11.552844028919935">
        <ele>14.56</ele>
        <time>2024-09-13T11:09:06Z</time>
      </trkpt>
      <trkpt lat="53.064681999385357" lon="11.552682006731629">
        <ele>14.56</ele>
        <time>2024-09-13T11:09:07Z</time>
      </trkpt>
      <trkpt lat="53.064676970243454" lon="11.552506992593408">
        <ele>14.56</ele>
        <time>2024-09-13T11:09:08Z</time>
      </trkpt>
      <trkpt lat="53.064613016322255" lon="11.550316968932748">
        <ele>14.08</ele>
        <time>2024-09-13T11:09:18Z</time>
      </trkpt>
      <trkpt lat="53.064511008560658" lon="11.54679799452424">
        <ele>13.6</ele>
        <time>2024-09-13T11:09:32Z</time>
      </trkpt>
      <trkpt lat="53.064411012455821" lon="11.543338028714061">
        <ele>14.56</ele>
        <time>2024-09-13T11:09:45Z</time>
      </trkpt>
      <trkpt lat="53.064310010522604" lon="11.539866998791695">
        <ele>15.52</ele>
        <time>2024-09-13T11:09:58Z</time>
      </trkpt>
      <trkpt lat="53.064209008589387" lon="11.536403009667993">
        <ele>15.039999999999999</ele>
        <time>2024-09-13T11:10:11Z</time>
      </trkpt>
      <trkpt lat="53.06408897973597" lon="11.533086039125919">
        <ele>12.630000000000001</ele>
        <time>2024-09-13T11:10:24Z</time>
      </trkpt>
      <trkpt lat="53.064050003886223" lon="11.532891998067498">
        <ele>13.119999999999999</ele>
        <time>2024-09-13T11:10:25Z</time>
      </trkpt>
      <trkpt lat="53.063997030258179" lon="11.532726036384702">
        <ele>13.6</ele>
        <time>2024-09-13T11:10:26Z</time>
      </trkpt>
      <trkpt lat="53.063929975032806" lon="11.532592009752989">
        <ele>13.6</ele>
        <time>2024-09-13T11:10:27Z</time>
      </trkpt>
      <trkpt lat="53.063852023333311" lon="11.532513974234462">
        <ele>14.08</ele>
        <time>2024-09-13T11:10:28Z</time>
      </trkpt>
      <trkpt lat="53.063772981986403" lon="11.53244499117136">
        <ele>14.08</ele>
        <time>2024-09-13T11:10:29Z</time>
      </trkpt>
      <trkpt lat="53.063691006973386" lon="11.532414983958006">
        <ele>14.08</ele>
        <time>2024-09-13T11:10:30Z</time>
      </trkpt>
      <trkpt lat="53.063597967848182" lon="11.532397968694568">
        <ele>14.08</ele>
        <time>2024-09-13T11:10:31Z</time>
      </trkpt>
      <trkpt lat="53.063503000885248" lon="11.532381037250161">
        <ele>14.08</ele>
        <time>2024-09-13T11:10:32Z</time>
      </trkpt>
      <trkpt lat="53.063280964270234" lon="11.532340971753001">
        <ele>14.56</ele>
        <time>2024-09-13T11:10:34Z</time>
      </trkpt>
      <trkpt lat="53.063154984265566" lon="11.532278023660183">
        <ele>14.56</ele>
        <time>2024-09-13T11:10:35Z</time>
      </trkpt>
      <trkpt lat="53.063015006482601" lon="11.532205017283559">
        <ele>14.56</ele>
        <time>2024-09-13T11:10:36Z</time>
      </trkpt>
      <trkpt lat="53.062885003164411" lon="11.532075013965368">
        <ele>14.56</ele>
        <time>2024-09-13T11:10:37Z</time>
      </trkpt>
      <trkpt lat="53.062756005674601" lon="11.531934030354023">
        <ele>14.56</ele>
        <time>2024-09-13T11:10:38Z</time>
      </trkpt>
      <trkpt lat="53.062640000134706" lon="11.531767984852195">
        <ele>14.56</ele>
        <time>2024-09-13T11:10:39Z</time>
      </trkpt>
      <trkpt lat="53.062525000423193" lon="11.531604034826159">
        <ele>14.56</ele>
        <time>2024-09-13T11:10:40Z</time>
      </trkpt>
      <trkpt lat="53.062428021803498" lon="11.531410999596119">
        <ele>15.039999999999999</ele>
        <time>2024-09-13T11:10:41Z</time>
      </trkpt>
      <trkpt lat="53.062339005991817" lon="11.531200027093291">
        <ele>15.039999999999999</ele>
        <time>2024-09-13T11:10:42Z</time>
      </trkpt>
      <trkpt lat="53.062273962423205" lon="11.530975978821516">
        <ele>14.56</ele>
        <time>2024-09-13T11:10:43Z</time>
      </trkpt>
      <trkpt lat="53.062216965481639" lon="11.530741034075618">
        <ele>14.56</ele>
        <time>2024-09-13T11:10:44Z</time>
      </trkpt>
      <trkpt lat="53.062161980196834" lon="11.530500976368785">
        <ele>14.56</ele>
        <time>2024-09-13T11:10:45Z</time>
      </trkpt>
      <trkpt lat="53.062143959105015" lon="11.530238036066294">
        <ele>14.56</ele>
        <time>2024-09-13T11:10:46Z</time>
      </trkpt>
      <trkpt lat="53.062126021832228" lon="11.529971994459629">
        <ele>14.56</ele>
        <time>2024-09-13T11:10:47Z</time>
      </trkpt>
      <trkpt lat="53.061915971338749" lon="11.526490990072489">
        <ele>13.6</ele>
        <time>2024-09-13T11:11:00Z</time>
      </trkpt>
      <trkpt lat="53.061743974685669" lon="11.52350502088666">
        <ele>13.6</ele>
        <time>2024-09-13T11:11:12Z</time>
      </trkpt>
      <trkpt lat="53.061737017706037" lon="11.522842012345791">
        <ele>13.119999999999999</ele>
        <time>2024-09-13T11:11:16Z</time>
      </trkpt>
      <trkpt lat="53.061755038797855" lon="11.522748973220587">
        <ele>13.119999999999999</ele>
        <time>2024-09-13T11:11:17Z</time>
      </trkpt>
      <trkpt lat="53.061845982447267" lon="11.52266800403595">
        <ele>13.119999999999999</ele>
        <time>2024-09-13T11:11:18Z</time>
      </trkpt>
      <trkpt lat="53.061947990208864" lon="11.522576976567507">
        <ele>13.119999999999999</ele>
        <time>2024-09-13T11:11:19Z</time>
      </trkpt>
      <trkpt lat="53.062028959393501" lon="11.522541018202901">
        <ele>12.630000000000001</ele>
        <time>2024-09-13T11:11:20Z</time>
      </trkpt>
      <trkpt lat="53.063297979533672" lon="11.521976999938488">
        <ele>13.6</ele>
        <time>2024-09-13T11:11:30Z</time>
      </trkpt>
      <trkpt lat="53.06516395881772" lon="11.52116697281599">
        <ele>14.08</ele>
        <time>2024-09-13T11:11:43Z</time>
      </trkpt>
      <trkpt lat="53.066950980573893" lon="11.520533971488476">
        <ele>14.56</ele>
        <time>2024-09-13T11:11:55Z</time>
      </trkpt>
      <trkpt lat="53.068669019266963" lon="11.520082019269466">
        <ele>13.6</ele>
        <time>2024-09-13T11:12:06Z</time>
      </trkpt>
      <trkpt lat="53.070013979449868" lon="11.519727967679501">
        <ele>13.119999999999999</ele>
        <time>2024-09-13T11:12:15Z</time>
      </trkpt>
      <trkpt lat="53.070267029106617" lon="11.519659990444779">
        <ele>13.119999999999999</ele>
        <time>2024-09-13T11:12:17Z</time>
      </trkpt>
      <trkpt lat="53.07038102298975" lon="11.519583966583014">
        <ele>13.119999999999999</ele>
        <time>2024-09-13T11:12:18Z</time>
      </trkpt>
      <trkpt lat="53.070488981902599" lon="11.519508026540279">
        <ele>13.119999999999999</ele>
        <time>2024-09-13T11:12:19Z</time>
      </trkpt>
      <trkpt lat="53.070572968572378" lon="11.519355978816748">
        <ele>12.630000000000001</ele>
        <time>2024-09-13T11:12:20Z</time>
      </trkpt>
      <trkpt lat="53.070651004090905" lon="11.519217006862164">
        <ele>12.630000000000001</ele>
        <time>2024-09-13T11:12:21Z</time>
      </trkpt>
      <trkpt lat="53.070720992982388" lon="11.519090021029115">
        <ele>12.15</ele>
        <time>2024-09-13T11:12:22Z</time>
      </trkpt>
      <trkpt lat="53.070782013237476" lon="11.518980972468853">
        <ele>12.15</ele>
        <time>2024-09-13T11:12:23Z</time>
      </trkpt>
      <trkpt lat="53.070953004062176" lon="11.51867201551795">
        <ele>10.710000000000001</ele>
        <time>2024-09-13T11:12:26Z</time>
      </trkpt>
      <trkpt lat="53.071016035974026" lon="11.518559027463198">
        <ele>10.710000000000001</ele>
        <time>2024-09-13T11:12:27Z</time>
      </trkpt>
      <trkpt lat="53.071601008996367" lon="11.517391009256244">
        <ele>12.15</ele>
        <time>2024-09-13T11:12:36Z</time>
      </trkpt>
      <trkpt lat="53.071902003139257" lon="11.516726994886994">
        <ele>14.56</ele>
        <time>2024-09-13T11:12:41Z</time>
      </trkpt>
      <trkpt lat="53.072126973420382" lon="11.515397038310766">
        <ele>15.039999999999999</ele>
        <time>2024-09-13T11:12:50Z</time>
      </trkpt>
      <trkpt lat="53.072150023654103" lon="11.514980038627982">
        <ele>14.08</ele>
        <time>2024-09-13T11:12:53Z</time>
      </trkpt>
      <trkpt lat="53.072157986462116" lon="11.51484802365303">
        <ele>14.08</ele>
        <time>2024-09-13T11:12:54Z</time>
      </trkpt>
      <trkpt lat="53.072184976190329" lon="11.514713997021317">
        <ele>14.56</ele>
        <time>2024-09-13T11:12:55Z</time>
      </trkpt>
      <trkpt lat="53.072228981181979" lon="11.514617018401623">
        <ele>14.56</ele>
        <time>2024-09-13T11:12:56Z</time>
      </trkpt>
      <trkpt lat="53.072288995608687" lon="11.514532025903463">
        <ele>14.56</ele>
        <time>2024-09-13T11:12:57Z</time>
      </trkpt>
      <trkpt lat="53.07235898450017" lon="11.514462037011981">
        <ele>14.56</ele>
        <time>2024-09-13T11:12:58Z</time>
      </trkpt>
      <trkpt lat="53.072440037503839" lon="11.514393975958228">
        <ele>15.039999999999999</ele>
        <time>2024-09-13T11:12:59Z</time>
      </trkpt>
      <trkpt lat="53.072528969496489" lon="11.51433203369379">
        <ele>15.039999999999999</ele>
        <time>2024-09-13T11:13:00Z</time>
      </trkpt>
      <trkpt lat="53.073795977979898" lon="11.513447994366288">
        <ele>15.039999999999999</ele>
        <time>2024-09-13T11:13:13Z</time>
      </trkpt>
      <trkpt lat="53.074864000082016" lon="11.512663029134274">
        <ele>13.6</ele>
        <time>2024-09-13T11:13:23Z</time>
      </trkpt>
      <trkpt lat="53.075915006920695" lon="11.511549996212125">
        <ele>12.630000000000001</ele>
        <time>2024-09-13T11:13:33Z</time>
      </trkpt>
      <trkpt lat="53.076970959082246" lon="11.510236971080303">
        <ele>9.75</ele>
        <time>2024-09-13T11:13:44Z</time>
      </trkpt>
      <trkpt lat="53.078043004497886" lon="11.508915983140469">
        <ele>7.35</ele>
        <time>2024-09-13T11:13:55Z</time>
      </trkpt>
      <trkpt lat="53.078614985570312" lon="11.508306032046676">
        <ele>5.91</ele>
        <time>2024-09-13T11:14:02Z</time>
      </trkpt>
      <trkpt lat="53.078678017482162" lon="11.508288010954857">
        <ele>5.91</ele>
        <time>2024-09-13T11:14:03Z</time>
      </trkpt>
      <trkpt lat="53.07873803190887" lon="11.508270995691419">
        <ele>5.42</ele>
        <time>2024-09-13T11:14:04Z</time>
      </trkpt>
      <trkpt lat="53.078938024118543" lon="11.508213998749852">
        <ele>4.94</ele>
        <time>2024-09-13T11:14:07Z</time>
      </trkpt>
      <trkpt lat="53.079012958332896" lon="11.508194971829653">
        <ele>4.46</ele>
        <time>2024-09-13T11:14:08Z</time>
      </trkpt>
      <trkpt lat="53.079314958304167" lon="11.508157001808286">
        <ele>3.98</ele>
        <time>2024-09-13T11:14:11Z</time>
      </trkpt>
      <trkpt lat="53.079428030177951" lon="11.508157001808286">
        <ele>3.98</ele>
        <time>2024-09-13T11:14:12Z</time>
      </trkpt>
      <trkpt lat="53.080086009576917" lon="11.508179968222976">
        <ele>3.98</ele>
        <time>2024-09-13T11:14:18Z</time>
      </trkpt>
      <trkpt lat="53.080187011510134" lon="11.508135963231325">
        <ele>3.98</ele>
        <time>2024-09-13T11:14:19Z</time>
      </trkpt>
      <trkpt lat="53.080274015665054" lon="11.508035967126489">
        <ele>3.98</ele>
        <time>2024-09-13T11:14:20Z</time>
      </trkpt>
      <trkpt lat="53.080376023426652" lon="11.507917027920485">
        <ele>3.98</ele>
        <time>2024-09-13T11:14:21Z</time>
      </trkpt>
      <trkpt lat="53.080486999824643" lon="11.507789036259055">
        <ele>3.5</ele>
        <time>2024-09-13T11:14:22Z</time>
      </trkpt>
      <trkpt lat="53.0817049741745" lon="11.506354976445436">
        <ele>2.06</ele>
        <time>2024-09-13T11:14:31Z</time>
      </trkpt>
      <trkpt lat="53.083711015060544" lon="11.503964960575104">
        <ele>2.06</ele>
        <time>2024-09-13T11:14:44Z</time>
      </trkpt>
      <trkpt lat="53.083850992843509" lon="11.503763040527701">
        <ele>2.06</ele>
        <time>2024-09-13T11:14:45Z</time>
      </trkpt>
      <trkpt lat="53.083977978676558" lon="11.503537986427546">
        <ele>2.06</ele>
        <time>2024-09-13T11:14:46Z</time>
      </trkpt>
      <trkpt lat="53.084102030843496" lon="11.503283008933067">
        <ele>2.06</ele>
        <time>2024-09-13T11:14:47Z</time>
      </trkpt>
      <trkpt lat="53.084202026948333" lon="11.502997018396854">
        <ele>1.58</ele>
        <time>2024-09-13T11:14:48Z</time>
      </trkpt>
      <trkpt lat="53.084275033324957" lon="11.502695018425584">
        <ele>1.58</ele>
        <time>2024-09-13T11:14:49Z</time>
      </trkpt>
      <trkpt lat="53.084330018609762" lon="11.502379020676017">
        <ele>1.58</ele>
        <time>2024-09-13T11:14:50Z</time>
      </trkpt>
      <trkpt lat="53.084385003894567" lon="11.502061011269689">
        <ele>1.58</ele>
        <time>2024-09-13T11:14:51Z</time>
      </trkpt>
      <trkpt lat="53.085102997720242" lon="11.498107016086578">
        <ele>4.94</ele>
        <time>2024-09-13T11:15:04Z</time>
      </trkpt>
      <trkpt lat="53.085188996046782" lon="11.497838962823153">
        <ele>5.42</ele>
        <time>2024-09-13T11:15:05Z</time>
      </trkpt>
      <trkpt lat="53.086278978735209" lon="11.4944570325315">
        <ele>8.789999999999999</ele>
        <time>2024-09-13T11:15:17Z</time>
      </trkpt>
      <trkpt lat="53.087004013359547" lon="11.491774991154671">
        <ele>10.710000000000001</ele>
        <time>2024-09-13T11:15:26Z</time>
      </trkpt>
      <trkpt lat="53.088023001328111" lon="11.487168967723846">
        <ele>10.710000000000001</ele>
        <time>2024-09-13T11:15:41Z</time>
      </trkpt>
      <trkpt lat="53.088104976341128" lon="11.486893035471439">
        <ele>10.710000000000001</ele>
        <time>2024-09-13T11:15:42Z</time>
      </trkpt>
      <trkpt lat="53.088227016851306" lon="11.486661024391651">
        <ele>10.23</ele>
        <time>2024-09-13T11:15:43Z</time>
      </trkpt>
      <trkpt lat="53.088358025997877" lon="11.486414009705186">
        <ele>9.75</ele>
        <time>2024-09-13T11:15:44Z</time>
      </trkpt>
      <trkpt lat="53.088491968810558" lon="11.486160038039088">
        <ele>9.75</ele>
        <time>2024-09-13T11:15:45Z</time>
      </trkpt>
      <trkpt lat="53.089415989816189" lon="11.484480975195765">
        <ele>8.310000000000001</ele>
        <time>2024-09-13T11:15:52Z</time>
      </trkpt>
      <trkpt lat="53.089506011456251" lon="11.484185010194778">
        <ele>8.310000000000001</ele>
        <time>2024-09-13T11:15:53Z</time>
      </trkpt>
      <trkpt lat="53.089586980640888" lon="11.483880998566747">
        <ele>8.310000000000001</ele>
        <time>2024-09-13T11:15:54Z</time>
      </trkpt>
      <trkpt lat="53.089667027816176" lon="11.483580004423857">
        <ele>8.789999999999999</ele>
        <time>2024-09-13T11:15:55Z</time>
      </trkpt>
      <trkpt lat="53.089747997000813" lon="11.483278004452586">
        <ele>8.789999999999999</ele>
        <time>2024-09-13T11:15:56Z</time>
      </trkpt>
      <trkpt lat="53.090243032202125" lon="11.481218989938498">
        <ele>10.23</ele>
        <time>2024-09-13T11:16:03Z</time>
      </trkpt>
      <trkpt lat="53.090883996337652" lon="11.479180008172989">
        <ele>9.75</ele>
        <time>2024-09-13T11:16:11Z</time>
      </trkpt>
      <trkpt lat="53.090955996885896" lon="11.478963000699878">
        <ele>9.75</ele>
        <time>2024-09-13T11:16:12Z</time>
      </trkpt>
      <trkpt lat="53.091056998819113" lon="11.47879502736032">
        <ele>9.27</ele>
        <time>2024-09-13T11:16:13Z</time>
      </trkpt>
      <trkpt lat="53.091164035722613" lon="11.478664018213749">
        <ele>9.27</ele>
        <time>2024-09-13T11:16:14Z</time>
      </trkpt>
      <trkpt lat="53.091873982921243" lon="11.477904031053185">
        <ele>8.310000000000001</ele>
        <time>2024-09-13T11:16:22Z</time>
      </trkpt>
      <trkpt lat="53.092005997896194" lon="11.47776497527957">
        <ele>8.789999999999999</ele>
        <time>2024-09-13T11:16:24Z</time>
      </trkpt>
      <trkpt lat="53.092148993164301" lon="11.477616028860211">
        <ele>9.75</ele>
        <time>2024-09-13T11:16:27Z</time>
      </trkpt>
      <trkpt lat="53.092227028682828" lon="11.477645030245185">
        <ele>10.23</ele>
        <time>2024-09-13T11:16:28Z</time>
      </trkpt>
      <trkpt lat="53.092246977612376" lon="11.477718036621809">
        <ele>10.23</ele>
        <time>2024-09-13T11:16:29Z</time>
      </trkpt>
      <trkpt lat="53.092400031164289" lon="11.478297980502248">
        <ele>11.19</ele>
        <time>2024-09-13T11:16:34Z</time>
      </trkpt>
      <trkpt lat="53.092778977006674" lon="11.479792976751924">
        <ele>12.15</ele>
        <time>2024-09-13T11:16:44Z</time>
      </trkpt>
      <trkpt lat="53.092970000579953" lon="11.480550030246377">
        <ele>13.119999999999999</ele>
        <time>2024-09-13T11:16:49Z</time>
      </trkpt>
      <trkpt lat="53.09300696477294" lon="11.480694031342864">
        <ele>13.119999999999999</ele>
        <time>2024-09-13T11:16:50Z</time>
      </trkpt>
      <trkpt lat="53.093043006956577" lon="11.48083702661097">
        <ele>13.6</ele>
        <time>2024-09-13T11:16:51Z</time>
      </trkpt>
      <trkpt lat="53.093368979170918" lon="11.482090037316084">
        <ele>15.039999999999999</ele>
        <time>2024-09-13T11:16:59Z</time>
      </trkpt>
      <trkpt lat="53.09341398999095" lon="11.482259016484022">
        <ele>14.56</ele>
        <time>2024-09-13T11:17:00Z</time>
      </trkpt>
      <trkpt lat="53.093883963301778" lon="11.484005972743034">
        <ele>14.56</ele>
        <time>2024-09-13T11:17:11Z</time>
      </trkpt>
      <trkpt lat="53.094156961888075" lon="11.484819017350674">
        <ele>15.039999999999999</ele>
        <time>2024-09-13T11:17:17Z</time>
      </trkpt>
      <trkpt lat="53.094186969101429" lon="11.484904009848833">
        <ele>15.039999999999999</ele>
        <time>2024-09-13T11:17:18Z</time>
      </trkpt>
      <trkpt lat="53.094199039041996" lon="11.484939968213439">
        <ele>15.52</ele>
        <time>2024-09-13T11:17:19Z</time>
      </trkpt>
      <trkpt lat="53.094164002686739" lon="11.485082963481545">
        <ele>15.52</ele>
        <time>2024-09-13T11:17:20Z</time>
      </trkpt>
      <trkpt lat="53.094184035435319" lon="11.485124034807086">
        <ele>16</ele>
        <time>2024-09-13T11:17:21Z</time>
      </trkpt>
      <trkpt lat="53.094207001850009" lon="11.485170973464847">
        <ele>16</ele>
        <time>2024-09-13T11:17:22Z</time>
      </trkpt>
      <trkpt lat="53.094220999628305" lon="11.485197963193059">
        <ele>16</ele>
        <time>2024-09-13T11:17:23Z</time>
      </trkpt>
      <trkpt lat="53.094262992963195" lon="11.485183965414762">
        <ele>16</ele>
        <time>2024-09-13T11:17:24Z</time>
      </trkpt>
      <trkpt lat="53.094285037368536" lon="11.48517600260675">
        <ele>16</ele>
        <time>2024-09-13T11:17:25Z</time>
      </trkpt>
      <trkpt lat="53.094285037368536" lon="11.48517600260675">
        <ele>16</ele>
        <time>2024-09-13T11:17:26Z</time>
      </trkpt>
      <trkpt lat="53.09440397657454" lon="11.485100984573364">
        <ele>16</ele>
        <time>2024-09-13T11:17:27Z</time>
      </trkpt>
      <trkpt lat="53.094464996829629" lon="11.485127974301577">
        <ele>15.52</ele>
        <time>2024-09-13T11:17:28Z</time>
      </trkpt>
      <trkpt lat="53.09453004039824" lon="11.485144989565015">
        <ele>15.52</ele>
        <time>2024-09-13T11:17:29Z</time>
      </trkpt>
      <trkpt lat="53.094679992645979" lon="11.485172985121608">
        <ele>15.52</ele>
        <time>2024-09-13T11:17:31Z</time>
      </trkpt>
      <trkpt lat="53.0947669968009" lon="11.485143983736634">
        <ele>15.52</ele>
        <time>2024-09-13T11:17:32Z</time>
      </trkpt>
      <trkpt lat="53.094859030097723" lon="11.48511397652328">
        <ele>15.039999999999999</ele>
        <time>2024-09-13T11:17:33Z</time>
      </trkpt>
      <trkpt lat="53.094948967918754" lon="11.485071983188391">
        <ele>15.039999999999999</ele>
        <time>2024-09-13T11:17:34Z</time>
      </trkpt>
      <trkpt lat="53.095045024529099" lon="11.485025966539979">
        <ele>15.039999999999999</ele>
        <time>2024-09-13T11:17:35Z</time>
      </trkpt>
      <trkpt lat="53.095968039706349" lon="11.484590023756027">
        <ele>14.56</ele>
        <time>2024-09-13T11:17:44Z</time>
      </trkpt>
      <trkpt lat="53.097288021817803" lon="11.483959034085274">
        <ele>15.52</ele>
        <time>2024-09-13T11:17:56Z</time>
      </trkpt>
      <trkpt lat="53.097890010103583" lon="11.48386700078845">
        <ele>15.039999999999999</ele>
        <time>2024-09-13T11:18:01Z</time>
      </trkpt>
      <trkpt lat="53.098972029983997" lon="11.484026005491614">
        <ele>17.440000000000001</ele>
        <time>2024-09-13T11:18:10Z</time>
      </trkpt>
      <trkpt lat="53.09962498024106" lon="11.484169000759721">
        <ele>19.359999999999999</ele>
        <time>2024-09-13T11:18:17Z</time>
      </trkpt>
      <trkpt lat="53.09990200214088" lon="11.48423102684319">
        <ele>19.359999999999999</ele>
        <time>2024-09-13T11:18:21Z</time>
      </trkpt>
      <trkpt lat="53.099966961890459" lon="11.484245024621487">
        <ele>19.359999999999999</ele>
        <time>2024-09-13T11:18:22Z</time>
      </trkpt>
      <trkpt lat="53.10003099963069" lon="11.484259022399783">
        <ele>19.84</ele>
        <time>2024-09-13T11:18:23Z</time>
      </trkpt>
      <trkpt lat="53.100105011835694" lon="11.48427695967257">
        <ele>19.84</ele>
        <time>2024-09-13T11:18:24Z</time>
      </trkpt>
      <trkpt lat="53.10018002986908" lon="11.484315013512969">
        <ele>19.359999999999999</ele>
        <time>2024-09-13T11:18:25Z</time>
      </trkpt>
      <trkpt lat="53.100260999053717" lon="11.484354995191097">
        <ele>19.359999999999999</ele>
        <time>2024-09-13T11:18:26Z</time>
      </trkpt>
      <trkpt lat="53.101240005344152" lon="11.484894035384059">
        <ele>18.879999999999999</ele>
        <time>2024-09-13T11:18:35Z</time>
      </trkpt>
      <trkpt lat="53.101362967863679" lon="11.484989002346992">
        <ele>19.359999999999999</ele>
        <time>2024-09-13T11:18:36Z</time>
      </trkpt>
      <trkpt lat="53.101591039448977" lon="11.485225958749652">
        <ele>19.359999999999999</ele>
        <time>2024-09-13T11:18:38Z</time>
      </trkpt>
      <trkpt lat="53.102575996890664" lon="11.486614001914859">
        <ele>18.399999999999999</ele>
        <time>2024-09-13T11:18:46Z</time>
      </trkpt>
      <trkpt lat="53.103757007047534" lon="11.488263979554176">
        <ele>17.440000000000001</ele>
        <time>2024-09-13T11:18:55Z</time>
      </trkpt>
      <trkpt lat="53.103881981223822" lon="11.488437987864017">
        <ele>17.440000000000001</ele>
        <time>2024-09-13T11:18:56Z</time>
      </trkpt>
      <trkpt lat="53.10400796122849" lon="11.488613002002239">
        <ele>17.440000000000001</ele>
        <time>2024-09-13T11:18:57Z</time>
      </trkpt>
      <trkpt lat="53.105085035786033" lon="11.49009701795876">
        <ele>16.960000000000001</ele>
        <time>2024-09-13T11:19:05Z</time>
      </trkpt>
      <trkpt lat="53.106385990977287" lon="11.491972971707582">
        <ele>14.08</ele>
        <time>2024-09-13T11:19:14Z</time>
      </trkpt>
      <trkpt lat="53.107284028083086" lon="11.493432009592652">
        <ele>14.08</ele>
        <time>2024-09-13T11:19:20Z</time>
      </trkpt>
      <trkpt lat="53.108249036595225" lon="11.49497696198523">
        <ele>12.15</ele>
        <time>2024-09-13T11:19:27Z</time>
      </trkpt>
      <trkpt lat="53.108353978022933" lon="11.495140995830297">
        <ele>11.19</ele>
        <time>2024-09-13T11:19:28Z</time>
      </trkpt>
      <trkpt lat="53.108451040461659" lon="11.495293965563178">
        <ele>10.710000000000001</ele>
        <time>2024-09-13T11:19:29Z</time>
      </trkpt>
      <trkpt lat="53.108523041009903" lon="11.495401002466679">
        <ele>10.23</ele>
        <time>2024-09-13T11:19:30Z</time>
      </trkpt>
      <trkpt lat="53.108596969395876" lon="11.495475014671683">
        <ele>9.75</ele>
        <time>2024-09-13T11:19:31Z</time>
      </trkpt>
      <trkpt lat="53.108657989650965" lon="11.495536034926772">
        <ele>9.75</ele>
        <time>2024-09-13T11:19:32Z</time>
      </trkpt>
      <trkpt lat="53.108788998797536" lon="11.495853960514069">
        <ele>9.27</ele>
        <time>2024-09-13T11:19:33Z</time>
      </trkpt>
      <trkpt lat="53.108771983534098" lon="11.495968038216233">
        <ele>9.27</ele>
        <time>2024-09-13T11:19:34Z</time>
      </trkpt>
      <trkpt lat="53.108748011291027" lon="11.496141040697694">
        <ele>9.27</ele>
        <time>2024-09-13T11:19:35Z</time>
      </trkpt>
      <trkpt lat="53.108753962442279" lon="11.496290992945433">
        <ele>9.27</ele>
        <time>2024-09-13T11:19:36Z</time>
      </trkpt>
      <trkpt lat="53.108765026554465" lon="11.496733976528049">
        <ele>8.789999999999999</ele>
        <time>2024-09-13T11:19:38Z</time>
      </trkpt>
      <trkpt lat="53.108748011291027" lon="11.497042011469603">
        <ele>8.310000000000001</ele>
        <time>2024-09-13T11:19:39Z</time>
      </trkpt>
      <trkpt lat="53.108627982437611" lon="11.499088034033775">
        <ele>4.46</ele>
        <time>2024-09-13T11:19:46Z</time>
      </trkpt>
      <trkpt lat="53.108600992709398" lon="11.499752970412374">
        <ele>3.5</ele>
        <time>2024-09-13T11:19:48Z</time>
      </trkpt>
      <trkpt lat="53.108887989073992" lon="11.502910014241934">
        <ele>1.58</ele>
        <time>2024-09-13T11:19:57Z</time>
      </trkpt>
      <trkpt lat="53.109374977648258" lon="11.505563976243138">
        <ele>-1.3</ele>
        <time>2024-09-13T11:20:05Z</time>
      </trkpt>
      <trkpt lat="53.110211994498968" lon="11.509612016379833">
        <ele>5.42</ele>
        <time>2024-09-13T11:20:17Z</time>
      </trkpt>
      <trkpt lat="53.11096703633666" lon="11.512157013639808">
        <ele>8.789999999999999</ele>
        <time>2024-09-13T11:20:25Z</time>
      </trkpt>
      <trkpt lat="53.111863983795047" lon="11.514295991510153">
        <ele>10.23</ele>
        <time>2024-09-13T11:20:32Z</time>
      </trkpt>
      <trkpt lat="53.113586967810988" lon="11.518401028588414">
        <ele>12.15</ele>
        <time>2024-09-13T11:20:45Z</time>
      </trkpt>
      <trkpt lat="53.114631017670035" lon="11.520891040563583">
        <ele>14.08</ele>
        <time>2024-09-13T11:20:53Z</time>
      </trkpt>
      <trkpt lat="53.115401985123754" lon="11.522728018462658">
        <ele>16.960000000000001</ele>
        <time>2024-09-13T11:20:59Z</time>
      </trkpt>
      <trkpt lat="53.116568997502327" lon="11.525511983782053">
        <ele>22.25</ele>
        <time>2024-09-13T11:21:08Z</time>
      </trkpt>
      <trkpt lat="53.117450019344687" lon="11.527623971924186">
        <ele>28.98</ele>
        <time>2024-09-13T11:21:15Z</time>
      </trkpt>
      <trkpt lat="53.118345960974693" lon="11.529743000864983">
        <ele>36.189999999999998</ele>
        <time>2024-09-13T11:21:22Z</time>
      </trkpt>
      <trkpt lat="53.119749007746577" lon="11.532697034999728">
        <ele>37.630000000000003</ele>
        <time>2024-09-13T11:21:32Z</time>
      </trkpt>
      <trkpt lat="53.122043972834945" lon="11.536793019622564">
        <ele>38.590000000000003</ele>
        <time>2024-09-13T11:21:47Z</time>
      </trkpt>
      <trkpt lat="53.124204995110631" lon="11.540650958195329">
        <ele>40.030000000000001</ele>
        <time>2024-09-13T11:22:00Z</time>
      </trkpt>
      <trkpt lat="53.125478960573673" lon="11.542924968525767">
        <ele>41.950000000000003</ele>
        <time>2024-09-13T11:22:08Z</time>
      </trkpt>
      <trkpt lat="53.126289993524551" lon="11.544374031946063">
        <ele>43.880000000000003</ele>
        <time>2024-09-13T11:22:15Z</time>
      </trkpt>
      <trkpt lat="53.127380982041359" lon="11.546325003728271">
        <ele>44.840000000000003</ele>
        <time>2024-09-13T11:22:25Z</time>
      </trkpt>
      <trkpt lat="53.12850097194314" lon="11.548525001853704">
        <ele>45.799999999999997</ele>
        <time>2024-09-13T11:22:33Z</time>
      </trkpt>
      <trkpt lat="53.130191015079618" lon="11.551920007914305">
        <ele>46.759999999999998</ele>
        <time>2024-09-13T11:22:44Z</time>
      </trkpt>
      <trkpt lat="53.131129033863544" lon="11.55377802439034">
        <ele>47.719999999999999</ele>
        <time>2024-09-13T11:22:50Z</time>
      </trkpt>
      <trkpt lat="53.132312977686524" lon="11.555794961750507">
        <ele>49.159999999999997</ele>
        <time>2024-09-13T11:22:57Z</time>
      </trkpt>
      <trkpt lat="53.133477978408337" lon="11.557218041270971">
        <ele>48.68</ele>
        <time>2024-09-13T11:23:03Z</time>
      </trkpt>
      <trkpt lat="53.135174978524446" lon="11.559282001107931">
        <ele>47.719999999999999</ele>
        <time>2024-09-13T11:23:12Z</time>
      </trkpt>
      <trkpt lat="53.137026960030198" lon="11.561526004225016">
        <ele>46.759999999999998</ele>
        <time>2024-09-13T11:23:22Z</time>
      </trkpt>
      <trkpt lat="53.13889897428453" lon="11.563820969313383">
        <ele>43.880000000000003</ele>
        <time>2024-09-13T11:23:32Z</time>
      </trkpt>
      <trkpt lat="53.14042397774756" lon="11.565687032416463">
        <ele>37.149999999999999</ele>
        <time>2024-09-13T11:23:40Z</time>
      </trkpt>
      <trkpt lat="53.142115026712418" lon="11.567847970873117">
        <ele>32.82</ele>
        <time>2024-09-13T11:23:49Z</time>
      </trkpt>
      <trkpt lat="53.142457008361816" lon="11.568331019952893">
        <ele>32.82</ele>
        <time>2024-09-13T11:23:51Z</time>
      </trkpt>
      <trkpt lat="53.143696021288633" lon="11.570095997303724">
        <ele>32.82</ele>
        <time>2024-09-13T11:23:58Z</time>
      </trkpt>
      <trkpt lat="53.146039014682174" lon="11.573218004778028">
        <ele>32.340000000000003</ele>
        <time>2024-09-13T11:24:11Z</time>
      </trkpt>
      <trkpt lat="53.148299027234316" lon="11.575874984264374">
        <ele>34.740000000000002</ele>
        <time>2024-09-13T11:24:24Z</time>
      </trkpt>
      <trkpt lat="53.149509038776159" lon="11.577293034642935">
        <ele>36.670000000000002</ele>
        <time>2024-09-13T11:24:34Z</time>
      </trkpt>
      <trkpt lat="53.14972897991538" lon="11.577539965510368">
        <ele>36.670000000000002</ele>
        <time>2024-09-13T11:24:36Z</time>
      </trkpt>
      <trkpt lat="53.150429036468267" lon="11.578609999269247">
        <ele>36.670000000000002</ele>
        <time>2024-09-13T11:24:44Z</time>
      </trkpt>
      <trkpt lat="53.151009986177087" lon="11.579629993066192">
        <ele>37.630000000000003</ele>
        <time>2024-09-13T11:24:51Z</time>
      </trkpt>
      <trkpt lat="53.15127301029861" lon="11.580287972465158">
        <ele>38.590000000000003</ele>
        <time>2024-09-13T11:24:55Z</time>
      </trkpt>
      <trkpt lat="53.15168003551662" lon="11.582163004204631">
        <ele>39.07</ele>
        <time>2024-09-13T11:25:05Z</time>
      </trkpt>
      <trkpt lat="53.151978012174368" lon="11.583688007667661">
        <ele>38.590000000000003</ele>
        <time>2024-09-13T11:25:13Z</time>
      </trkpt>
      <trkpt lat="53.15206996165216" lon="11.584269041195512">
        <ele>37.630000000000003</ele>
        <time>2024-09-13T11:25:16Z</time>
      </trkpt>
      <trkpt lat="53.152099968865514" lon="11.58446098677814">
        <ele>37.630000000000003</ele>
        <time>2024-09-13T11:25:17Z</time>
      </trkpt>
      <trkpt lat="53.152333991602063" lon="11.586445989087224">
        <ele>38.109999999999999</ele>
        <time>2024-09-13T11:25:27Z</time>
      </trkpt>
      <trkpt lat="53.152447985485196" lon="11.587432958185673">
        <ele>37.149999999999999</ele>
        <time>2024-09-13T11:25:32Z</time>
      </trkpt>
      <trkpt lat="53.152471035718918" lon="11.587632028385997">
        <ele>37.149999999999999</ele>
        <time>2024-09-13T11:25:33Z</time>
      </trkpt>
      <trkpt lat="53.152559967711568" lon="11.58819898031652">
        <ele>38.109999999999999</ele>
        <time>2024-09-13T11:25:36Z</time>
      </trkpt>
      <trkpt lat="53.152604978531599" lon="11.588351028040051">
        <ele>38.109999999999999</ele>
        <time>2024-09-13T11:25:37Z</time>
      </trkpt>
      <trkpt lat="53.152730958536267" lon="11.588583961129189">
        <ele>39.07</ele>
        <time>2024-09-13T11:25:39Z</time>
      </trkpt>
      <trkpt lat="53.152783010154963" lon="11.588661996647716">
        <ele>39.07</ele>
        <time>2024-09-13T11:25:40Z</time>
      </trkpt>
      <trkpt lat="53.152869008481503" lon="11.588728968054056">
        <ele>39.07</ele>
        <time>2024-09-13T11:25:41Z</time>
      </trkpt>
      <trkpt lat="53.152924999594688" lon="11.588678006082773">
        <ele>39.549999999999997</ele>
        <time>2024-09-13T11:25:42Z</time>
      </trkpt>
      <trkpt lat="53.152998005971313" lon="11.588611034676433">
        <ele>39.549999999999997</ele>
        <time>2024-09-13T11:25:43Z</time>
      </trkpt>
      <trkpt lat="53.15307897515595" lon="11.588537022471428">
        <ele>39.549999999999997</ele>
        <time>2024-09-13T11:25:44Z</time>
      </trkpt>
      <trkpt lat="53.153897970914841" lon="11.587791033089161">
        <ele>38.590000000000003</ele>
        <time>2024-09-13T11:25:52Z</time>
      </trkpt>
      <trkpt lat="53.155059032142162" lon="11.586762992665172">
        <ele>37.149999999999999</ele>
        <time>2024-09-13T11:26:02Z</time>
      </trkpt>
      <trkpt lat="53.155377963557839" lon="11.586464010179043">
        <ele>36.189999999999998</ele>
        <time>2024-09-13T11:26:05Z</time>
      </trkpt>
      <trkpt lat="53.155676024034619" lon="11.586091015487909">
        <ele>36.189999999999998</ele>
        <time>2024-09-13T11:26:08Z</time>
      </trkpt>
      <trkpt lat="53.155782977119088" lon="11.585983978584409">
        <ele>36.189999999999998</ele>
        <time>2024-09-13T11:26:09Z</time>
      </trkpt>
      <trkpt lat="53.155890014022589" lon="11.58587702549994">
        <ele>36.670000000000002</ele>
        <time>2024-09-13T11:26:10Z</time>
      </trkpt>
      <trkpt lat="53.155996967107058" lon="11.585779963061213">
        <ele>36.670000000000002</ele>
        <time>2024-09-13T11:26:11Z</time>
      </trkpt>
      <trkpt lat="53.156125964596868" lon="11.585663035511971">
        <ele>36.670000000000002</ele>
        <time>2024-09-13T11:26:12Z</time>
      </trkpt>
      <trkpt lat="53.156238030642271" lon="11.585590029135346">
        <ele>36.670000000000002</ele>
        <time>2024-09-13T11:26:13Z</time>
      </trkpt>
      <trkpt lat="53.157951040193439" lon="11.584484037011862">
        <ele>35.710000000000001</ele>
        <time>2024-09-13T11:26:26Z</time>
      </trkpt>
      <trkpt lat="53.1591169629246" lon="11.583737963810563">
        <ele>35.710000000000001</ele>
        <time>2024-09-13T11:26:35Z</time>
      </trkpt>
      <trkpt lat="53.159637982025743" lon="11.583350971341133">
        <ele>35.229999999999997</ele>
        <time>2024-09-13T11:26:39Z</time>
      </trkpt>
      <trkpt lat="53.159746024757624" lon="11.58319003880024">
        <ele>35.229999999999997</ele>
        <time>2024-09-13T11:26:40Z</time>
      </trkpt>
      <trkpt lat="53.159959008917212" lon="11.582834981381893">
        <ele>34.740000000000002</ele>
        <time>2024-09-13T11:26:42Z</time>
      </trkpt>
      <trkpt lat="53.161063995212317" lon="11.580758029595017">
        <ele>32.340000000000003</ele>
        <time>2024-09-13T11:26:53Z</time>
      </trkpt>
      <trkpt lat="53.162325974553823" lon="11.578769003972411">
        <ele>26.09</ele>
        <time>2024-09-13T11:27:04Z</time>
      </trkpt>
      <trkpt lat="53.163491981104016" lon="11.577150961384177">
        <ele>20.809999999999999</ele>
        <time>2024-09-13T11:27:13Z</time>
      </trkpt>
      <trkpt lat="53.16425196826458" lon="11.576100960373878">
        <ele>19.84</ele>
        <time>2024-09-13T11:27:19Z</time>
      </trkpt>
      <trkpt lat="53.165392996743321" lon="11.574616022408009">
        <ele>19.359999999999999</ele>
        <time>2024-09-13T11:27:28Z</time>
      </trkpt>
      <trkpt lat="53.165525011718273" lon="11.574504962190986">
        <ele>19.84</ele>
        <time>2024-09-13T11:27:29Z</time>
      </trkpt>
      <trkpt lat="53.165676975622773" lon="11.574454000219703">
        <ele>19.84</ele>
        <time>2024-09-13T11:27:30Z</time>
      </trkpt>
      <trkpt lat="53.165831035003066" lon="11.57440303824842">
        <ele>20.32</ele>
        <time>2024-09-13T11:27:31Z</time>
      </trkpt>
      <trkpt lat="53.165987022221088" lon="11.574351992458105">
        <ele>20.809999999999999</ele>
        <time>2024-09-13T11:27:32Z</time>
      </trkpt>
      <trkpt lat="53.166149966418743" lon="11.574321985244751">
        <ele>21.289999999999999</ele>
        <time>2024-09-13T11:27:33Z</time>
      </trkpt>
      <trkpt lat="53.167850989848375" lon="11.574003975838423">
        <ele>23.690000000000001</ele>
        <time>2024-09-13T11:27:44Z</time>
      </trkpt>
      <trkpt lat="53.169595012441278" lon="11.573684038594365">
        <ele>23.690000000000001</ele>
        <time>2024-09-13T11:27:55Z</time>
      </trkpt>
      <trkpt lat="53.171251025050879" lon="11.573379021137953">
        <ele>24.170000000000002</ele>
        <time>2024-09-13T11:28:05Z</time>
      </trkpt>
      <trkpt lat="53.172743003815413" lon="11.573199983686209">
        <ele>23.690000000000001</ele>
        <time>2024-09-13T11:28:14Z</time>
      </trkpt>
      <trkpt lat="53.173784036189318" lon="11.573358988389373">
        <ele>22.73</ele>
        <time>2024-09-13T11:28:22Z</time>
      </trkpt>
      <trkpt lat="53.174723982810974" lon="11.573538025841117">
        <ele>24.649999999999999</ele>
        <time>2024-09-13T11:28:31Z</time>
      </trkpt>
      <trkpt lat="53.175094965845346" lon="11.573603991419077">
        <ele>25.609999999999999</ele>
        <time>2024-09-13T11:28:35Z</time>
      </trkpt>
      <trkpt lat="53.17518699914217" lon="11.573621006682515">
        <ele>26.09</ele>
        <time>2024-09-13T11:28:36Z</time>
      </trkpt>
      <trkpt lat="53.175276014953852" lon="11.573636010289192">
        <ele>26.57</ele>
        <time>2024-09-13T11:28:37Z</time>
      </trkpt>
      <trkpt lat="53.175369976088405" lon="11.573642967268825">
        <ele>27.050000000000001</ele>
        <time>2024-09-13T11:28:38Z</time>
      </trkpt>
      <trkpt lat="53.175467038527131" lon="11.573633998632431">
        <ele>27.530000000000001</ele>
        <time>2024-09-13T11:28:39Z</time>
      </trkpt>
      <trkpt lat="53.175566028803587" lon="11.573624024167657">
        <ele>28.02</ele>
        <time>2024-09-13T11:28:40Z</time>
      </trkpt>
      <trkpt lat="53.175668958574533" lon="11.573614971712232">
        <ele>28.5</ele>
        <time>2024-09-13T11:28:41Z</time>
      </trkpt>
      <trkpt lat="53.176310006529093" lon="11.57354598864913">
        <ele>29.460000000000001</ele>
        <time>2024-09-13T11:28:47Z</time>
      </trkpt>
      <trkpt lat="53.177601993083954" lon="11.573209036141634">
        <ele>31.379999999999999</ele>
        <time>2024-09-13T11:28:57Z</time>
      </trkpt>
      <trkpt lat="53.17924995906651" lon="11.572764962911606">
        <ele>30.899999999999999</ele>
        <time>2024-09-13T11:29:08Z</time>
      </trkpt>
      <trkpt lat="53.180576981976628" lon="11.572401020675898">
        <ele>29.940000000000001</ele>
        <time>2024-09-13T11:29:17Z</time>
      </trkpt>
      <trkpt lat="53.181834015995264" lon="11.57163399271667">
        <ele>30.420000000000002</ele>
        <time>2024-09-13T11:29:26Z</time>
      </trkpt>
      <trkpt lat="53.183450968936086" lon="11.570627996698022">
        <ele>30.899999999999999</ele>
        <time>2024-09-13T11:29:37Z</time>
      </trkpt>
      <trkpt lat="53.184349006041884" lon="11.570115024223924">
        <ele>31.379999999999999</ele>
        <time>2024-09-13T11:29:44Z</time>
      </trkpt>
      <trkpt lat="53.184452019631863" lon="11.570071019232273">
        <ele>31.379999999999999</ele>
        <time>2024-09-13T11:29:45Z</time>
      </trkpt>
      <trkpt lat="53.184547992423177" lon="11.57008602283895">
        <ele>31.379999999999999</ele>
        <time>2024-09-13T11:29:46Z</time>
      </trkpt>
      <trkpt lat="53.184648994356394" lon="11.570116030052304">
        <ele>31.859999999999999</ele>
        <time>2024-09-13T11:29:47Z</time>
      </trkpt>
      <trkpt lat="53.184740021824837" lon="11.570189036428928">
        <ele>31.859999999999999</ele>
        <time>2024-09-13T11:29:48Z</time>
      </trkpt>
      <trkpt lat="53.184832977131009" lon="11.570298001170158">
        <ele>32.340000000000003</ele>
        <time>2024-09-13T11:29:49Z</time>
      </trkpt>
      <trkpt lat="53.184933979064226" lon="11.570416018366814">
        <ele>32.82</ele>
        <time>2024-09-13T11:29:50Z</time>
      </trkpt>
      <trkpt lat="53.185045961290598" lon="11.570547027513385">
        <ele>33.299999999999997</ele>
        <time>2024-09-13T11:29:51Z</time>
      </trkpt>
      <trkpt lat="53.185876021161675" lon="11.571412039920688">
        <ele>36.189999999999998</ele>
        <time>2024-09-13T11:29:58Z</time>
      </trkpt>
      <trkpt lat="53.18751803599298" lon="11.572684999555349">
        <ele>41.469999999999999</ele>
        <time>2024-09-13T11:30:10Z</time>
      </trkpt>
      <trkpt lat="53.189268009737134" lon="11.574012022465467">
        <ele>48.200000000000003</ele>
        <time>2024-09-13T11:30:23Z</time>
      </trkpt>
      <trkpt lat="53.190164035186172" lon="11.57466396689415">
        <ele>50.609999999999999</ele>
        <time>2024-09-13T11:30:32Z</time>
      </trkpt>
      <trkpt lat="53.190253973007202" lon="11.574705960229039">
        <ele>50.609999999999999</ele>
        <time>2024-09-13T11:30:33Z</time>
      </trkpt>
      <trkpt lat="53.190348017960787" lon="11.574736973270774">
        <ele>51.090000000000003</ele>
        <time>2024-09-13T11:30:34Z</time>
      </trkpt>
      <trkpt lat="53.190449019894004" lon="11.574713001027703">
        <ele>51.090000000000003</ele>
        <time>2024-09-13T11:30:35Z</time>
      </trkpt>
      <trkpt lat="53.190552033483982" lon="11.574689028784633">
        <ele>51.57</ele>
        <time>2024-09-13T11:30:36Z</time>
      </trkpt>
      <trkpt lat="53.190651023760438" lon="11.574646029621363">
        <ele>51.57</ele>
        <time>2024-09-13T11:30:37Z</time>
      </trkpt>
      <trkpt lat="53.191421991214156" lon="11.574112018570304">
        <ele>50.130000000000003</ele>
        <time>2024-09-13T11:30:46Z</time>
      </trkpt>
      <trkpt lat="53.191833961755037" lon="11.573833990842104">
        <ele>49.649999999999999</ele>
        <time>2024-09-13T11:30:52Z</time>
      </trkpt>
      <trkpt lat="53.192231012508273" lon="11.573564009740949">
        <ele>49.649999999999999</ele>
        <time>2024-09-13T11:30:57Z</time>
      </trkpt>
      <trkpt lat="53.193098036572337" lon="11.572960009798408">
        <ele>46.280000000000001</ele>
        <time>2024-09-13T11:31:05Z</time>
      </trkpt>
      <trkpt lat="53.193464996293187" lon="11.572765968739986">
        <ele>43.880000000000003</ele>
        <time>2024-09-13T11:31:09Z</time>
      </trkpt>
      <trkpt lat="53.193561974912882" lon="11.572733027860522">
        <ele>43.399999999999999</ele>
        <time>2024-09-13T11:31:10Z</time>
      </trkpt>
      <trkpt lat="53.193660965189338" lon="11.572700003162026">
        <ele>42.920000000000002</ele>
        <time>2024-09-13T11:31:11Z</time>
      </trkpt>
      <trkpt lat="53.193760961294174" lon="11.572687011212111">
        <ele>41.950000000000003</ele>
        <time>2024-09-13T11:31:12Z</time>
      </trkpt>
      <trkpt lat="53.193864980712533" lon="11.572704026475549">
        <ele>41.469999999999999</ele>
        <time>2024-09-13T11:31:13Z</time>
      </trkpt>
      <trkpt lat="53.193977968767285" lon="11.572723975405097">
        <ele>40.509999999999998</ele>
        <time>2024-09-13T11:31:14Z</time>
      </trkpt>
      <trkpt lat="53.194068996235728" lon="11.572773009538651">
        <ele>39.549999999999997</ele>
        <time>2024-09-13T11:31:15Z</time>
      </trkpt>
      <trkpt lat="53.195228967815638" lon="11.573425959795713">
        <ele>35.229999999999997</ele>
        <time>2024-09-13T11:31:26Z</time>
      </trkpt>
      <trkpt lat="53.195744035765529" lon="11.57371798530221">
        <ele>33.780000000000001</ele>
        <time>2024-09-13T11:31:33Z</time>
      </trkpt>
      <trkpt lat="53.195848977193236" lon="11.573756961151958">
        <ele>33.299999999999997</ele>
        <time>2024-09-13T11:31:36Z</time>
      </trkpt>
      <trkpt lat="53.195860963314772" lon="11.573702981695533">
        <ele>32.82</ele>
        <time>2024-09-13T11:31:37Z</time>
      </trkpt>
      <trkpt lat="53.195882001891732" lon="11.57361296005547">
        <ele>32.82</ele>
        <time>2024-09-13T11:31:38Z</time>
      </trkpt>
      <trkpt lat="53.195906979963183" lon="11.573505001142621">
        <ele>32.340000000000003</ele>
        <time>2024-09-13T11:31:39Z</time>
      </trkpt>
      <trkpt lat="53.195935981348157" lon="11.573382960632443">
        <ele>31.859999999999999</ele>
        <time>2024-09-13T11:31:40Z</time>
      </trkpt>
      <trkpt lat="53.196245022118092" lon="11.57206398434937">
        <ele>28.5</ele>
        <time>2024-09-13T11:31:49Z</time>
      </trkpt>
      <trkpt lat="53.196647018194199" lon="11.570746013894677">
        <ele>25.609999999999999</ele>
        <time>2024-09-13T11:31:58Z</time>
      </trkpt>
      <trkpt lat="53.196751959621906" lon="11.570449965074658">
        <ele>25.129999999999999</ele>
        <time>2024-09-13T11:32:00Z</time>
      </trkpt>
      <trkpt lat="53.196911970153451" lon="11.569971023127437">
        <ele>25.129999999999999</ele>
        <time>2024-09-13T11:32:03Z</time>
      </trkpt>
      <trkpt lat="53.196956980973482" lon="11.569803971797228">
        <ele>25.129999999999999</ele>
        <time>2024-09-13T11:32:04Z</time>
      </trkpt>
      <trkpt lat="53.197376998141408" lon="11.567639010027051">
        <ele>25.129999999999999</ele>
        <time>2024-09-13T11:32:15Z</time>
      </trkpt>
      <trkpt lat="53.197830962017179" lon="11.565131982788444">
        <ele>25.609999999999999</ele>
        <time>2024-09-13T11:32:26Z</time>
      </trkpt>
      <trkpt lat="53.19796197116375" lon="11.564526977017522">
        <ele>23.690000000000001</ele>
        <time>2024-09-13T11:32:29Z</time>
      </trkpt>
      <trkpt lat="53.198015028610826" lon="11.56434902921319">
        <ele>23.210000000000001</ele>
        <time>2024-09-13T11:32:30Z</time>
      </trkpt>
      <trkpt lat="53.198092980310321" lon="11.564205028116703">
        <ele>22.73</ele>
        <time>2024-09-13T11:32:31Z</time>
      </trkpt>
      <trkpt lat="53.198184007778764" lon="11.564073013141751">
        <ele>22.73</ele>
        <time>2024-09-13T11:32:32Z</time>
      </trkpt>
      <trkpt lat="53.1982840038836" lon="11.563931023702025">
        <ele>22.25</ele>
        <time>2024-09-13T11:32:33Z</time>
      </trkpt>
      <trkpt lat="53.19839003495872" lon="11.563776964321733">
        <ele>21.77</ele>
        <time>2024-09-13T11:32:34Z</time>
      </trkpt>
      <trkpt lat="53.199742035940289" lon="11.561843007802963">
        <ele>20.809999999999999</ele>
        <time>2024-09-13T11:32:46Z</time>
      </trkpt>
      <trkpt lat="53.201349014416337" lon="11.559333968907595">
        <ele>23.210000000000001</ele>
        <time>2024-09-13T11:33:01Z</time>
      </trkpt>
      <trkpt lat="53.201584964990616" lon="11.559044038876891">
        <ele>23.690000000000001</ele>
        <time>2024-09-13T11:33:03Z</time>
      </trkpt>
      <trkpt lat="53.201708011329174" lon="11.558905988931656">
        <ele>23.690000000000001</ele>
        <time>2024-09-13T11:33:04Z</time>
      </trkpt>
      <trkpt lat="53.203485980629921" lon="11.557309990748763">
        <ele>25.609999999999999</ele>
        <time>2024-09-13T11:33:17Z</time>
      </trkpt>
      <trkpt lat="53.204863965511322" lon="11.555655989795923">
        <ele>24.649999999999999</ele>
        <time>2024-09-13T11:33:28Z</time>
      </trkpt>
      <trkpt lat="53.206283021718264" lon="11.553357001394033">
        <ele>24.649999999999999</ele>
        <time>2024-09-13T11:33:41Z</time>
      </trkpt>
      <trkpt lat="53.206350998952985" lon="11.553131025284529">
        <ele>24.649999999999999</ele>
        <time>2024-09-13T11:33:42Z</time>
      </trkpt>
      <trkpt lat="53.206420987844467" lon="11.552903959527612">
        <ele>24.649999999999999</ele>
        <time>2024-09-13T11:33:43Z</time>
      </trkpt>
      <trkpt lat="53.206475973129272" lon="11.552676977589726">
        <ele>24.170000000000002</ele>
        <time>2024-09-13T11:33:44Z</time>
      </trkpt>
      <trkpt lat="53.206530036404729" lon="11.552455024793744">
        <ele>23.690000000000001</ele>
        <time>2024-09-13T11:33:45Z</time>
      </trkpt>
      <trkpt lat="53.206881992518902" lon="11.550815021619201">
        <ele>20.32</ele>
        <time>2024-09-13T11:33:54Z</time>
      </trkpt>
      <trkpt lat="53.207058012485504" lon="11.550473039969802">
        <ele>19.359999999999999</ele>
        <time>2024-09-13T11:33:58Z</time>
      </trkpt>
      <trkpt lat="53.207135964184999" lon="11.550401961430907">
        <ele>18.879999999999999</ele>
        <time>2024-09-13T11:33:59Z</time>
      </trkpt>
      <trkpt lat="53.207234032452106" lon="11.550314035266638">
        <ele>18.879999999999999</ele>
        <time>2024-09-13T11:34:00Z</time>
      </trkpt>
      <trkpt lat="53.208077000454068" lon="11.549556981772184">
        <ele>18.399999999999999</ele>
        <time>2024-09-13T11:34:06Z</time>
      </trkpt>
      <trkpt lat="53.208598019555211" lon="11.54911600984633">
        <ele>17.920000000000002</ele>
        <time>2024-09-13T11:34:09Z</time>
      </trkpt>
      <trkpt lat="53.208784013986588" lon="11.549021964892745">
        <ele>17.920000000000002</ele>
        <time>2024-09-13T11:34:10Z</time>
      </trkpt>
      <trkpt lat="53.208976965397596" lon="11.548962034285069">
        <ele>17.920000000000002</ele>
        <time>2024-09-13T11:34:11Z</time>
      </trkpt>
      <trkpt lat="53.211035979911685" lon="11.548883998766541">
        <ele>21.77</ele>
        <time>2024-09-13T11:34:20Z</time>
      </trkpt>
      <trkpt lat="53.212317992001772" lon="11.549207959324121">
        <ele>25.129999999999999</ele>
        <time>2024-09-13T11:34:26Z</time>
      </trkpt>
      <trkpt lat="53.214678000658751" lon="11.54980399645865">
        <ele>28.02</ele>
        <time>2024-09-13T11:34:36Z</time>
      </trkpt>
      <trkpt lat="53.217167006805539" lon="11.550432974472642">
        <ele>27.530000000000001</ele>
        <time>2024-09-13T11:34:46Z</time>
      </trkpt>
      <trkpt lat="53.219988020136952" lon="11.551147028803825">
        <ele>27.530000000000001</ele>
        <time>2024-09-13T11:34:57Z</time>
      </trkpt>
      <trkpt lat="53.22292897850275" lon="11.551891006529331">
        <ele>28.02</ele>
        <time>2024-09-13T11:35:09Z</time>
      </trkpt>
      <trkpt lat="53.225282030180097" lon="11.552497018128633">
        <ele>31.379999999999999</ele>
        <time>2024-09-13T11:35:19Z</time>
      </trkpt>
      <trkpt lat="53.227893998846412" lon="11.553164971992373">
        <ele>34.259999999999998</ele>
        <time>2024-09-13T11:35:30Z</time>
      </trkpt>
      <trkpt lat="53.229564009234309" lon="11.553526986390352">
        <ele>37.149999999999999</ele>
        <time>2024-09-13T11:35:37Z</time>
      </trkpt>
      <trkpt lat="53.230666983872652" lon="11.55347803607583">
        <ele>39.07</ele>
        <time>2024-09-13T11:35:42Z</time>
      </trkpt>
      <trkpt lat="53.23087896220386" lon="11.553463032469153">
        <ele>39.549999999999997</ele>
        <time>2024-09-13T11:35:43Z</time>
      </trkpt>
      <trkpt lat="53.231098987162113" lon="11.553483987227082">
        <ele>40.030000000000001</ele>
        <time>2024-09-13T11:35:44Z</time>
      </trkpt>
      <trkpt lat="53.233245005831122" lon="11.554096033796668">
        <ele>42.439999999999998</ele>
        <time>2024-09-13T11:35:53Z</time>
      </trkpt>
      <trkpt lat="53.235178040340543" lon="11.554389987140894">
        <ele>42.920000000000002</ele>
        <time>2024-09-13T11:36:01Z</time>
      </trkpt>
      <trkpt lat="53.238403983414173" lon="11.554748984053731">
        <ele>39.07</ele>
        <time>2024-09-13T11:36:14Z</time>
      </trkpt>
      <trkpt lat="53.240379011258483" lon="11.555281989276409">
        <ele>39.549999999999997</ele>
        <time>2024-09-13T11:36:22Z</time>
      </trkpt>
      <trkpt lat="53.242104006931186" lon="11.556370966136456">
        <ele>42.920000000000002</ele>
        <time>2024-09-13T11:36:30Z</time>
      </trkpt>
      <trkpt lat="53.243837971240282" lon="11.557799996808171">
        <ele>48.68</ele>
        <time>2024-09-13T11:36:41Z</time>
      </trkpt>
      <trkpt lat="53.245471017435193" lon="11.559031968936324">
        <ele>49.159999999999997</ele>
        <time>2024-09-13T11:36:50Z</time>
      </trkpt>
      <trkpt lat="53.247331967577338" lon="11.559836966916919">
        <ele>46.759999999999998</ele>
        <time>2024-09-13T11:36:58Z</time>
      </trkpt>
      <trkpt lat="53.248671982437372" lon="11.560295037925243">
        <ele>45.32</ele>
        <time>2024-09-13T11:37:04Z</time>
      </trkpt>
      <trkpt lat="53.250007973983884" lon="11.560369972139597">
        <ele>42.920000000000002</ele>
        <time>2024-09-13T11:37:10Z</time>
      </trkpt>
      <trkpt lat="53.250455986708403" lon="11.560357986018062">
        <ele>42.439999999999998</ele>
        <time>2024-09-13T11:37:12Z</time>
      </trkpt>
      <trkpt lat="53.250675005838275" lon="11.560351029038429">
        <ele>41.950000000000003</ele>
        <time>2024-09-13T11:37:13Z</time>
      </trkpt>
      <trkpt lat="53.252750029787421" lon="11.560293026268482">
        <ele>36.189999999999998</ele>
        <time>2024-09-13T11:37:22Z</time>
      </trkpt>
      <trkpt lat="53.254505032673478" lon="11.560380030423403">
        <ele>29.940000000000001</ele>
        <time>2024-09-13T11:37:29Z</time>
      </trkpt>
      <trkpt lat="53.256691033020616" lon="11.561327017843723">
        <ele>27.530000000000001</ele>
        <time>2024-09-13T11:37:38Z</time>
      </trkpt>
      <trkpt lat="53.259082976728678" lon="11.562355980277061">
        <ele>31.859999999999999</ele>
        <time>2024-09-13T11:37:48Z</time>
      </trkpt>
      <trkpt lat="53.26106202788651" lon="11.562768034636974">
        <ele>33.780000000000001</ele>
        <time>2024-09-13T11:37:56Z</time>
      </trkpt>
      <trkpt lat="53.263135040178895" lon="11.563030974939466">
        <ele>32.340000000000003</ele>
        <time>2024-09-13T11:38:05Z</time>
      </trkpt>
      <trkpt lat="53.264870010316372" lon="11.56323398463428">
        <ele>30.420000000000002</ele>
        <time>2024-09-13T11:38:13Z</time>
      </trkpt>
      <trkpt lat="53.266773037612438" lon="11.56402800232172">
        <ele>30.420000000000002</ele>
        <time>2024-09-13T11:38:21Z</time>
      </trkpt>
      <trkpt lat="53.268166026100516" lon="11.56473602168262">
        <ele>29.460000000000001</ele>
        <time>2024-09-13T11:38:28Z</time>
      </trkpt>
      <trkpt lat="53.269193982705474" lon="11.565255029127002">
        <ele>29.460000000000001</ele>
        <time>2024-09-13T11:38:36Z</time>
      </trkpt>
      <trkpt lat="53.270017001777887" lon="11.56559600494802">
        <ele>28.98</ele>
        <time>2024-09-13T11:38:43Z</time>
      </trkpt>
      <trkpt lat="53.270136024802923" lon="11.565645039081573">
        <ele>29.460000000000001</ele>
        <time>2024-09-13T11:38:44Z</time>
      </trkpt>
      <trkpt lat="53.27055998146534" lon="11.565806977450848">
        <ele>28.98</ele>
        <time>2024-09-13T11:38:50Z</time>
      </trkpt>
      <trkpt lat="53.270643968135118" lon="11.565838996320963">
        <ele>28.5</ele>
        <time>2024-09-13T11:38:53Z</time>
      </trkpt>
      <trkpt lat="53.270707000046968" lon="11.565823992714286">
        <ele>28.02</ele>
        <time>2024-09-13T11:38:54Z</time>
      </trkpt>
      <trkpt lat="53.270757962018251" lon="11.565731037408113">
        <ele>28.02</ele>
        <time>2024-09-13T11:38:55Z</time>
      </trkpt>
      <trkpt lat="53.270816970616579" lon="11.565622994676232">
        <ele>27.530000000000001</ele>
        <time>2024-09-13T11:38:56Z</time>
      </trkpt>
      <trkpt lat="53.270884025841951" lon="11.565501037985086">
        <ele>27.530000000000001</ele>
        <time>2024-09-13T11:38:57Z</time>
      </trkpt>
      <trkpt lat="53.270959965884686" lon="11.565362988039851">
        <ele>27.050000000000001</ele>
        <time>2024-09-13T11:38:58Z</time>
      </trkpt>
      <trkpt lat="53.271043030545115" lon="11.565211024135351">
        <ele>26.57</ele>
        <time>2024-09-13T11:38:59Z</time>
      </trkpt>
      <trkpt lat="53.271812992170453" lon="11.563934041187167">
        <ele>24.649999999999999</ele>
        <time>2024-09-13T11:39:07Z</time>
      </trkpt>
      <trkpt lat="53.273068014532328" lon="11.562038976699114">
        <ele>24.649999999999999</ele>
        <time>2024-09-13T11:39:21Z</time>
      </trkpt>
      <trkpt lat="53.273970996960998" lon="11.560708014294505">
        <ele>24.649999999999999</ele>
        <time>2024-09-13T11:39:31Z</time>
      </trkpt>
      <trkpt lat="53.274371987208724" lon="11.560122035443783">
        <ele>25.609999999999999</ele>
        <time>2024-09-13T11:39:38Z</time>
      </trkpt>
      <trkpt lat="53.274403000250459" lon="11.560076018795371">
        <ele>26.09</ele>
        <time>2024-09-13T11:39:39Z</time>
      </trkpt>
      <trkpt lat="53.27442797832191" lon="11.560038970783353">
        <ele>26.09</ele>
        <time>2024-09-13T11:39:40Z</time>
      </trkpt>
      <trkpt lat="53.274447005242109" lon="11.56001198105514">
        <ele>26.57</ele>
        <time>2024-09-13T11:39:41Z</time>
      </trkpt>
      <trkpt lat="53.274447005242109" lon="11.56001198105514">
        <ele>26.57</ele>
        <time>2024-09-13T11:39:52Z</time>
      </trkpt>
      <trkpt lat="53.274469971656799" lon="11.559979040175676">
        <ele>27.050000000000001</ele>
        <time>2024-09-13T11:40:18Z</time>
      </trkpt>
      <trkpt lat="53.274567034095526" lon="11.559961019083858">
        <ele>27.050000000000001</ele>
        <time>2024-09-13T11:40:19Z</time>
      </trkpt>
      <trkpt lat="53.274639034643769" lon="11.560094961896539">
        <ele>28.5</ele>
        <time>2024-09-13T11:40:21Z</time>
      </trkpt>
      <trkpt lat="53.274683961644769" lon="11.560179032385349">
        <ele>28.98</ele>
        <time>2024-09-13T11:40:22Z</time>
      </trkpt>
      <trkpt lat="53.274720003828406" lon="11.560263019055128">
        <ele>29.940000000000001</ele>
        <time>2024-09-13T11:40:23Z</time>
      </trkpt>
      <trkpt lat="53.274747999384999" lon="11.560324961319566">
        <ele>29.940000000000001</ele>
        <time>2024-09-13T11:40:24Z</time>
      </trkpt>
      <trkpt lat="53.274765014648438" lon="11.560365026816726">
        <ele>30.420000000000002</ele>
        <time>2024-09-13T11:40:25Z</time>
      </trkpt>
      <trkpt lat="53.274765014648438" lon="11.560365026816726">
        <ele>30.899999999999999</ele>
        <time>2024-09-13T11:40:26Z</time>
      </trkpt>
      <trkpt lat="53.274765014648438" lon="11.560365026816726">
        <ele>31.379999999999999</ele>
        <time>2024-09-13T11:40:42Z</time>
      </trkpt>
      <trkpt lat="53.274833997711539" lon="11.560522019863129">
        <ele>32.82</ele>
        <time>2024-09-13T11:41:28Z</time>
      </trkpt>
      <trkpt lat="53.274867022410035" lon="11.560597037896514">
        <ele>31.859999999999999</ele>
        <time>2024-09-13T11:41:36Z</time>
      </trkpt>
      <trkpt lat="53.274851012974977" lon="11.560560995712876">
        <ele>29.940000000000001</ele>
        <time>2024-09-13T11:41:38Z</time>
      </trkpt>
      <trkpt lat="53.274817988276482" lon="11.56048396602273">
        <ele>28.98</ele>
        <time>2024-09-13T11:41:39Z</time>
      </trkpt>
      <trkpt lat="53.274773983284831" lon="11.560383969917893">
        <ele>28.02</ele>
        <time>2024-09-13T11:41:40Z</time>
      </trkpt>
      <trkpt lat="53.274680022150278" lon="11.560170985758305">
        <ele>26.57</ele>
        <time>2024-09-13T11:41:42Z</time>
      </trkpt>
      <trkpt lat="53.274637022987008" lon="11.560092028230429">
        <ele>25.609999999999999</ele>
        <time>2024-09-13T11:41:43Z</time>
      </trkpt>
      <trkpt lat="53.274601986631751" lon="11.560025978833437">
        <ele>24.649999999999999</ele>
        <time>2024-09-13T11:41:44Z</time>
      </trkpt>
      <trkpt lat="53.274592012166977" lon="11.559800002723932">
        <ele>23.690000000000001</ele>
        <time>2024-09-13T11:41:45Z</time>
      </trkpt>
      <trkpt lat="53.274636017158628" lon="11.559735964983702">
        <ele>23.210000000000001</ele>
        <time>2024-09-13T11:41:46Z</time>
      </trkpt>
      <trkpt lat="53.274691002443433" lon="11.559656001627445">
        <ele>22.73</ele>
        <time>2024-09-13T11:41:47Z</time>
      </trkpt>
      <trkpt lat="53.274752022698522" lon="11.559565979987383">
        <ele>22.25</ele>
        <time>2024-09-13T11:41:48Z</time>
      </trkpt>
      <trkpt lat="53.275540005415678" lon="11.558434003964067">
        <ele>17.440000000000001</ele>
        <time>2024-09-13T11:41:57Z</time>
      </trkpt>
      <trkpt lat="53.276773989200592" lon="11.556804981082678">
        <ele>18.879999999999999</ele>
        <time>2024-09-13T11:42:09Z</time>
      </trkpt>
      <trkpt lat="53.277988024055958" lon="11.555616008117795">
        <ele>18.879999999999999</ele>
        <time>2024-09-13T11:42:18Z</time>
      </trkpt>
      <trkpt lat="53.279444966465235" lon="11.554795000702143">
        <ele>16.48</ele>
        <time>2024-09-13T11:42:27Z</time>
      </trkpt>
      <trkpt lat="53.280534027144313" lon="11.554480008780956">
        <ele>16.48</ele>
        <time>2024-09-13T11:42:36Z</time>
      </trkpt>
      <trkpt lat="53.281802041456103" lon="11.554160993546247">
        <ele>18.399999999999999</ele>
        <time>2024-09-13T11:42:46Z</time>
      </trkpt>
      <trkpt lat="53.283320004120469" lon="11.553789004683495">
        <ele>19.84</ele>
        <time>2024-09-13T11:42:57Z</time>
      </trkpt>
      <trkpt lat="53.284635962918401" lon="11.553454985842109">
        <ele>21.289999999999999</ele>
        <time>2024-09-13T11:43:06Z</time>
      </trkpt>
      <trkpt lat="53.286095000803471" lon="11.552630038931966">
        <ele>22.25</ele>
        <time>2024-09-13T11:43:15Z</time>
      </trkpt>
      <trkpt lat="53.287313980981708" lon="11.551160020753741">
        <ele>23.690000000000001</ele>
        <time>2024-09-13T11:43:23Z</time>
      </trkpt>
      <trkpt lat="53.288518963381648" lon="11.549309967085719">
        <ele>22.73</ele>
        <time>2024-09-13T11:43:31Z</time>
      </trkpt>
      <trkpt lat="53.29004698432982" lon="11.546900002285838">
        <ele>21.289999999999999</ele>
        <time>2024-09-13T11:43:41Z</time>
      </trkpt>
      <trkpt lat="53.291539968922734" lon="11.54456296004355">
        <ele>23.210000000000001</ele>
        <time>2024-09-13T11:43:50Z</time>
      </trkpt>
      <trkpt lat="53.293686993420124" lon="11.541198967024684">
        <ele>34.740000000000002</ele>
        <time>2024-09-13T11:44:02Z</time>
      </trkpt>
      <trkpt lat="53.294826010242105" lon="11.539408005774021">
        <ele>36.670000000000002</ele>
        <time>2024-09-13T11:44:09Z</time>
      </trkpt>
      <trkpt lat="53.295703008770943" lon="11.538027003407478">
        <ele>37.630000000000003</ele>
        <time>2024-09-13T11:44:17Z</time>
      </trkpt>
      <trkpt lat="53.296801960095763" lon="11.536297984421253">
        <ele>40.030000000000001</ele>
        <time>2024-09-13T11:44:27Z</time>
      </trkpt>
      <trkpt lat="53.297469997778535" lon="11.535235997289419">
        <ele>40.509999999999998</ele>
        <time>2024-09-13T11:44:33Z</time>
      </trkpt>
      <trkpt lat="53.297578040510416" lon="11.535064000636339">
        <ele>40.030000000000001</ele>
        <time>2024-09-13T11:44:34Z</time>
      </trkpt>
      <trkpt lat="53.298399969935417" lon="11.533781988546252">
        <ele>38.590000000000003</ele>
        <time>2024-09-13T11:44:43Z</time>
      </trkpt>
      <trkpt lat="53.299420969560742" lon="11.532059004530311">
        <ele>37.630000000000003</ele>
        <time>2024-09-13T11:44:56Z</time>
      </trkpt>
      <trkpt lat="53.299826988950372" lon="11.530993999913335">
        <ele>39.07</ele>
        <time>2024-09-13T11:45:04Z</time>
      </trkpt>
      <trkpt lat="53.299925979226828" lon="11.530694011598825">
        <ele>40.509999999999998</ele>
        <time>2024-09-13T11:45:11Z</time>
      </trkpt>
      <trkpt lat="53.299986999481916" lon="11.530656041577458">
        <ele>40.509999999999998</ele>
        <time>2024-09-13T11:45:12Z</time>
      </trkpt>
      <trkpt lat="53.300128988921642" lon="11.530515979975462">
        <ele>40.509999999999998</ele>
        <time>2024-09-13T11:45:16Z</time>
      </trkpt>
      <trkpt lat="53.300128988921642" lon="11.530440039932728">
        <ele>40.990000000000002</ele>
        <time>2024-09-13T11:45:17Z</time>
      </trkpt>
      <trkpt lat="53.300128988921642" lon="11.530358986929059">
        <ele>40.990000000000002</ele>
        <time>2024-09-13T11:45:18Z</time>
      </trkpt>
      <trkpt lat="53.300128988921642" lon="11.530267959460616">
        <ele>41.469999999999999</ele>
        <time>2024-09-13T11:45:19Z</time>
      </trkpt>
      <trkpt lat="53.300128988921642" lon="11.530258990824223">
        <ele>41.469999999999999</ele>
        <time>2024-09-13T11:45:20Z</time>
      </trkpt>
      <trkpt lat="53.300077021121979" lon="11.530046006664634">
        <ele>41.469999999999999</ele>
        <time>2024-09-13T11:45:21Z</time>
      </trkpt>
      <trkpt lat="53.300093030557036" lon="11.529923966154456">
        <ele>41.469999999999999</ele>
        <time>2024-09-13T11:45:22Z</time>
      </trkpt>
      <trkpt lat="53.300109039992094" lon="11.529790023341775">
        <ele>41.469999999999999</ele>
        <time>2024-09-13T11:45:23Z</time>
      </trkpt>
      <trkpt lat="53.300253041088581" lon="11.52821397408843">
        <ele>42.920000000000002</ele>
        <time>2024-09-13T11:45:33Z</time>
      </trkpt>
      <trkpt lat="53.300138041377068" lon="11.526152025908232">
        <ele>40.990000000000002</ele>
        <time>2024-09-13T11:45:43Z</time>
      </trkpt>
      <trkpt lat="53.29980100505054" lon="11.524820979684591">
        <ele>38.590000000000003</ele>
        <time>2024-09-13T11:45:51Z</time>
      </trkpt>
      <trkpt lat="53.299747025594115" lon="11.524634985253215">
        <ele>36.189999999999998</ele>
        <time>2024-09-13T11:45:57Z</time>
      </trkpt>
      <trkpt lat="53.299721041694283" lon="11.524294009432197">
        <ele>35.710000000000001</ele>
        <time>2024-09-13T11:46:03Z</time>
      </trkpt>
      <trkpt lat="53.299721041694283" lon="11.524254027754068">
        <ele>35.710000000000001</ele>
        <time>2024-09-13T11:46:04Z</time>
      </trkpt>
      <trkpt lat="53.299721041694283" lon="11.524144979193807">
        <ele>35.229999999999997</ele>
        <time>2024-09-13T11:46:05Z</time>
      </trkpt>
      <trkpt lat="53.299721041694283" lon="11.524057975038886">
        <ele>34.740000000000002</ele>
        <time>2024-09-13T11:46:06Z</time>
      </trkpt>
      <trkpt lat="53.299846015870571" lon="11.523985974490643">
        <ele>34.259999999999998</ele>
        <time>2024-09-13T11:46:07Z</time>
      </trkpt>
      <trkpt lat="53.29995003528893" lon="11.523926965892315">
        <ele>34.259999999999998</ele>
        <time>2024-09-13T11:46:08Z</time>
      </trkpt>
      <trkpt lat="53.300063023343682" lon="11.523862006142735">
        <ele>33.780000000000001</ele>
        <time>2024-09-13T11:46:09Z</time>
      </trkpt>
      <trkpt lat="53.300171988084912" lon="11.523799980059266">
        <ele>33.299999999999997</ele>
        <time>2024-09-13T11:46:10Z</time>
      </trkpt>
      <trkpt lat="53.300281036645174" lon="11.523778019472957">
        <ele>33.299999999999997</ele>
        <time>2024-09-13T11:46:11Z</time>
      </trkpt>
      <trkpt lat="53.300397964194417" lon="11.523754969239235">
        <ele>33.299999999999997</ele>
        <time>2024-09-13T11:46:12Z</time>
      </trkpt>
      <trkpt lat="53.301447965204716" lon="11.524052023887634">
        <ele>32.82</ele>
        <time>2024-09-13T11:46:20Z</time>
      </trkpt>
      <trkpt lat="53.302786974236369" lon="11.524370033293962">
        <ele>32.82</ele>
        <time>2024-09-13T11:46:28Z</time>
      </trkpt>
      <trkpt lat="53.304136041551828" lon="11.523995026946068">
        <ele>31.859999999999999</ele>
        <time>2024-09-13T11:46:36Z</time>
      </trkpt>
      <trkpt lat="53.305056039243937" lon="11.523179970681667">
        <ele>32.82</ele>
        <time>2024-09-13T11:46:42Z</time>
      </trkpt>
      <trkpt lat="53.306164965033531" lon="11.521568968892097">
        <ele>34.259999999999998</ele>
        <time>2024-09-13T11:46:49Z</time>
      </trkpt>
      <trkpt lat="53.307525012642145" lon="11.519427979364991">
        <ele>33.780000000000001</ele>
        <time>2024-09-13T11:46:57Z</time>
      </trkpt>
      <trkpt lat="53.308727983385324" lon="11.517536016181111">
        <ele>33.299999999999997</ele>
        <time>2024-09-13T11:47:05Z</time>
      </trkpt>
      <trkpt lat="53.310078978538513" lon="11.51540600694716">
        <ele>33.780000000000001</ele>
        <time>2024-09-13T11:47:16Z</time>
      </trkpt>
      <trkpt lat="53.311452018097043" lon="11.513285972177982">
        <ele>33.299999999999997</ele>
        <time>2024-09-13T11:47:27Z</time>
      </trkpt>
      <trkpt lat="53.312826985493302" lon="11.511114975437522">
        <ele>32.82</ele>
        <time>2024-09-13T11:47:38Z</time>
      </trkpt>
      <trkpt lat="53.314043032005429" lon="11.50917699560523">
        <ele>32.340000000000003</ele>
        <time>2024-09-13T11:47:48Z</time>
      </trkpt>
      <trkpt lat="53.314745016396046" lon="11.508044013753533">
        <ele>32.82</ele>
        <time>2024-09-13T11:47:56Z</time>
      </trkpt>
      <trkpt lat="53.315899958834052" lon="11.506276018917561">
        <ele>35.229999999999997</ele>
        <time>2024-09-13T11:48:09Z</time>
      </trkpt>
      <trkpt lat="53.317136038094759" lon="11.504318006336689">
        <ele>39.07</ele>
        <time>2024-09-13T11:48:23Z</time>
      </trkpt>
      <trkpt lat="53.318281006067991" lon="11.502526039257646">
        <ele>40.990000000000002</ele>
        <time>2024-09-13T11:48:36Z</time>
      </trkpt>
      <trkpt lat="53.319758987054229" lon="11.500281030312181">
        <ele>37.630000000000003</ele>
        <time>2024-09-13T11:48:53Z</time>
      </trkpt>
      <trkpt lat="53.319817995652556" lon="11.500182962045074">
        <ele>37.630000000000003</ele>
        <time>2024-09-13T11:48:54Z</time>
      </trkpt>
      <trkpt lat="53.32006199285388" lon="11.499725980684161">
        <ele>35.229999999999997</ele>
        <time>2024-09-13T11:49:02Z</time>
      </trkpt>
      <trkpt lat="53.32006199285388" lon="11.499725980684161">
        <ele>35.229999999999997</ele>
        <time>2024-09-13T11:49:22Z</time>
      </trkpt>
      <trkpt lat="53.320132987573743" lon="11.499604023993015">
        <ele>34.740000000000002</ele>
        <time>2024-09-13T11:49:25Z</time>
      </trkpt>
      <trkpt lat="53.320607990026474" lon="11.498838001862168">
        <ele>31.859999999999999</ele>
        <time>2024-09-13T11:49:32Z</time>
      </trkpt>
      <trkpt lat="53.32147903740406" lon="11.497556995600462">
        <ele>29.460000000000001</ele>
        <time>2024-09-13T11:49:42Z</time>
      </trkpt>
      <trkpt lat="53.321585990488529" lon="11.497470997273922">
        <ele>29.460000000000001</ele>
        <time>2024-09-13T11:49:43Z</time>
      </trkpt>
      <trkpt lat="53.321677017956972" lon="11.497414000332355">
        <ele>29.460000000000001</ele>
        <time>2024-09-13T11:49:44Z</time>
      </trkpt>
      <trkpt lat="53.321767039597034" lon="11.497355997562408">
        <ele>28.98</ele>
        <time>2024-09-13T11:49:45Z</time>
      </trkpt>
      <trkpt lat="53.321853959932923" lon="11.497320961207151">
        <ele>28.98</ele>
        <time>2024-09-13T11:49:46Z</time>
      </trkpt>
      <trkpt lat="53.321943981572986" lon="11.497320961207151">
        <ele>28.98</ele>
        <time>2024-09-13T11:49:47Z</time>
      </trkpt>
      <trkpt lat="53.322742022573948" lon="11.497265975922346">
        <ele>28.98</ele>
        <time>2024-09-13T11:49:57Z</time>
      </trkpt>
      <trkpt lat="53.322802037000656" lon="11.497261030599475">
        <ele>29.460000000000001</ele>
        <time>2024-09-13T11:49:58Z</time>
      </trkpt>
      <trkpt lat="53.322835983708501" lon="11.497138990089297">
        <ele>29.460000000000001</ele>
        <time>2024-09-13T11:49:59Z</time>
      </trkpt>
      <trkpt lat="53.322823997586966" lon="11.497052991762757">
        <ele>29.460000000000001</ele>
        <time>2024-09-13T11:50:00Z</time>
      </trkpt>
      <trkpt lat="53.322809999808669" lon="11.496949978172779">
        <ele>29.940000000000001</ele>
        <time>2024-09-13T11:50:01Z</time>
      </trkpt>
      <trkpt lat="53.322794996201992" lon="11.496841013431549">
        <ele>29.940000000000001</ele>
        <time>2024-09-13T11:50:02Z</time>
      </trkpt>
      <trkpt lat="53.322778986766934" lon="11.496728025376797">
        <ele>29.940000000000001</ele>
        <time>2024-09-13T11:50:03Z</time>
      </trkpt>
      <trkpt lat="53.322584023699164" lon="11.495313998311758">
        <ele>28.98</ele>
        <time>2024-09-13T11:50:14Z</time>
      </trkpt>
      <trkpt lat="53.322473969310522" lon="11.494440017268062">
        <ele>28.02</ele>
        <time>2024-09-13T11:50:22Z</time>
      </trkpt>
      <trkpt lat="53.322456032037735" lon="11.494324011728168">
        <ele>27.530000000000001</ele>
        <time>2024-09-13T11:50:23Z</time>
      </trkpt>
      <trkpt lat="53.322437005117536" lon="11.494195014238358">
        <ele>27.530000000000001</ele>
        <time>2024-09-13T11:50:24Z</time>
      </trkpt>
      <trkpt lat="53.322415966540575" lon="11.494057970121503">
        <ele>27.530000000000001</ele>
        <time>2024-09-13T11:50:25Z</time>
      </trkpt>
      <trkpt lat="53.322394005954266" lon="11.493911035358906">
        <ele>27.530000000000001</ele>
        <time>2024-09-13T11:50:26Z</time>
      </trkpt>
      <trkpt lat="53.322086976841092" lon="11.491803992539644">
        <ele>26.09</ele>
        <time>2024-09-13T11:50:39Z</time>
      </trkpt>
      <trkpt lat="53.321939036250114" lon="11.490770000964403">
        <ele>23.690000000000001</ele>
        <time>2024-09-13T11:50:46Z</time>
      </trkpt>
      <trkpt lat="53.321925038471818" lon="11.490667993202806">
        <ele>23.210000000000001</ele>
        <time>2024-09-13T11:50:47Z</time>
      </trkpt>
      <trkpt lat="53.321786988526583" lon="11.489722011610866">
        <ele>20.809999999999999</ele>
        <time>2024-09-13T11:50:58Z</time>
      </trkpt>
      <trkpt lat="53.321730997413397" lon="11.489309035241604">
        <ele>20.809999999999999</ele>
        <time>2024-09-13T11:51:07Z</time>
      </trkpt>
      <trkpt lat="53.32160803489387" lon="11.488437987864017">
        <ele>20.32</ele>
        <time>2024-09-13T11:51:16Z</time>
      </trkpt>
      <trkpt lat="53.321572998538613" lon="11.488196002319455">
        <ele>20.32</ele>
        <time>2024-09-13T11:51:19Z</time>
      </trkpt>
      <trkpt lat="53.321412988007069" lon="11.487112976610661">
        <ele>20.809999999999999</ele>
        <time>2024-09-13T11:51:28Z</time>
      </trkpt>
      <trkpt lat="53.321178965270519" lon="11.485412959009409">
        <ele>21.289999999999999</ele>
        <time>2024-09-13T11:51:37Z</time>
      </trkpt>
      <trkpt lat="53.320861039683223" lon="11.483069965615869">
        <ele>19.359999999999999</ele>
        <time>2024-09-13T11:51:49Z</time>
      </trkpt>
      <trkpt lat="53.320524003356695" lon="11.480708029121161">
        <ele>18.399999999999999</ele>
        <time>2024-09-13T11:52:01Z</time>
      </trkpt>
      <trkpt lat="53.320210017263889" lon="11.478596962988377">
        <ele>15.039999999999999</ele>
        <time>2024-09-13T11:52:10Z</time>
      </trkpt>
      <trkpt lat="53.319712970405817" lon="11.47518795914948">
        <ele>13.119999999999999</ele>
        <time>2024-09-13T11:52:23Z</time>
      </trkpt>
      <trkpt lat="53.319236040115356" lon="11.471682982519269">
        <ele>11.67</ele>
        <time>2024-09-13T11:52:37Z</time>
      </trkpt>
      <trkpt lat="53.318881988525391" lon="11.469187019392848">
        <ele>10.23</ele>
        <time>2024-09-13T11:52:46Z</time>
      </trkpt>
      <trkpt lat="53.318506982177496" lon="11.466591982170939">
        <ele>7.83</ele>
        <time>2024-09-13T11:52:55Z</time>
      </trkpt>
      <trkpt lat="53.318056035786867" lon="11.46347600966692">
        <ele>5.42</ele>
        <time>2024-09-13T11:53:05Z</time>
      </trkpt>
      <trkpt lat="53.31756703555584" lon="11.460006991401315">
        <ele>6.39</ele>
        <time>2024-09-13T11:53:16Z</time>
      </trkpt>
      <trkpt lat="53.31711701117456" lon="11.456792028620839">
        <ele>6.87</ele>
        <time>2024-09-13T11:53:26Z</time>
      </trkpt>
      <trkpt lat="53.316690037027001" lon="11.453589973971248">
        <ele>8.310000000000001</ele>
        <time>2024-09-13T11:53:36Z</time>
      </trkpt>
      <trkpt lat="53.316665980964899" lon="11.453262995928526">
        <ele>8.310000000000001</ele>
        <time>2024-09-13T11:53:37Z</time>
      </trkpt>
      <trkpt lat="53.316656006500125" lon="11.452940963208675">
        <ele>7.83</ele>
        <time>2024-09-13T11:53:38Z</time>
      </trkpt>
      <trkpt lat="53.316682996228337" lon="11.452278038486838">
        <ele>7.35</ele>
        <time>2024-09-13T11:53:40Z</time>
      </trkpt>
      <trkpt lat="53.316702023148537" lon="11.451951982453465">
        <ele>6.87</ele>
        <time>2024-09-13T11:53:41Z</time>
      </trkpt>
      <trkpt lat="53.317180965095758" lon="11.449364991858602">
        <ele>4.46</ele>
        <time>2024-09-13T11:53:49Z</time>
      </trkpt>
      <trkpt lat="53.317408030852675" lon="11.448295963928103">
        <ele>2.54</ele>
        <time>2024-09-13T11:53:53Z</time>
      </trkpt>
      <trkpt lat="53.317455975338817" lon="11.448041992262006">
        <ele>2.06</ele>
        <time>2024-09-13T11:53:54Z</time>
      </trkpt>
      <trkpt lat="53.318009013310075" lon="11.445456007495522">
        <ele>2.06</ele>
        <time>2024-09-13T11:54:03Z</time>
      </trkpt>
      <trkpt lat="53.318076990544796" lon="11.445142021402717">
        <ele>2.06</ele>
        <time>2024-09-13T11:54:04Z</time>
      </trkpt>
      <trkpt lat="53.318145973607898" lon="11.444824011996388">
        <ele>2.06</ele>
        <time>2024-09-13T11:54:05Z</time>
      </trkpt>
      <trkpt lat="53.318215040490031" lon="11.444502985104918">
        <ele>2.06</ele>
        <time>2024-09-13T11:54:06Z</time>
      </trkpt>
      <trkpt lat="53.318283017724752" lon="11.444181958213449">
        <ele>2.06</ele>
        <time>2024-09-13T11:54:07Z</time>
      </trkpt>
      <trkpt lat="53.319136966019869" lon="11.440168032422662">
        <ele>0.14</ele>
        <time>2024-09-13T11:54:19Z</time>
      </trkpt>
      <trkpt lat="53.319679023697972" lon="11.437594033777714">
        <ele>-0.34</ele>
        <time>2024-09-13T11:54:27Z</time>
      </trkpt>
      <trkpt lat="53.320285035297275" lon="11.435104021802545">
        <ele>1.58</ele>
        <time>2024-09-13T11:54:35Z</time>
      </trkpt>
      <trkpt lat="53.321168990805745" lon="11.431515980511904">
        <ele>1.58</ele>
        <time>2024-09-13T11:54:46Z</time>
      </trkpt>
      <trkpt lat="53.321805009618402" lon="11.428781971335411">
        <ele>3.5</ele>
        <time>2024-09-13T11:54:56Z</time>
      </trkpt>
      <trkpt lat="53.321914980188012" lon="11.428161039948463">
        <ele>4.46</ele>
        <time>2024-09-13T11:54:59Z</time>
      </trkpt>
      <trkpt lat="53.321934007108212" lon="11.42804897390306">
        <ele>4.94</ele>
        <time>2024-09-13T11:55:00Z</time>
      </trkpt>
      <trkpt lat="53.322082031518221" lon="11.427958030253649">
        <ele>4.94</ele>
        <time>2024-09-13T11:55:01Z</time>
      </trkpt>
      <trkpt lat="53.322172975167632" lon="11.427964987233281">
        <ele>4.94</ele>
        <time>2024-09-13T11:55:02Z</time>
      </trkpt>
      <trkpt lat="53.322281017899513" lon="11.427970016375184">
        <ele>5.42</ele>
        <time>2024-09-13T11:55:03Z</time>
      </trkpt>
      <trkpt lat="53.322396017611027" lon="11.427970016375184">
        <ele>5.42</ele>
        <time>2024-09-13T11:55:04Z</time>
      </trkpt>
      <trkpt lat="53.322767000645399" lon="11.427970016375184">
        <ele>5.42</ele>
        <time>2024-09-13T11:55:08Z</time>
      </trkpt>
      <trkpt lat="53.322819974273443" lon="11.427970016375184">
        <ele>5.42</ele>
        <time>2024-09-13T11:55:09Z</time>
      </trkpt>
      <trkpt lat="53.322849981486797" lon="11.427970016375184">
        <ele>5.42</ele>
        <time>2024-09-13T11:55:10Z</time>
      </trkpt>
      <trkpt lat="53.32283103838563" lon="11.427970016375184">
        <ele>5.42</ele>
        <time>2024-09-13T11:55:12Z</time>
      </trkpt>
      <trkpt lat="53.322814023122191" lon="11.427970016375184">
        <ele>5.91</ele>
        <time>2024-09-13T11:55:13Z</time>
      </trkpt>
      <trkpt lat="53.322797007858753" lon="11.427970016375184">
        <ele>5.42</ele>
        <time>2024-09-13T11:55:14Z</time>
      </trkpt>
      <trkpt lat="53.322785021737218" lon="11.427970016375184">
        <ele>5.42</ele>
        <time>2024-09-13T11:55:15Z</time>
      </trkpt>
      <trkpt lat="53.322785021737218" lon="11.427970016375184">
        <ele>5.42</ele>
        <time>2024-09-13T11:55:27Z</time>
      </trkpt>
      <trkpt lat="53.322754008695483" lon="11.427884018048644">
        <ele>34.740000000000002</ele>
        <time>2024-09-13T12:03:19Z</time>
      </trkpt>
      <trkpt lat="53.322763983160257" lon="11.427935985848308">
        <ele>28.98</ele>
        <time>2024-09-13T12:03:55Z</time>
      </trkpt>
      <trkpt lat="53.322772029787302" lon="11.427912013605237">
        <ele>22.73</ele>
        <time>2024-09-13T12:04:34Z</time>
      </trkpt>
      <trkpt lat="53.322673039510846" lon="11.427970016375184">
        <ele>22.25</ele>
        <time>2024-09-13T12:04:38Z</time>
      </trkpt>
      <trkpt lat="53.322535995393991" lon="11.427970016375184">
        <ele>22.25</ele>
        <time>2024-09-13T12:04:40Z</time>
      </trkpt>
      <trkpt lat="53.322433987632394" lon="11.427970016375184">
        <ele>22.25</ele>
        <time>2024-09-13T12:04:41Z</time>
      </trkpt>
      <trkpt lat="53.32233902066946" lon="11.427970016375184">
        <ele>21.77</ele>
        <time>2024-09-13T12:04:42Z</time>
      </trkpt>
      <trkpt lat="53.322259979322553" lon="11.427970016375184">
        <ele>21.77</ele>
        <time>2024-09-13T12:04:43Z</time>
      </trkpt>
      <trkpt lat="53.322200970724225" lon="11.427968004718423">
        <ele>21.289999999999999</ele>
        <time>2024-09-13T12:04:44Z</time>
      </trkpt>
      <trkpt lat="53.322155037894845" lon="11.427963981404901">
        <ele>20.809999999999999</ele>
        <time>2024-09-13T12:04:45Z</time>
      </trkpt>
      <trkpt lat="53.322125030681491" lon="11.427961969748139">
        <ele>20.32</ele>
        <time>2024-09-13T12:04:46Z</time>
      </trkpt>
      <trkpt lat="53.321968959644437" lon="11.427745968103409">
        <ele>19.84</ele>
        <time>2024-09-13T12:04:47Z</time>
      </trkpt>
      <trkpt lat="53.321980023756623" lon="11.427630968391895">
        <ele>19.359999999999999</ele>
        <time>2024-09-13T12:04:48Z</time>
      </trkpt>
      <trkpt lat="53.321997039020061" lon="11.427456960082054">
        <ele>18.879999999999999</ele>
        <time>2024-09-13T12:04:49Z</time>
      </trkpt>
      <trkpt lat="53.322025034576654" lon="11.427268031984568">
        <ele>18.399999999999999</ele>
        <time>2024-09-13T12:04:50Z</time>
      </trkpt>
      <trkpt lat="53.322244975715876" lon="11.425238018855453">
        <ele>16</ele>
        <time>2024-09-13T12:04:58Z</time>
      </trkpt>
      <trkpt lat="53.32259701564908" lon="11.422090027481318">
        <ele>16.960000000000001</ele>
        <time>2024-09-13T12:05:09Z</time>
      </trkpt>
      <trkpt lat="53.322989959269762" lon="11.418491005897522">
        <ele>16.960000000000001</ele>
        <time>2024-09-13T12:05:19Z</time>
      </trkpt>
      <trkpt lat="53.323558000847697" lon="11.413280982524157">
        <ele>13.6</ele>
        <time>2024-09-13T12:05:32Z</time>
      </trkpt>
      <trkpt lat="53.32392998971045" lon="11.409877007827163">
        <ele>10.23</ele>
        <time>2024-09-13T12:05:40Z</time>
      </trkpt>
      <trkpt lat="53.324484033510089" lon="11.40480101108551">
        <ele>4.94</ele>
        <time>2024-09-13T12:05:52Z</time>
      </trkpt>
      <trkpt lat="53.324906984344125" lon="11.400905018672347">
        <ele>6.39</ele>
        <time>2024-09-13T12:06:01Z</time>
      </trkpt>
      <trkpt lat="53.325405037030578" lon="11.396408965811133">
        <ele>11.19</ele>
        <time>2024-09-13T12:06:12Z</time>
      </trkpt>
      <trkpt lat="53.325800998136401" lon="11.39259503223002">
        <ele>15.039999999999999</ele>
        <time>2024-09-13T12:06:22Z</time>
      </trkpt>
      <trkpt lat="53.326113978400826" lon="11.389691038057208">
        <ele>16.960000000000001</ele>
        <time>2024-09-13T12:06:30Z</time>
      </trkpt>
      <trkpt lat="53.326527960598469" lon="11.385781969875097">
        <ele>22.25</ele>
        <time>2024-09-13T12:06:43Z</time>
      </trkpt>
      <trkpt lat="53.326697023585439" lon="11.384227965027094">
        <ele>27.530000000000001</ele>
        <time>2024-09-13T12:06:50Z</time>
      </trkpt>
      <trkpt lat="53.32691503688693" lon="11.382256960496306">
        <ele>32.340000000000003</ele>
        <time>2024-09-13T12:06:59Z</time>
      </trkpt>
      <trkpt lat="53.327209996059537" lon="11.379672987386584">
        <ele>35.229999999999997</ele>
        <time>2024-09-13T12:07:09Z</time>
      </trkpt>
      <trkpt lat="53.327462961897254" lon="11.37714902870357">
        <ele>37.630000000000003</ele>
        <time>2024-09-13T12:07:16Z</time>
      </trkpt>
      <trkpt lat="53.327826987951994" lon="11.374117964878678">
        <ele>40.990000000000002</ele>
        <time>2024-09-13T12:07:24Z</time>
      </trkpt>
      <trkpt lat="53.328166035935283" lon="11.370964022353292">
        <ele>44.840000000000003</ele>
        <time>2024-09-13T12:07:34Z</time>
      </trkpt>
      <trkpt lat="53.328417995944619" lon="11.368738040328026">
        <ele>46.759999999999998</ele>
        <time>2024-09-13T12:07:42Z</time>
      </trkpt>
      <trkpt lat="53.328449008986354" lon="11.368460012599826">
        <ele>46.759999999999998</ele>
        <time>2024-09-13T12:07:43Z</time>
      </trkpt>
      <trkpt lat="53.32848203368485" lon="11.36816899292171">
        <ele>47.240000000000002</ele>
        <time>2024-09-13T12:07:44Z</time>
      </trkpt>
      <trkpt lat="53.328746985644102" lon="11.365890959277749">
        <ele>50.609999999999999</ele>
        <time>2024-09-13T12:07:51Z</time>
      </trkpt>
      <trkpt lat="53.329153005033731" lon="11.362265031784773">
        <ele>56.369999999999997</ele>
        <time>2024-09-13T12:08:01Z</time>
      </trkpt>
      <trkpt lat="53.329441007226706" lon="11.359692960977554">
        <ele>60.219999999999999</ele>
        <time>2024-09-13T12:08:08Z</time>
      </trkpt>
      <trkpt lat="53.329522982239723" lon="11.358963986858726">
        <ele>61.18</ele>
        <time>2024-09-13T12:08:10Z</time>
      </trkpt>
      <trkpt lat="53.329563969746232" lon="11.358597027137876">
        <ele>61.18</ele>
        <time>2024-09-13T12:08:11Z</time>
      </trkpt>
      <trkpt lat="53.329604035243392" lon="11.358235012739897">
        <ele>61.659999999999997</ele>
        <time>2024-09-13T12:08:12Z</time>
      </trkpt>
      <trkpt lat="53.329645022749901" lon="11.357875009998679">
        <ele>61.659999999999997</ele>
        <time>2024-09-13T12:08:13Z</time>
      </trkpt>
      <trkpt lat="53.329685004428029" lon="11.3575129956007">
        <ele>61.659999999999997</ele>
        <time>2024-09-13T12:08:14Z</time>
      </trkpt>
      <trkpt lat="53.32996697165072" lon="11.355000017210841">
        <ele>59.259999999999998</ele>
        <time>2024-09-13T12:08:21Z</time>
      </trkpt>
      <trkpt lat="53.330336026847363" lon="11.351599982008338">
        <ele>57.82</ele>
        <time>2024-09-13T12:08:31Z</time>
      </trkpt>
      <trkpt lat="53.33065202459693" lon="11.348605966195464">
        <ele>57.340000000000003</ele>
        <time>2024-09-13T12:08:42Z</time>
      </trkpt>
      <trkpt lat="53.330759983509779" lon="11.347584966570139">
        <ele>56.859999999999999</ele>
        <time>2024-09-13T12:08:49Z</time>
      </trkpt>
      <trkpt lat="53.330783033743501" lon="11.347364019602537">
        <ele>56.859999999999999</ele>
        <time>2024-09-13T12:08:51Z</time>
      </trkpt>
      <trkpt lat="53.330796025693417" lon="11.347239967435598">
        <ele>56.369999999999997</ele>
        <time>2024-09-13T12:08:52Z</time>
      </trkpt>
      <trkpt lat="53.330937009304762" lon="11.347076017409563">
        <ele>56.369999999999997</ele>
        <time>2024-09-13T12:08:53Z</time>
      </trkpt>
      <trkpt lat="53.331033987924457" lon="11.347077023237944">
        <ele>56.369999999999997</ele>
        <time>2024-09-13T12:08:54Z</time>
      </trkpt>
      <trkpt lat="53.331152005121112" lon="11.347078029066324">
        <ele>56.369999999999997</ele>
        <time>2024-09-13T12:08:55Z</time>
      </trkpt>
      <trkpt lat="53.331283014267683" lon="11.347080040723085">
        <ele>56.369999999999997</ele>
        <time>2024-09-13T12:08:56Z</time>
      </trkpt>
      <trkpt lat="53.332327986136079" lon="11.347092026844621">
        <ele>56.369999999999997</ele>
        <time>2024-09-13T12:09:02Z</time>
      </trkpt>
      <trkpt lat="53.332526972517371" lon="11.347094038501382">
        <ele>56.369999999999997</ele>
        <time>2024-09-13T12:09:03Z</time>
      </trkpt>
      <trkpt lat="53.332731993868947" lon="11.347099989652634">
        <ele>56.369999999999997</ele>
        <time>2024-09-13T12:09:04Z</time>
      </trkpt>
      <trkpt lat="53.33465002477169" lon="11.347336024045944">
        <ele>56.369999999999997</ele>
        <time>2024-09-13T12:09:13Z</time>
      </trkpt>
      <trkpt lat="53.336379965767264" lon="11.347737014293671">
        <ele>57.82</ele>
        <time>2024-09-13T12:09:22Z</time>
      </trkpt>
      <trkpt lat="53.33772199228406" lon="11.347842961549759">
        <ele>59.740000000000002</ele>
        <time>2024-09-13T12:09:30Z</time>
      </trkpt>
      <trkpt lat="53.339278008788824" lon="11.34767197072506">
        <ele>60.700000000000003</ele>
        <time>2024-09-13T12:09:38Z</time>
      </trkpt>
      <trkpt lat="53.341734996065497" lon="11.347402995452285">
        <ele>65.510000000000005</ele>
        <time>2024-09-13T12:09:49Z</time>
      </trkpt>
      <trkpt lat="53.343118010088801" lon="11.347252037376165">
        <ele>66.469999999999999</ele>
        <time>2024-09-13T12:09:56Z</time>
      </trkpt>
      <trkpt lat="53.343983022496104" lon="11.347154974937439">
        <ele>65.510000000000005</ele>
        <time>2024-09-13T12:10:03Z</time>
      </trkpt>
      <trkpt lat="53.34547801874578" lon="11.346955988556147">
        <ele>65.510000000000005</ele>
        <time>2024-09-13T12:10:16Z</time>
      </trkpt>
      <trkpt lat="53.346095010638237" lon="11.346850963309407">
        <ele>62.140000000000001</ele>
        <time>2024-09-13T12:10:23Z</time>
      </trkpt>
      <trkpt lat="53.346109008416533" lon="11.346848029643297">
        <ele>61.659999999999997</ele>
        <time>2024-09-13T12:10:24Z</time>
      </trkpt>
      <trkpt lat="53.346046982333064" lon="11.346843000501394">
        <ele>61.18</ele>
        <time>2024-09-13T12:10:25Z</time>
      </trkpt>
      <trkpt lat="53.346046982333064" lon="11.346843000501394">
        <ele>60.700000000000003</ele>
        <time>2024-09-13T12:10:26Z</time>
      </trkpt>
      <trkpt lat="53.346044970676303" lon="11.346806036308408">
        <ele>60.219999999999999</ele>
        <time>2024-09-13T12:10:27Z</time>
      </trkpt>
      <trkpt lat="53.346042959019542" lon="11.346775023266673">
        <ele>59.740000000000002</ele>
        <time>2024-09-13T12:10:28Z</time>
      </trkpt>
      <trkpt lat="53.34603700786829" lon="11.346651976928115">
        <ele>59.259999999999998</ele>
        <time>2024-09-13T12:10:30Z</time>
      </trkpt>
      <trkpt lat="53.346031978726387" lon="11.346561033278704">
        <ele>59.259999999999998</ele>
        <time>2024-09-13T12:10:31Z</time>
      </trkpt>
      <trkpt lat="53.346026027575135" lon="11.346459025517106">
        <ele>58.780000000000001</ele>
        <time>2024-09-13T12:10:32Z</time>
      </trkpt>
      <trkpt lat="53.346007000654936" lon="11.346106985583901">
        <ele>57.82</ele>
        <time>2024-09-13T12:10:35Z</time>
      </trkpt>
      <trkpt lat="53.345999959856272" lon="11.345984023064375">
        <ele>57.340000000000003</ele>
        <time>2024-09-13T12:10:36Z</time>
      </trkpt>
      <trkpt lat="53.345899963751435" lon="11.344166994094849">
        <ele>53.490000000000002</ele>
        <time>2024-09-13T12:10:50Z</time>
      </trkpt>
      <trkpt lat="53.345981016755104" lon="11.343830963596702">
        <ele>52.530000000000001</ele>
        <time>2024-09-13T12:10:55Z</time>
      </trkpt>
      <trkpt lat="53.346010018140078" lon="11.343860970810056">
        <ele>52.530000000000001</ele>
        <time>2024-09-13T12:10:56Z</time>
      </trkpt>
      <trkpt lat="53.346054023131728" lon="11.343904975801706">
        <ele>52.530000000000001</ele>
        <time>2024-09-13T12:10:57Z</time>
      </trkpt>
      <trkpt lat="53.346105990931392" lon="11.343957027420402">
        <ele>52.530000000000001</ele>
        <time>2024-09-13T12:10:58Z</time>
      </trkpt>
      <trkpt lat="53.346159970387816" lon="11.344010001048446">
        <ele>52.530000000000001</ele>
        <time>2024-09-13T12:10:59Z</time>
      </trkpt>
      <trkpt lat="53.346254015341401" lon="11.344103962182999">
        <ele>53.490000000000002</ele>
        <time>2024-09-13T12:11:01Z</time>
      </trkpt>
      <trkpt lat="53.346285028383136" lon="11.344135981053114">
        <ele>53.490000000000002</ele>
        <time>2024-09-13T12:11:02Z</time>
      </trkpt>
      <trkpt lat="53.34635803475976" lon="11.344163976609707">
        <ele>53.490000000000002</ele>
        <time>2024-09-13T12:11:03Z</time>
      </trkpt>
      <trkpt lat="53.346374966204166" lon="11.344101028516889">
        <ele>53.490000000000002</ele>
        <time>2024-09-13T12:11:04Z</time>
      </trkpt>
      <trkpt lat="53.346399022266269" lon="11.344013018533587">
        <ele>53.490000000000002</ele>
        <time>2024-09-13T12:11:05Z</time>
      </trkpt>
      <trkpt lat="53.346428023651242" lon="11.343908999115229">
        <ele>53.490000000000002</ele>
        <time>2024-09-13T12:11:06Z</time>
      </trkpt>
      <trkpt lat="53.346485020592809" lon="11.343698026612401">
        <ele>53.009999999999998</ele>
        <time>2024-09-13T12:11:08Z</time>
      </trkpt>
      <trkpt lat="53.346636984497309" lon="11.343342969194055">
        <ele>52.049999999999997</ele>
        <time>2024-09-13T12:11:12Z</time>
      </trkpt>
      <trkpt lat="53.346680989488959" lon="11.343274991959333">
        <ele>52.530000000000001</ele>
        <time>2024-09-13T12:11:13Z</time>
      </trkpt>
      <trkpt lat="53.346734968945384" lon="11.343191005289555">
        <ele>52.530000000000001</ele>
        <time>2024-09-13T12:11:14Z</time>
      </trkpt>
      <trkpt lat="53.346805041655898" lon="11.343171978369355">
        <ele>52.530000000000001</ele>
        <time>2024-09-13T12:11:15Z</time>
      </trkpt>
      <trkpt lat="53.346883999183774" lon="11.343151023611426">
        <ele>52.530000000000001</ele>
        <time>2024-09-13T12:11:16Z</time>
      </trkpt>
      <trkpt lat="53.34696396254003" lon="11.343129985034466">
        <ele>52.530000000000001</ele>
        <time>2024-09-13T12:11:17Z</time>
      </trkpt>
      <trkpt lat="53.347783964127302" lon="11.342911971732974">
        <ele>48.200000000000003</ele>
        <time>2024-09-13T12:11:29Z</time>
      </trkpt>
      <trkpt lat="53.347783964127302" lon="11.342871990054846">
        <ele>47.719999999999999</ele>
        <time>2024-09-13T12:11:32Z</time>
      </trkpt>
      <trkpt lat="53.347782036289573" lon="11.342811975628138">
        <ele>47.240000000000002</ele>
        <time>2024-09-13T12:11:33Z</time>
      </trkpt>
      <trkpt lat="53.34777801297605" lon="11.342713991180062">
        <ele>46.759999999999998</ele>
        <time>2024-09-13T12:11:34Z</time>
      </trkpt>
      <trkpt lat="53.347768038511276" lon="11.342491032555699">
        <ele>46.280000000000001</ele>
        <time>2024-09-13T12:11:36Z</time>
      </trkpt>
      <trkpt lat="53.347750017419457" lon="11.342219039797783">
        <ele>45.32</ele>
        <time>2024-09-13T12:11:38Z</time>
      </trkpt>
      <trkpt lat="53.347739959135652" lon="11.342081995680928">
        <ele>45.32</ele>
        <time>2024-09-13T12:11:39Z</time>
      </trkpt>
      <trkpt lat="53.347729984670877" lon="11.341946963220835">
        <ele>44.840000000000003</ele>
        <time>2024-09-13T12:11:40Z</time>
      </trkpt>
      <trkpt lat="53.347720010206103" lon="11.341814026236534">
        <ele>44.359999999999999</ele>
        <time>2024-09-13T12:11:41Z</time>
      </trkpt>
      <trkpt lat="53.347710035741329" lon="11.341685028746724">
        <ele>43.880000000000003</ele>
        <time>2024-09-13T12:11:42Z</time>
      </trkpt>
      <trkpt lat="53.347700983285904" lon="11.341553013771772">
        <ele>43.399999999999999</ele>
        <time>2024-09-13T12:11:43Z</time>
      </trkpt>
      <trkpt lat="53.34769100882113" lon="11.341417981311679">
        <ele>42.920000000000002</ele>
        <time>2024-09-13T12:11:44Z</time>
      </trkpt>
      <trkpt lat="53.347566034644842" lon="11.339887026697397">
        <ele>40.509999999999998</ele>
        <time>2024-09-13T12:11:54Z</time>
      </trkpt>
      <trkpt lat="53.347414992749691" lon="11.337864976376295">
        <ele>40.990000000000002</ele>
        <time>2024-09-13T12:12:04Z</time>
      </trkpt>
      <trkpt lat="53.347277026623487" lon="11.335963038727641">
        <ele>40.990000000000002</ele>
        <time>2024-09-13T12:12:11Z</time>
      </trkpt>
      <trkpt lat="53.347044009715319" lon="11.332750003784895">
        <ele>40.509999999999998</ele>
        <time>2024-09-13T12:12:20Z</time>
      </trkpt>
      <trkpt lat="53.346923980861902" lon="11.329183001071215">
        <ele>39.07</ele>
        <time>2024-09-13T12:12:29Z</time>
      </trkpt>
      <trkpt lat="53.34698399528861" lon="11.328804977238178">
        <ele>38.590000000000003</ele>
        <time>2024-09-13T12:12:30Z</time>
      </trkpt>
      <trkpt lat="53.347565028816462" lon="11.325082993134856">
        <ele>35.229999999999997</ele>
        <time>2024-09-13T12:12:40Z</time>
      </trkpt>
      <trkpt lat="53.347805002704263" lon="11.321169985458255">
        <ele>32.340000000000003</ele>
        <time>2024-09-13T12:12:50Z</time>
      </trkpt>
      <trkpt lat="53.347924025729299" lon="11.319184983149171">
        <ele>29.940000000000001</ele>
        <time>2024-09-13T12:12:55Z</time>
      </trkpt>
      <trkpt lat="53.347981022670865" lon="11.318414015695453">
        <ele>28.02</ele>
        <time>2024-09-13T12:12:57Z</time>
      </trkpt>
      <trkpt lat="53.34833700209856" lon="11.315242974087596">
        <ele>20.809999999999999</ele>
        <time>2024-09-13T12:13:05Z</time>
      </trkpt>
      <trkpt lat="53.348570019006729" lon="11.313177002593875">
        <ele>16.960000000000001</ele>
        <time>2024-09-13T12:13:11Z</time>
      </trkpt>
      <trkpt lat="53.348867995664477" lon="11.310816993936896">
        <ele>6.87</ele>
        <time>2024-09-13T12:13:20Z</time>
      </trkpt>
      <trkpt lat="53.348988024517894" lon="11.309952987357974">
        <ele>4.94</ele>
        <time>2024-09-13T12:13:23Z</time>
      </trkpt>
      <trkpt lat="53.348975032567978" lon="11.309694992378354">
        <ele>4.46</ele>
        <time>2024-09-13T12:13:24Z</time>
      </trkpt>
      <trkpt lat="53.348950976505876" lon="11.309405984356999">
        <ele>3.98</ele>
        <time>2024-09-13T12:13:25Z</time>
      </trkpt>
      <trkpt lat="53.348869001492858" lon="11.308596963062882">
        <ele>3.02</ele>
        <time>2024-09-13T12:13:28Z</time>
      </trkpt>
      <trkpt lat="53.348882999271154" lon="11.308308960869908">
        <ele>3.02</ele>
        <time>2024-09-13T12:13:29Z</time>
      </trkpt>
      <trkpt lat="53.34889599122107" lon="11.308021964505315">
        <ele>3.5</ele>
        <time>2024-09-13T12:13:30Z</time>
      </trkpt>
      <trkpt lat="53.34934500977397" lon="11.30536800250411">
        <ele>13.119999999999999</ele>
        <time>2024-09-13T12:13:40Z</time>
      </trkpt>
      <trkpt lat="53.349793022498488" lon="11.302585965022445">
        <ele>16</ele>
        <time>2024-09-13T12:13:53Z</time>
      </trkpt>
      <trkpt lat="53.350094016641378" lon="11.300721997395158">
        <ele>15.52</ele>
        <time>2024-09-13T12:14:03Z</time>
      </trkpt>
      <trkpt lat="53.35022795945406" lon="11.299947006627917">
        <ele>16.960000000000001</ele>
        <time>2024-09-13T12:14:07Z</time>
      </trkpt>
      <trkpt lat="53.35029199719429" lon="11.299769980832934">
        <ele>17.440000000000001</ele>
        <time>2024-09-13T12:14:08Z</time>
      </trkpt>
      <trkpt lat="53.350385036319494" lon="11.299628997221589">
        <ele>17.440000000000001</ele>
        <time>2024-09-13T12:14:09Z</time>
      </trkpt>
      <trkpt lat="53.35048402659595" lon="11.299530006945133">
        <ele>17.440000000000001</ele>
        <time>2024-09-13T12:14:10Z</time>
      </trkpt>
      <trkpt lat="53.350596008822322" lon="11.299447026103735">
        <ele>17.440000000000001</ele>
        <time>2024-09-13T12:14:11Z</time>
      </trkpt>
      <trkpt lat="53.350711008533835" lon="11.299371002241969">
        <ele>17.440000000000001</ele>
        <time>2024-09-13T12:14:12Z</time>
      </trkpt>
      <trkpt lat="53.351282989606261" lon="11.298994990065694">
        <ele>19.359999999999999</ele>
        <time>2024-09-13T12:14:17Z</time>
      </trkpt>
      <trkpt lat="53.351391032338142" lon="11.298923995345831">
        <ele>19.84</ele>
        <time>2024-09-13T12:14:18Z</time>
      </trkpt>
      <trkpt lat="53.35175103507936" lon="11.298788962885737">
        <ele>21.289999999999999</ele>
        <time>2024-09-13T12:14:21Z</time>
      </trkpt>
      <trkpt lat="53.351864023134112" lon="11.298745963722467">
        <ele>21.77</ele>
        <time>2024-09-13T12:14:22Z</time>
      </trkpt>
      <trkpt lat="53.351981034502387" lon="11.298757027834654">
        <ele>22.25</ele>
        <time>2024-09-13T12:14:23Z</time>
      </trkpt>
      <trkpt lat="53.352099973708391" lon="11.298798015341163">
        <ele>22.73</ele>
        <time>2024-09-13T12:14:24Z</time>
      </trkpt>
      <trkpt lat="53.352218996733427" lon="11.298840008676052">
        <ele>23.210000000000001</ele>
        <time>2024-09-13T12:14:25Z</time>
      </trkpt>
      <trkpt lat="53.352576987817883" lon="11.298905974254012">
        <ele>24.170000000000002</ele>
        <time>2024-09-13T12:14:28Z</time>
      </trkpt>
      <trkpt lat="53.352692993357778" lon="11.298917960375547">
        <ele>24.649999999999999</ele>
        <time>2024-09-13T12:14:29Z</time>
      </trkpt>
      <trkpt lat="53.352804975584149" lon="11.298882002010942">
        <ele>24.649999999999999</ele>
        <time>2024-09-13T12:14:30Z</time>
      </trkpt>
      <trkpt lat="53.352914024144411" lon="11.298807989805937">
        <ele>25.129999999999999</ele>
        <time>2024-09-13T12:14:31Z</time>
      </trkpt>
      <trkpt lat="53.353025000542402" lon="11.298731965944171">
        <ele>25.129999999999999</ele>
        <time>2024-09-13T12:14:32Z</time>
      </trkpt>
      <trkpt lat="53.353137988597155" lon="11.298656025901437">
        <ele>25.129999999999999</ele>
        <time>2024-09-13T12:14:33Z</time>
      </trkpt>
      <trkpt lat="53.35347100161016" lon="11.298411022871733">
        <ele>25.129999999999999</ele>
        <time>2024-09-13T12:14:36Z</time>
      </trkpt>
      <trkpt lat="53.353573009371758" lon="11.298326030373573">
        <ele>25.129999999999999</ele>
        <time>2024-09-13T12:14:37Z</time>
      </trkpt>
      <trkpt lat="53.354778997600079" lon="11.297370996326208">
        <ele>27.050000000000001</ele>
        <time>2024-09-13T12:14:48Z</time>
      </trkpt>
      <trkpt lat="53.355721039697528" lon="11.296807983890176">
        <ele>28.5</ele>
        <time>2024-09-13T12:14:56Z</time>
      </trkpt>
      <trkpt lat="53.357774019241333" lon="11.295810034498572">
        <ele>31.379999999999999</ele>
        <time>2024-09-13T12:15:06Z</time>
      </trkpt>
      <trkpt lat="53.359046978875995" lon="11.295190025120974">
        <ele>30.420000000000002</ele>
        <time>2024-09-13T12:15:12Z</time>
      </trkpt>
      <trkpt lat="53.359259963035583" lon="11.295086005702615">
        <ele>30.420000000000002</ele>
        <time>2024-09-13T12:15:13Z</time>
      </trkpt>
      <trkpt lat="53.360975990071893" lon="11.294290982186794">
        <ele>28.02</ele>
        <time>2024-09-13T12:15:21Z</time>
      </trkpt>
      <trkpt lat="53.362523959949613" lon="11.293944977223873">
        <ele>25.129999999999999</ele>
        <time>2024-09-13T12:15:30Z</time>
      </trkpt>
      <trkpt lat="53.363195015117526" lon="11.293815979734063">
        <ele>24.170000000000002</ele>
        <time>2024-09-13T12:15:34Z</time>
      </trkpt>
      <trkpt lat="53.363372040912509" lon="11.293812040239573">
        <ele>24.170000000000002</ele>
        <time>2024-09-13T12:15:35Z</time>
      </trkpt>
      <trkpt lat="53.363544959574938" lon="11.293853027746081">
        <ele>24.170000000000002</ele>
        <time>2024-09-13T12:15:36Z</time>
      </trkpt>
      <trkpt lat="53.36372097954154" lon="11.293903989717364">
        <ele>24.649999999999999</ele>
        <time>2024-09-13T12:15:37Z</time>
      </trkpt>
      <trkpt lat="53.363890964537859" lon="11.293971966952085">
        <ele>24.649999999999999</ele>
        <time>2024-09-13T12:15:38Z</time>
      </trkpt>
      <trkpt lat="53.365367017686367" lon="11.294502960518003">
        <ele>25.129999999999999</ele>
        <time>2024-09-13T12:15:47Z</time>
      </trkpt>
      <trkpt lat="53.365509007126093" lon="11.294458033517003">
        <ele>25.129999999999999</ele>
        <time>2024-09-13T12:15:48Z</time>
      </trkpt>
      <trkpt lat="53.365658037364483" lon="11.294349990785122">
        <ele>25.129999999999999</ele>
        <time>2024-09-13T12:15:49Z</time>
      </trkpt>
      <trkpt lat="53.365805977955461" lon="11.294243037700653">
        <ele>25.609999999999999</ele>
        <time>2024-09-13T12:15:50Z</time>
      </trkpt>
      <trkpt lat="53.365906979888678" lon="11.294073974713683">
        <ele>25.129999999999999</ele>
        <time>2024-09-13T12:15:51Z</time>
      </trkpt>
      <trkpt lat="53.366014016792178" lon="11.293859984725714">
        <ele>25.129999999999999</ele>
        <time>2024-09-13T12:15:52Z</time>
      </trkpt>
      <trkpt lat="53.36612599901855" lon="11.293637026101351">
        <ele>25.129999999999999</ele>
        <time>2024-09-13T12:15:53Z</time>
      </trkpt>
      <trkpt lat="53.367289993911982" lon="11.290981974452734">
        <ele>24.649999999999999</ele>
        <time>2024-09-13T12:16:04Z</time>
      </trkpt>
      <trkpt lat="53.368770992383361" lon="11.287658968940377">
        <ele>21.77</ele>
        <time>2024-09-13T12:16:19Z</time>
      </trkpt>
      <trkpt lat="53.370139002799988" lon="11.284545008093119">
        <ele>19.84</ele>
        <time>2024-09-13T12:16:33Z</time>
      </trkpt>
      <trkpt lat="53.371121026575565" lon="11.282308967784047">
        <ele>20.32</ele>
        <time>2024-09-13T12:16:43Z</time>
      </trkpt>
      <trkpt lat="53.372419970110059" lon="11.279268013313413">
        <ele>19.359999999999999</ele>
        <time>2024-09-13T12:16:55Z</time>
      </trkpt>
      <trkpt lat="53.3737129624933" lon="11.275788014754653">
        <ele>20.32</ele>
        <time>2024-09-13T12:17:05Z</time>
      </trkpt>
      <trkpt lat="53.375326981768012" lon="11.271901996806264">
        <ele>20.809999999999999</ele>
        <time>2024-09-13T12:17:16Z</time>
      </trkpt>
      <trkpt lat="53.376467004418373" lon="11.269609965384007">
        <ele>20.809999999999999</ele>
        <time>2024-09-13T12:17:23Z</time>
      </trkpt>
      <trkpt lat="53.376933038234711" lon="11.26811102963984">
        <ele>19.359999999999999</ele>
        <time>2024-09-13T12:17:27Z</time>
      </trkpt>
      <trkpt lat="53.377044014632702" lon="11.267727976664901">
        <ele>18.399999999999999</ele>
        <time>2024-09-13T12:17:28Z</time>
      </trkpt>
      <trkpt lat="53.377155996859074" lon="11.267342995852232">
        <ele>17.920000000000002</ele>
        <time>2024-09-13T12:17:29Z</time>
      </trkpt>
      <trkpt lat="53.377371998503804" lon="11.266598012298346">
        <ele>16.48</ele>
        <time>2024-09-13T12:17:31Z</time>
      </trkpt>
      <trkpt lat="53.378039030358195" lon="11.264298018068075">
        <ele>14.08</ele>
        <time>2024-09-13T12:17:37Z</time>
      </trkpt>
      <trkpt lat="53.378721987828612" lon="11.261940021067858">
        <ele>15.039999999999999</ele>
        <time>2024-09-13T12:17:44Z</time>
      </trkpt>
      <trkpt lat="53.379645003005862" lon="11.259104004129767">
        <ele>14.56</ele>
        <time>2024-09-13T12:17:53Z</time>
      </trkpt>
      <trkpt lat="53.379797972738743" lon="11.25885296612978">
        <ele>14.08</ele>
        <time>2024-09-13T12:17:54Z</time>
      </trkpt>
      <trkpt lat="53.379954965785146" lon="11.258597988635302">
        <ele>14.08</ele>
        <time>2024-09-13T12:17:55Z</time>
      </trkpt>
      <trkpt lat="53.380112964659929" lon="11.258338987827301">
        <ele>13.6</ele>
        <time>2024-09-13T12:17:56Z</time>
      </trkpt>
      <trkpt lat="53.380271969363093" lon="11.258080992847681">
        <ele>13.119999999999999</ele>
        <time>2024-09-13T12:17:57Z</time>
      </trkpt>
      <trkpt lat="53.380429968237877" lon="11.25782199203968">
        <ele>12.630000000000001</ele>
        <time>2024-09-13T12:17:58Z</time>
      </trkpt>
      <trkpt lat="53.381837038323283" lon="11.255559967830777">
        <ele>12.15</ele>
        <time>2024-09-13T12:18:07Z</time>
      </trkpt>
      <trkpt lat="53.382933977991343" lon="11.253865985199809">
        <ele>12.630000000000001</ele>
        <time>2024-09-13T12:18:15Z</time>
      </trkpt>
      <trkpt lat="53.383652977645397" lon="11.252722023054957">
        <ele>13.6</ele>
        <time>2024-09-13T12:18:23Z</time>
      </trkpt>
      <trkpt lat="53.383729001507163" lon="11.252590008080006">
        <ele>14.08</ele>
        <time>2024-09-13T12:18:24Z</time>
      </trkpt>
      <trkpt lat="53.383813994005322" lon="11.252446006983519">
        <ele>14.08</ele>
        <time>2024-09-13T12:18:25Z</time>
      </trkpt>
      <trkpt lat="53.383943997323513" lon="11.252024983987212">
        <ele>14.08</ele>
        <time>2024-09-13T12:18:28Z</time>
      </trkpt>
      <trkpt lat="53.384007029235363" lon="11.251823985949159">
        <ele>14.56</ele>
        <time>2024-09-13T12:18:29Z</time>
      </trkpt>
      <trkpt lat="53.384169973433018" lon="11.250061020255089">
        <ele>14.56</ele>
        <time>2024-09-13T12:18:38Z</time>
      </trkpt>
      <trkpt lat="53.384221019223332" lon="11.249271025881171">
        <ele>13.6</ele>
        <time>2024-09-13T12:18:42Z</time>
      </trkpt>
      <trkpt lat="53.384205009788275" lon="11.248469967395067">
        <ele>12.630000000000001</ele>
        <time>2024-09-13T12:18:46Z</time>
      </trkpt>
      <trkpt lat="53.38404499925673" lon="11.246469961479306">
        <ele>2.06</ele>
        <time>2024-09-13T12:18:56Z</time>
      </trkpt>
      <trkpt lat="53.383836038410664" lon="11.244279015809298">
        <ele>1.1</ele>
        <time>2024-09-13T12:19:07Z</time>
      </trkpt>
      <trkpt lat="53.383733024820685" lon="11.242864988744259">
        <ele>-0.34</ele>
        <time>2024-09-13T12:19:14Z</time>
      </trkpt>
      <trkpt lat="53.383732018992305" lon="11.242686035111547">
        <ele>0.62</ele>
        <time>2024-09-13T12:19:15Z</time>
      </trkpt>
      <trkpt lat="53.383739981800318" lon="11.242488976567984">
        <ele>1.58</ele>
        <time>2024-09-13T12:19:16Z</time>
      </trkpt>
      <trkpt lat="53.383748028427362" lon="11.242293007671833">
        <ele>2.06</ele>
        <time>2024-09-13T12:19:17Z</time>
      </trkpt>
      <trkpt lat="53.383782980963588" lon="11.24211497604847">
        <ele>3.02</ele>
        <time>2024-09-13T12:19:18Z</time>
      </trkpt>
      <trkpt lat="53.384204003959894" lon="11.240445971488953">
        <ele>5.42</ele>
        <time>2024-09-13T12:19:27Z</time>
      </trkpt>
      <trkpt lat="53.384272987022996" lon="11.24028998427093">
        <ele>5.42</ele>
        <time>2024-09-13T12:19:28Z</time>
      </trkpt>
      <trkpt lat="53.384432997554541" lon="11.240001982077956">
        <ele>4.94</ele>
        <time>2024-09-13T12:19:30Z</time>
      </trkpt>
      <trkpt lat="53.384628966450691" lon="11.239791009575129">
        <ele>4.94</ele>
        <time>2024-09-13T12:19:32Z</time>
      </trkpt>
      <trkpt lat="53.385841995477676" lon="11.238922979682684">
        <ele>7.35</ele>
        <time>2024-09-13T12:19:43Z</time>
      </trkpt>
      <trkpt lat="53.387342020869255" lon="11.23814295977354">
        <ele>9.75</ele>
        <time>2024-09-13T12:19:56Z</time>
      </trkpt>
      <trkpt lat="53.388616992160678" lon="11.237464025616646">
        <ele>11.67</ele>
        <time>2024-09-13T12:20:07Z</time>
      </trkpt>
      <trkpt lat="53.390006041154265" lon="11.236737985163927">
        <ele>12.630000000000001</ele>
        <time>2024-09-13T12:20:19Z</time>
      </trkpt>
      <trkpt lat="53.391002984717488" lon="11.235783034935594">
        <ele>13.119999999999999</ele>
        <time>2024-09-13T12:20:28Z</time>
      </trkpt>
      <trkpt lat="53.392087016254663" lon="11.234156023710966">
        <ele>12.630000000000001</ele>
        <time>2024-09-13T12:20:36Z</time>
      </trkpt>
      <trkpt lat="53.392954040318727" lon="11.232388028874993">
        <ele>13.6</ele>
        <time>2024-09-13T12:20:43Z</time>
      </trkpt>
      <trkpt lat="53.394034970551729" lon="11.23006297275424">
        <ele>12.630000000000001</ele>
        <time>2024-09-13T12:20:53Z</time>
      </trkpt>
      <trkpt lat="53.394176959991455" lon="11.229873038828373">
        <ele>12.630000000000001</ele>
        <time>2024-09-13T12:20:54Z</time>
      </trkpt>
      <trkpt lat="53.394331019371748" lon="11.229713028296828">
        <ele>13.119999999999999</ele>
        <time>2024-09-13T12:20:55Z</time>
      </trkpt>
      <trkpt lat="53.394502010196447" lon="11.229571038857102">
        <ele>13.119999999999999</ele>
        <time>2024-09-13T12:20:56Z</time>
      </trkpt>
      <trkpt lat="53.394674006849527" lon="11.229427037760615">
        <ele>13.6</ele>
        <time>2024-09-13T12:20:57Z</time>
      </trkpt>
      <trkpt lat="53.396867970004678" lon="11.227271966636181">
        <ele>14.56</ele>
        <time>2024-09-13T12:21:10Z</time>
      </trkpt>
      <trkpt lat="53.397958036512136" lon="11.225574966520071">
        <ele>16.960000000000001</ele>
        <time>2024-09-13T12:21:18Z</time>
      </trkpt>
      <trkpt lat="53.398571005091071" lon="11.224535023793578">
        <ele>19.359999999999999</ele>
        <time>2024-09-13T12:21:25Z</time>
      </trkpt>
      <trkpt lat="53.399334009736776" lon="11.223296010866761">
        <ele>20.32</ele>
        <time>2024-09-13T12:21:34Z</time>
      </trkpt>
      <trkpt lat="53.400571011006832" lon="11.22138200327754">
        <ele>21.77</ele>
        <time>2024-09-13T12:21:48Z</time>
      </trkpt>
      <trkpt lat="53.401810023933649" lon="11.219465984031558">
        <ele>22.25</ele>
        <time>2024-09-13T12:22:03Z</time>
      </trkpt>
      <trkpt lat="53.403051970526576" lon="11.217529010027647">
        <ele>25.129999999999999</ele>
        <time>2024-09-13T12:22:16Z</time>
      </trkpt>
      <trkpt lat="53.404029970988631" lon="11.216027978807688">
        <ele>24.649999999999999</ele>
        <time>2024-09-13T12:22:27Z</time>
      </trkpt>
      <trkpt lat="53.404899006709456" lon="11.214692993089557">
        <ele>22.73</ele>
        <time>2024-09-13T12:22:38Z</time>
      </trkpt>
      <trkpt lat="53.405215004459023" lon="11.214208016172051">
        <ele>22.25</ele>
        <time>2024-09-13T12:22:43Z</time>
      </trkpt>
      <trkpt lat="53.405952025204897" lon="11.213085008785129">
        <ele>22.25</ele>
        <time>2024-09-13T12:22:52Z</time>
      </trkpt>
      <trkpt lat="53.406612016260624" lon="11.212140033021569">
        <ele>23.210000000000001</ele>
        <time>2024-09-13T12:23:00Z</time>
      </trkpt>
      <trkpt lat="53.406705977395177" lon="11.212040036916733">
        <ele>23.210000000000001</ele>
        <time>2024-09-13T12:23:01Z</time>
      </trkpt>
      <trkpt lat="53.4068170376122" lon="11.211977005004883">
        <ele>22.73</ele>
        <time>2024-09-13T12:23:02Z</time>
      </trkpt>
      <trkpt lat="53.406933965161443" lon="11.211910033598542">
        <ele>23.210000000000001</ele>
        <time>2024-09-13T12:23:03Z</time>
      </trkpt>
      <trkpt lat="53.406934970989823" lon="11.211910033598542">
        <ele>23.210000000000001</ele>
        <time>2024-09-13T12:23:04Z</time>
      </trkpt>
      <trkpt lat="53.407189026474953" lon="11.211856976151466">
        <ele>23.210000000000001</ele>
        <time>2024-09-13T12:23:05Z</time>
      </trkpt>
      <trkpt lat="53.407323975116014" lon="11.211845995858312">
        <ele>23.210000000000001</ele>
        <time>2024-09-13T12:23:06Z</time>
      </trkpt>
      <trkpt lat="53.407752038910985" lon="11.211829986423254">
        <ele>23.210000000000001</ele>
        <time>2024-09-13T12:23:09Z</time>
      </trkpt>
      <trkpt lat="53.40789201669395" lon="11.211797967553139">
        <ele>23.210000000000001</ele>
        <time>2024-09-13T12:23:10Z</time>
      </trkpt>
      <trkpt lat="53.408026965335011" lon="11.211712975054979">
        <ele>23.210000000000001</ele>
        <time>2024-09-13T12:23:11Z</time>
      </trkpt>
      <trkpt lat="53.408160991966724" lon="11.21162798255682">
        <ele>23.210000000000001</ele>
        <time>2024-09-13T12:23:12Z</time>
      </trkpt>
      <trkpt lat="53.408286971971393" lon="11.21152002364397">
        <ele>23.690000000000001</ele>
        <time>2024-09-13T12:23:13Z</time>
      </trkpt>
      <trkpt lat="53.408395014703274" lon="11.211353978142142">
        <ele>23.690000000000001</ele>
        <time>2024-09-13T12:23:14Z</time>
      </trkpt>
      <trkpt lat="53.408505991101265" lon="11.211184998974204">
        <ele>23.690000000000001</ele>
        <time>2024-09-13T12:23:15Z</time>
      </trkpt>
      <trkpt lat="53.409774005413055" lon="11.209213994443417">
        <ele>22.73</ele>
        <time>2024-09-13T12:23:27Z</time>
      </trkpt>
      <trkpt lat="53.410745970904827" lon="11.207807008177042">
        <ele>16.48</ele>
        <time>2024-09-13T12:23:36Z</time>
      </trkpt>
      <trkpt lat="53.412005016580224" lon="11.206365991383791">
        <ele>16.960000000000001</ele>
        <time>2024-09-13T12:23:47Z</time>
      </trkpt>
      <trkpt lat="53.413252998143435" lon="11.205338034778833">
        <ele>16.960000000000001</ele>
        <time>2024-09-13T12:23:56Z</time>
      </trkpt>
      <trkpt lat="53.413431029766798" lon="11.205296041443944">
        <ele>16.960000000000001</ele>
        <time>2024-09-13T12:23:57Z</time>
      </trkpt>
      <trkpt lat="53.415170023217797" lon="11.205041985958815">
        <ele>18.879999999999999</ele>
        <time>2024-09-13T12:24:06Z</time>
      </trkpt>
      <trkpt lat="53.415355011820793" lon="11.205016002058983">
        <ele>18.879999999999999</ele>
        <time>2024-09-13T12:24:07Z</time>
      </trkpt>
      <trkpt lat="53.416539961472154" lon="11.204852974042296">
        <ele>17.920000000000002</ele>
        <time>2024-09-13T12:24:15Z</time>
      </trkpt>
      <trkpt lat="53.417371027171612" lon="11.204715007916093">
        <ele>17.440000000000001</ele>
        <time>2024-09-13T12:24:22Z</time>
      </trkpt>
      <trkpt lat="53.41867801733315" lon="11.204452989622951">
        <ele>18.399999999999999</ele>
        <time>2024-09-13T12:24:33Z</time>
      </trkpt>
      <trkpt lat="53.419872019439936" lon="11.204208992421627">
        <ele>17.440000000000001</ele>
        <time>2024-09-13T12:24:43Z</time>
      </trkpt>
      <trkpt lat="53.421416971832514" lon="11.203917972743511">
        <ele>16</ele>
        <time>2024-09-13T12:24:56Z</time>
      </trkpt>
      <trkpt lat="53.422358008101583" lon="11.203713035210967">
        <ele>16.48</ele>
        <time>2024-09-13T12:25:04Z</time>
      </trkpt>
      <trkpt lat="53.422477031126618" lon="11.203684033825994">
        <ele>16.960000000000001</ele>
        <time>2024-09-13T12:25:05Z</time>
      </trkpt>
      <trkpt lat="53.422477031126618" lon="11.203684033825994">
        <ele>16.960000000000001</ele>
        <time>2024-09-13T12:25:06Z</time>
      </trkpt>
      <trkpt lat="53.422702001407743" lon="11.203564004972577">
        <ele>16.960000000000001</ele>
        <time>2024-09-13T12:25:07Z</time>
      </trkpt>
      <trkpt lat="53.422938035801053" lon="11.203421009704471">
        <ele>16.960000000000001</ele>
        <time>2024-09-13T12:25:09Z</time>
      </trkpt>
      <trkpt lat="53.423158982768655" lon="11.203322019428015">
        <ele>18.399999999999999</ele>
        <time>2024-09-13T12:25:11Z</time>
      </trkpt>
      <trkpt lat="53.423243975266814" lon="11.20335697196424">
        <ele>18.879999999999999</ele>
        <time>2024-09-13T12:25:12Z</time>
      </trkpt>
      <trkpt lat="53.423315975815058" lon="11.203386979177594">
        <ele>19.359999999999999</ele>
        <time>2024-09-13T12:25:13Z</time>
      </trkpt>
      <trkpt lat="53.42338495887816" lon="11.203414974734187">
        <ele>19.84</ele>
        <time>2024-09-13T12:25:14Z</time>
      </trkpt>
      <trkpt lat="53.423453019931912" lon="11.203443976119161">
        <ele>19.84</ele>
        <time>2024-09-13T12:25:15Z</time>
      </trkpt>
      <trkpt lat="53.423488978296518" lon="11.203457973897457">
        <ele>20.32</ele>
        <time>2024-09-13T12:25:16Z</time>
      </trkpt>
      <trkpt lat="53.423639014363289" lon="11.203609015792608">
        <ele>20.32</ele>
        <time>2024-09-13T12:25:17Z</time>
      </trkpt>
      <trkpt lat="53.423748984932899" lon="11.203745976090431">
        <ele>20.32</ele>
        <time>2024-09-13T12:25:19Z</time>
      </trkpt>
      <trkpt lat="53.423894997686148" lon="11.203929036855698">
        <ele>20.32</ele>
        <time>2024-09-13T12:25:21Z</time>
      </trkpt>
      <trkpt lat="53.424764033406973" lon="11.205076016485691">
        <ele>21.77</ele>
        <time>2024-09-13T12:25:31Z</time>
      </trkpt>
      <trkpt lat="53.425844963639975" lon="11.206003976985812">
        <ele>23.210000000000001</ele>
        <time>2024-09-13T12:25:41Z</time>
      </trkpt>
      <trkpt lat="53.427084982395172" lon="11.206831019371748">
        <ele>25.129999999999999</ele>
        <time>2024-09-13T12:25:52Z</time>
      </trkpt>
      <trkpt lat="53.427205011248589" lon="11.206849040463567">
        <ele>25.129999999999999</ele>
        <time>2024-09-13T12:25:53Z</time>
      </trkpt>
      <trkpt lat="53.427324034273624" lon="11.206849040463567">
        <ele>25.129999999999999</ele>
        <time>2024-09-13T12:25:54Z</time>
      </trkpt>
      <trkpt lat="53.427439033985138" lon="11.206807969138026">
        <ele>25.129999999999999</ele>
        <time>2024-09-13T12:25:55Z</time>
      </trkpt>
      <trkpt lat="53.427543975412846" lon="11.206740997731686">
        <ele>25.609999999999999</ele>
        <time>2024-09-13T12:25:56Z</time>
      </trkpt>
      <trkpt lat="53.427655035629869" lon="11.206646030768752">
        <ele>25.129999999999999</ele>
        <time>2024-09-13T12:25:57Z</time>
      </trkpt>
      <trkpt lat="53.427764000371099" lon="11.206553997471929">
        <ele>25.129999999999999</ele>
        <time>2024-09-13T12:25:58Z</time>
      </trkpt>
      <trkpt lat="53.427861984819174" lon="11.206457018852234">
        <ele>25.129999999999999</ele>
        <time>2024-09-13T12:25:59Z</time>
      </trkpt>
      <trkpt lat="53.427947983145714" lon="11.206316035240889">
        <ele>25.129999999999999</ele>
        <time>2024-09-13T12:26:00Z</time>
      </trkpt>
      <trkpt lat="53.428027024492621" lon="11.206181002780795">
        <ele>25.129999999999999</ele>
        <time>2024-09-13T12:26:01Z</time>
      </trkpt>
      <trkpt lat="53.428100030869246" lon="11.206024009734392">
        <ele>24.649999999999999</ele>
        <time>2024-09-13T12:26:02Z</time>
      </trkpt>
      <trkpt lat="53.428162978962064" lon="11.205881014466286">
        <ele>24.649999999999999</ele>
        <time>2024-09-13T12:26:03Z</time>
      </trkpt>
      <trkpt lat="53.428206983953714" lon="11.205766014754772">
        <ele>24.649999999999999</ele>
        <time>2024-09-13T12:26:04Z</time>
      </trkpt>
      <trkpt lat="53.428234979510307" lon="11.20569602586329">
        <ele>24.649999999999999</ele>
        <time>2024-09-13T12:26:05Z</time>
      </trkpt>
      <trkpt lat="53.428250988945365" lon="11.20565302670002">
        <ele>24.649999999999999</ele>
        <time>2024-09-13T12:26:06Z</time>
      </trkpt>
      <trkpt lat="53.428250988945365" lon="11.2056540325284">
        <ele>23.690000000000001</ele>
        <time>2024-09-13T12:26:16Z</time>
      </trkpt>
      <trkpt lat="53.428399013355374" lon="11.205602986738086">
        <ele>23.690000000000001</ele>
        <time>2024-09-13T12:26:18Z</time>
      </trkpt>
      <trkpt lat="53.428438995033503" lon="11.205627964809537">
        <ele>23.690000000000001</ele>
        <time>2024-09-13T12:26:19Z</time>
      </trkpt>
      <trkpt lat="53.428832022473216" lon="11.205797027796507">
        <ele>23.690000000000001</ele>
        <time>2024-09-13T12:26:24Z</time>
      </trkpt>
      <trkpt lat="53.429957963526249" lon="11.205808008089662">
        <ele>22.73</ele>
        <time>2024-09-13T12:26:34Z</time>
      </trkpt>
      <trkpt lat="53.431259002536535" lon="11.205775989219546">
        <ele>23.690000000000001</ele>
        <time>2024-09-13T12:26:45Z</time>
      </trkpt>
      <trkpt lat="53.432284025475383" lon="11.20578202418983">
        <ele>24.649999999999999</ele>
        <time>2024-09-13T12:26:56Z</time>
      </trkpt>
      <trkpt lat="53.433496970683336" lon="11.20561002753675">
        <ele>28.02</ele>
        <time>2024-09-13T12:27:07Z</time>
      </trkpt>
      <trkpt lat="53.434589970856905" lon="11.204837970435619">
        <ele>29.460000000000001</ele>
        <time>2024-09-13T12:27:18Z</time>
      </trkpt>
      <trkpt lat="53.43535297550261" lon="11.204174961894751">
        <ele>28.98</ele>
        <time>2024-09-13T12:27:26Z</time>
      </trkpt>
      <trkpt lat="53.436134001240134" lon="11.203282959759235">
        <ele>30.420000000000002</ele>
        <time>2024-09-13T12:27:35Z</time>
      </trkpt>
      <trkpt lat="53.436707993969321" lon="11.202404033392668">
        <ele>30.899999999999999</ele>
        <time>2024-09-13T12:27:45Z</time>
      </trkpt>
      <trkpt lat="53.43687797896564" lon="11.202134974300861">
        <ele>31.379999999999999</ele>
        <time>2024-09-13T12:27:55Z</time>
      </trkpt>
      <trkpt lat="53.436923995614052" lon="11.202063979580998">
        <ele>31.379999999999999</ele>
        <time>2024-09-13T12:28:06Z</time>
      </trkpt>
      <trkpt lat="53.437013011425734" lon="11.202071020379663">
        <ele>31.379999999999999</ele>
        <time>2024-09-13T12:28:07Z</time>
      </trkpt>
      <trkpt lat="53.437051987275481" lon="11.20212902314961">
        <ele>31.379999999999999</ele>
        <time>2024-09-13T12:28:08Z</time>
      </trkpt>
      <trkpt lat="53.437051987275481" lon="11.20212902314961">
        <ele>31.379999999999999</ele>
        <time>2024-09-13T12:28:09Z</time>
      </trkpt>
      <trkpt lat="53.437185008078814" lon="11.20232499204576">
        <ele>31.379999999999999</ele>
        <time>2024-09-13T12:28:10Z</time>
      </trkpt>
      <trkpt lat="53.437272012233734" lon="11.20245398953557">
        <ele>30.899999999999999</ele>
        <time>2024-09-13T12:28:11Z</time>
      </trkpt>
      <trkpt lat="53.438139958307147" lon="11.203794004395604">
        <ele>28.5</ele>
        <time>2024-09-13T12:28:19Z</time>
      </trkpt>
      <trkpt lat="53.439247962087393" lon="11.205340968444943">
        <ele>26.09</ele>
        <time>2024-09-13T12:28:28Z</time>
      </trkpt>
      <trkpt lat="53.440749999135733" lon="11.207440970465541">
        <ele>27.050000000000001</ele>
        <time>2024-09-13T12:28:38Z</time>
      </trkpt>
      <trkpt lat="53.442381033673882" lon="11.210110019892454">
        <ele>30.899999999999999</ele>
        <time>2024-09-13T12:28:50Z</time>
      </trkpt>
      <trkpt lat="53.443242022767663" lon="11.211298992857337">
        <ele>31.379999999999999</ele>
        <time>2024-09-13T12:28:58Z</time>
      </trkpt>
      <trkpt lat="53.443999998271465" lon="11.212037019431591">
        <ele>33.299999999999997</ele>
        <time>2024-09-13T12:29:07Z</time>
      </trkpt>
      <trkpt lat="53.444303004071116" lon="11.212311023846269">
        <ele>34.740000000000002</ele>
        <time>2024-09-13T12:29:12Z</time>
      </trkpt>
      <trkpt lat="53.445047987625003" lon="11.212961040437222">
        <ele>35.710000000000001</ele>
        <time>2024-09-13T12:29:21Z</time>
      </trkpt>
      <trkpt lat="53.446142999455333" lon="11.213913979008794">
        <ele>36.189999999999998</ele>
        <time>2024-09-13T12:29:30Z</time>
      </trkpt>
      <trkpt lat="53.448066981509328" lon="11.21573000214994">
        <ele>35.229999999999997</ele>
        <time>2024-09-13T12:29:43Z</time>
      </trkpt>
      <trkpt lat="53.449951987713575" lon="11.217796979472041">
        <ele>36.189999999999998</ele>
        <time>2024-09-13T12:29:55Z</time>
      </trkpt>
      <trkpt lat="53.451286973431706" lon="11.219602022320032">
        <ele>34.259999999999998</ele>
        <time>2024-09-13T12:30:04Z</time>
      </trkpt>
      <trkpt lat="53.452451974153519" lon="11.220897026360035">
        <ele>30.899999999999999</ele>
        <time>2024-09-13T12:30:11Z</time>
      </trkpt>
      <trkpt lat="53.45264702104032" lon="11.221014959737659">
        <ele>29.940000000000001</ele>
        <time>2024-09-13T12:30:12Z</time>
      </trkpt>
      <trkpt lat="53.453035019338131" lon="11.221249988302588">
        <ele>28.98</ele>
        <time>2024-09-13T12:30:14Z</time>
      </trkpt>
      <trkpt lat="53.454316025599837" lon="11.221863040700555">
        <ele>26.57</ele>
        <time>2024-09-13T12:30:20Z</time>
      </trkpt>
      <trkpt lat="53.455695016309619" lon="11.222375007346272">
        <ele>22.73</ele>
        <time>2024-09-13T12:30:27Z</time>
      </trkpt>
      <trkpt lat="53.457430992275476" lon="11.2227569706738">
        <ele>17.920000000000002</ele>
        <time>2024-09-13T12:30:36Z</time>
      </trkpt>
      <trkpt lat="53.459122041240335" lon="11.223592981696129">
        <ele>19.84</ele>
        <time>2024-09-13T12:30:45Z</time>
      </trkpt>
      <trkpt lat="53.460971005260944" lon="11.224586991593242">
        <ele>22.73</ele>
        <time>2024-09-13T12:30:56Z</time>
      </trkpt>
      <trkpt lat="53.462020000442863" lon="11.225373968482018">
        <ele>23.690000000000001</ele>
        <time>2024-09-13T12:31:04Z</time>
      </trkpt>
      <trkpt lat="53.462275983765721" lon="11.225686026737094">
        <ele>24.170000000000002</ele>
        <time>2024-09-13T12:31:07Z</time>
      </trkpt>
      <trkpt lat="53.462328035384417" lon="11.225746041163802">
        <ele>24.170000000000002</ele>
        <time>2024-09-13T12:31:08Z</time>
      </trkpt>
      <trkpt lat="53.462432976812124" lon="11.22567999176681">
        <ele>24.170000000000002</ele>
        <time>2024-09-13T12:31:09Z</time>
      </trkpt>
      <trkpt lat="53.462577983736992" lon="11.225492991507053">
        <ele>24.170000000000002</ele>
        <time>2024-09-13T12:31:11Z</time>
      </trkpt>
      <trkpt lat="53.462577983736992" lon="11.225492991507053">
        <ele>23.690000000000001</ele>
        <time>2024-09-13T12:31:12Z</time>
      </trkpt>
      <trkpt lat="53.462799014523625" lon="11.225473964586854">
        <ele>23.690000000000001</ele>
        <time>2024-09-13T12:31:13Z</time>
      </trkpt>
      <trkpt lat="53.462894987314939" lon="11.22552702203393">
        <ele>23.210000000000001</ele>
        <time>2024-09-13T12:31:14Z</time>
      </trkpt>
      <trkpt lat="53.463011998683214" lon="11.225591981783509">
        <ele>23.210000000000001</ele>
        <time>2024-09-13T12:31:15Z</time>
      </trkpt>
      <trkpt lat="53.464275989681482" lon="11.226263958960772">
        <ele>24.649999999999999</ele>
        <time>2024-09-13T12:31:24Z</time>
      </trkpt>
      <trkpt lat="53.465469991788268" lon="11.226895032450557">
        <ele>26.57</ele>
        <time>2024-09-13T12:31:30Z</time>
      </trkpt>
      <trkpt lat="53.466307008638978" lon="11.227327035740018">
        <ele>28.98</ele>
        <time>2024-09-13T12:31:36Z</time>
      </trkpt>
      <trkpt lat="53.466584030538797" lon="11.22752602212131">
        <ele>28.5</ele>
        <time>2024-09-13T12:31:39Z</time>
      </trkpt>
      <trkpt lat="53.466667011380196" lon="11.227600034326315">
        <ele>28.98</ele>
        <time>2024-09-13T12:31:40Z</time>
      </trkpt>
      <trkpt lat="53.466748986393213" lon="11.227671029046178">
        <ele>28.98</ele>
        <time>2024-09-13T12:31:41Z</time>
      </trkpt>
      <trkpt lat="53.466821992769837" lon="11.227753004059196">
        <ele>28.98</ele>
        <time>2024-09-13T12:31:42Z</time>
      </trkpt>
      <trkpt lat="53.466873960569501" lon="11.227886024862528">
        <ele>28.5</ele>
        <time>2024-09-13T12:31:43Z</time>
      </trkpt>
      <trkpt lat="53.466926012188196" lon="11.22802097350359">
        <ele>28.5</ele>
        <time>2024-09-13T12:31:44Z</time>
      </trkpt>
      <trkpt lat="53.466976974159479" lon="11.228151982650161">
        <ele>28.02</ele>
        <time>2024-09-13T12:31:45Z</time>
      </trkpt>
      <trkpt lat="53.467069007456303" lon="11.228390028700233">
        <ele>27.530000000000001</ele>
        <time>2024-09-13T12:31:47Z</time>
      </trkpt>
      <trkpt lat="53.467109994962811" lon="11.228492958471179">
        <ele>27.050000000000001</ele>
        <time>2024-09-13T12:31:48Z</time>
      </trkpt>
      <trkpt lat="53.467173026874661" lon="11.22853402979672">
        <ele>27.050000000000001</ele>
        <time>2024-09-13T12:31:49Z</time>
      </trkpt>
      <trkpt lat="53.467221977189183" lon="11.228562025353312">
        <ele>27.050000000000001</ele>
        <time>2024-09-13T12:31:50Z</time>
      </trkpt>
      <trkpt lat="53.467261958867311" lon="11.228584991768003">
        <ele>26.57</ele>
        <time>2024-09-13T12:31:51Z</time>
      </trkpt>
      <trkpt lat="53.467296995222569" lon="11.228539980947971">
        <ele>26.09</ele>
        <time>2024-09-13T12:31:52Z</time>
      </trkpt>
      <trkpt lat="53.467344017699361" lon="11.228477032855153">
        <ele>26.09</ele>
        <time>2024-09-13T12:31:53Z</time>
      </trkpt>
      <trkpt lat="53.467391040176153" lon="11.228412995114923">
        <ele>26.09</ele>
        <time>2024-09-13T12:31:54Z</time>
      </trkpt>
      <trkpt lat="53.467455999925733" lon="11.228328002616763">
        <ele>26.09</ele>
        <time>2024-09-13T12:31:55Z</time>
      </trkpt>
      <trkpt lat="53.467489024624228" lon="11.22827704064548">
        <ele>26.09</ele>
        <time>2024-09-13T12:31:56Z</time>
      </trkpt>
      <trkpt lat="53.467598995193839" lon="11.228113006800413">
        <ele>25.609999999999999</ele>
        <time>2024-09-13T12:31:58Z</time>
      </trkpt>
      <trkpt lat="53.467659009620547" lon="11.228022985160351">
        <ele>25.609999999999999</ele>
        <time>2024-09-13T12:31:59Z</time>
      </trkpt>
      <trkpt lat="53.467719024047256" lon="11.22793204151094">
        <ele>25.129999999999999</ele>
        <time>2024-09-13T12:32:00Z</time>
      </trkpt>
      <trkpt lat="53.467854978516698" lon="11.227800026535988">
        <ele>25.129999999999999</ele>
        <time>2024-09-13T12:32:02Z</time>
      </trkpt>
      <trkpt lat="53.467927984893322" lon="11.227742023766041">
        <ele>25.129999999999999</ele>
        <time>2024-09-13T12:32:03Z</time>
      </trkpt>
      <trkpt lat="53.468000991269946" lon="11.227685026824474">
        <ele>25.129999999999999</ele>
        <time>2024-09-13T12:32:04Z</time>
      </trkpt>
      <trkpt lat="53.46807399764657" lon="11.227638004347682">
        <ele>25.129999999999999</ele>
        <time>2024-09-13T12:32:05Z</time>
      </trkpt>
      <trkpt lat="53.46815899014473" lon="11.227624006569386">
        <ele>25.609999999999999</ele>
        <time>2024-09-13T12:32:06Z</time>
      </trkpt>
      <trkpt lat="53.468247000128031" lon="11.227642027661204">
        <ele>25.609999999999999</ele>
        <time>2024-09-13T12:32:07Z</time>
      </trkpt>
      <trkpt lat="53.468327969312668" lon="11.227672034874558">
        <ele>26.09</ele>
        <time>2024-09-13T12:32:08Z</time>
      </trkpt>
      <trkpt lat="53.468410028144717" lon="11.227701958268881">
        <ele>26.09</ele>
        <time>2024-09-13T12:32:09Z</time>
      </trkpt>
      <trkpt lat="53.468492003157735" lon="11.227765996009111">
        <ele>26.57</ele>
        <time>2024-09-13T12:32:10Z</time>
      </trkpt>
      <trkpt lat="53.468570038676262" lon="11.227832967415452">
        <ele>27.050000000000001</ele>
        <time>2024-09-13T12:32:11Z</time>
      </trkpt>
      <trkpt lat="53.468656037002802" lon="11.227922989055514">
        <ele>27.530000000000001</ele>
        <time>2024-09-13T12:32:12Z</time>
      </trkpt>
      <trkpt lat="53.469687011092901" lon="11.229166025295854">
        <ele>32.82</ele>
        <time>2024-09-13T12:32:23Z</time>
      </trkpt>
      <trkpt lat="53.470687977969646" lon="11.230376036837697">
        <ele>33.780000000000001</ele>
        <time>2024-09-13T12:32:32Z</time>
      </trkpt>
      <trkpt lat="53.472021035850048" lon="11.231991983950138">
        <ele>36.670000000000002</ele>
        <time>2024-09-13T12:32:42Z</time>
      </trkpt>
      <trkpt lat="53.473585015162826" lon="11.23388696461916">
        <ele>38.590000000000003</ele>
        <time>2024-09-13T12:32:51Z</time>
      </trkpt>
      <trkpt lat="53.475909987464547" lon="11.236721975728869">
        <ele>40.030000000000001</ele>
        <time>2024-09-13T12:33:04Z</time>
      </trkpt>
      <trkpt lat="53.476375015452504" lon="11.237239977344871">
        <ele>39.549999999999997</ele>
        <time>2024-09-13T12:33:07Z</time>
      </trkpt>
      <trkpt lat="53.476515999063849" lon="11.237340979278088">
        <ele>39.549999999999997</ele>
        <time>2024-09-13T12:33:08Z</time>
      </trkpt>
      <trkpt lat="53.476515999063849" lon="11.237340979278088">
        <ele>39.07</ele>
        <time>2024-09-13T12:33:09Z</time>
      </trkpt>
      <trkpt lat="53.476767959073186" lon="11.237354977056384">
        <ele>38.590000000000003</ele>
        <time>2024-09-13T12:33:10Z</time>
      </trkpt>
      <trkpt lat="53.476912965998054" lon="11.237316001206636">
        <ele>38.590000000000003</ele>
        <time>2024-09-13T12:33:11Z</time>
      </trkpt>
      <trkpt lat="53.477072976529598" lon="11.237212987616658">
        <ele>37.630000000000003</ele>
        <time>2024-09-13T12:33:12Z</time>
      </trkpt>
      <trkpt lat="53.478618012741208" lon="11.23618402518332">
        <ele>33.780000000000001</ele>
        <time>2024-09-13T12:33:20Z</time>
      </trkpt>
      <trkpt lat="53.480861010029912" lon="11.234676036983728">
        <ele>30.420000000000002</ele>
        <time>2024-09-13T12:33:31Z</time>
      </trkpt>
      <trkpt lat="53.481723004952073" lon="11.234309999272227">
        <ele>29.940000000000001</ele>
        <time>2024-09-13T12:33:35Z</time>
      </trkpt>
      <trkpt lat="53.482150984928012" lon="11.234262976795435">
        <ele>30.420000000000002</ele>
        <time>2024-09-13T12:33:37Z</time>
      </trkpt>
      <trkpt lat="53.483258988708258" lon="11.234411001205444">
        <ele>31.379999999999999</ele>
        <time>2024-09-13T12:33:43Z</time>
      </trkpt>
      <trkpt lat="53.484850041568279" lon="11.235125977545977">
        <ele>31.859999999999999</ele>
        <time>2024-09-13T12:33:52Z</time>
      </trkpt>
      <trkpt lat="53.48623096011579" lon="11.236182013526559">
        <ele>33.780000000000001</ele>
        <time>2024-09-13T12:34:00Z</time>
      </trkpt>
      <trkpt lat="53.486871002241969" lon="11.236735973507166">
        <ele>35.229999999999997</ele>
        <time>2024-09-13T12:34:04Z</time>
      </trkpt>
      <trkpt lat="53.487025983631611" lon="11.236821971833706">
        <ele>35.229999999999997</ele>
        <time>2024-09-13T12:34:05Z</time>
      </trkpt>
      <trkpt lat="53.487171996384859" lon="11.236885003745556">
        <ele>35.229999999999997</ele>
        <time>2024-09-13T12:34:06Z</time>
      </trkpt>
      <trkpt lat="53.488157037645578" lon="11.237180968746543">
        <ele>37.630000000000003</ele>
        <time>2024-09-13T12:34:14Z</time>
      </trkpt>
      <trkpt lat="53.48914903588593" lon="11.237422032281756">
        <ele>36.189999999999998</ele>
        <time>2024-09-13T12:34:20Z</time>
      </trkpt>
      <trkpt lat="53.490313030779362" lon="11.2373679690063">
        <ele>31.859999999999999</ele>
        <time>2024-09-13T12:34:27Z</time>
      </trkpt>
      <trkpt lat="53.491210984066129" lon="11.237214999273419">
        <ele>30.420000000000002</ele>
        <time>2024-09-13T12:34:34Z</time>
      </trkpt>
      <trkpt lat="53.492403980344534" lon="11.237010983750224">
        <ele>33.299999999999997</ele>
        <time>2024-09-13T12:34:43Z</time>
      </trkpt>
      <trkpt lat="53.493472002446651" lon="11.237000003457069">
        <ele>35.710000000000001</ele>
        <time>2024-09-13T12:34:52Z</time>
      </trkpt>
      <trkpt lat="53.494399040937424" lon="11.237340979278088">
        <ele>37.149999999999999</ele>
        <time>2024-09-13T12:35:00Z</time>
      </trkpt>
      <trkpt lat="53.495129020884633" lon="11.237432006746531">
        <ele>38.109999999999999</ele>
        <time>2024-09-13T12:35:06Z</time>
      </trkpt>
      <trkpt lat="53.495244020596147" lon="11.237382972612977">
        <ele>38.590000000000003</ele>
        <time>2024-09-13T12:35:07Z</time>
      </trkpt>
      <trkpt lat="53.496398041024804" lon="11.23680897988379">
        <ele>42.439999999999998</ele>
        <time>2024-09-13T12:35:17Z</time>
      </trkpt>
      <trkpt lat="53.497609980404377" lon="11.235947990790009">
        <ele>44.359999999999999</ele>
        <time>2024-09-13T12:35:28Z</time>
      </trkpt>
      <trkpt lat="53.498675990849733" lon="11.234974013641477">
        <ele>44.359999999999999</ele>
        <time>2024-09-13T12:35:38Z</time>
      </trkpt>
      <trkpt lat="53.498899033293128" lon="11.234817020595074">
        <ele>43.880000000000003</ele>
        <time>2024-09-13T12:35:40Z</time>
      </trkpt>
      <trkpt lat="53.499016966670752" lon="11.234773015603423">
        <ele>43.399999999999999</ele>
        <time>2024-09-13T12:35:41Z</time>
      </trkpt>
      <trkpt lat="53.499136995524168" lon="11.234729010611773">
        <ele>43.399999999999999</ele>
        <time>2024-09-13T12:35:42Z</time>
      </trkpt>
      <trkpt lat="53.499256018549204" lon="11.23470101505518">
        <ele>42.439999999999998</ele>
        <time>2024-09-13T12:35:43Z</time>
      </trkpt>
      <trkpt lat="53.499372024089098" lon="11.234707972034812">
        <ele>41.469999999999999</ele>
        <time>2024-09-13T12:35:44Z</time>
      </trkpt>
      <trkpt lat="53.499491969123483" lon="11.234734039753675">
        <ele>40.990000000000002</ele>
        <time>2024-09-13T12:35:45Z</time>
      </trkpt>
      <trkpt lat="53.499621972441673" lon="11.234782990068197">
        <ele>40.509999999999998</ele>
        <time>2024-09-13T12:35:46Z</time>
      </trkpt>
      <trkpt lat="53.500789990648627" lon="11.235167970880866">
        <ele>37.630000000000003</ele>
        <time>2024-09-13T12:35:53Z</time>
      </trkpt>
      <trkpt lat="53.500972967594862" lon="11.235146010294557">
        <ele>37.630000000000003</ele>
        <time>2024-09-13T12:35:54Z</time>
      </trkpt>
      <trkpt lat="53.501158962026238" lon="11.235099993646145">
        <ele>37.149999999999999</ele>
        <time>2024-09-13T12:35:55Z</time>
      </trkpt>
      <trkpt lat="53.501348979771137" lon="11.235051965340972">
        <ele>37.149999999999999</ele>
        <time>2024-09-13T12:35:56Z</time>
      </trkpt>
      <trkpt lat="53.501541009172797" lon="11.234975019469857">
        <ele>37.149999999999999</ele>
        <time>2024-09-13T12:35:57Z</time>
      </trkpt>
      <trkpt lat="53.501731026917696" lon="11.23485297895968">
        <ele>37.149999999999999</ele>
        <time>2024-09-13T12:35:58Z</time>
      </trkpt>
      <trkpt lat="53.501922972500324" lon="11.234729010611773">
        <ele>37.149999999999999</ele>
        <time>2024-09-13T12:35:59Z</time>
      </trkpt>
      <trkpt lat="53.502113996073604" lon="11.234606970101595">
        <ele>37.149999999999999</ele>
        <time>2024-09-13T12:36:00Z</time>
      </trkpt>
      <trkpt lat="53.502995017915964" lon="11.234088968485594">
        <ele>36.670000000000002</ele>
        <time>2024-09-13T12:36:05Z</time>
      </trkpt>
      <trkpt lat="53.503147987648845" lon="11.234069019556046">
        <ele>37.149999999999999</ele>
        <time>2024-09-13T12:36:06Z</time>
      </trkpt>
      <trkpt lat="53.503296012058854" lon="11.234086034819484">
        <ele>37.149999999999999</ele>
        <time>2024-09-13T12:36:07Z</time>
      </trkpt>
      <trkpt lat="53.50343800149858" lon="11.234172033146024">
        <ele>37.149999999999999</ele>
        <time>2024-09-13T12:36:08Z</time>
      </trkpt>
      <trkpt lat="53.50358703173697" lon="11.23427202925086">
        <ele>37.149999999999999</ele>
        <time>2024-09-13T12:36:09Z</time>
      </trkpt>
      <trkpt lat="53.503743018954992" lon="11.234378982335329">
        <ele>37.630000000000003</ele>
        <time>2024-09-13T12:36:10Z</time>
      </trkpt>
      <trkpt lat="53.504862003028393" lon="11.234964039176702">
        <ele>40.030000000000001</ele>
        <time>2024-09-13T12:36:16Z</time>
      </trkpt>
      <trkpt lat="53.506884975358844" lon="11.23575403355062">
        <ele>42.920000000000002</ele>
        <time>2024-09-13T12:36:26Z</time>
      </trkpt>
      <trkpt lat="53.509162003174424" lon="11.236618040129542">
        <ele>51.090000000000003</ele>
        <time>2024-09-13T12:36:38Z</time>
      </trkpt>
      <trkpt lat="53.510294985026121" lon="11.237048031762242">
        <ele>52.530000000000001</ele>
        <time>2024-09-13T12:36:46Z</time>
      </trkpt>
      <trkpt lat="53.510796977207065" lon="11.237230002880096">
        <ele>53.009999999999998</ele>
        <time>2024-09-13T12:36:52Z</time>
      </trkpt>
      <trkpt lat="53.510852968320251" lon="11.237251963466406">
        <ele>53.490000000000002</ele>
        <time>2024-09-13T12:36:53Z</time>
      </trkpt>
      <trkpt lat="53.510899990797043" lon="11.237269984558225">
        <ele>53.490000000000002</ele>
        <time>2024-09-13T12:36:54Z</time>
      </trkpt>
      <trkpt lat="53.510931003838778" lon="11.23728197067976">
        <ele>53.490000000000002</ele>
        <time>2024-09-13T12:36:55Z</time>
      </trkpt>
      <trkpt lat="53.510948019102216" lon="11.237288005650043">
        <ele>53.009999999999998</ele>
        <time>2024-09-13T12:36:56Z</time>
      </trkpt>
      <trkpt lat="53.510968973860145" lon="11.237295968458056">
        <ele>53.009999999999998</ele>
        <time>2024-09-13T12:37:07Z</time>
      </trkpt>
      <trkpt lat="53.510994035750628" lon="11.237308038398623">
        <ele>53.009999999999998</ele>
        <time>2024-09-13T12:37:08Z</time>
      </trkpt>
      <trkpt lat="53.510971991345286" lon="11.237433012574911">
        <ele>53.009999999999998</ele>
        <time>2024-09-13T12:37:09Z</time>
      </trkpt>
      <trkpt lat="53.510971991345286" lon="11.237553963437676">
        <ele>53.009999999999998</ele>
        <time>2024-09-13T12:37:10Z</time>
      </trkpt>
      <trkpt lat="53.510971991345286" lon="11.237700982019305">
        <ele>53.009999999999998</ele>
        <time>2024-09-13T12:37:11Z</time>
      </trkpt>
      <trkpt lat="53.511037034913898" lon="11.23932003043592">
        <ele>51.090000000000003</ele>
        <time>2024-09-13T12:37:20Z</time>
      </trkpt>
      <trkpt lat="53.511090008541942" lon="11.23968799598515">
        <ele>50.609999999999999</ele>
        <time>2024-09-13T12:37:22Z</time>
      </trkpt>
      <trkpt lat="53.511153040453792" lon="11.239854963496327">
        <ele>50.130000000000003</ele>
        <time>2024-09-13T12:37:23Z</time>
      </trkpt>
      <trkpt lat="53.51121699437499" lon="11.240026038140059">
        <ele>49.649999999999999</ele>
        <time>2024-09-13T12:37:24Z</time>
      </trkpt>
      <trkpt lat="53.51181797683239" lon="11.241671992465854">
        <ele>51.090000000000003</ele>
        <time>2024-09-13T12:37:34Z</time>
      </trkpt>
      <trkpt lat="53.51207597181201" lon="11.242245985195041">
        <ele>52.049999999999997</ele>
        <time>2024-09-13T12:37:38Z</time>
      </trkpt>
      <trkpt lat="53.512151995673776" lon="11.242403984069824">
        <ele>51.57</ele>
        <time>2024-09-13T12:37:39Z</time>
      </trkpt>
      <trkpt lat="53.512748032808304" lon="11.243343008682132">
        <ele>51.090000000000003</ele>
        <time>2024-09-13T12:37:46Z</time>
      </trkpt>
      <trkpt lat="53.512830007821321" lon="11.243488015606999">
        <ele>51.090000000000003</ele>
        <time>2024-09-13T12:37:47Z</time>
      </trkpt>
      <trkpt lat="53.512894967570901" lon="11.243665963411331">
        <ele>51.090000000000003</ele>
        <time>2024-09-13T12:37:48Z</time>
      </trkpt>
      <trkpt lat="53.512947019189596" lon="11.243847012519836">
        <ele>51.090000000000003</ele>
        <time>2024-09-13T12:37:49Z</time>
      </trkpt>
      <trkpt lat="53.51299999281764" lon="11.244030995294452">
        <ele>51.090000000000003</ele>
        <time>2024-09-13T12:37:50Z</time>
      </trkpt>
      <trkpt lat="53.513051038607955" lon="11.244211038574576">
        <ele>51.090000000000003</ele>
        <time>2024-09-13T12:37:51Z</time>
      </trkpt>
      <trkpt lat="53.513092026114464" lon="11.244404995813966">
        <ele>51.090000000000003</ele>
        <time>2024-09-13T12:37:52Z</time>
      </trkpt>
      <trkpt lat="53.513228986412287" lon="11.245183004066348">
        <ele>51.57</ele>
        <time>2024-09-13T12:37:57Z</time>
      </trkpt>
      <trkpt lat="53.513243990018964" lon="11.245247963815928">
        <ele>51.090000000000003</ele>
        <time>2024-09-13T12:37:58Z</time>
      </trkpt>
      <trkpt lat="53.513297969475389" lon="11.245235977694392">
        <ele>51.090000000000003</ele>
        <time>2024-09-13T12:37:59Z</time>
      </trkpt>
      <trkpt lat="53.513372987508774" lon="11.245204964652658">
        <ele>51.090000000000003</ele>
        <time>2024-09-13T12:38:00Z</time>
      </trkpt>
      <trkpt lat="53.513462003320456" lon="11.24516699463129">
        <ele>51.090000000000003</ele>
        <time>2024-09-13T12:38:01Z</time>
      </trkpt>
      <trkpt lat="53.513566022738814" lon="11.24512298963964">
        <ele>50.609999999999999</ele>
        <time>2024-09-13T12:38:02Z</time>
      </trkpt>
      <trkpt lat="53.514638990163803" lon="11.244681011885405">
        <ele>50.130000000000003</ele>
        <time>2024-09-13T12:38:11Z</time>
      </trkpt>
      <trkpt lat="53.515827963128686" lon="11.244269963353872">
        <ele>48.200000000000003</ele>
        <time>2024-09-13T12:38:20Z</time>
      </trkpt>
      <trkpt lat="53.517353972420096" lon="11.244086986407638">
        <ele>49.159999999999997</ele>
        <time>2024-09-13T12:38:28Z</time>
      </trkpt>
      <trkpt lat="53.519408963620663" lon="11.244784025475383">
        <ele>48.68</ele>
        <time>2024-09-13T12:38:37Z</time>
      </trkpt>
      <trkpt lat="53.521166983991861" lon="11.245637973770499">
        <ele>48.200000000000003</ele>
        <time>2024-09-13T12:38:45Z</time>
      </trkpt>
      <trkpt lat="53.521345015615225" lon="11.245793038979173">
        <ele>48.200000000000003</ele>
        <time>2024-09-13T12:38:46Z</time>
      </trkpt>
      <trkpt lat="53.521509971469641" lon="11.245992025360465">
        <ele>47.719999999999999</ele>
        <time>2024-09-13T12:38:47Z</time>
      </trkpt>
      <trkpt lat="53.521674005314708" lon="11.246191011741757">
        <ele>48.200000000000003</ele>
        <time>2024-09-13T12:38:48Z</time>
      </trkpt>
      <trkpt lat="53.521830998361111" lon="11.246401984244585">
        <ele>48.68</ele>
        <time>2024-09-13T12:38:49Z</time>
      </trkpt>
      <trkpt lat="53.521953960880637" lon="11.24667196534574">
        <ele>48.68</ele>
        <time>2024-09-13T12:38:50Z</time>
      </trkpt>
      <trkpt lat="53.522080024704337" lon="11.246945969760418">
        <ele>49.159999999999997</ele>
        <time>2024-09-13T12:38:51Z</time>
      </trkpt>
      <trkpt lat="53.523267991840839" lon="11.249687019735575">
        <ele>51.57</ele>
        <time>2024-09-13T12:39:01Z</time>
      </trkpt>
      <trkpt lat="53.523366982117295" lon="11.249861028045416">
        <ele>52.049999999999997</ele>
        <time>2024-09-13T12:39:02Z</time>
      </trkpt>
      <trkpt lat="53.523453986272216" lon="11.250015003606677">
        <ele>52.049999999999997</ele>
        <time>2024-09-13T12:39:03Z</time>
      </trkpt>
      <trkpt lat="53.523551970720291" lon="11.250099996104836">
        <ele>52.049999999999997</ele>
        <time>2024-09-13T12:39:04Z</time>
      </trkpt>
      <trkpt lat="53.523656995967031" lon="11.2501519639045">
        <ele>52.049999999999997</ele>
        <time>2024-09-13T12:39:05Z</time>
      </trkpt>
      <trkpt lat="53.523750035092235" lon="11.250189011916518">
        <ele>52.530000000000001</ele>
        <time>2024-09-13T12:39:06Z</time>
      </trkpt>
      <trkpt lat="53.523841984570026" lon="11.250151041895151">
        <ele>52.530000000000001</ele>
        <time>2024-09-13T12:39:07Z</time>
      </trkpt>
      <trkpt lat="53.523926977068186" lon="11.250117011368275">
        <ele>52.530000000000001</ele>
        <time>2024-09-13T12:39:08Z</time>
      </trkpt>
      <trkpt lat="53.524004006758332" lon="11.250084992498159">
        <ele>52.530000000000001</ele>
        <time>2024-09-13T12:39:09Z</time>
      </trkpt>
      <trkpt lat="53.524131998419762" lon="11.250033024698496">
        <ele>52.530000000000001</ele>
        <time>2024-09-13T12:39:11Z</time>
      </trkpt>
      <trkpt lat="53.524174997583032" lon="11.250015003606677">
        <ele>52.530000000000001</ele>
        <time>2024-09-13T12:39:12Z</time>
      </trkpt>
      <trkpt lat="53.524234006181359" lon="11.250209966674447">
        <ele>52.530000000000001</ele>
        <time>2024-09-13T12:39:13Z</time>
      </trkpt>
      <trkpt lat="53.524248003959656" lon="11.250337036326528">
        <ele>52.530000000000001</ele>
        <time>2024-09-13T12:39:14Z</time>
      </trkpt>
      <trkpt lat="53.524266025051475" lon="11.250499980524182">
        <ele>52.049999999999997</ele>
        <time>2024-09-13T12:39:15Z</time>
      </trkpt>
      <trkpt lat="53.524285973981023" lon="11.250684969127178">
        <ele>52.049999999999997</ele>
        <time>2024-09-13T12:39:16Z</time>
      </trkpt>
      <trkpt lat="53.524308018386364" lon="11.250887978821993">
        <ele>52.049999999999997</ele>
        <time>2024-09-13T12:39:17Z</time>
      </trkpt>
      <trkpt lat="53.524523014202714" lon="11.252709031105042">
        <ele>52.530000000000001</ele>
        <time>2024-09-13T12:39:25Z</time>
      </trkpt>
      <trkpt lat="53.52481503970921" lon="11.25519996508956">
        <ele>53.969999999999999</ele>
        <time>2024-09-13T12:39:35Z</time>
      </trkpt>
      <trkpt lat="53.525123996660113" lon="11.2579280231148">
        <ele>54.93</ele>
        <time>2024-09-13T12:39:43Z</time>
      </trkpt>
      <trkpt lat="53.525672005489469" lon="11.262700008228421">
        <ele>50.609999999999999</ele>
        <time>2024-09-13T12:39:56Z</time>
      </trkpt>
      <trkpt lat="53.526180032640696" lon="11.267227996140718">
        <ele>53.009999999999998</ele>
        <time>2024-09-13T12:40:09Z</time>
      </trkpt>
      <trkpt lat="53.526783026754856" lon="11.272617978975177">
        <ele>53.009999999999998</ele>
        <time>2024-09-13T12:40:24Z</time>
      </trkpt>
      <trkpt lat="53.527185022830963" lon="11.276221023872495">
        <ele>52.049999999999997</ele>
        <time>2024-09-13T12:40:35Z</time>
      </trkpt>
      <trkpt lat="53.527552988380194" lon="11.279296008870006">
        <ele>53.490000000000002</ele>
        <time>2024-09-13T12:40:44Z</time>
      </trkpt>
      <trkpt lat="53.527851970866323" lon="11.281619975343347">
        <ele>53.490000000000002</ele>
        <time>2024-09-13T12:40:51Z</time>
      </trkpt>
      <trkpt lat="53.528032014146447" lon="11.282933000475168">
        <ele>52.530000000000001</ele>
        <time>2024-09-13T12:40:56Z</time>
      </trkpt>
      <trkpt lat="53.528051963075995" lon="11.28313098102808">
        <ele>51.57</ele>
        <time>2024-09-13T12:40:57Z</time>
      </trkpt>
      <trkpt lat="53.528104014694691" lon="11.284443000331521">
        <ele>48.200000000000003</ele>
        <time>2024-09-13T12:41:03Z</time>
      </trkpt>
      <trkpt lat="53.528582034632564" lon="11.286084009334445">
        <ele>47.240000000000002</ele>
        <time>2024-09-13T12:41:12Z</time>
      </trkpt>
      <trkpt lat="53.528624027967453" lon="11.28626799210906">
        <ele>47.719999999999999</ele>
        <time>2024-09-13T12:41:13Z</time>
      </trkpt>
      <trkpt lat="53.528669038787484" lon="11.286447029560804">
        <ele>47.719999999999999</ele>
        <time>2024-09-13T12:41:14Z</time>
      </trkpt>
      <trkpt lat="53.529144041240215" lon="11.288088038563728">
        <ele>46.759999999999998</ele>
        <time>2024-09-13T12:41:21Z</time>
      </trkpt>
      <trkpt lat="53.53001500479877" lon="11.291094962507486">
        <ele>46.759999999999998</ele>
        <time>2024-09-13T12:41:31Z</time>
      </trkpt>
      <trkpt lat="53.530450025573373" lon="11.292599011212587">
        <ele>46.280000000000001</ele>
        <time>2024-09-13T12:41:37Z</time>
      </trkpt>
      <trkpt lat="53.530915975570679" lon="11.294224010780454">
        <ele>46.280000000000001</ele>
        <time>2024-09-13T12:41:46Z</time>
      </trkpt>
      <trkpt lat="53.53128201328218" lon="11.295494036749005">
        <ele>48.200000000000003</ele>
        <time>2024-09-13T12:41:53Z</time>
      </trkpt>
      <trkpt lat="53.531685015186667" lon="11.296990038827062">
        <ele>47.240000000000002</ele>
        <time>2024-09-13T12:42:02Z</time>
      </trkpt>
      <trkpt lat="53.531743017956614" lon="11.297277035191655">
        <ele>47.240000000000002</ele>
        <time>2024-09-13T12:42:06Z</time>
      </trkpt>
      <trkpt lat="53.531743017956614" lon="11.297543998807669">
        <ele>46.759999999999998</ele>
        <time>2024-09-13T12:42:08Z</time>
      </trkpt>
      <trkpt lat="53.531759027391672" lon="11.299215015023947">
        <ele>45.799999999999997</ele>
        <time>2024-09-13T12:42:17Z</time>
      </trkpt>
      <trkpt lat="53.531763972714543" lon="11.299603013321757">
        <ele>45.32</ele>
        <time>2024-09-13T12:42:19Z</time>
      </trkpt>
      <trkpt lat="53.531763972714543" lon="11.299791019409895">
        <ele>44.840000000000003</ele>
        <time>2024-09-13T12:42:20Z</time>
      </trkpt>
      <trkpt lat="53.531743017956614" lon="11.300839008763433">
        <ele>45.799999999999997</ele>
        <time>2024-09-13T12:42:26Z</time>
      </trkpt>
      <trkpt lat="53.531720973551273" lon="11.30102600902319">
        <ele>45.799999999999997</ele>
        <time>2024-09-13T12:42:27Z</time>
      </trkpt>
      <trkpt lat="53.531689960509539" lon="11.301169004291296">
        <ele>46.280000000000001</ele>
        <time>2024-09-13T12:42:28Z</time>
      </trkpt>
      <trkpt lat="53.531655007973313" lon="11.301322979852557">
        <ele>46.280000000000001</ele>
        <time>2024-09-13T12:42:29Z</time>
      </trkpt>
      <trkpt lat="53.531625000759959" lon="11.301462035626173">
        <ele>46.759999999999998</ele>
        <time>2024-09-13T12:42:30Z</time>
      </trkpt>
      <trkpt lat="53.531502038240433" lon="11.301877023652196">
        <ele>47.240000000000002</ele>
        <time>2024-09-13T12:42:36Z</time>
      </trkpt>
      <trkpt lat="53.531489968299866" lon="11.301912982016802">
        <ele>47.719999999999999</ele>
        <time>2024-09-13T12:42:46Z</time>
      </trkpt>
      <trkpt lat="53.531489968299866" lon="11.301912982016802">
        <ele>47.719999999999999</ele>
        <time>2024-09-13T12:42:58Z</time>
      </trkpt>
      <trkpt lat="53.531465996056795" lon="11.301985988393426">
        <ele>47.719999999999999</ele>
        <time>2024-09-13T12:42:59Z</time>
      </trkpt>
      <trkpt lat="53.531487034633756" lon="11.302081039175391">
        <ele>47.240000000000002</ele>
        <time>2024-09-13T12:43:00Z</time>
      </trkpt>
      <trkpt lat="53.531544031575322" lon="11.302111968398094">
        <ele>46.759999999999998</ele>
        <time>2024-09-13T12:43:01Z</time>
      </trkpt>
      <trkpt lat="53.531612008810043" lon="11.302150022238493">
        <ele>46.759999999999998</ele>
        <time>2024-09-13T12:43:02Z</time>
      </trkpt>
      <trkpt lat="53.531687026843429" lon="11.302192015573382">
        <ele>46.280000000000001</ele>
        <time>2024-09-13T12:43:03Z</time>
      </trkpt>
      <trkpt lat="53.531772019341588" lon="11.302238032221794">
        <ele>46.280000000000001</ele>
        <time>2024-09-13T12:43:04Z</time>
      </trkpt>
      <trkpt lat="53.53280701674521" lon="11.302768019959331">
        <ele>46.759999999999998</ele>
        <time>2024-09-13T12:43:13Z</time>
      </trkpt>
      <trkpt lat="53.534693028777838" lon="11.303746020421386">
        <ele>49.159999999999997</ele>
        <time>2024-09-13T12:43:26Z</time>
      </trkpt>
      <trkpt lat="53.536425987258554" lon="11.304638022556901">
        <ele>51.57</ele>
        <time>2024-09-13T12:43:37Z</time>
      </trkpt>
      <trkpt lat="53.538311999291182" lon="11.30560596473515">
        <ele>52.530000000000001</ele>
        <time>2024-09-13T12:43:46Z</time>
      </trkpt>
      <trkpt lat="53.539826022461057" lon="11.30659100599587">
        <ele>51.57</ele>
        <time>2024-09-13T12:43:54Z</time>
      </trkpt>
      <trkpt lat="53.541185986250639" lon="11.308284988626838">
        <ele>50.130000000000003</ele>
        <time>2024-09-13T12:44:03Z</time>
      </trkpt>
      <trkpt lat="53.542911987751722" lon="11.310650026425719">
        <ele>49.159999999999997</ele>
        <time>2024-09-13T12:44:16Z</time>
      </trkpt>
      <trkpt lat="53.543752022087574" lon="11.312041003257036">
        <ele>48.68</ele>
        <time>2024-09-13T12:44:23Z</time>
      </trkpt>
      <trkpt lat="53.54398101568222" lon="11.31249999627471">
        <ele>48.200000000000003</ele>
        <time>2024-09-13T12:44:25Z</time>
      </trkpt>
      <trkpt lat="53.544586021453142" lon="11.314674010500312">
        <ele>47.240000000000002</ele>
        <time>2024-09-13T12:44:33Z</time>
      </trkpt>
      <trkpt lat="53.544977037236094" lon="11.315828030928969">
        <ele>48.200000000000003</ele>
        <time>2024-09-13T12:44:38Z</time>
      </trkpt>
      <trkpt lat="53.54539998807013" lon="11.316687008365989">
        <ele>48.68</ele>
        <time>2024-09-13T12:44:42Z</time>
      </trkpt>
      <trkpt lat="53.545931987464428" lon="11.317607006058097">
        <ele>49.159999999999997</ele>
        <time>2024-09-13T12:44:47Z</time>
      </trkpt>
      <trkpt lat="53.546040030196309" lon="11.317795012146235">
        <ele>48.68</ele>
        <time>2024-09-13T12:44:48Z</time>
      </trkpt>
      <trkpt lat="53.546790964901447" lon="11.319106025621295">
        <ele>48.68</ele>
        <time>2024-09-13T12:44:53Z</time>
      </trkpt>
      <trkpt lat="53.547578025609255" lon="11.320498008280993">
        <ele>48.68</ele>
        <time>2024-09-13T12:44:58Z</time>
      </trkpt>
      <trkpt lat="53.547820011153817" lon="11.320934034883976">
        <ele>49.159999999999997</ele>
        <time>2024-09-13T12:45:00Z</time>
      </trkpt>
      <trkpt lat="53.548870012164116" lon="11.322819041088223">
        <ele>49.159999999999997</ele>
        <time>2024-09-13T12:45:08Z</time>
      </trkpt>
      <trkpt lat="53.550200974568725" lon="11.325139990076423">
        <ele>50.609999999999999</ele>
        <time>2024-09-13T12:45:16Z</time>
      </trkpt>
      <trkpt lat="53.551664035767317" lon="11.327694961801171">
        <ele>52.530000000000001</ele>
        <time>2024-09-13T12:45:25Z</time>
      </trkpt>
      <trkpt lat="53.55295903980732" lon="11.329967966303229">
        <ele>54.450000000000003</ele>
        <time>2024-09-13T12:45:34Z</time>
      </trkpt>
      <trkpt lat="53.554051034152508" lon="11.331931008026004">
        <ele>54.450000000000003</ele>
        <time>2024-09-13T12:45:43Z</time>
      </trkpt>
      <trkpt lat="53.555429019033909" lon="11.334351031109691">
        <ele>54.93</ele>
        <time>2024-09-13T12:45:54Z</time>
      </trkpt>
      <trkpt lat="53.556846985593438" lon="11.336852023378015">
        <ele>55.409999999999997</ele>
        <time>2024-09-13T12:46:06Z</time>
      </trkpt>
      <trkpt lat="53.557540001347661" lon="11.338112996891141">
        <ele>55.409999999999997</ele>
        <time>2024-09-13T12:46:12Z</time>
      </trkpt>
      <trkpt lat="53.558444995433092" lon="11.339787030592561">
        <ele>54.450000000000003</ele>
        <time>2024-09-13T12:46:20Z</time>
      </trkpt>
      <trkpt lat="53.559373039752245" lon="11.341530969366431">
        <ele>54.93</ele>
        <time>2024-09-13T12:46:29Z</time>
      </trkpt>
      <trkpt lat="53.560400996357203" lon="11.343588978052139">
        <ele>55.890000000000001</ele>
        <time>2024-09-13T12:46:40Z</time>
      </trkpt>
      <trkpt lat="53.560677012428641" lon="11.344348965212703">
        <ele>55.890000000000001</ele>
        <time>2024-09-13T12:46:44Z</time>
      </trkpt>
      <trkpt lat="53.561086971312761" lon="11.346428012475371">
        <ele>53.969999999999999</ele>
        <time>2024-09-13T12:46:53Z</time>
      </trkpt>
      <trkpt lat="53.56116802431643" lon="11.347745982930064">
        <ele>53.009999999999998</ele>
        <time>2024-09-13T12:46:58Z</time>
      </trkpt>
      <trkpt lat="53.561183027923107" lon="11.348061980679631">
        <ele>53.009999999999998</ele>
        <time>2024-09-13T12:46:59Z</time>
      </trkpt>
      <trkpt lat="53.560935007408261" lon="11.350928004831076">
        <ele>53.490000000000002</ele>
        <time>2024-09-13T12:47:08Z</time>
      </trkpt>
      <trkpt lat="53.560835011303425" lon="11.353788999840617">
        <ele>53.969999999999999</ele>
        <time>2024-09-13T12:47:16Z</time>
      </trkpt>
      <trkpt lat="53.561249999329448" lon="11.356937997043133">
        <ele>52.049999999999997</ele>
        <time>2024-09-13T12:47:25Z</time>
      </trkpt>
      <trkpt lat="53.562030019238591" lon="11.359419962391257">
        <ele>52.049999999999997</ele>
        <time>2024-09-13T12:47:33Z</time>
      </trkpt>
      <trkpt lat="53.562728986144066" lon="11.360956029966474">
        <ele>51.57</ele>
        <time>2024-09-13T12:47:40Z</time>
      </trkpt>
      <trkpt lat="53.563098041340709" lon="11.361745018512011">
        <ele>52.049999999999997</ele>
        <time>2024-09-13T12:47:48Z</time>
      </trkpt>
      <trkpt lat="53.563429964706302" lon="11.36245303787291">
        <ele>53.009999999999998</ele>
        <time>2024-09-13T12:47:59Z</time>
      </trkpt>
      <trkpt lat="53.563521998003125" lon="11.362650012597442">
        <ele>53.009999999999998</ele>
        <time>2024-09-13T12:48:06Z</time>
      </trkpt>
      <trkpt lat="53.563586035743356" lon="11.362785967066884">
        <ele>53.009999999999998</ele>
        <time>2024-09-13T12:48:15Z</time>
      </trkpt>
      <trkpt lat="53.563657030463219" lon="11.362937008962035">
        <ele>53.009999999999998</ele>
        <time>2024-09-13T12:48:34Z</time>
      </trkpt>
      <trkpt lat="53.563808994367719" lon="11.36326901614666">
        <ele>53.009999999999998</ele>
        <time>2024-09-13T12:48:43Z</time>
      </trkpt>
      <trkpt lat="53.564150976017118" lon="11.363972006365657">
        <ele>52.530000000000001</ele>
        <time>2024-09-13T12:48:51Z</time>
      </trkpt>
      <trkpt lat="53.564679035916924" lon="11.365067018195987">
        <ele>51.090000000000003</ele>
        <time>2024-09-13T12:49:02Z</time>
      </trkpt>
      <trkpt lat="53.565329974517226" lon="11.366437040269375">
        <ele>51.090000000000003</ele>
        <time>2024-09-13T12:49:12Z</time>
      </trkpt>
      <trkpt lat="53.566095996648073" lon="11.368038989603519">
        <ele>52.530000000000001</ele>
        <time>2024-09-13T12:49:21Z</time>
      </trkpt>
      <trkpt lat="53.566739978268743" lon="11.369595006108284">
        <ele>54.450000000000003</ele>
        <time>2024-09-13T12:49:27Z</time>
      </trkpt>
      <trkpt lat="53.568071024492383" lon="11.372849028557539">
        <ele>61.18</ele>
        <time>2024-09-13T12:49:40Z</time>
      </trkpt>
      <trkpt lat="53.568957997485995" lon="11.375819994136691">
        <ele>58.299999999999997</ele>
        <time>2024-09-13T12:49:51Z</time>
      </trkpt>
      <trkpt lat="53.569417996332049" lon="11.378678977489471">
        <ele>54.93</ele>
        <time>2024-09-13T12:50:00Z</time>
      </trkpt>
      <trkpt lat="53.569685965776443" lon="11.381991002708673">
        <ele>56.859999999999999</ele>
        <time>2024-09-13T12:50:11Z</time>
      </trkpt>
      <trkpt lat="53.569984026253223" lon="11.384988036006689">
        <ele>58.780000000000001</ele>
        <time>2024-09-13T12:50:22Z</time>
      </trkpt>
      <trkpt lat="53.570528011769056" lon="11.386778997257352">
        <ele>57.82</ele>
        <time>2024-09-13T12:50:30Z</time>
      </trkpt>
      <trkpt lat="53.570916010066867" lon="11.387853976339102">
        <ele>57.340000000000003</ele>
        <time>2024-09-13T12:50:38Z</time>
      </trkpt>
      <trkpt lat="53.571005025878549" lon="11.388078024610877">
        <ele>57.340000000000003</ele>
        <time>2024-09-13T12:50:45Z</time>
      </trkpt>
      <trkpt lat="53.571098987013102" lon="11.388312969356775">
        <ele>56.859999999999999</ele>
        <time>2024-09-13T12:51:12Z</time>
      </trkpt>
      <trkpt lat="53.571184985339642" lon="11.388526959344745">
        <ele>55.890000000000001</ele>
        <time>2024-09-13T12:51:16Z</time>
      </trkpt>
      <trkpt lat="53.571206023916602" lon="11.388580016791821">
        <ele>55.890000000000001</ele>
        <time>2024-09-13T12:51:17Z</time>
      </trkpt>
      <trkpt lat="53.571174005046487" lon="11.388758970424533">
        <ele>55.890000000000001</ele>
        <time>2024-09-13T12:51:18Z</time>
      </trkpt>
      <trkpt lat="53.571125976741314" lon="11.388810016214848">
        <ele>55.890000000000001</ele>
        <time>2024-09-13T12:51:19Z</time>
      </trkpt>
      <trkpt lat="53.571062022820115" lon="11.38888000510633">
        <ele>55.890000000000001</ele>
        <time>2024-09-13T12:51:20Z</time>
      </trkpt>
      <trkpt lat="53.57098801061511" lon="11.388959968462586">
        <ele>55.890000000000001</ele>
        <time>2024-09-13T12:51:21Z</time>
      </trkpt>
      <trkpt lat="53.570903018116951" lon="11.389045966789126">
        <ele>55.890000000000001</ele>
        <time>2024-09-13T12:51:22Z</time>
      </trkpt>
      <trkpt lat="53.569922000169754" lon="11.390091022476554">
        <ele>56.369999999999997</ele>
        <time>2024-09-13T12:51:32Z</time>
      </trkpt>
      <trkpt lat="53.569598961621523" lon="11.390425963327289">
        <ele>55.409999999999997</ele>
        <time>2024-09-13T12:51:36Z</time>
      </trkpt>
      <trkpt lat="53.569551017135382" lon="11.390478014945984">
        <ele>54.93</ele>
        <time>2024-09-13T12:51:37Z</time>
      </trkpt>
      <trkpt lat="53.569459989666939" lon="11.390476003289223">
        <ele>54.93</ele>
        <time>2024-09-13T12:51:38Z</time>
      </trkpt>
      <trkpt lat="53.569431994110346" lon="11.390399979427457">
        <ele>54.450000000000003</ele>
        <time>2024-09-13T12:51:39Z</time>
      </trkpt>
      <trkpt lat="53.569393018260598" lon="11.390295960009098">
        <ele>53.969999999999999</ele>
        <time>2024-09-13T12:51:40Z</time>
      </trkpt>
      <trkpt lat="53.569343984127045" lon="11.390163023024797">
        <ele>53.969999999999999</ele>
        <time>2024-09-13T12:51:41Z</time>
      </trkpt>
      <trkpt lat="53.569285981357098" lon="11.390006029978395">
        <ele>53.969999999999999</ele>
        <time>2024-09-13T12:51:42Z</time>
      </trkpt>
      <trkpt lat="53.568697990849614" lon="11.388414977118373">
        <ele>51.57</ele>
        <time>2024-09-13T12:51:51Z</time>
      </trkpt>
      <trkpt lat="53.568659014999866" lon="11.388309029862285">
        <ele>51.090000000000003</ele>
        <time>2024-09-13T12:51:52Z</time>
      </trkpt>
      <trkpt lat="53.56853898614645" lon="11.388237029314041">
        <ele>50.609999999999999</ele>
        <time>2024-09-13T12:51:53Z</time>
      </trkpt>
      <trkpt lat="53.568477965891361" lon="11.388299977406859">
        <ele>50.130000000000003</ele>
        <time>2024-09-13T12:51:54Z</time>
      </trkpt>
      <trkpt lat="53.568400014191866" lon="11.388381030410528">
        <ele>49.649999999999999</ele>
        <time>2024-09-13T12:51:55Z</time>
      </trkpt>
      <trkpt lat="53.568310998380184" lon="11.388473985716701">
        <ele>48.68</ele>
        <time>2024-09-13T12:51:56Z</time>
      </trkpt>
      <trkpt lat="53.567643966525793" lon="11.38920203782618">
        <ele>47.240000000000002</ele>
        <time>2024-09-13T12:52:03Z</time>
      </trkpt>
      <trkpt lat="53.567575989291072" lon="11.389274038374424">
        <ele>47.240000000000002</ele>
        <time>2024-09-13T12:52:04Z</time>
      </trkpt>
      <trkpt lat="53.567524021491408" lon="11.38933103531599">
        <ele>47.240000000000002</ele>
        <time>2024-09-13T12:52:05Z</time>
      </trkpt>
      <trkpt lat="53.567482028156519" lon="11.389375040307641">
        <ele>47.240000000000002</ele>
        <time>2024-09-13T12:52:06Z</time>
      </trkpt>
      <trkpt lat="53.567417990416288" lon="11.389259034767747">
        <ele>47.240000000000002</ele>
        <time>2024-09-13T12:52:07Z</time>
      </trkpt>
      <trkpt lat="53.567370967939496" lon="11.389142023399472">
        <ele>47.719999999999999</ele>
        <time>2024-09-13T12:52:08Z</time>
      </trkpt>
      <trkpt lat="53.567309025675058" lon="11.388986958190799">
        <ele>47.240000000000002</ele>
        <time>2024-09-13T12:52:09Z</time>
      </trkpt>
      <trkpt lat="53.567234007641673" lon="11.388796018436551">
        <ele>47.240000000000002</ele>
        <time>2024-09-13T12:52:10Z</time>
      </trkpt>
      <trkpt lat="53.566738972440362" lon="11.387491961941123">
        <ele>44.359999999999999</ele>
        <time>2024-09-13T12:52:17Z</time>
      </trkpt>
      <trkpt lat="53.566697984933853" lon="11.387391965836287">
        <ele>43.880000000000003</ele>
        <time>2024-09-13T12:52:18Z</time>
      </trkpt>
      <trkpt lat="53.566667977720499" lon="11.387318037450314">
        <ele>43.880000000000003</ele>
        <time>2024-09-13T12:52:19Z</time>
      </trkpt>
      <trkpt lat="53.566550966352224" lon="11.387244025245309">
        <ele>43.399999999999999</ele>
        <time>2024-09-13T12:52:20Z</time>
      </trkpt>
      <trkpt lat="53.566492041572928" lon="11.387306973338127">
        <ele>43.399999999999999</ele>
        <time>2024-09-13T12:52:21Z</time>
      </trkpt>
      <trkpt lat="53.566421968862414" lon="11.387382997199893">
        <ele>42.920000000000002</ele>
        <time>2024-09-13T12:52:22Z</time>
      </trkpt>
      <trkpt lat="53.566342005506158" lon="11.387468995526433">
        <ele>42.439999999999998</ele>
        <time>2024-09-13T12:52:23Z</time>
      </trkpt>
      <trkpt lat="53.565666005015373" lon="11.388208027929068">
        <ele>38.109999999999999</ele>
        <time>2024-09-13T12:52:30Z</time>
      </trkpt>
      <trkpt lat="53.565505994483829" lon="11.388392010703683">
        <ele>37.149999999999999</ele>
        <time>2024-09-13T12:52:32Z</time>
      </trkpt>
      <trkpt lat="53.56542301364243" lon="11.388481026515365">
        <ele>36.670000000000002</ele>
        <time>2024-09-13T12:52:33Z</time>
      </trkpt>
      <trkpt lat="53.564702002331614" lon="11.389260040596128">
        <ele>34.740000000000002</ele>
        <time>2024-09-13T12:52:43Z</time>
      </trkpt>
      <trkpt lat="53.56464902870357" lon="11.389319971203804">
        <ele>34.259999999999998</ele>
        <time>2024-09-13T12:52:44Z</time>
      </trkpt>
      <trkpt lat="53.564680041745305" lon="11.389432037249207">
        <ele>34.259999999999998</ele>
        <time>2024-09-13T12:52:45Z</time>
      </trkpt>
      <trkpt lat="53.564680041745305" lon="11.389490040019155">
        <ele>34.740000000000002</ele>
        <time>2024-09-13T12:52:46Z</time>
      </trkpt>
      <trkpt lat="53.564680041745305" lon="11.389518035575747">
        <ele>35.229999999999997</ele>
        <time>2024-09-13T12:52:47Z</time>
      </trkpt>
      <trkpt lat="53.564680041745305" lon="11.389518035575747">
        <ele>35.710000000000001</ele>
        <time>2024-09-13T12:52:48Z</time>
      </trkpt>
      <trkpt lat="53.564588008448482" lon="11.389748034998775">
        <ele>36.189999999999998</ele>
        <time>2024-09-13T12:52:49Z</time>
      </trkpt>
      <trkpt lat="53.5646060295403" lon="11.389800002798438">
        <ele>36.670000000000002</ele>
        <time>2024-09-13T12:52:50Z</time>
      </trkpt>
      <trkpt lat="53.564624972641468" lon="11.389851970598102">
        <ele>37.149999999999999</ele>
        <time>2024-09-13T12:52:51Z</time>
      </trkpt>
      <trkpt lat="53.564641987904906" lon="11.389901004731655">
        <ele>37.149999999999999</ele>
        <time>2024-09-13T12:52:52Z</time>
      </trkpt>
      <trkpt lat="53.564679035916924" lon="11.390004018321633">
        <ele>38.109999999999999</ele>
        <time>2024-09-13T12:53:00Z</time>
      </trkpt>
      <trkpt lat="53.564850026741624" lon="11.389878960326314">
        <ele>55.409999999999997</ele>
        <time>2024-09-13T13:02:18Z</time>
      </trkpt>
      <trkpt lat="53.564809961244464" lon="11.389947021380067">
        <ele>59.259999999999998</ele>
        <time>2024-09-13T13:02:38Z</time>
      </trkpt>
      <trkpt lat="53.564685992896557" lon="11.390022039413452">
        <ele>56.369999999999997</ele>
        <time>2024-09-13T13:02:46Z</time>
      </trkpt>
      <trkpt lat="53.564680041745305" lon="11.389518035575747">
        <ele>54.93</ele>
        <time>2024-09-13T13:02:56Z</time>
      </trkpt>
      <trkpt lat="53.564680041745305" lon="11.389518035575747">
        <ele>53.969999999999999</ele>
        <time>2024-09-13T13:03:07Z</time>
      </trkpt>
      <trkpt lat="53.564680041745305" lon="11.389518035575747">
        <ele>56.369999999999997</ele>
        <time>2024-09-13T13:03:53Z</time>
      </trkpt>
      <trkpt lat="53.564686998724937" lon="11.389377973973751">
        <ele>55.409999999999997</ele>
        <time>2024-09-13T13:04:04Z</time>
      </trkpt>
      <trkpt lat="53.564698984846473" lon="11.389278983697295">
        <ele>55.890000000000001</ele>
        <time>2024-09-13T13:04:05Z</time>
      </trkpt>
      <trkpt lat="53.564771991223097" lon="11.38918099924922">
        <ele>55.409999999999997</ele>
        <time>2024-09-13T13:04:06Z</time>
      </trkpt>
      <trkpt lat="53.564844997599721" lon="11.389099024236202">
        <ele>55.409999999999997</ele>
        <time>2024-09-13T13:04:07Z</time>
      </trkpt>
      <trkpt lat="53.564934013411403" lon="11.389002967625856">
        <ele>54.93</ele>
        <time>2024-09-13T13:04:08Z</time>
      </trkpt>
      <trkpt lat="53.565026968717575" lon="11.38890297152102">
        <ele>55.409999999999997</ele>
        <time>2024-09-13T13:04:09Z</time>
      </trkpt>
      <trkpt lat="53.565830960869789" lon="11.388033013790846">
        <ele>54.93</ele>
        <time>2024-09-13T13:04:18Z</time>
      </trkpt>
      <trkpt lat="53.566422974690795" lon="11.387381991371512">
        <ele>54.450000000000003</ele>
        <time>2024-09-13T13:04:26Z</time>
      </trkpt>
      <trkpt lat="53.566578961908817" lon="11.387385008856654">
        <ele>54.450000000000003</ele>
        <time>2024-09-13T13:04:28Z</time>
      </trkpt>
      <trkpt lat="53.566666971892118" lon="11.387315019965172">
        <ele>54.450000000000003</ele>
        <time>2024-09-13T13:04:29Z</time>
      </trkpt>
      <trkpt lat="53.566703014075756" lon="11.387403029948473">
        <ele>54.450000000000003</ele>
        <time>2024-09-13T13:04:30Z</time>
      </trkpt>
      <trkpt lat="53.566750036552548" lon="11.387520041316748">
        <ele>54.450000000000003</ele>
        <time>2024-09-13T13:04:31Z</time>
      </trkpt>
      <trkpt lat="53.566804016008973" lon="11.387652978301048">
        <ele>54.450000000000003</ele>
        <time>2024-09-13T13:04:32Z</time>
      </trkpt>
      <trkpt lat="53.566863024607301" lon="11.387803014367819">
        <ele>54.450000000000003</ele>
        <time>2024-09-13T13:04:33Z</time>
      </trkpt>
      <trkpt lat="53.567388989031315" lon="11.389188040047884">
        <ele>54.450000000000003</ele>
        <time>2024-09-13T13:04:42Z</time>
      </trkpt>
      <trkpt lat="53.567426959052682" lon="11.389283007010818">
        <ele>54.450000000000003</ele>
        <time>2024-09-13T13:04:43Z</time>
      </trkpt>
      <trkpt lat="53.567515974864364" lon="11.389340003952384">
        <ele>54.450000000000003</ele>
        <time>2024-09-13T13:04:44Z</time>
      </trkpt>
      <trkpt lat="53.567567020654678" lon="11.389284012839198">
        <ele>54.93</ele>
        <time>2024-09-13T13:04:45Z</time>
      </trkpt>
      <trkpt lat="53.567628962919116" lon="11.389217041432858">
        <ele>54.93</ele>
        <time>2024-09-13T13:04:46Z</time>
      </trkpt>
      <trkpt lat="53.56770096346736" lon="11.389140011742711">
        <ele>54.93</ele>
        <time>2024-09-13T13:04:47Z</time>
      </trkpt>
      <trkpt lat="53.567782016471028" lon="11.38905300758779">
        <ele>55.409999999999997</ele>
        <time>2024-09-13T13:04:48Z</time>
      </trkpt>
      <trkpt lat="53.568476038053632" lon="11.388301989063621">
        <ele>54.450000000000003</ele>
        <time>2024-09-13T13:04:56Z</time>
      </trkpt>
      <trkpt lat="53.568532029166818" lon="11.388243986293674">
        <ele>54.450000000000003</ele>
        <time>2024-09-13T13:04:57Z</time>
      </trkpt>
      <trkpt lat="53.568648034706712" lon="11.388277010992169">
        <ele>54.450000000000003</ele>
        <time>2024-09-13T13:04:58Z</time>
      </trkpt>
      <trkpt lat="53.568681981414557" lon="11.388371977955103">
        <ele>53.969999999999999</ele>
        <time>2024-09-13T13:04:59Z</time>
      </trkpt>
      <trkpt lat="53.568726992234588" lon="11.388495024293661">
        <ele>53.969999999999999</ele>
        <time>2024-09-13T13:05:00Z</time>
      </trkpt>
      <trkpt lat="53.568778038024902" lon="11.388635002076626">
        <ele>53.969999999999999</ele>
        <time>2024-09-13T13:05:01Z</time>
      </trkpt>
      <trkpt lat="53.569307019934058" lon="11.390063026919961">
        <ele>54.450000000000003</ele>
        <time>2024-09-13T13:05:11Z</time>
      </trkpt>
      <trkpt lat="53.569456972181797" lon="11.39046804048121">
        <ele>53.009999999999998</ele>
        <time>2024-09-13T13:05:18Z</time>
      </trkpt>
      <trkpt lat="53.569416990503669" lon="11.390625033527613">
        <ele>52.530000000000001</ele>
        <time>2024-09-13T13:05:31Z</time>
      </trkpt>
      <trkpt lat="53.569373991340399" lon="11.390671972185373">
        <ele>52.530000000000001</ele>
        <time>2024-09-13T13:05:32Z</time>
      </trkpt>
      <trkpt lat="53.56931297108531" lon="11.390738021582365">
        <ele>52.530000000000001</ele>
        <time>2024-09-13T13:05:33Z</time>
      </trkpt>
      <trkpt lat="53.569240970537066" lon="11.390816979110241">
        <ele>52.530000000000001</ele>
        <time>2024-09-13T13:05:34Z</time>
      </trkpt>
      <trkpt lat="53.569163018837571" lon="11.390902977436781">
        <ele>52.049999999999997</ele>
        <time>2024-09-13T13:05:35Z</time>
      </trkpt>
      <trkpt lat="53.568949028849602" lon="11.39113700017333">
        <ele>52.049999999999997</ele>
        <time>2024-09-13T13:05:38Z</time>
      </trkpt>
      <trkpt lat="53.568898988887668" lon="11.391191985458136">
        <ele>52.049999999999997</ele>
        <time>2024-09-13T13:05:39Z</time>
      </trkpt>
      <trkpt lat="53.568870993331075" lon="11.391408992931247">
        <ele>52.049999999999997</ele>
        <time>2024-09-13T13:05:40Z</time>
      </trkpt>
      <trkpt lat="53.568912986665964" lon="11.391518963500857">
        <ele>52.049999999999997</ele>
        <time>2024-09-13T13:05:41Z</time>
      </trkpt>
      <trkpt lat="53.568962020799518" lon="11.391650978475809">
        <ele>52.530000000000001</ele>
        <time>2024-09-13T13:05:42Z</time>
      </trkpt>
      <trkpt lat="53.569020023569465" lon="11.391803026199341">
        <ele>52.530000000000001</ele>
        <time>2024-09-13T13:05:43Z</time>
      </trkpt>
      <trkpt lat="53.569812029600143" lon="11.393904034048319">
        <ele>53.009999999999998</ele>
        <time>2024-09-13T13:05:54Z</time>
      </trkpt>
      <trkpt lat="53.570608980953693" lon="11.395727014169097">
        <ele>54.450000000000003</ele>
        <time>2024-09-13T13:06:04Z</time>
      </trkpt>
      <trkpt lat="53.571769958361983" lon="11.397236008197069">
        <ele>54.450000000000003</ele>
        <time>2024-09-13T13:06:15Z</time>
      </trkpt>
      <trkpt lat="53.573216004297137" lon="11.398721029981971">
        <ele>54.450000000000003</ele>
        <time>2024-09-13T13:06:27Z</time>
      </trkpt>
      <trkpt lat="53.573559997603297" lon="11.399048008024693">
        <ele>55.890000000000001</ele>
        <time>2024-09-13T13:06:30Z</time>
      </trkpt>
      <trkpt lat="53.573670974001288" lon="11.399152027443051">
        <ele>56.369999999999997</ele>
        <time>2024-09-13T13:06:31Z</time>
      </trkpt>
      <trkpt lat="53.5737360175699" lon="11.399246994405985">
        <ele>56.369999999999997</ele>
        <time>2024-09-13T13:06:32Z</time>
      </trkpt>
      <trkpt lat="53.573784967884421" lon="11.399318994954228">
        <ele>56.369999999999997</ele>
        <time>2024-09-13T13:06:33Z</time>
      </trkpt>
      <trkpt lat="53.573815980926156" lon="11.399362999945879">
        <ele>56.859999999999999</ele>
        <time>2024-09-13T13:06:34Z</time>
      </trkpt>
      <trkpt lat="53.573834002017975" lon="11.399389989674091">
        <ele>56.859999999999999</ele>
        <time>2024-09-13T13:06:35Z</time>
      </trkpt>
      <trkpt lat="53.573834002017975" lon="11.399389989674091">
        <ele>56.859999999999999</ele>
        <time>2024-09-13T13:06:36Z</time>
      </trkpt>
      <trkpt lat="53.573890998959541" lon="11.399471964687109">
        <ele>57.340000000000003</ele>
        <time>2024-09-13T13:06:43Z</time>
      </trkpt>
      <trkpt lat="53.573927041143179" lon="11.399477999657393">
        <ele>57.340000000000003</ele>
        <time>2024-09-13T13:06:44Z</time>
      </trkpt>
      <trkpt lat="53.573988983407617" lon="11.399423014372587">
        <ele>57.340000000000003</ele>
        <time>2024-09-13T13:06:45Z</time>
      </trkpt>
      <trkpt lat="53.57406098395586" lon="11.399358976632357">
        <ele>57.82</ele>
        <time>2024-09-13T13:06:46Z</time>
      </trkpt>
      <trkpt lat="53.574133990332484" lon="11.3992790132761">
        <ele>57.82</ele>
        <time>2024-09-13T13:06:47Z</time>
      </trkpt>
      <trkpt lat="53.574822982773185" lon="11.398522965610027">
        <ele>59.740000000000002</ele>
        <time>2024-09-13T13:06:54Z</time>
      </trkpt>
      <trkpt lat="53.574886014685035" lon="11.398387011140585">
        <ele>60.219999999999999</ele>
        <time>2024-09-13T13:06:55Z</time>
      </trkpt>
      <trkpt lat="53.574924990534782" lon="11.398215014487505">
        <ele>60.219999999999999</ele>
        <time>2024-09-13T13:06:56Z</time>
      </trkpt>
      <trkpt lat="53.57496103271842" lon="11.39805399812758">
        <ele>60.219999999999999</ele>
        <time>2024-09-13T13:06:57Z</time>
      </trkpt>
      <trkpt lat="53.574985004961491" lon="11.397916032001376">
        <ele>60.219999999999999</ele>
        <time>2024-09-13T13:06:58Z</time>
      </trkpt>
      <trkpt lat="53.575009983032942" lon="11.397660970687866">
        <ele>60.219999999999999</ele>
        <time>2024-09-13T13:07:00Z</time>
      </trkpt>
      <trkpt lat="53.575048958882689" lon="11.397394007071853">
        <ele>60.219999999999999</ele>
        <time>2024-09-13T13:07:06Z</time>
      </trkpt>
      <trkpt lat="53.575048958882689" lon="11.397394007071853">
        <ele>59.740000000000002</ele>
        <time>2024-09-13T13:07:48Z</time>
      </trkpt>
      <trkpt lat="53.575079971924424" lon="11.397244976833463">
        <ele>59.740000000000002</ele>
        <time>2024-09-13T13:07:55Z</time>
      </trkpt>
      <trkpt lat="53.575254986062646" lon="11.396825965493917">
        <ele>57.82</ele>
        <time>2024-09-13T13:08:02Z</time>
      </trkpt>
      <trkpt lat="53.575293039903045" lon="11.396840969100595">
        <ele>57.340000000000003</ele>
        <time>2024-09-13T13:08:03Z</time>
      </trkpt>
      <trkpt lat="53.575359005481005" lon="11.396868964657187">
        <ele>57.340000000000003</ele>
        <time>2024-09-13T13:08:04Z</time>
      </trkpt>
      <trkpt lat="53.575442992150784" lon="11.396904001012444">
        <ele>57.340000000000003</ele>
        <time>2024-09-13T13:08:05Z</time>
      </trkpt>
      <trkpt lat="53.575543994084001" lon="11.396945994347334">
        <ele>56.859999999999999</ele>
        <time>2024-09-13T13:08:06Z</time>
      </trkpt>
      <trkpt lat="53.576635988429189" lon="11.397398030385375">
        <ele>54.93</ele>
        <time>2024-09-13T13:08:14Z</time>
      </trkpt>
      <trkpt lat="53.578603975474834" lon="11.398213002830744">
        <ele>52.530000000000001</ele>
        <time>2024-09-13T13:08:26Z</time>
      </trkpt>
      <trkpt lat="53.580540027469397" lon="11.399009032174945">
        <ele>51.57</ele>
        <time>2024-09-13T13:08:38Z</time>
      </trkpt>
      <trkpt lat="53.582585966214538" lon="11.399748986586928">
        <ele>48.200000000000003</ele>
        <time>2024-09-13T13:08:50Z</time>
      </trkpt>
      <trkpt lat="53.584663001820445" lon="11.400305964052677">
        <ele>49.649999999999999</ele>
        <time>2024-09-13T13:09:02Z</time>
      </trkpt>
      <trkpt lat="53.585522985085845" lon="11.400492964312434">
        <ele>46.759999999999998</ele>
        <time>2024-09-13T13:09:09Z</time>
      </trkpt>
      <trkpt lat="53.586722016334534" lon="11.400827988982201">
        <ele>42.920000000000002</ele>
        <time>2024-09-13T13:09:17Z</time>
      </trkpt>
      <trkpt lat="53.588190022855997" lon="11.401744969189167">
        <ele>42.920000000000002</ele>
        <time>2024-09-13T13:09:26Z</time>
      </trkpt>
      <trkpt lat="53.589635984972119" lon="11.402891026809812">
        <ele>44.840000000000003</ele>
        <time>2024-09-13T13:09:36Z</time>
      </trkpt>
      <trkpt lat="53.589952988550067" lon="11.403181962668896">
        <ele>46.280000000000001</ele>
        <time>2024-09-13T13:09:42Z</time>
      </trkpt>
      <trkpt lat="53.589974027127028" lon="11.403201995417476">
        <ele>47.719999999999999</ele>
        <time>2024-09-13T13:09:54Z</time>
      </trkpt>
      <trkpt lat="53.590258006006479" lon="11.403465019538999">
        <ele>48.200000000000003</ele>
        <time>2024-09-13T13:10:08Z</time>
      </trkpt>
      <trkpt lat="53.591352012008429" lon="11.404537986963987">
        <ele>50.130000000000003</ele>
        <time>2024-09-13T13:10:18Z</time>
      </trkpt>
      <trkpt lat="53.592293970286846" lon="11.404916010797024">
        <ele>51.57</ele>
        <time>2024-09-13T13:10:26Z</time>
      </trkpt>
      <trkpt lat="53.592376029118896" lon="11.405011983588338">
        <ele>52.049999999999997</ele>
        <time>2024-09-13T13:10:27Z</time>
      </trkpt>
      <trkpt lat="53.592446018010378" lon="11.405095970258117">
        <ele>51.57</ele>
        <time>2024-09-13T13:10:28Z</time>
      </trkpt>
      <trkpt lat="53.59249597415328" lon="11.405265033245087">
        <ele>51.57</ele>
        <time>2024-09-13T13:10:29Z</time>
      </trkpt>
      <trkpt lat="53.59253796748817" lon="11.405407022684813">
        <ele>51.090000000000003</ele>
        <time>2024-09-13T13:10:30Z</time>
      </trkpt>
      <trkpt lat="53.592553976923227" lon="11.405580025166273">
        <ele>50.609999999999999</ele>
        <time>2024-09-13T13:10:31Z</time>
      </trkpt>
      <trkpt lat="53.592553976923227" lon="11.405778005719185">
        <ele>50.130000000000003</ele>
        <time>2024-09-13T13:10:32Z</time>
      </trkpt>
      <trkpt lat="53.592611979693174" lon="11.407431000843644">
        <ele>49.159999999999997</ele>
        <time>2024-09-13T13:10:39Z</time>
      </trkpt>
      <trkpt lat="53.593021016567945" lon="11.409766031429172">
        <ele>49.649999999999999</ele>
        <time>2024-09-13T13:10:47Z</time>
      </trkpt>
      <trkpt lat="53.593570031225681" lon="11.413208981975913">
        <ele>51.57</ele>
        <time>2024-09-13T13:10:58Z</time>
      </trkpt>
      <trkpt lat="53.594114016741514" lon="11.418075012043118">
        <ele>57.340000000000003</ele>
        <time>2024-09-13T13:11:14Z</time>
      </trkpt>
      <trkpt lat="53.594660013914108" lon="11.42113097012043">
        <ele>62.140000000000001</ele>
        <time>2024-09-13T13:11:24Z</time>
      </trkpt>
      <trkpt lat="53.595263008028269" lon="11.422880021855235">
        <ele>67.430000000000007</ele>
        <time>2024-09-13T13:11:31Z</time>
      </trkpt>
      <trkpt lat="53.596005979925394" lon="11.425363998860121">
        <ele>70.790000000000006</ele>
        <time>2024-09-13T13:11:43Z</time>
      </trkpt>
      <trkpt lat="53.596376040950418" lon="11.42680199816823">
        <ele>70.790000000000006</ele>
        <time>2024-09-13T13:11:51Z</time>
      </trkpt>
      <trkpt lat="53.596485005691648" lon="11.427237018942833">
        <ele>69.829999999999998</ele>
        <time>2024-09-13T13:11:58Z</time>
      </trkpt>
      <trkpt lat="53.596485005691648" lon="11.427237018942833">
        <ele>69.349999999999994</ele>
        <time>2024-09-13T13:12:17Z</time>
      </trkpt>
      <trkpt lat="53.596552982926369" lon="11.427508005872369">
        <ele>69.349999999999994</ele>
        <time>2024-09-13T13:12:47Z</time>
      </trkpt>
      <trkpt lat="53.596581984311342" lon="11.427626023069024">
        <ele>68.870000000000005</ele>
        <time>2024-09-13T13:12:48Z</time>
      </trkpt>
      <trkpt lat="53.596607968211174" lon="11.427740016952157">
        <ele>68.870000000000005</ele>
        <time>2024-09-13T13:12:49Z</time>
      </trkpt>
      <trkpt lat="53.596741994842887" lon="11.427800031378865">
        <ele>68.390000000000001</ele>
        <time>2024-09-13T13:12:50Z</time>
      </trkpt>
      <trkpt lat="53.596819024533033" lon="11.427771029993892">
        <ele>68.390000000000001</ele>
        <time>2024-09-13T13:12:51Z</time>
      </trkpt>
      <trkpt lat="53.596913991495967" lon="11.427736999467015">
        <ele>67.909999999999997</ele>
        <time>2024-09-13T13:12:52Z</time>
      </trkpt>
      <trkpt lat="53.597019016742706" lon="11.427699029445648">
        <ele>67.430000000000007</ele>
        <time>2024-09-13T13:12:53Z</time>
      </trkpt>
      <trkpt lat="53.597136028110981" lon="11.427657036110759">
        <ele>66.950000000000003</ele>
        <time>2024-09-13T13:12:54Z</time>
      </trkpt>
      <trkpt lat="53.59818996861577" lon="11.427278006449342">
        <ele>63.579999999999998</ele>
        <time>2024-09-13T13:13:02Z</time>
      </trkpt>
      <trkpt lat="53.599808011204004" lon="11.426693033427">
        <ele>59.740000000000002</ele>
        <time>2024-09-13T13:13:15Z</time>
      </trkpt>
      <trkpt lat="53.601299989968538" lon="11.426149969920516">
        <ele>57.340000000000003</ele>
        <time>2024-09-13T13:13:27Z</time>
      </trkpt>
      <trkpt lat="53.603077037259936" lon="11.425498025491834">
        <ele>56.859999999999999</ele>
        <time>2024-09-13T13:13:41Z</time>
      </trkpt>
      <trkpt lat="53.604319989681244" lon="11.425027968361974">
        <ele>53.490000000000002</ele>
        <time>2024-09-13T13:13:51Z</time>
      </trkpt>
      <trkpt lat="53.605559002608061" lon="11.424624966457486">
        <ele>50.130000000000003</ele>
        <time>2024-09-13T13:14:01Z</time>
      </trkpt>
      <trkpt lat="53.607208980247378" lon="11.424495968967676">
        <ele>49.159999999999997</ele>
        <time>2024-09-13T13:14:14Z</time>
      </trkpt>
      <trkpt lat="53.608691990375519" lon="11.424297988414764">
        <ele>49.159999999999997</ele>
        <time>2024-09-13T13:14:26Z</time>
      </trkpt>
      <trkpt lat="53.608824005350471" lon="11.424238979816437">
        <ele>48.68</ele>
        <time>2024-09-13T13:14:27Z</time>
      </trkpt>
      <trkpt lat="53.608963983133435" lon="11.424177037551999">
        <ele>48.68</ele>
        <time>2024-09-13T13:14:28Z</time>
      </trkpt>
      <trkpt lat="53.609118964523077" lon="11.424107970669866">
        <ele>48.68</ele>
        <time>2024-09-13T13:14:29Z</time>
      </trkpt>
      <trkpt lat="53.609243016690016" lon="11.423976961523294">
        <ele>48.68</ele>
        <time>2024-09-13T13:14:30Z</time>
      </trkpt>
      <trkpt lat="53.609376037493348" lon="11.423835977911949">
        <ele>48.200000000000003</ele>
        <time>2024-09-13T13:14:31Z</time>
      </trkpt>
      <trkpt lat="53.609508974477649" lon="11.423694994300604">
        <ele>48.200000000000003</ele>
        <time>2024-09-13T13:14:32Z</time>
      </trkpt>
      <trkpt lat="53.609629003331065" lon="11.423521991819143">
        <ele>47.719999999999999</ele>
        <time>2024-09-13T13:14:33Z</time>
      </trkpt>
      <trkpt lat="53.61086399294436" lon="11.421389970928431">
        <ele>42.920000000000002</ele>
        <time>2024-09-13T13:14:45Z</time>
      </trkpt>
      <trkpt lat="53.611930003389716" lon="11.41951602883637">
        <ele>39.549999999999997</ele>
        <time>2024-09-13T13:14:57Z</time>
      </trkpt>
      <trkpt lat="53.612509025260806" lon="11.41850701533258">
        <ele>39.549999999999997</ele>
        <time>2024-09-13T13:15:04Z</time>
      </trkpt>
      <trkpt lat="53.612616984173656" lon="11.41850701533258">
        <ele>39.549999999999997</ele>
        <time>2024-09-13T13:15:05Z</time>
      </trkpt>
      <trkpt lat="53.612678004428744" lon="11.41850701533258">
        <ele>40.030000000000001</ele>
        <time>2024-09-13T13:15:06Z</time>
      </trkpt>
      <trkpt lat="53.612744975835085" lon="11.41850701533258">
        <ele>40.509999999999998</ele>
        <time>2024-09-13T13:15:07Z</time>
      </trkpt>
      <trkpt lat="53.612773977220058" lon="11.418525036424398">
        <ele>40.509999999999998</ele>
        <time>2024-09-13T13:15:08Z</time>
      </trkpt>
      <trkpt lat="53.612838014960289" lon="11.418565018102527">
        <ele>40.509999999999998</ele>
        <time>2024-09-13T13:15:09Z</time>
      </trkpt>
      <trkpt lat="53.612909009680152" lon="11.418609023094177">
        <ele>40.509999999999998</ele>
        <time>2024-09-13T13:15:10Z</time>
      </trkpt>
      <trkpt lat="53.612982016056776" lon="11.41863601282239">
        <ele>40.509999999999998</ele>
        <time>2024-09-13T13:15:11Z</time>
      </trkpt>
      <trkpt lat="53.613056028261781" lon="11.41863601282239">
        <ele>40.509999999999998</ele>
        <time>2024-09-13T13:15:12Z</time>
      </trkpt>
      <trkpt lat="53.613158036023378" lon="11.418570969253778">
        <ele>40.030000000000001</ele>
        <time>2024-09-13T13:15:13Z</time>
      </trkpt>
      <trkpt lat="53.613165998831391" lon="11.418454963713884">
        <ele>40.030000000000001</ele>
        <time>2024-09-13T13:15:14Z</time>
      </trkpt>
      <trkpt lat="53.613176979124546" lon="11.418308028951287">
        <ele>40.030000000000001</ele>
        <time>2024-09-13T13:15:15Z</time>
      </trkpt>
      <trkpt lat="53.613189971074462" lon="11.41814399510622">
        <ele>40.030000000000001</ele>
        <time>2024-09-13T13:15:16Z</time>
      </trkpt>
      <trkpt lat="53.613211009651423" lon="11.417974010109901">
        <ele>39.549999999999997</ele>
        <time>2024-09-13T13:15:17Z</time>
      </trkpt>
      <trkpt lat="53.613243028521538" lon="11.417807964608073">
        <ele>39.549999999999997</ele>
        <time>2024-09-13T13:15:18Z</time>
      </trkpt>
      <trkpt lat="53.613286027684808" lon="11.417652983218431">
        <ele>40.030000000000001</ele>
        <time>2024-09-13T13:15:19Z</time>
      </trkpt>
      <trkpt lat="53.613344030454755" lon="11.417517028748989">
        <ele>40.030000000000001</ele>
        <time>2024-09-13T13:15:20Z</time>
      </trkpt>
      <trkpt lat="53.613408990204334" lon="11.417387025430799">
        <ele>40.509999999999998</ele>
        <time>2024-09-13T13:15:21Z</time>
      </trkpt>
      <trkpt lat="53.613489037379622" lon="11.41728401184082">
        <ele>40.509999999999998</ele>
        <time>2024-09-13T13:15:22Z</time>
      </trkpt>
      <trkpt lat="53.613573024049401" lon="11.417173035442829">
        <ele>40.509999999999998</ele>
        <time>2024-09-13T13:15:23Z</time>
      </trkpt>
      <trkpt lat="53.613658016547561" lon="11.417054012417793">
        <ele>40.509999999999998</ele>
        <time>2024-09-13T13:15:24Z</time>
      </trkpt>
      <trkpt lat="53.613748038187623" lon="11.416929960250854">
        <ele>40.509999999999998</ele>
        <time>2024-09-13T13:15:25Z</time>
      </trkpt>
      <trkpt lat="53.614139975979924" lon="11.416319003328681">
        <ele>41.469999999999999</ele>
        <time>2024-09-13T13:15:30Z</time>
      </trkpt>
      <trkpt lat="53.614249024540186" lon="11.416272986680269">
        <ele>41.950000000000003</ele>
        <time>2024-09-13T13:15:31Z</time>
      </trkpt>
      <trkpt lat="53.614582037553191" lon="11.41612596809864">
        <ele>43.399999999999999</ele>
        <time>2024-09-13T13:15:34Z</time>
      </trkpt>
      <trkpt lat="53.614700976759195" lon="11.416052961722016">
        <ele>43.880000000000003</ele>
        <time>2024-09-13T13:15:35Z</time>
      </trkpt>
      <trkpt lat="53.614827040582895" lon="11.415975010022521">
        <ele>44.359999999999999</ele>
        <time>2024-09-13T13:15:36Z</time>
      </trkpt>
      <trkpt lat="53.615742009133101" lon="11.415456002578139">
        <ele>47.240000000000002</ele>
        <time>2024-09-13T13:15:44Z</time>
      </trkpt>
      <trkpt lat="53.616921007633209" lon="11.414312040433288">
        <ele>51.57</ele>
        <time>2024-09-13T13:15:56Z</time>
      </trkpt>
      <trkpt lat="53.617388969287276" lon="11.413747016340494">
        <ele>52.530000000000001</ele>
        <time>2024-09-13T13:16:04Z</time>
      </trkpt>
      <trkpt lat="53.617473961785436" lon="11.413640985265374">
        <ele>52.530000000000001</ele>
        <time>2024-09-13T13:16:11Z</time>
      </trkpt>
      <trkpt lat="53.617645958438516" lon="11.41343797557056">
        <ele>52.530000000000001</ele>
        <time>2024-09-13T13:16:24Z</time>
      </trkpt>
      <trkpt lat="53.618332017213106" lon="11.412544967606664">
        <ele>52.530000000000001</ele>
        <time>2024-09-13T13:16:33Z</time>
      </trkpt>
      <trkpt lat="53.619606988504529" lon="11.410821983590722">
        <ele>49.159999999999997</ele>
        <time>2024-09-13T13:16:47Z</time>
      </trkpt>
      <trkpt lat="53.620218029245734" lon="11.410047998651862">
        <ele>47.240000000000002</ele>
        <time>2024-09-13T13:16:55Z</time>
      </trkpt>
      <trkpt lat="53.620522040873766" lon="11.409626975655556">
        <ele>45.32</ele>
        <time>2024-09-13T13:17:03Z</time>
      </trkpt>
      <trkpt lat="53.620522040873766" lon="11.409626975655556">
        <ele>44.840000000000003</ele>
        <time>2024-09-13T13:17:13Z</time>
      </trkpt>
      <trkpt lat="53.620522040873766" lon="11.409626975655556">
        <ele>44.840000000000003</ele>
        <time>2024-09-13T13:18:02Z</time>
      </trkpt>
      <trkpt lat="53.620708035305142" lon="11.409385995939374">
        <ele>49.159999999999997</ele>
        <time>2024-09-13T13:18:19Z</time>
      </trkpt>
      <trkpt lat="53.620770983397961" lon="11.409537037834525">
        <ele>48.68</ele>
        <time>2024-09-13T13:18:20Z</time>
      </trkpt>
      <trkpt lat="53.620797973126173" lon="11.409596968442202">
        <ele>48.68</ele>
        <time>2024-09-13T13:18:21Z</time>
      </trkpt>
      <trkpt lat="53.620832003653049" lon="11.409675003960729">
        <ele>48.68</ele>
        <time>2024-09-13T13:18:22Z</time>
      </trkpt>
      <trkpt lat="53.62085597589612" lon="11.409730995073915">
        <ele>49.159999999999997</ele>
        <time>2024-09-13T13:18:23Z</time>
      </trkpt>
      <trkpt lat="53.621029984205961" lon="11.409970968961716">
        <ele>49.159999999999997</ele>
        <time>2024-09-13T13:18:26Z</time>
      </trkpt>
      <trkpt lat="53.621080024167895" lon="11.410069959238172">
        <ele>49.649999999999999</ele>
        <time>2024-09-13T13:18:27Z</time>
      </trkpt>
      <trkpt lat="53.621131991967559" lon="11.410140031948686">
        <ele>49.649999999999999</ele>
        <time>2024-09-13T13:18:28Z</time>
      </trkpt>
      <trkpt lat="53.621191000565886" lon="11.410208009183407">
        <ele>49.649999999999999</ele>
        <time>2024-09-13T13:18:29Z</time>
      </trkpt>
      <trkpt lat="53.621251014992595" lon="11.410271041095257">
        <ele>49.649999999999999</ele>
        <time>2024-09-13T13:18:30Z</time>
      </trkpt>
      <trkpt lat="53.621323015540838" lon="11.41030297614634">
        <ele>49.649999999999999</ele>
        <time>2024-09-13T13:18:31Z</time>
      </trkpt>
      <trkpt lat="53.62139199860394" lon="11.410333989188075">
        <ele>49.649999999999999</ele>
        <time>2024-09-13T13:18:32Z</time>
      </trkpt>
      <trkpt lat="53.621460981667042" lon="11.410359973087907">
        <ele>50.130000000000003</ele>
        <time>2024-09-13T13:18:33Z</time>
      </trkpt>
      <trkpt lat="53.621534993872046" lon="11.410377994179726">
        <ele>49.649999999999999</ele>
        <time>2024-09-13T13:18:34Z</time>
      </trkpt>
      <trkpt lat="53.622161038219929" lon="11.41055996529758">
        <ele>47.719999999999999</ele>
        <time>2024-09-13T13:18:43Z</time>
      </trkpt>
      <trkpt lat="53.622334040701389" lon="11.410611011087894">
        <ele>47.240000000000002</ele>
        <time>2024-09-13T13:18:46Z</time>
      </trkpt>
      <trkpt lat="53.622558005154133" lon="11.410679994150996">
        <ele>47.240000000000002</ele>
        <time>2024-09-13T13:18:49Z</time>
      </trkpt>
      <trkpt lat="53.622921025380492" lon="11.410936983302236">
        <ele>46.759999999999998</ele>
        <time>2024-09-13T13:18:53Z</time>
      </trkpt>
      <trkpt lat="53.623649999499321" lon="11.411739969626069">
        <ele>46.280000000000001</ele>
        <time>2024-09-13T13:19:03Z</time>
      </trkpt>
      <trkpt lat="53.623786037787795" lon="11.411884976550937">
        <ele>45.799999999999997</ele>
        <time>2024-09-13T13:19:05Z</time>
      </trkpt>
      <trkpt lat="53.624359024688601" lon="11.41225797124207">
        <ele>45.799999999999997</ele>
        <time>2024-09-13T13:19:13Z</time>
      </trkpt>
      <trkpt lat="53.62497802823782" lon="11.412658961489797">
        <ele>45.799999999999997</ele>
        <time>2024-09-13T13:19:22Z</time>
      </trkpt>
      <trkpt lat="53.625154970213771" lon="11.41277396120131">
        <ele>45.32</ele>
        <time>2024-09-13T13:19:25Z</time>
      </trkpt>
      <trkpt lat="53.625263012945652" lon="11.412843028083444">
        <ele>45.32</ele>
        <time>2024-09-13T13:19:27Z</time>
      </trkpt>
      <trkpt lat="53.625426962971687" lon="11.412949981167912">
        <ele>45.32</ele>
        <time>2024-09-13T13:19:35Z</time>
      </trkpt>
      <trkpt lat="53.625635001808405" lon="11.41311502084136">
        <ele>43.880000000000003</ele>
        <time>2024-09-13T13:19:47Z</time>
      </trkpt>
      <trkpt lat="53.625681018456817" lon="11.413170006126165">
        <ele>43.399999999999999</ele>
        <time>2024-09-13T13:19:48Z</time>
      </trkpt>
      <trkpt lat="53.625734997913241" lon="11.413250975310802">
        <ele>42.920000000000002</ele>
        <time>2024-09-13T13:19:49Z</time>
      </trkpt>
      <trkpt lat="53.625794006511569" lon="11.413338985294104">
        <ele>42.439999999999998</ele>
        <time>2024-09-13T13:19:50Z</time>
      </trkpt>
      <trkpt lat="53.625855026766658" lon="11.413430012762547">
        <ele>41.950000000000003</ele>
        <time>2024-09-13T13:19:51Z</time>
      </trkpt>
      <trkpt lat="53.625980000942945" lon="11.413624975830317">
        <ele>40.990000000000002</ele>
        <time>2024-09-13T13:19:53Z</time>
      </trkpt>
      <trkpt lat="53.626095000654459" lon="11.413838965818286">
        <ele>40.030000000000001</ele>
        <time>2024-09-13T13:19:55Z</time>
      </trkpt>
      <trkpt lat="53.626147974282503" lon="11.413972992449999">
        <ele>39.549999999999997</ele>
        <time>2024-09-13T13:19:56Z</time>
      </trkpt>
      <trkpt lat="53.626263979822397" lon="11.414567017927766">
        <ele>38.590000000000003</ele>
        <time>2024-09-13T13:20:01Z</time>
      </trkpt>
      <trkpt lat="53.626263979822397" lon="11.414680005982518">
        <ele>38.590000000000003</ele>
        <time>2024-09-13T13:20:02Z</time>
      </trkpt>
      <trkpt lat="53.626263979822397" lon="11.414788970723748">
        <ele>38.590000000000003</ele>
        <time>2024-09-13T13:20:03Z</time>
      </trkpt>
      <trkpt lat="53.626216035336256" lon="11.414953004568815">
        <ele>38.109999999999999</ele>
        <time>2024-09-13T13:20:05Z</time>
      </trkpt>
      <trkpt lat="53.626153003424406" lon="11.415103040635586">
        <ele>38.109999999999999</ele>
        <time>2024-09-13T13:20:07Z</time>
      </trkpt>
      <trkpt lat="53.626117967069149" lon="11.415185015648603">
        <ele>38.109999999999999</ele>
        <time>2024-09-13T13:20:08Z</time>
      </trkpt>
      <trkpt lat="53.626083014532924" lon="11.415266990661621">
        <ele>38.109999999999999</ele>
        <time>2024-09-13T13:20:09Z</time>
      </trkpt>
      <trkpt lat="53.626050995662808" lon="11.415339997038245">
        <ele>38.109999999999999</ele>
        <time>2024-09-13T13:20:10Z</time>
      </trkpt>
      <trkpt lat="53.626035992056131" lon="11.415453990921378">
        <ele>37.630000000000003</ele>
        <time>2024-09-13T13:20:11Z</time>
      </trkpt>
      <trkpt lat="53.626048984006047" lon="11.41554300673306">
        <ele>37.630000000000003</ele>
        <time>2024-09-13T13:20:12Z</time>
      </trkpt>
      <trkpt lat="53.626071028411388" lon="11.41569597646594">
        <ele>37.149999999999999</ele>
        <time>2024-09-13T13:20:13Z</time>
      </trkpt>
      <trkpt lat="53.626085026189685" lon="11.415727995336056">
        <ele>37.149999999999999</ele>
        <time>2024-09-13T13:20:14Z</time>
      </trkpt>
      <trkpt lat="53.626113021746278" lon="11.415792033076286">
        <ele>37.149999999999999</ele>
        <time>2024-09-13T13:20:15Z</time>
      </trkpt>
      <trkpt lat="53.626137999817729" lon="11.415848024189472">
        <ele>37.149999999999999</ele>
        <time>2024-09-13T13:20:16Z</time>
      </trkpt>
      <trkpt lat="53.626155015081167" lon="11.415885994210839">
        <ele>36.670000000000002</ele>
        <time>2024-09-13T13:20:24Z</time>
      </trkpt>
      <trkpt lat="53.626249982044101" lon="11.41610199585557">
        <ele>35.710000000000001</ele>
        <time>2024-09-13T13:20:35Z</time>
      </trkpt>
      <trkpt lat="53.626346960663795" lon="11.416352028027177">
        <ele>35.710000000000001</ele>
        <time>2024-09-13T13:20:43Z</time>
      </trkpt>
      <trkpt lat="53.626560028642416" lon="11.416845973581076">
        <ele>34.259999999999998</ele>
        <time>2024-09-13T13:20:52Z</time>
      </trkpt>
      <trkpt lat="53.626720039173961" lon="11.416760981082916">
        <ele>33.780000000000001</ele>
        <time>2024-09-13T13:21:01Z</time>
      </trkpt>
      <trkpt lat="53.626720039173961" lon="11.416760981082916">
        <ele>32.82</ele>
        <time>2024-09-13T13:21:18Z</time>
      </trkpt>
      <trkpt lat="53.626720039173961" lon="11.416760981082916">
        <ele>32.82</ele>
        <time>2024-09-13T13:21:39Z</time>
      </trkpt>
      <trkpt lat="53.626974010840058" lon="11.416929960250854">
        <ele>41.469999999999999</ele>
        <time>2024-09-13T13:27:35Z</time>
      </trkpt>
      <trkpt lat="53.626843001693487" lon="11.41681001521647">
        <ele>61.659999999999997</ele>
        <time>2024-09-13T13:28:08Z</time>
      </trkpt>
      <trkpt lat="53.626790028065443" lon="11.416741032153368">
        <ele>59.259999999999998</ele>
        <time>2024-09-13T13:28:23Z</time>
      </trkpt>
      <trkpt lat="53.626792961731553" lon="11.416715970262885">
        <ele>57.82</ele>
        <time>2024-09-13T13:28:37Z</time>
      </trkpt>
      <trkpt lat="53.626921037212014" lon="11.41644699499011">
        <ele>56.369999999999997</ele>
        <time>2024-09-13T13:28:53Z</time>
      </trkpt>
      <trkpt lat="53.626878960058093" lon="11.416393015533686">
        <ele>56.859999999999999</ele>
        <time>2024-09-13T13:29:07Z</time>
      </trkpt>
    </trkseg>
  </trk>

</gpx>